<?xml version="1.0" encoding="UTF-8" standalone="no" ?>
<gpx xmlns="http://www.topografix.com/GPX/1/1" xmlns:xsi="http://www.w3.org/2001/XMLSchema-instance" xsi:schemaLocation="http://www.topografix.com/GPX/1/1 http://www.topografix.com/GPX/1/1/gpx.xsd" version="1.1" creator="VisuGPX - https://www.visugpx.com">
  <metadata>
    <name>Balade du coté d\'Ebreuil</name>
    <desc><![CDATA[En compagnie du club de Lussat]]></desc>
  </metadata>
  <trk>
    <name><![CDATA[Gorges de la Sioule]]></name>
    <desc><![CDATA[Avec Lussat 9]]></desc>
    <trkseg>
      <trkpt lat="45.84908" lon="3.17266">
        <ele>327.79998779297</ele>
        <time>2011-03-19T11:43:42.000Z</time>
      </trkpt>
      <trkpt lat="45.84908" lon="3.17266">
        <ele>327.79998779297</ele>
        <time>2011-03-19T11:43:43.000Z</time>
      </trkpt>
      <trkpt lat="45.84912" lon="3.17267">
        <ele>327.39999389648</ele>
        <time>2011-03-19T11:43:57.000Z</time>
      </trkpt>
      <trkpt lat="45.84911" lon="3.17267">
        <ele>327.20001220703</ele>
        <time>2011-03-19T11:44:07.000Z</time>
      </trkpt>
      <trkpt lat="45.84903" lon="3.17266">
        <ele>327.39999389648</ele>
        <time>2011-03-19T11:44:19.000Z</time>
      </trkpt>
      <trkpt lat="45.84894" lon="3.17259">
        <ele>327</ele>
        <time>2011-03-19T11:44:25.000Z</time>
      </trkpt>
      <trkpt lat="45.84888" lon="3.17267">
        <ele>326.79998779297</ele>
        <time>2011-03-19T11:44:31.000Z</time>
      </trkpt>
      <trkpt lat="45.84892" lon="3.1729">
        <ele>327</ele>
        <time>2011-03-19T11:44:36.000Z</time>
      </trkpt>
      <trkpt lat="45.84896" lon="3.17334">
        <ele>326.60000610352</ele>
        <time>2011-03-19T11:44:43.000Z</time>
      </trkpt>
      <trkpt lat="45.84901" lon="3.17398">
        <ele>326.60000610352</ele>
        <time>2011-03-19T11:44:52.000Z</time>
      </trkpt>
      <trkpt lat="45.84905" lon="3.1747">
        <ele>326.20001220703</ele>
        <time>2011-03-19T11:45:01.000Z</time>
      </trkpt>
      <trkpt lat="45.84909" lon="3.17564">
        <ele>326</ele>
        <time>2011-03-19T11:45:12.000Z</time>
      </trkpt>
      <trkpt lat="45.84913" lon="3.17635">
        <ele>325.79998779297</ele>
        <time>2011-03-19T11:45:20.000Z</time>
      </trkpt>
      <trkpt lat="45.84922" lon="3.17727">
        <ele>325.79998779297</ele>
        <time>2011-03-19T11:45:30.000Z</time>
      </trkpt>
      <trkpt lat="45.84926" lon="3.17802">
        <ele>325.20001220703</ele>
        <time>2011-03-19T11:45:38.000Z</time>
      </trkpt>
      <trkpt lat="45.84925" lon="3.17889">
        <ele>325</ele>
        <time>2011-03-19T11:45:47.000Z</time>
      </trkpt>
      <trkpt lat="45.84923" lon="3.17984">
        <ele>325.39999389648</ele>
        <time>2011-03-19T11:45:57.000Z</time>
      </trkpt>
      <trkpt lat="45.84925" lon="3.18039">
        <ele>324.79998779297</ele>
        <time>2011-03-19T11:46:03.000Z</time>
      </trkpt>
      <trkpt lat="45.84935" lon="3.18069">
        <ele>325</ele>
        <time>2011-03-19T11:46:07.000Z</time>
      </trkpt>
      <trkpt lat="45.84946" lon="3.18099">
        <ele>325.20001220703</ele>
        <time>2011-03-19T11:46:12.000Z</time>
      </trkpt>
      <trkpt lat="45.84943" lon="3.18105">
        <ele>325.20001220703</ele>
        <time>2011-03-19T11:46:13.000Z</time>
      </trkpt>
      <trkpt lat="45.84932" lon="3.18136">
        <ele>324.60000610352</ele>
        <time>2011-03-19T11:46:17.000Z</time>
      </trkpt>
      <trkpt lat="45.84929" lon="3.18191">
        <ele>324.20001220703</ele>
        <time>2011-03-19T11:46:23.000Z</time>
      </trkpt>
      <trkpt lat="45.84936" lon="3.18244">
        <ele>325</ele>
        <time>2011-03-19T11:46:29.000Z</time>
      </trkpt>
      <trkpt lat="45.84929" lon="3.18277">
        <ele>324.79998779297</ele>
        <time>2011-03-19T11:46:33.000Z</time>
      </trkpt>
      <trkpt lat="45.84916" lon="3.18285">
        <ele>324.60000610352</ele>
        <time>2011-03-19T11:46:35.000Z</time>
      </trkpt>
      <trkpt lat="45.84861" lon="3.1832">
        <ele>324.60000610352</ele>
        <time>2011-03-19T11:46:44.000Z</time>
      </trkpt>
      <trkpt lat="45.84849" lon="3.18331">
        <ele>324.79998779297</ele>
        <time>2011-03-19T11:46:46.000Z</time>
      </trkpt>
      <trkpt lat="45.84802" lon="3.18398">
        <ele>324.20001220703</ele>
        <time>2011-03-19T11:46:55.000Z</time>
      </trkpt>
      <trkpt lat="45.84787" lon="3.1842">
        <ele>324</ele>
        <time>2011-03-19T11:46:58.000Z</time>
      </trkpt>
      <trkpt lat="45.84758" lon="3.18441">
        <ele>324</ele>
        <time>2011-03-19T11:47:03.000Z</time>
      </trkpt>
      <trkpt lat="45.84751" lon="3.18442">
        <ele>324.20001220703</ele>
        <time>2011-03-19T11:47:04.000Z</time>
      </trkpt>
      <trkpt lat="45.84726" lon="3.18464">
        <ele>325.39999389648</ele>
        <time>2011-03-19T11:47:09.000Z</time>
      </trkpt>
      <trkpt lat="45.8473" lon="3.18482">
        <ele>325.79998779297</ele>
        <time>2011-03-19T11:47:11.000Z</time>
      </trkpt>
      <trkpt lat="45.84738" lon="3.18497">
        <ele>325.79998779297</ele>
        <time>2011-03-19T11:47:13.000Z</time>
      </trkpt>
      <trkpt lat="45.84747" lon="3.18534">
        <ele>325.20001220703</ele>
        <time>2011-03-19T11:47:17.000Z</time>
      </trkpt>
      <trkpt lat="45.84745" lon="3.18584">
        <ele>324.60000610352</ele>
        <time>2011-03-19T11:47:22.000Z</time>
      </trkpt>
      <trkpt lat="45.84729" lon="3.1865">
        <ele>324.39999389648</ele>
        <time>2011-03-19T11:47:29.000Z</time>
      </trkpt>
      <trkpt lat="45.84702" lon="3.18718">
        <ele>324.20001220703</ele>
        <time>2011-03-19T11:47:37.000Z</time>
      </trkpt>
      <trkpt lat="45.84655" lon="3.18826">
        <ele>324.39999389648</ele>
        <time>2011-03-19T11:47:50.000Z</time>
      </trkpt>
      <trkpt lat="45.84628" lon="3.18896">
        <ele>324.60000610352</ele>
        <time>2011-03-19T11:47:58.000Z</time>
      </trkpt>
      <trkpt lat="45.84616" lon="3.18964">
        <ele>324.79998779297</ele>
        <time>2011-03-19T11:48:05.000Z</time>
      </trkpt>
      <trkpt lat="45.84598" lon="3.19084">
        <ele>324</ele>
        <time>2011-03-19T11:48:17.000Z</time>
      </trkpt>
      <trkpt lat="45.84581" lon="3.19194">
        <ele>324.20001220703</ele>
        <time>2011-03-19T11:48:28.000Z</time>
      </trkpt>
      <trkpt lat="45.84577" lon="3.19266">
        <ele>324.39999389648</ele>
        <time>2011-03-19T11:48:35.000Z</time>
      </trkpt>
      <trkpt lat="45.84581" lon="3.19424">
        <ele>323.39999389648</ele>
        <time>2011-03-19T11:48:50.000Z</time>
      </trkpt>
      <trkpt lat="45.84584" lon="3.19559">
        <ele>322.79998779297</ele>
        <time>2011-03-19T11:49:03.000Z</time>
      </trkpt>
      <trkpt lat="45.84581" lon="3.19649">
        <ele>323</ele>
        <time>2011-03-19T11:49:12.000Z</time>
      </trkpt>
      <trkpt lat="45.84567" lon="3.19738">
        <ele>323.39999389648</ele>
        <time>2011-03-19T11:49:21.000Z</time>
      </trkpt>
      <trkpt lat="45.84553" lon="3.19829">
        <ele>323</ele>
        <time>2011-03-19T11:49:30.000Z</time>
      </trkpt>
      <trkpt lat="45.84536" lon="3.19947">
        <ele>323.20001220703</ele>
        <time>2011-03-19T11:49:42.000Z</time>
      </trkpt>
      <trkpt lat="45.84519" lon="3.20045">
        <ele>323</ele>
        <time>2011-03-19T11:49:52.000Z</time>
      </trkpt>
      <trkpt lat="45.84499" lon="3.20099">
        <ele>322.60000610352</ele>
        <time>2011-03-19T11:49:58.000Z</time>
      </trkpt>
      <trkpt lat="45.84465" lon="3.20179">
        <ele>323</ele>
        <time>2011-03-19T11:50:07.000Z</time>
      </trkpt>
      <trkpt lat="45.8444" lon="3.2026">
        <ele>323.79998779297</ele>
        <time>2011-03-19T11:50:16.000Z</time>
      </trkpt>
      <trkpt lat="45.84419" lon="3.20348">
        <ele>323.39999389648</ele>
        <time>2011-03-19T11:50:25.000Z</time>
      </trkpt>
      <trkpt lat="45.8439" lon="3.20467">
        <ele>324.20001220703</ele>
        <time>2011-03-19T11:50:37.000Z</time>
      </trkpt>
      <trkpt lat="45.84361" lon="3.20584">
        <ele>323.60000610352</ele>
        <time>2011-03-19T11:50:49.000Z</time>
      </trkpt>
      <trkpt lat="45.84334" lon="3.20658">
        <ele>323.39999389648</ele>
        <time>2011-03-19T11:50:57.000Z</time>
      </trkpt>
      <trkpt lat="45.84294" lon="3.20732">
        <ele>324.20001220703</ele>
        <time>2011-03-19T11:51:06.000Z</time>
      </trkpt>
      <trkpt lat="45.8425" lon="3.20815">
        <ele>324.60000610352</ele>
        <time>2011-03-19T11:51:16.000Z</time>
      </trkpt>
      <trkpt lat="45.84226" lon="3.2088">
        <ele>324.60000610352</ele>
        <time>2011-03-19T11:51:23.000Z</time>
      </trkpt>
      <trkpt lat="45.84199" lon="3.20981">
        <ele>324</ele>
        <time>2011-03-19T11:51:33.000Z</time>
      </trkpt>
      <trkpt lat="45.84171" lon="3.21091">
        <ele>322.79998779297</ele>
        <time>2011-03-19T11:51:44.000Z</time>
      </trkpt>
      <trkpt lat="45.8416" lon="3.21131">
        <ele>322.79998779297</ele>
        <time>2011-03-19T11:51:48.000Z</time>
      </trkpt>
      <trkpt lat="45.84145" lon="3.21152">
        <ele>323.20001220703</ele>
        <time>2011-03-19T11:51:51.000Z</time>
      </trkpt>
      <trkpt lat="45.84135" lon="3.21178">
        <ele>323.39999389648</ele>
        <time>2011-03-19T11:51:54.000Z</time>
      </trkpt>
      <trkpt lat="45.8414" lon="3.21197">
        <ele>323.39999389648</ele>
        <time>2011-03-19T11:51:56.000Z</time>
      </trkpt>
      <trkpt lat="45.84154" lon="3.21221">
        <ele>323.39999389648</ele>
        <time>2011-03-19T11:51:59.000Z</time>
      </trkpt>
      <trkpt lat="45.84156" lon="3.21231">
        <ele>323.39999389648</ele>
        <time>2011-03-19T11:52:00.000Z</time>
      </trkpt>
      <trkpt lat="45.84179" lon="3.21358">
        <ele>322.79998779297</ele>
        <time>2011-03-19T11:52:13.000Z</time>
      </trkpt>
      <trkpt lat="45.84196" lon="3.21453">
        <ele>323.60000610352</ele>
        <time>2011-03-19T11:52:23.000Z</time>
      </trkpt>
      <trkpt lat="45.842" lon="3.21492">
        <ele>323.79998779297</ele>
        <time>2011-03-19T11:52:27.000Z</time>
      </trkpt>
      <trkpt lat="45.84197" lon="3.21582">
        <ele>324.79998779297</ele>
        <time>2011-03-19T11:52:36.000Z</time>
      </trkpt>
      <trkpt lat="45.84189" lon="3.21707">
        <ele>326</ele>
        <time>2011-03-19T11:52:49.000Z</time>
      </trkpt>
      <trkpt lat="45.84182" lon="3.2184">
        <ele>327</ele>
        <time>2011-03-19T11:53:03.000Z</time>
      </trkpt>
      <trkpt lat="45.84175" lon="3.21973">
        <ele>328</ele>
        <time>2011-03-19T11:53:17.000Z</time>
      </trkpt>
      <trkpt lat="45.84165" lon="3.22081">
        <ele>328</ele>
        <time>2011-03-19T11:53:28.000Z</time>
      </trkpt>
      <trkpt lat="45.8415" lon="3.22137">
        <ele>327.60000610352</ele>
        <time>2011-03-19T11:53:34.000Z</time>
      </trkpt>
      <trkpt lat="45.84119" lon="3.22199">
        <ele>327.39999389648</ele>
        <time>2011-03-19T11:53:41.000Z</time>
      </trkpt>
      <trkpt lat="45.8406" lon="3.22308">
        <ele>327.79998779297</ele>
        <time>2011-03-19T11:53:53.000Z</time>
      </trkpt>
      <trkpt lat="45.84029" lon="3.22378">
        <ele>327.60000610352</ele>
        <time>2011-03-19T11:54:00.000Z</time>
      </trkpt>
      <trkpt lat="45.84016" lon="3.22431">
        <ele>327.20001220703</ele>
        <time>2011-03-19T11:54:05.000Z</time>
      </trkpt>
      <trkpt lat="45.84009" lon="3.22504">
        <ele>327.79998779297</ele>
        <time>2011-03-19T11:54:12.000Z</time>
      </trkpt>
      <trkpt lat="45.84002" lon="3.22602">
        <ele>328.60000610352</ele>
        <time>2011-03-19T11:54:22.000Z</time>
      </trkpt>
      <trkpt lat="45.83997" lon="3.2272">
        <ele>329.20001220703</ele>
        <time>2011-03-19T11:54:34.000Z</time>
      </trkpt>
      <trkpt lat="45.83997" lon="3.22835">
        <ele>328.79998779297</ele>
        <time>2011-03-19T11:54:45.000Z</time>
      </trkpt>
      <trkpt lat="45.84001" lon="3.22924">
        <ele>329</ele>
        <time>2011-03-19T11:54:54.000Z</time>
      </trkpt>
      <trkpt lat="45.8401" lon="3.23064">
        <ele>330</ele>
        <time>2011-03-19T11:55:09.000Z</time>
      </trkpt>
      <trkpt lat="45.84015" lon="3.23142">
        <ele>330.20001220703</ele>
        <time>2011-03-19T11:55:18.000Z</time>
      </trkpt>
      <trkpt lat="45.84021" lon="3.23225">
        <ele>332</ele>
        <time>2011-03-19T11:55:28.000Z</time>
      </trkpt>
      <trkpt lat="45.84027" lon="3.23321">
        <ele>333.79998779297</ele>
        <time>2011-03-19T11:55:39.000Z</time>
      </trkpt>
      <trkpt lat="45.84032" lon="3.2339">
        <ele>334.79998779297</ele>
        <time>2011-03-19T11:55:46.000Z</time>
      </trkpt>
      <trkpt lat="45.84038" lon="3.23476">
        <ele>333.79998779297</ele>
        <time>2011-03-19T11:55:54.000Z</time>
      </trkpt>
      <trkpt lat="45.84046" lon="3.23575">
        <ele>332.39999389648</ele>
        <time>2011-03-19T11:56:03.000Z</time>
      </trkpt>
      <trkpt lat="45.8406" lon="3.23687">
        <ele>332.60000610352</ele>
        <time>2011-03-19T11:56:14.000Z</time>
      </trkpt>
      <trkpt lat="45.84075" lon="3.23786">
        <ele>331.60000610352</ele>
        <time>2011-03-19T11:56:24.000Z</time>
      </trkpt>
      <trkpt lat="45.84095" lon="3.23903">
        <ele>329.79998779297</ele>
        <time>2011-03-19T11:56:36.000Z</time>
      </trkpt>
      <trkpt lat="45.84113" lon="3.24021">
        <ele>329.79998779297</ele>
        <time>2011-03-19T11:56:48.000Z</time>
      </trkpt>
      <trkpt lat="45.84116" lon="3.241">
        <ele>328.60000610352</ele>
        <time>2011-03-19T11:56:56.000Z</time>
      </trkpt>
      <trkpt lat="45.84116" lon="3.24211">
        <ele>328.39999389648</ele>
        <time>2011-03-19T11:57:07.000Z</time>
      </trkpt>
      <trkpt lat="45.84126" lon="3.24289">
        <ele>327.39999389648</ele>
        <time>2011-03-19T11:57:15.000Z</time>
      </trkpt>
      <trkpt lat="45.84146" lon="3.24384">
        <ele>327.20001220703</ele>
        <time>2011-03-19T11:57:25.000Z</time>
      </trkpt>
      <trkpt lat="45.8417" lon="3.24498">
        <ele>326.79998779297</ele>
        <time>2011-03-19T11:57:37.000Z</time>
      </trkpt>
      <trkpt lat="45.84191" lon="3.24602">
        <ele>327.39999389648</ele>
        <time>2011-03-19T11:57:48.000Z</time>
      </trkpt>
      <trkpt lat="45.84191" lon="3.24644">
        <ele>327.39999389648</ele>
        <time>2011-03-19T11:57:52.000Z</time>
      </trkpt>
      <trkpt lat="45.84178" lon="3.24694">
        <ele>327.39999389648</ele>
        <time>2011-03-19T11:57:57.000Z</time>
      </trkpt>
      <trkpt lat="45.8413" lon="3.24794">
        <ele>326.60000610352</ele>
        <time>2011-03-19T11:58:08.000Z</time>
      </trkpt>
      <trkpt lat="45.84096" lon="3.24852">
        <ele>326.79998779297</ele>
        <time>2011-03-19T11:58:15.000Z</time>
      </trkpt>
      <trkpt lat="45.84045" lon="3.24933">
        <ele>326.39999389648</ele>
        <time>2011-03-19T11:58:25.000Z</time>
      </trkpt>
      <trkpt lat="45.84007" lon="3.25012">
        <ele>327.39999389648</ele>
        <time>2011-03-19T11:58:34.000Z</time>
      </trkpt>
      <trkpt lat="45.83965" lon="3.25112">
        <ele>326.39999389648</ele>
        <time>2011-03-19T11:58:45.000Z</time>
      </trkpt>
      <trkpt lat="45.83923" lon="3.25203">
        <ele>325.60000610352</ele>
        <time>2011-03-19T11:58:55.000Z</time>
      </trkpt>
      <trkpt lat="45.839" lon="3.25246">
        <ele>325.39999389648</ele>
        <time>2011-03-19T11:59:01.000Z</time>
      </trkpt>
      <trkpt lat="45.83897" lon="3.25247">
        <ele>325.60000610352</ele>
        <time>2011-03-19T11:59:04.000Z</time>
      </trkpt>
      <trkpt lat="45.83894" lon="3.25247">
        <ele>325.79998779297</ele>
        <time>2011-03-19T11:59:11.000Z</time>
      </trkpt>
      <trkpt lat="45.83894" lon="3.25247">
        <ele>326</ele>
        <time>2011-03-19T11:59:13.000Z</time>
      </trkpt>
      <trkpt lat="45.83896" lon="3.25249">
        <ele>324.60000610352</ele>
        <time>2011-03-19T11:59:50.000Z</time>
      </trkpt>
      <trkpt lat="45.83896" lon="3.25251">
        <ele>324.60000610352</ele>
        <time>2011-03-19T11:59:51.000Z</time>
      </trkpt>
      <trkpt lat="45.83892" lon="3.25258">
        <ele>325.60000610352</ele>
        <time>2011-03-19T11:59:56.000Z</time>
      </trkpt>
      <trkpt lat="45.83878" lon="3.25284">
        <ele>325.79998779297</ele>
        <time>2011-03-19T12:00:02.000Z</time>
      </trkpt>
      <trkpt lat="45.83857" lon="3.25321">
        <ele>325.79998779297</ele>
        <time>2011-03-19T12:00:08.000Z</time>
      </trkpt>
      <trkpt lat="45.83824" lon="3.25378">
        <ele>326.39999389648</ele>
        <time>2011-03-19T12:00:16.000Z</time>
      </trkpt>
      <trkpt lat="45.83791" lon="3.25438">
        <ele>326.60000610352</ele>
        <time>2011-03-19T12:00:24.000Z</time>
      </trkpt>
      <trkpt lat="45.83755" lon="3.25501">
        <ele>327.20001220703</ele>
        <time>2011-03-19T12:00:33.000Z</time>
      </trkpt>
      <trkpt lat="45.83719" lon="3.25572">
        <ele>328.20001220703</ele>
        <time>2011-03-19T12:00:42.000Z</time>
      </trkpt>
      <trkpt lat="45.837" lon="3.25635">
        <ele>329</ele>
        <time>2011-03-19T12:00:49.000Z</time>
      </trkpt>
      <trkpt lat="45.83689" lon="3.25692">
        <ele>328.39999389648</ele>
        <time>2011-03-19T12:00:55.000Z</time>
      </trkpt>
      <trkpt lat="45.83684" lon="3.25773">
        <ele>328</ele>
        <time>2011-03-19T12:01:03.000Z</time>
      </trkpt>
      <trkpt lat="45.8369" lon="3.25846">
        <ele>327.60000610352</ele>
        <time>2011-03-19T12:01:10.000Z</time>
      </trkpt>
      <trkpt lat="45.83711" lon="3.25953">
        <ele>326.79998779297</ele>
        <time>2011-03-19T12:01:20.000Z</time>
      </trkpt>
      <trkpt lat="45.83726" lon="3.26036">
        <ele>325.20001220703</ele>
        <time>2011-03-19T12:01:27.000Z</time>
      </trkpt>
      <trkpt lat="45.83744" lon="3.26136">
        <ele>322.79998779297</ele>
        <time>2011-03-19T12:01:35.000Z</time>
      </trkpt>
      <trkpt lat="45.83755" lon="3.26195">
        <ele>320.39999389648</ele>
        <time>2011-03-19T12:01:40.000Z</time>
      </trkpt>
      <trkpt lat="45.83766" lon="3.26252">
        <ele>320</ele>
        <time>2011-03-19T12:01:46.000Z</time>
      </trkpt>
      <trkpt lat="45.83776" lon="3.26265">
        <ele>320.39999389648</ele>
        <time>2011-03-19T12:01:50.000Z</time>
      </trkpt>
      <trkpt lat="45.83785" lon="3.2626">
        <ele>320.39999389648</ele>
        <time>2011-03-19T12:01:54.000Z</time>
      </trkpt>
      <trkpt lat="45.83789" lon="3.26259">
        <ele>320.79998779297</ele>
        <time>2011-03-19T12:01:56.000Z</time>
      </trkpt>
      <trkpt lat="45.83791" lon="3.26264">
        <ele>321.39999389648</ele>
        <time>2011-03-19T12:02:01.000Z</time>
      </trkpt>
      <trkpt lat="45.83791" lon="3.26264">
        <ele>321.20001220703</ele>
        <time>2011-03-19T12:02:02.000Z</time>
      </trkpt>
      <trkpt lat="45.83786" lon="3.26264">
        <ele>321.39999389648</ele>
        <time>2011-03-19T12:03:35.000Z</time>
      </trkpt>
      <trkpt lat="45.83795" lon="3.26267">
        <ele>316.60000610352</ele>
        <time>2011-03-19T12:14:15.000Z</time>
      </trkpt>
      <trkpt lat="45.83787" lon="3.26251">
        <ele>315.79998779297</ele>
        <time>2011-03-19T12:15:33.000Z</time>
      </trkpt>
      <trkpt lat="45.83784" lon="3.26251">
        <ele>315.79998779297</ele>
        <time>2011-03-19T12:15:36.000Z</time>
      </trkpt>
      <trkpt lat="45.83777" lon="3.26255">
        <ele>315.60000610352</ele>
        <time>2011-03-19T12:15:41.000Z</time>
      </trkpt>
      <trkpt lat="45.83772" lon="3.26253">
        <ele>315.39999389648</ele>
        <time>2011-03-19T12:15:45.000Z</time>
      </trkpt>
      <trkpt lat="45.83769" lon="3.26237">
        <ele>315</ele>
        <time>2011-03-19T12:15:50.000Z</time>
      </trkpt>
      <trkpt lat="45.83762" lon="3.26206">
        <ele>315.20001220703</ele>
        <time>2011-03-19T12:15:57.000Z</time>
      </trkpt>
      <trkpt lat="45.83753" lon="3.26156">
        <ele>315</ele>
        <time>2011-03-19T12:16:05.000Z</time>
      </trkpt>
      <trkpt lat="45.8374" lon="3.26084">
        <ele>315.79998779297</ele>
        <time>2011-03-19T12:16:15.000Z</time>
      </trkpt>
      <trkpt lat="45.83728" lon="3.26022">
        <ele>318</ele>
        <time>2011-03-19T12:16:24.000Z</time>
      </trkpt>
      <trkpt lat="45.83714" lon="3.25954">
        <ele>320.39999389648</ele>
        <time>2011-03-19T12:16:34.000Z</time>
      </trkpt>
      <trkpt lat="45.83702" lon="3.25891">
        <ele>321.39999389648</ele>
        <time>2011-03-19T12:16:43.000Z</time>
      </trkpt>
      <trkpt lat="45.83692" lon="3.25831">
        <ele>322.39999389648</ele>
        <time>2011-03-19T12:16:51.000Z</time>
      </trkpt>
      <trkpt lat="45.83688" lon="3.25775">
        <ele>323</ele>
        <time>2011-03-19T12:16:58.000Z</time>
      </trkpt>
      <trkpt lat="45.83691" lon="3.25715">
        <ele>323</ele>
        <time>2011-03-19T12:17:05.000Z</time>
      </trkpt>
      <trkpt lat="45.83702" lon="3.25646">
        <ele>322.79998779297</ele>
        <time>2011-03-19T12:17:13.000Z</time>
      </trkpt>
      <trkpt lat="45.83724" lon="3.25571">
        <ele>323.60000610352</ele>
        <time>2011-03-19T12:17:22.000Z</time>
      </trkpt>
      <trkpt lat="45.83759" lon="3.25505">
        <ele>322.79998779297</ele>
        <time>2011-03-19T12:17:31.000Z</time>
      </trkpt>
      <trkpt lat="45.838" lon="3.25433">
        <ele>322.60000610352</ele>
        <time>2011-03-19T12:17:41.000Z</time>
      </trkpt>
      <trkpt lat="45.83849" lon="3.25347">
        <ele>322.39999389648</ele>
        <time>2011-03-19T12:17:53.000Z</time>
      </trkpt>
      <trkpt lat="45.83887" lon="3.25279">
        <ele>322</ele>
        <time>2011-03-19T12:18:03.000Z</time>
      </trkpt>
      <trkpt lat="45.83912" lon="3.25235">
        <ele>322</ele>
        <time>2011-03-19T12:18:10.000Z</time>
      </trkpt>
      <trkpt lat="45.83945" lon="3.2517">
        <ele>322.39999389648</ele>
        <time>2011-03-19T12:18:20.000Z</time>
      </trkpt>
      <trkpt lat="45.83978" lon="3.25094">
        <ele>322.79998779297</ele>
        <time>2011-03-19T12:18:31.000Z</time>
      </trkpt>
      <trkpt lat="45.84017" lon="3.25002">
        <ele>323.79998779297</ele>
        <time>2011-03-19T12:18:44.000Z</time>
      </trkpt>
      <trkpt lat="45.84049" lon="3.24934">
        <ele>323.20001220703</ele>
        <time>2011-03-19T12:18:54.000Z</time>
      </trkpt>
      <trkpt lat="45.84088" lon="3.2487">
        <ele>322.60000610352</ele>
        <time>2011-03-19T12:19:04.000Z</time>
      </trkpt>
      <trkpt lat="45.84123" lon="3.24814">
        <ele>323</ele>
        <time>2011-03-19T12:19:13.000Z</time>
      </trkpt>
      <trkpt lat="45.84155" lon="3.24748">
        <ele>321.60000610352</ele>
        <time>2011-03-19T12:19:22.000Z</time>
      </trkpt>
      <trkpt lat="45.84185" lon="3.24677">
        <ele>322</ele>
        <time>2011-03-19T12:19:31.000Z</time>
      </trkpt>
      <trkpt lat="45.84193" lon="3.24642">
        <ele>322.20001220703</ele>
        <time>2011-03-19T12:19:35.000Z</time>
      </trkpt>
      <trkpt lat="45.84191" lon="3.24585">
        <ele>322.39999389648</ele>
        <time>2011-03-19T12:19:41.000Z</time>
      </trkpt>
      <trkpt lat="45.84177" lon="3.24516">
        <ele>322.20001220703</ele>
        <time>2011-03-19T12:19:48.000Z</time>
      </trkpt>
      <trkpt lat="45.8415" lon="3.24393">
        <ele>321.39999389648</ele>
        <time>2011-03-19T12:20:00.000Z</time>
      </trkpt>
      <trkpt lat="45.8413" lon="3.24301">
        <ele>322</ele>
        <time>2011-03-19T12:20:09.000Z</time>
      </trkpt>
      <trkpt lat="45.84117" lon="3.24217">
        <ele>322.39999389648</ele>
        <time>2011-03-19T12:20:17.000Z</time>
      </trkpt>
      <trkpt lat="45.84116" lon="3.24144">
        <ele>323.60000610352</ele>
        <time>2011-03-19T12:20:24.000Z</time>
      </trkpt>
      <trkpt lat="45.84116" lon="3.24044">
        <ele>324</ele>
        <time>2011-03-19T12:20:34.000Z</time>
      </trkpt>
      <trkpt lat="45.84107" lon="3.23964">
        <ele>324.39999389648</ele>
        <time>2011-03-19T12:20:42.000Z</time>
      </trkpt>
      <trkpt lat="45.8409" lon="3.23863">
        <ele>324.39999389648</ele>
        <time>2011-03-19T12:20:52.000Z</time>
      </trkpt>
      <trkpt lat="45.84074" lon="3.23764">
        <ele>325</ele>
        <time>2011-03-19T12:21:02.000Z</time>
      </trkpt>
      <trkpt lat="45.84056" lon="3.23647">
        <ele>326</ele>
        <time>2011-03-19T12:21:14.000Z</time>
      </trkpt>
      <trkpt lat="45.84045" lon="3.23561">
        <ele>327</ele>
        <time>2011-03-19T12:21:23.000Z</time>
      </trkpt>
      <trkpt lat="45.84039" lon="3.23488">
        <ele>327</ele>
        <time>2011-03-19T12:21:31.000Z</time>
      </trkpt>
      <trkpt lat="45.84034" lon="3.23411">
        <ele>326.79998779297</ele>
        <time>2011-03-19T12:21:40.000Z</time>
      </trkpt>
      <trkpt lat="45.84028" lon="3.23316">
        <ele>328.60000610352</ele>
        <time>2011-03-19T12:21:51.000Z</time>
      </trkpt>
      <trkpt lat="45.84022" lon="3.2323">
        <ele>328</ele>
        <time>2011-03-19T12:22:00.000Z</time>
      </trkpt>
      <trkpt lat="45.84017" lon="3.23141">
        <ele>326.60000610352</ele>
        <time>2011-03-19T12:22:08.000Z</time>
      </trkpt>
      <trkpt lat="45.84009" lon="3.23009">
        <ele>325.20001220703</ele>
        <time>2011-03-19T12:22:19.000Z</time>
      </trkpt>
      <trkpt lat="45.84002" lon="3.22892">
        <ele>324.60000610352</ele>
        <time>2011-03-19T12:22:29.000Z</time>
      </trkpt>
      <trkpt lat="45.83999" lon="3.22769">
        <ele>324</ele>
        <time>2011-03-19T12:22:40.000Z</time>
      </trkpt>
      <trkpt lat="45.84001" lon="3.22674">
        <ele>324.20001220703</ele>
        <time>2011-03-19T12:22:49.000Z</time>
      </trkpt>
      <trkpt lat="45.84007" lon="3.22572">
        <ele>324.39999389648</ele>
        <time>2011-03-19T12:22:59.000Z</time>
      </trkpt>
      <trkpt lat="45.84015" lon="3.22479">
        <ele>323</ele>
        <time>2011-03-19T12:23:08.000Z</time>
      </trkpt>
      <trkpt lat="45.84026" lon="3.22399">
        <ele>322.60000610352</ele>
        <time>2011-03-19T12:23:16.000Z</time>
      </trkpt>
      <trkpt lat="45.84028" lon="3.22389">
        <ele>322.39999389648</ele>
        <time>2011-03-19T12:23:17.000Z</time>
      </trkpt>
      <trkpt lat="45.84025" lon="3.22341">
        <ele>322.20001220703</ele>
        <time>2011-03-19T12:23:22.000Z</time>
      </trkpt>
      <trkpt lat="45.84026" lon="3.22292">
        <ele>321.79998779297</ele>
        <time>2011-03-19T12:23:27.000Z</time>
      </trkpt>
      <trkpt lat="45.84029" lon="3.22195">
        <ele>321.60000610352</ele>
        <time>2011-03-19T12:23:37.000Z</time>
      </trkpt>
      <trkpt lat="45.84025" lon="3.22109">
        <ele>322</ele>
        <time>2011-03-19T12:23:46.000Z</time>
      </trkpt>
      <trkpt lat="45.84012" lon="3.22021">
        <ele>321.60000610352</ele>
        <time>2011-03-19T12:23:55.000Z</time>
      </trkpt>
      <trkpt lat="45.8399" lon="3.21935">
        <ele>321.20001220703</ele>
        <time>2011-03-19T12:24:04.000Z</time>
      </trkpt>
      <trkpt lat="45.83961" lon="3.2184">
        <ele>320.39999389648</ele>
        <time>2011-03-19T12:24:14.000Z</time>
      </trkpt>
      <trkpt lat="45.83939" lon="3.21765">
        <ele>319.39999389648</ele>
        <time>2011-03-19T12:24:22.000Z</time>
      </trkpt>
      <trkpt lat="45.83934" lon="3.21746">
        <ele>319</ele>
        <time>2011-03-19T12:24:24.000Z</time>
      </trkpt>
      <trkpt lat="45.83933" lon="3.21688">
        <ele>319</ele>
        <time>2011-03-19T12:24:30.000Z</time>
      </trkpt>
      <trkpt lat="45.83933" lon="3.21623">
        <ele>319</ele>
        <time>2011-03-19T12:24:37.000Z</time>
      </trkpt>
      <trkpt lat="45.83934" lon="3.21576">
        <ele>319</ele>
        <time>2011-03-19T12:24:43.000Z</time>
      </trkpt>
      <trkpt lat="45.83935" lon="3.21553">
        <ele>319.20001220703</ele>
        <time>2011-03-19T12:24:47.000Z</time>
      </trkpt>
      <trkpt lat="45.83929" lon="3.21543">
        <ele>319</ele>
        <time>2011-03-19T12:24:50.000Z</time>
      </trkpt>
      <trkpt lat="45.83926" lon="3.21545">
        <ele>319</ele>
        <time>2011-03-19T12:24:51.000Z</time>
      </trkpt>
      <trkpt lat="45.83921" lon="3.2155">
        <ele>319</ele>
        <time>2011-03-19T12:24:53.000Z</time>
      </trkpt>
      <trkpt lat="45.83916" lon="3.21542">
        <ele>318.79998779297</ele>
        <time>2011-03-19T12:24:57.000Z</time>
      </trkpt>
      <trkpt lat="45.83919" lon="3.21535">
        <ele>318.39999389648</ele>
        <time>2011-03-19T12:25:01.000Z</time>
      </trkpt>
      <trkpt lat="45.83919" lon="3.21535">
        <ele>318.20001220703</ele>
        <time>2011-03-19T12:25:02.000Z</time>
      </trkpt>
      <trkpt lat="45.83913" lon="3.21551">
        <ele>318.60000610352</ele>
        <time>2011-03-19T12:30:58.000Z</time>
      </trkpt>
      <trkpt lat="45.83914" lon="3.21557">
        <ele>318.39999389648</ele>
        <time>2011-03-19T12:31:00.000Z</time>
      </trkpt>
      <trkpt lat="45.83928" lon="3.21561">
        <ele>318.39999389648</ele>
        <time>2011-03-19T12:31:05.000Z</time>
      </trkpt>
      <trkpt lat="45.83939" lon="3.21555">
        <ele>318.60000610352</ele>
        <time>2011-03-19T12:31:08.000Z</time>
      </trkpt>
      <trkpt lat="45.83976" lon="3.21544">
        <ele>318.60000610352</ele>
        <time>2011-03-19T12:31:16.000Z</time>
      </trkpt>
      <trkpt lat="45.84009" lon="3.21533">
        <ele>318.60000610352</ele>
        <time>2011-03-19T12:31:22.000Z</time>
      </trkpt>
      <trkpt lat="45.84044" lon="3.21506">
        <ele>318.39999389648</ele>
        <time>2011-03-19T12:31:29.000Z</time>
      </trkpt>
      <trkpt lat="45.84077" lon="3.21473">
        <ele>318</ele>
        <time>2011-03-19T12:31:36.000Z</time>
      </trkpt>
      <trkpt lat="45.84081" lon="3.21467">
        <ele>318.20001220703</ele>
        <time>2011-03-19T12:31:37.000Z</time>
      </trkpt>
      <trkpt lat="45.84116" lon="3.21433">
        <ele>318.20001220703</ele>
        <time>2011-03-19T12:31:44.000Z</time>
      </trkpt>
      <trkpt lat="45.84146" lon="3.21422">
        <ele>318</ele>
        <time>2011-03-19T12:31:49.000Z</time>
      </trkpt>
      <trkpt lat="45.84162" lon="3.21432">
        <ele>317.79998779297</ele>
        <time>2011-03-19T12:31:52.000Z</time>
      </trkpt>
      <trkpt lat="45.84166" lon="3.21437">
        <ele>317.79998779297</ele>
        <time>2011-03-19T12:31:53.000Z</time>
      </trkpt>
      <trkpt lat="45.84193" lon="3.21467">
        <ele>316.60000610352</ele>
        <time>2011-03-19T12:32:00.000Z</time>
      </trkpt>
      <trkpt lat="45.84208" lon="3.21476">
        <ele>317.20001220703</ele>
        <time>2011-03-19T12:32:05.000Z</time>
      </trkpt>
      <trkpt lat="45.84229" lon="3.21484">
        <ele>317.79998779297</ele>
        <time>2011-03-19T12:32:10.000Z</time>
      </trkpt>
      <trkpt lat="45.84276" lon="3.21496">
        <ele>317</ele>
        <time>2011-03-19T12:32:19.000Z</time>
      </trkpt>
      <trkpt lat="45.8432" lon="3.21515">
        <ele>317</ele>
        <time>2011-03-19T12:32:27.000Z</time>
      </trkpt>
      <trkpt lat="45.84372" lon="3.21547">
        <ele>317</ele>
        <time>2011-03-19T12:32:37.000Z</time>
      </trkpt>
      <trkpt lat="45.84437" lon="3.21587">
        <ele>316.60000610352</ele>
        <time>2011-03-19T12:32:49.000Z</time>
      </trkpt>
      <trkpt lat="45.84509" lon="3.21629">
        <ele>318.39999389648</ele>
        <time>2011-03-19T12:33:02.000Z</time>
      </trkpt>
      <trkpt lat="45.84555" lon="3.21649">
        <ele>318.79998779297</ele>
        <time>2011-03-19T12:33:10.000Z</time>
      </trkpt>
      <trkpt lat="45.84619" lon="3.2167">
        <ele>319.60000610352</ele>
        <time>2011-03-19T12:33:21.000Z</time>
      </trkpt>
      <trkpt lat="45.84677" lon="3.21689">
        <ele>319.79998779297</ele>
        <time>2011-03-19T12:33:31.000Z</time>
      </trkpt>
      <trkpt lat="45.84735" lon="3.21703">
        <ele>320.79998779297</ele>
        <time>2011-03-19T12:33:41.000Z</time>
      </trkpt>
      <trkpt lat="45.84813" lon="3.21718">
        <ele>321</ele>
        <time>2011-03-19T12:33:54.000Z</time>
      </trkpt>
      <trkpt lat="45.84876" lon="3.21736">
        <ele>321.79998779297</ele>
        <time>2011-03-19T12:34:05.000Z</time>
      </trkpt>
      <trkpt lat="45.84935" lon="3.2176">
        <ele>322</ele>
        <time>2011-03-19T12:34:15.000Z</time>
      </trkpt>
      <trkpt lat="45.85009" lon="3.2179">
        <ele>321.60000610352</ele>
        <time>2011-03-19T12:34:27.000Z</time>
      </trkpt>
      <trkpt lat="45.85054" lon="3.21797">
        <ele>322</ele>
        <time>2011-03-19T12:34:34.000Z</time>
      </trkpt>
      <trkpt lat="45.85108" lon="3.21794">
        <ele>320.39999389648</ele>
        <time>2011-03-19T12:34:42.000Z</time>
      </trkpt>
      <trkpt lat="45.85189" lon="3.21788">
        <ele>320.39999389648</ele>
        <time>2011-03-19T12:34:54.000Z</time>
      </trkpt>
      <trkpt lat="45.85256" lon="3.21784">
        <ele>319</ele>
        <time>2011-03-19T12:35:04.000Z</time>
      </trkpt>
      <trkpt lat="45.8533" lon="3.21778">
        <ele>319.60000610352</ele>
        <time>2011-03-19T12:35:15.000Z</time>
      </trkpt>
      <trkpt lat="45.85397" lon="3.21776">
        <ele>320</ele>
        <time>2011-03-19T12:35:25.000Z</time>
      </trkpt>
      <trkpt lat="45.85462" lon="3.21784">
        <ele>320.20001220703</ele>
        <time>2011-03-19T12:35:35.000Z</time>
      </trkpt>
      <trkpt lat="45.85538" lon="3.21806">
        <ele>320</ele>
        <time>2011-03-19T12:35:47.000Z</time>
      </trkpt>
      <trkpt lat="45.85594" lon="3.2182">
        <ele>320.79998779297</ele>
        <time>2011-03-19T12:35:56.000Z</time>
      </trkpt>
      <trkpt lat="45.8566" lon="3.21835">
        <ele>320.39999389648</ele>
        <time>2011-03-19T12:36:06.000Z</time>
      </trkpt>
      <trkpt lat="45.85747" lon="3.21848">
        <ele>319.60000610352</ele>
        <time>2011-03-19T12:36:19.000Z</time>
      </trkpt>
      <trkpt lat="45.85817" lon="3.21851">
        <ele>319.39999389648</ele>
        <time>2011-03-19T12:36:29.000Z</time>
      </trkpt>
      <trkpt lat="45.859" lon="3.21846">
        <ele>317.79998779297</ele>
        <time>2011-03-19T12:36:41.000Z</time>
      </trkpt>
      <trkpt lat="45.85992" lon="3.2184">
        <ele>317</ele>
        <time>2011-03-19T12:36:54.000Z</time>
      </trkpt>
      <trkpt lat="45.86078" lon="3.21833">
        <ele>316</ele>
        <time>2011-03-19T12:37:06.000Z</time>
      </trkpt>
      <trkpt lat="45.86155" lon="3.21823">
        <ele>315.39999389648</ele>
        <time>2011-03-19T12:37:17.000Z</time>
      </trkpt>
      <trkpt lat="45.8622" lon="3.21812">
        <ele>315.39999389648</ele>
        <time>2011-03-19T12:37:26.000Z</time>
      </trkpt>
      <trkpt lat="45.86292" lon="3.21805">
        <ele>314.79998779297</ele>
        <time>2011-03-19T12:37:36.000Z</time>
      </trkpt>
      <trkpt lat="45.86341" lon="3.21817">
        <ele>313.60000610352</ele>
        <time>2011-03-19T12:37:43.000Z</time>
      </trkpt>
      <trkpt lat="45.86369" lon="3.21825">
        <ele>313.60000610352</ele>
        <time>2011-03-19T12:37:47.000Z</time>
      </trkpt>
      <trkpt lat="45.86412" lon="3.21857">
        <ele>313.60000610352</ele>
        <time>2011-03-19T12:37:54.000Z</time>
      </trkpt>
      <trkpt lat="45.86434" lon="3.21881">
        <ele>313.79998779297</ele>
        <time>2011-03-19T12:37:58.000Z</time>
      </trkpt>
      <trkpt lat="45.86497" lon="3.21941">
        <ele>314</ele>
        <time>2011-03-19T12:38:09.000Z</time>
      </trkpt>
      <trkpt lat="45.86534" lon="3.21985">
        <ele>314.60000610352</ele>
        <time>2011-03-19T12:38:16.000Z</time>
      </trkpt>
      <trkpt lat="45.86592" lon="3.22055">
        <ele>313.79998779297</ele>
        <time>2011-03-19T12:38:27.000Z</time>
      </trkpt>
      <trkpt lat="45.86639" lon="3.22113">
        <ele>313.79998779297</ele>
        <time>2011-03-19T12:38:36.000Z</time>
      </trkpt>
      <trkpt lat="45.86673" lon="3.22162">
        <ele>313.60000610352</ele>
        <time>2011-03-19T12:38:43.000Z</time>
      </trkpt>
      <trkpt lat="45.86723" lon="3.22246">
        <ele>313.39999389648</ele>
        <time>2011-03-19T12:38:54.000Z</time>
      </trkpt>
      <trkpt lat="45.86761" lon="3.22307">
        <ele>313.39999389648</ele>
        <time>2011-03-19T12:39:02.000Z</time>
      </trkpt>
      <trkpt lat="45.86802" lon="3.22381">
        <ele>313.60000610352</ele>
        <time>2011-03-19T12:39:11.000Z</time>
      </trkpt>
      <trkpt lat="45.86836" lon="3.2243">
        <ele>314.20001220703</ele>
        <time>2011-03-19T12:39:18.000Z</time>
      </trkpt>
      <trkpt lat="45.86872" lon="3.22474">
        <ele>314.20001220703</ele>
        <time>2011-03-19T12:39:25.000Z</time>
      </trkpt>
      <trkpt lat="45.86913" lon="3.22527">
        <ele>313.60000610352</ele>
        <time>2011-03-19T12:39:33.000Z</time>
      </trkpt>
      <trkpt lat="45.86961" lon="3.22586">
        <ele>313.39999389648</ele>
        <time>2011-03-19T12:39:42.000Z</time>
      </trkpt>
      <trkpt lat="45.87007" lon="3.22646">
        <ele>313.60000610352</ele>
        <time>2011-03-19T12:39:51.000Z</time>
      </trkpt>
      <trkpt lat="45.87047" lon="3.22702">
        <ele>314</ele>
        <time>2011-03-19T12:39:59.000Z</time>
      </trkpt>
      <trkpt lat="45.87086" lon="3.2277">
        <ele>313.79998779297</ele>
        <time>2011-03-19T12:40:08.000Z</time>
      </trkpt>
      <trkpt lat="45.87124" lon="3.22854">
        <ele>313</ele>
        <time>2011-03-19T12:40:18.000Z</time>
      </trkpt>
      <trkpt lat="45.87155" lon="3.22909">
        <ele>313.20001220703</ele>
        <time>2011-03-19T12:40:25.000Z</time>
      </trkpt>
      <trkpt lat="45.87175" lon="3.22935">
        <ele>313.20001220703</ele>
        <time>2011-03-19T12:40:29.000Z</time>
      </trkpt>
      <trkpt lat="45.87195" lon="3.22941">
        <ele>313.79998779297</ele>
        <time>2011-03-19T12:40:33.000Z</time>
      </trkpt>
      <trkpt lat="45.87213" lon="3.22935">
        <ele>313.79998779297</ele>
        <time>2011-03-19T12:40:37.000Z</time>
      </trkpt>
      <trkpt lat="45.87223" lon="3.22952">
        <ele>313.60000610352</ele>
        <time>2011-03-19T12:40:40.000Z</time>
      </trkpt>
      <trkpt lat="45.87241" lon="3.23013">
        <ele>312.60000610352</ele>
        <time>2011-03-19T12:40:47.000Z</time>
      </trkpt>
      <trkpt lat="45.87271" lon="3.23076">
        <ele>312.39999389648</ele>
        <time>2011-03-19T12:40:55.000Z</time>
      </trkpt>
      <trkpt lat="45.87317" lon="3.23156">
        <ele>313.79998779297</ele>
        <time>2011-03-19T12:41:06.000Z</time>
      </trkpt>
      <trkpt lat="45.8735" lon="3.23216">
        <ele>313.79998779297</ele>
        <time>2011-03-19T12:41:14.000Z</time>
      </trkpt>
      <trkpt lat="45.87388" lon="3.23283">
        <ele>313.60000610352</ele>
        <time>2011-03-19T12:41:23.000Z</time>
      </trkpt>
      <trkpt lat="45.87428" lon="3.23359">
        <ele>313.79998779297</ele>
        <time>2011-03-19T12:41:33.000Z</time>
      </trkpt>
      <trkpt lat="45.87452" lon="3.23419">
        <ele>313.20001220703</ele>
        <time>2011-03-19T12:41:40.000Z</time>
      </trkpt>
      <trkpt lat="45.87481" lon="3.235">
        <ele>313.60000610352</ele>
        <time>2011-03-19T12:41:49.000Z</time>
      </trkpt>
      <trkpt lat="45.87516" lon="3.23596">
        <ele>314.60000610352</ele>
        <time>2011-03-19T12:42:00.000Z</time>
      </trkpt>
      <trkpt lat="45.87556" lon="3.23703">
        <ele>314.39999389648</ele>
        <time>2011-03-19T12:42:12.000Z</time>
      </trkpt>
      <trkpt lat="45.87587" lon="3.23783">
        <ele>313.79998779297</ele>
        <time>2011-03-19T12:42:21.000Z</time>
      </trkpt>
      <trkpt lat="45.87613" lon="3.23841">
        <ele>314.60000610352</ele>
        <time>2011-03-19T12:42:28.000Z</time>
      </trkpt>
      <trkpt lat="45.87653" lon="3.23934">
        <ele>312.79998779297</ele>
        <time>2011-03-19T12:42:39.000Z</time>
      </trkpt>
      <trkpt lat="45.87685" lon="3.2402">
        <ele>312.79998779297</ele>
        <time>2011-03-19T12:42:49.000Z</time>
      </trkpt>
      <trkpt lat="45.87713" lon="3.24105">
        <ele>312.60000610352</ele>
        <time>2011-03-19T12:42:59.000Z</time>
      </trkpt>
      <trkpt lat="45.8775" lon="3.24216">
        <ele>312.20001220703</ele>
        <time>2011-03-19T12:43:12.000Z</time>
      </trkpt>
      <trkpt lat="45.87788" lon="3.24328">
        <ele>312.79998779297</ele>
        <time>2011-03-19T12:43:25.000Z</time>
      </trkpt>
      <trkpt lat="45.87824" lon="3.24435">
        <ele>313.39999389648</ele>
        <time>2011-03-19T12:43:37.000Z</time>
      </trkpt>
      <trkpt lat="45.8785" lon="3.24512">
        <ele>313.20001220703</ele>
        <time>2011-03-19T12:43:45.000Z</time>
      </trkpt>
      <trkpt lat="45.87892" lon="3.24633">
        <ele>312.60000610352</ele>
        <time>2011-03-19T12:43:57.000Z</time>
      </trkpt>
      <trkpt lat="45.87927" lon="3.24738">
        <ele>312</ele>
        <time>2011-03-19T12:44:08.000Z</time>
      </trkpt>
      <trkpt lat="45.8795" lon="3.24805">
        <ele>311.20001220703</ele>
        <time>2011-03-19T12:44:16.000Z</time>
      </trkpt>
      <trkpt lat="45.87983" lon="3.249">
        <ele>310.60000610352</ele>
        <time>2011-03-19T12:44:27.000Z</time>
      </trkpt>
      <trkpt lat="45.88007" lon="3.24983">
        <ele>312</ele>
        <time>2011-03-19T12:44:37.000Z</time>
      </trkpt>
      <trkpt lat="45.88024" lon="3.25071">
        <ele>312.20001220703</ele>
        <time>2011-03-19T12:44:47.000Z</time>
      </trkpt>
      <trkpt lat="45.88045" lon="3.25182">
        <ele>312.20001220703</ele>
        <time>2011-03-19T12:44:59.000Z</time>
      </trkpt>
      <trkpt lat="45.8806" lon="3.25248">
        <ele>312.39999389648</ele>
        <time>2011-03-19T12:45:06.000Z</time>
      </trkpt>
      <trkpt lat="45.88083" lon="3.25306">
        <ele>312</ele>
        <time>2011-03-19T12:45:13.000Z</time>
      </trkpt>
      <trkpt lat="45.88123" lon="3.25384">
        <ele>312.20001220703</ele>
        <time>2011-03-19T12:45:23.000Z</time>
      </trkpt>
      <trkpt lat="45.88162" lon="3.25463">
        <ele>311.20001220703</ele>
        <time>2011-03-19T12:45:33.000Z</time>
      </trkpt>
      <trkpt lat="45.88207" lon="3.25552">
        <ele>311</ele>
        <time>2011-03-19T12:45:44.000Z</time>
      </trkpt>
      <trkpt lat="45.88243" lon="3.25625">
        <ele>311.20001220703</ele>
        <time>2011-03-19T12:45:53.000Z</time>
      </trkpt>
      <trkpt lat="45.88286" lon="3.2571">
        <ele>311</ele>
        <time>2011-03-19T12:46:04.000Z</time>
      </trkpt>
      <trkpt lat="45.88328" lon="3.25795">
        <ele>310.79998779297</ele>
        <time>2011-03-19T12:46:15.000Z</time>
      </trkpt>
      <trkpt lat="45.88357" lon="3.25857">
        <ele>310.39999389648</ele>
        <time>2011-03-19T12:46:23.000Z</time>
      </trkpt>
      <trkpt lat="45.88388" lon="3.25949">
        <ele>309.79998779297</ele>
        <time>2011-03-19T12:46:34.000Z</time>
      </trkpt>
      <trkpt lat="45.88417" lon="3.26035">
        <ele>309.20001220703</ele>
        <time>2011-03-19T12:46:44.000Z</time>
      </trkpt>
      <trkpt lat="45.88436" lon="3.26096">
        <ele>309.79998779297</ele>
        <time>2011-03-19T12:46:51.000Z</time>
      </trkpt>
      <trkpt lat="45.88457" lon="3.26158">
        <ele>309.20001220703</ele>
        <time>2011-03-19T12:46:59.000Z</time>
      </trkpt>
      <trkpt lat="45.88465" lon="3.26197">
        <ele>310</ele>
        <time>2011-03-19T12:47:05.000Z</time>
      </trkpt>
      <trkpt lat="45.88469" lon="3.26207">
        <ele>310</ele>
        <time>2011-03-19T12:47:07.000Z</time>
      </trkpt>
      <trkpt lat="45.88487" lon="3.26208">
        <ele>310.20001220703</ele>
        <time>2011-03-19T12:47:11.000Z</time>
      </trkpt>
      <trkpt lat="45.88536" lon="3.26175">
        <ele>309.79998779297</ele>
        <time>2011-03-19T12:47:19.000Z</time>
      </trkpt>
      <trkpt lat="45.88611" lon="3.26124">
        <ele>308.60000610352</ele>
        <time>2011-03-19T12:47:31.000Z</time>
      </trkpt>
      <trkpt lat="45.88668" lon="3.2609">
        <ele>307.60000610352</ele>
        <time>2011-03-19T12:47:40.000Z</time>
      </trkpt>
      <trkpt lat="45.88721" lon="3.26072">
        <ele>306.60000610352</ele>
        <time>2011-03-19T12:47:48.000Z</time>
      </trkpt>
      <trkpt lat="45.88776" lon="3.2607">
        <ele>305.20001220703</ele>
        <time>2011-03-19T12:47:56.000Z</time>
      </trkpt>
      <trkpt lat="45.88839" lon="3.26079">
        <ele>304</ele>
        <time>2011-03-19T12:48:05.000Z</time>
      </trkpt>
      <trkpt lat="45.889" lon="3.26085">
        <ele>303.39999389648</ele>
        <time>2011-03-19T12:48:14.000Z</time>
      </trkpt>
      <trkpt lat="45.88946" lon="3.26082">
        <ele>303.60000610352</ele>
        <time>2011-03-19T12:48:21.000Z</time>
      </trkpt>
      <trkpt lat="45.88963" lon="3.2608">
        <ele>305</ele>
        <time>2011-03-19T12:48:24.000Z</time>
      </trkpt>
      <trkpt lat="45.88973" lon="3.26078">
        <ele>306</ele>
        <time>2011-03-19T12:48:26.000Z</time>
      </trkpt>
      <trkpt lat="45.88984" lon="3.26061">
        <ele>306.60000610352</ele>
        <time>2011-03-19T12:48:30.000Z</time>
      </trkpt>
      <trkpt lat="45.88983" lon="3.26045">
        <ele>307</ele>
        <time>2011-03-19T12:48:32.000Z</time>
      </trkpt>
      <trkpt lat="45.88975" lon="3.25984">
        <ele>306.60000610352</ele>
        <time>2011-03-19T12:48:39.000Z</time>
      </trkpt>
      <trkpt lat="45.88986" lon="3.25958">
        <ele>306.79998779297</ele>
        <time>2011-03-19T12:48:43.000Z</time>
      </trkpt>
      <trkpt lat="45.88992" lon="3.25957">
        <ele>307</ele>
        <time>2011-03-19T12:48:44.000Z</time>
      </trkpt>
      <trkpt lat="45.8905" lon="3.25935">
        <ele>307</ele>
        <time>2011-03-19T12:48:54.000Z</time>
      </trkpt>
      <trkpt lat="45.89089" lon="3.25934">
        <ele>307</ele>
        <time>2011-03-19T12:49:00.000Z</time>
      </trkpt>
      <trkpt lat="45.89138" lon="3.25926">
        <ele>305.20001220703</ele>
        <time>2011-03-19T12:49:07.000Z</time>
      </trkpt>
      <trkpt lat="45.89174" lon="3.2591">
        <ele>304.79998779297</ele>
        <time>2011-03-19T12:49:13.000Z</time>
      </trkpt>
      <trkpt lat="45.89221" lon="3.25893">
        <ele>305.60000610352</ele>
        <time>2011-03-19T12:49:21.000Z</time>
      </trkpt>
      <trkpt lat="45.89231" lon="3.25892">
        <ele>306</ele>
        <time>2011-03-19T12:49:23.000Z</time>
      </trkpt>
      <trkpt lat="45.89248" lon="3.25899">
        <ele>306.79998779297</ele>
        <time>2011-03-19T12:49:27.000Z</time>
      </trkpt>
      <trkpt lat="45.89264" lon="3.25909">
        <ele>308.39999389648</ele>
        <time>2011-03-19T12:49:32.000Z</time>
      </trkpt>
      <trkpt lat="45.89268" lon="3.25908">
        <ele>309.20001220703</ele>
        <time>2011-03-19T12:49:37.000Z</time>
      </trkpt>
      <trkpt lat="45.89268" lon="3.25907">
        <ele>309.39999389648</ele>
        <time>2011-03-19T12:49:38.000Z</time>
      </trkpt>
      <trkpt lat="45.89278" lon="3.25899">
        <ele>309.20001220703</ele>
        <time>2011-03-19T12:49:44.000Z</time>
      </trkpt>
      <trkpt lat="45.89293" lon="3.25888">
        <ele>309.79998779297</ele>
        <time>2011-03-19T12:49:49.000Z</time>
      </trkpt>
      <trkpt lat="45.89314" lon="3.25875">
        <ele>310.39999389648</ele>
        <time>2011-03-19T12:49:55.000Z</time>
      </trkpt>
      <trkpt lat="45.89341" lon="3.25855">
        <ele>310.79998779297</ele>
        <time>2011-03-19T12:50:01.000Z</time>
      </trkpt>
      <trkpt lat="45.89374" lon="3.25822">
        <ele>311.79998779297</ele>
        <time>2011-03-19T12:50:08.000Z</time>
      </trkpt>
      <trkpt lat="45.8942" lon="3.25779">
        <ele>312.20001220703</ele>
        <time>2011-03-19T12:50:18.000Z</time>
      </trkpt>
      <trkpt lat="45.89463" lon="3.25738">
        <ele>312.39999389648</ele>
        <time>2011-03-19T12:50:27.000Z</time>
      </trkpt>
      <trkpt lat="45.89496" lon="3.25707">
        <ele>313</ele>
        <time>2011-03-19T12:50:34.000Z</time>
      </trkpt>
      <trkpt lat="45.89548" lon="3.25666">
        <ele>313.39999389648</ele>
        <time>2011-03-19T12:50:44.000Z</time>
      </trkpt>
      <trkpt lat="45.89599" lon="3.25633">
        <ele>314.20001220703</ele>
        <time>2011-03-19T12:50:54.000Z</time>
      </trkpt>
      <trkpt lat="45.89655" lon="3.25602">
        <ele>314.39999389648</ele>
        <time>2011-03-19T12:51:05.000Z</time>
      </trkpt>
      <trkpt lat="45.89703" lon="3.25581">
        <ele>314.60000610352</ele>
        <time>2011-03-19T12:51:14.000Z</time>
      </trkpt>
      <trkpt lat="45.89762" lon="3.25556">
        <ele>314.79998779297</ele>
        <time>2011-03-19T12:51:24.000Z</time>
      </trkpt>
      <trkpt lat="45.89816" lon="3.25531">
        <ele>315.20001220703</ele>
        <time>2011-03-19T12:51:33.000Z</time>
      </trkpt>
      <trkpt lat="45.89869" lon="3.25504">
        <ele>314.79998779297</ele>
        <time>2011-03-19T12:51:42.000Z</time>
      </trkpt>
      <trkpt lat="45.8992" lon="3.25476">
        <ele>315.60000610352</ele>
        <time>2011-03-19T12:51:51.000Z</time>
      </trkpt>
      <trkpt lat="45.89992" lon="3.25438">
        <ele>316</ele>
        <time>2011-03-19T12:52:04.000Z</time>
      </trkpt>
      <trkpt lat="45.90047" lon="3.25408">
        <ele>316.20001220703</ele>
        <time>2011-03-19T12:52:14.000Z</time>
      </trkpt>
      <trkpt lat="45.9011" lon="3.25374">
        <ele>317.20001220703</ele>
        <time>2011-03-19T12:52:25.000Z</time>
      </trkpt>
      <trkpt lat="45.90179" lon="3.25337">
        <ele>316.79998779297</ele>
        <time>2011-03-19T12:52:37.000Z</time>
      </trkpt>
      <trkpt lat="45.9024" lon="3.25304">
        <ele>316.79998779297</ele>
        <time>2011-03-19T12:52:47.000Z</time>
      </trkpt>
      <trkpt lat="45.90307" lon="3.25268">
        <ele>316.79998779297</ele>
        <time>2011-03-19T12:52:58.000Z</time>
      </trkpt>
      <trkpt lat="45.90359" lon="3.25246">
        <ele>317.39999389648</ele>
        <time>2011-03-19T12:53:07.000Z</time>
      </trkpt>
      <trkpt lat="45.9041" lon="3.25231">
        <ele>317.60000610352</ele>
        <time>2011-03-19T12:53:16.000Z</time>
      </trkpt>
      <trkpt lat="45.90471" lon="3.25214">
        <ele>318.79998779297</ele>
        <time>2011-03-19T12:53:27.000Z</time>
      </trkpt>
      <trkpt lat="45.90527" lon="3.25194">
        <ele>320.20001220703</ele>
        <time>2011-03-19T12:53:37.000Z</time>
      </trkpt>
      <trkpt lat="45.90575" lon="3.2517">
        <ele>320.79998779297</ele>
        <time>2011-03-19T12:53:46.000Z</time>
      </trkpt>
      <trkpt lat="45.90613" lon="3.2514">
        <ele>322</ele>
        <time>2011-03-19T12:53:54.000Z</time>
      </trkpt>
      <trkpt lat="45.90661" lon="3.25098">
        <ele>323.60000610352</ele>
        <time>2011-03-19T12:54:05.000Z</time>
      </trkpt>
      <trkpt lat="45.90702" lon="3.25063">
        <ele>324.39999389648</ele>
        <time>2011-03-19T12:54:14.000Z</time>
      </trkpt>
      <trkpt lat="45.90743" lon="3.25032">
        <ele>325</ele>
        <time>2011-03-19T12:54:22.000Z</time>
      </trkpt>
      <trkpt lat="45.90802" lon="3.25003">
        <ele>325.20001220703</ele>
        <time>2011-03-19T12:54:33.000Z</time>
      </trkpt>
      <trkpt lat="45.90862" lon="3.24983">
        <ele>325.60000610352</ele>
        <time>2011-03-19T12:54:44.000Z</time>
      </trkpt>
      <trkpt lat="45.90927" lon="3.24969">
        <ele>325.60000610352</ele>
        <time>2011-03-19T12:54:55.000Z</time>
      </trkpt>
      <trkpt lat="45.90991" lon="3.24957">
        <ele>323.79998779297</ele>
        <time>2011-03-19T12:55:05.000Z</time>
      </trkpt>
      <trkpt lat="45.91047" lon="3.24947">
        <ele>323.39999389648</ele>
        <time>2011-03-19T12:55:13.000Z</time>
      </trkpt>
      <trkpt lat="45.91112" lon="3.24934">
        <ele>321.60000610352</ele>
        <time>2011-03-19T12:55:22.000Z</time>
      </trkpt>
      <trkpt lat="45.91184" lon="3.2492">
        <ele>320.20001220703</ele>
        <time>2011-03-19T12:55:32.000Z</time>
      </trkpt>
      <trkpt lat="45.91238" lon="3.24905">
        <ele>318.79998779297</ele>
        <time>2011-03-19T12:55:39.000Z</time>
      </trkpt>
      <trkpt lat="45.91305" lon="3.24884">
        <ele>315.79998779297</ele>
        <time>2011-03-19T12:55:48.000Z</time>
      </trkpt>
      <trkpt lat="45.91348" lon="3.24863">
        <ele>314.20001220703</ele>
        <time>2011-03-19T12:55:54.000Z</time>
      </trkpt>
      <trkpt lat="45.91403" lon="3.24822">
        <ele>313</ele>
        <time>2011-03-19T12:56:02.000Z</time>
      </trkpt>
      <trkpt lat="45.91461" lon="3.24778">
        <ele>311</ele>
        <time>2011-03-19T12:56:10.000Z</time>
      </trkpt>
      <trkpt lat="45.91526" lon="3.24728">
        <ele>309.39999389648</ele>
        <time>2011-03-19T12:56:19.000Z</time>
      </trkpt>
      <trkpt lat="45.91557" lon="3.24727">
        <ele>309.20001220703</ele>
        <time>2011-03-19T12:56:23.000Z</time>
      </trkpt>
      <trkpt lat="45.91574" lon="3.24754">
        <ele>309</ele>
        <time>2011-03-19T12:56:26.000Z</time>
      </trkpt>
      <trkpt lat="45.91581" lon="3.24777">
        <ele>308.60000610352</ele>
        <time>2011-03-19T12:56:28.000Z</time>
      </trkpt>
      <trkpt lat="45.91599" lon="3.24874">
        <ele>307.79998779297</ele>
        <time>2011-03-19T12:56:36.000Z</time>
      </trkpt>
      <trkpt lat="45.91618" lon="3.24914">
        <ele>307.60000610352</ele>
        <time>2011-03-19T12:56:40.000Z</time>
      </trkpt>
      <trkpt lat="45.91668" lon="3.24977">
        <ele>306.60000610352</ele>
        <time>2011-03-19T12:56:48.000Z</time>
      </trkpt>
      <trkpt lat="45.91695" lon="3.24996">
        <ele>306.39999389648</ele>
        <time>2011-03-19T12:56:52.000Z</time>
      </trkpt>
      <trkpt lat="45.91703" lon="3.24998">
        <ele>306.39999389648</ele>
        <time>2011-03-19T12:56:53.000Z</time>
      </trkpt>
      <trkpt lat="45.91734" lon="3.25003">
        <ele>307.20001220703</ele>
        <time>2011-03-19T12:56:57.000Z</time>
      </trkpt>
      <trkpt lat="45.9176" lon="3.24988">
        <ele>308.20001220703</ele>
        <time>2011-03-19T12:57:01.000Z</time>
      </trkpt>
      <trkpt lat="45.91765" lon="3.24981">
        <ele>308.39999389648</ele>
        <time>2011-03-19T12:57:02.000Z</time>
      </trkpt>
      <trkpt lat="45.91789" lon="3.24939">
        <ele>310.20001220703</ele>
        <time>2011-03-19T12:57:08.000Z</time>
      </trkpt>
      <trkpt lat="45.91804" lon="3.24884">
        <ele>310.60000610352</ele>
        <time>2011-03-19T12:57:15.000Z</time>
      </trkpt>
      <trkpt lat="45.9181" lon="3.24855">
        <ele>311.60000610352</ele>
        <time>2011-03-19T12:57:19.000Z</time>
      </trkpt>
      <trkpt lat="45.91828" lon="3.24826">
        <ele>312.60000610352</ele>
        <time>2011-03-19T12:57:24.000Z</time>
      </trkpt>
      <trkpt lat="45.91838" lon="3.2482">
        <ele>312.60000610352</ele>
        <time>2011-03-19T12:57:26.000Z</time>
      </trkpt>
      <trkpt lat="45.91852" lon="3.24814">
        <ele>312.79998779297</ele>
        <time>2011-03-19T12:57:29.000Z</time>
      </trkpt>
      <trkpt lat="45.91874" lon="3.24817">
        <ele>314</ele>
        <time>2011-03-19T12:57:34.000Z</time>
      </trkpt>
      <trkpt lat="45.91887" lon="3.24813">
        <ele>314.39999389648</ele>
        <time>2011-03-19T12:57:37.000Z</time>
      </trkpt>
      <trkpt lat="45.91892" lon="3.24809">
        <ele>315</ele>
        <time>2011-03-19T12:57:38.000Z</time>
      </trkpt>
      <trkpt lat="45.91901" lon="3.24801">
        <ele>315.20001220703</ele>
        <time>2011-03-19T12:57:40.000Z</time>
      </trkpt>
      <trkpt lat="45.91922" lon="3.24796">
        <ele>315.60000610352</ele>
        <time>2011-03-19T12:57:44.000Z</time>
      </trkpt>
      <trkpt lat="45.91953" lon="3.24809">
        <ele>315.39999389648</ele>
        <time>2011-03-19T12:57:51.000Z</time>
      </trkpt>
      <trkpt lat="45.91974" lon="3.24816">
        <ele>316.39999389648</ele>
        <time>2011-03-19T12:57:57.000Z</time>
      </trkpt>
      <trkpt lat="45.9198" lon="3.24809">
        <ele>316.39999389648</ele>
        <time>2011-03-19T12:58:00.000Z</time>
      </trkpt>
      <trkpt lat="45.91981" lon="3.24804">
        <ele>316.39999389648</ele>
        <time>2011-03-19T12:58:01.000Z</time>
      </trkpt>
      <trkpt lat="45.91988" lon="3.24756">
        <ele>315</ele>
        <time>2011-03-19T12:58:08.000Z</time>
      </trkpt>
      <trkpt lat="45.91997" lon="3.24692">
        <ele>314.60000610352</ele>
        <time>2011-03-19T12:58:16.000Z</time>
      </trkpt>
      <trkpt lat="45.92009" lon="3.24613">
        <ele>314.20001220703</ele>
        <time>2011-03-19T12:58:25.000Z</time>
      </trkpt>
      <trkpt lat="45.92023" lon="3.24547">
        <ele>313.20001220703</ele>
        <time>2011-03-19T12:58:32.000Z</time>
      </trkpt>
      <trkpt lat="45.92042" lon="3.2446">
        <ele>312</ele>
        <time>2011-03-19T12:58:42.000Z</time>
      </trkpt>
      <trkpt lat="45.92052" lon="3.24395">
        <ele>312.60000610352</ele>
        <time>2011-03-19T12:58:50.000Z</time>
      </trkpt>
      <trkpt lat="45.92054" lon="3.2438">
        <ele>312.79998779297</ele>
        <time>2011-03-19T12:58:54.000Z</time>
      </trkpt>
      <trkpt lat="45.92056" lon="3.24367">
        <ele>312.79998779297</ele>
        <time>2011-03-19T12:58:57.000Z</time>
      </trkpt>
      <trkpt lat="45.9206" lon="3.24332">
        <ele>312.39999389648</ele>
        <time>2011-03-19T12:59:02.000Z</time>
      </trkpt>
      <trkpt lat="45.92061" lon="3.24323">
        <ele>312.20001220703</ele>
        <time>2011-03-19T12:59:03.000Z</time>
      </trkpt>
      <trkpt lat="45.92084" lon="3.24258">
        <ele>312.79998779297</ele>
        <time>2011-03-19T12:59:11.000Z</time>
      </trkpt>
      <trkpt lat="45.92118" lon="3.24186">
        <ele>312.60000610352</ele>
        <time>2011-03-19T12:59:20.000Z</time>
      </trkpt>
      <trkpt lat="45.92159" lon="3.24097">
        <ele>311.20001220703</ele>
        <time>2011-03-19T12:59:31.000Z</time>
      </trkpt>
      <trkpt lat="45.92184" lon="3.2403">
        <ele>311</ele>
        <time>2011-03-19T12:59:39.000Z</time>
      </trkpt>
      <trkpt lat="45.92211" lon="3.23957">
        <ele>311</ele>
        <time>2011-03-19T12:59:47.000Z</time>
      </trkpt>
      <trkpt lat="45.92248" lon="3.23855">
        <ele>309.20001220703</ele>
        <time>2011-03-19T12:59:58.000Z</time>
      </trkpt>
      <trkpt lat="45.92272" lon="3.23819">
        <ele>308.60000610352</ele>
        <time>2011-03-19T13:00:03.000Z</time>
      </trkpt>
      <trkpt lat="45.92321" lon="3.23772">
        <ele>308.20001220703</ele>
        <time>2011-03-19T13:00:12.000Z</time>
      </trkpt>
      <trkpt lat="45.92377" lon="3.23718">
        <ele>309</ele>
        <time>2011-03-19T13:00:23.000Z</time>
      </trkpt>
      <trkpt lat="45.92419" lon="3.23672">
        <ele>310.20001220703</ele>
        <time>2011-03-19T13:00:32.000Z</time>
      </trkpt>
      <trkpt lat="45.92466" lon="3.2362">
        <ele>311.39999389648</ele>
        <time>2011-03-19T13:00:42.000Z</time>
      </trkpt>
      <trkpt lat="45.92519" lon="3.23567">
        <ele>312</ele>
        <time>2011-03-19T13:00:53.000Z</time>
      </trkpt>
      <trkpt lat="45.92559" lon="3.23522">
        <ele>312.39999389648</ele>
        <time>2011-03-19T13:01:01.000Z</time>
      </trkpt>
      <trkpt lat="45.92596" lon="3.23483">
        <ele>312.60000610352</ele>
        <time>2011-03-19T13:01:08.000Z</time>
      </trkpt>
      <trkpt lat="45.92658" lon="3.2342">
        <ele>312</ele>
        <time>2011-03-19T13:01:19.000Z</time>
      </trkpt>
      <trkpt lat="45.92707" lon="3.2337">
        <ele>311.60000610352</ele>
        <time>2011-03-19T13:01:28.000Z</time>
      </trkpt>
      <trkpt lat="45.92748" lon="3.23328">
        <ele>311.20001220703</ele>
        <time>2011-03-19T13:01:36.000Z</time>
      </trkpt>
      <trkpt lat="45.92786" lon="3.2329">
        <ele>311.60000610352</ele>
        <time>2011-03-19T13:01:44.000Z</time>
      </trkpt>
      <trkpt lat="45.9282" lon="3.23252">
        <ele>312</ele>
        <time>2011-03-19T13:01:52.000Z</time>
      </trkpt>
      <trkpt lat="45.92847" lon="3.23204">
        <ele>312.39999389648</ele>
        <time>2011-03-19T13:02:00.000Z</time>
      </trkpt>
      <trkpt lat="45.92877" lon="3.23142">
        <ele>311.39999389648</ele>
        <time>2011-03-19T13:02:09.000Z</time>
      </trkpt>
      <trkpt lat="45.92901" lon="3.23082">
        <ele>310.79998779297</ele>
        <time>2011-03-19T13:02:17.000Z</time>
      </trkpt>
      <trkpt lat="45.9293" lon="3.23006">
        <ele>310.79998779297</ele>
        <time>2011-03-19T13:02:27.000Z</time>
      </trkpt>
      <trkpt lat="45.92949" lon="3.22956">
        <ele>310</ele>
        <time>2011-03-19T13:02:34.000Z</time>
      </trkpt>
      <trkpt lat="45.92975" lon="3.22894">
        <ele>311.60000610352</ele>
        <time>2011-03-19T13:02:43.000Z</time>
      </trkpt>
      <trkpt lat="45.9301" lon="3.22829">
        <ele>311.60000610352</ele>
        <time>2011-03-19T13:02:53.000Z</time>
      </trkpt>
      <trkpt lat="45.93049" lon="3.22761">
        <ele>311.60000610352</ele>
        <time>2011-03-19T13:03:03.000Z</time>
      </trkpt>
      <trkpt lat="45.93078" lon="3.22694">
        <ele>312.79998779297</ele>
        <time>2011-03-19T13:03:12.000Z</time>
      </trkpt>
      <trkpt lat="45.93114" lon="3.2261">
        <ele>313</ele>
        <time>2011-03-19T13:03:23.000Z</time>
      </trkpt>
      <trkpt lat="45.93119" lon="3.22603">
        <ele>313</ele>
        <time>2011-03-19T13:03:24.000Z</time>
      </trkpt>
      <trkpt lat="45.9314" lon="3.22582">
        <ele>312.60000610352</ele>
        <time>2011-03-19T13:03:28.000Z</time>
      </trkpt>
      <trkpt lat="45.93193" lon="3.22542">
        <ele>312.39999389648</ele>
        <time>2011-03-19T13:03:37.000Z</time>
      </trkpt>
      <trkpt lat="45.93229" lon="3.22495">
        <ele>312.60000610352</ele>
        <time>2011-03-19T13:03:44.000Z</time>
      </trkpt>
      <trkpt lat="45.9325" lon="3.22445">
        <ele>312</ele>
        <time>2011-03-19T13:03:50.000Z</time>
      </trkpt>
      <trkpt lat="45.93263" lon="3.2241">
        <ele>311.60000610352</ele>
        <time>2011-03-19T13:03:54.000Z</time>
      </trkpt>
      <trkpt lat="45.93286" lon="3.22376">
        <ele>311.20001220703</ele>
        <time>2011-03-19T13:03:59.000Z</time>
      </trkpt>
      <trkpt lat="45.93341" lon="3.2232">
        <ele>312.20001220703</ele>
        <time>2011-03-19T13:04:10.000Z</time>
      </trkpt>
      <trkpt lat="45.93389" lon="3.22272">
        <ele>313.60000610352</ele>
        <time>2011-03-19T13:04:20.000Z</time>
      </trkpt>
      <trkpt lat="45.93427" lon="3.22225">
        <ele>315.39999389648</ele>
        <time>2011-03-19T13:04:29.000Z</time>
      </trkpt>
      <trkpt lat="45.93456" lon="3.22187">
        <ele>315.79998779297</ele>
        <time>2011-03-19T13:04:36.000Z</time>
      </trkpt>
      <trkpt lat="45.93497" lon="3.22143">
        <ele>317</ele>
        <time>2011-03-19T13:04:45.000Z</time>
      </trkpt>
      <trkpt lat="45.93545" lon="3.2209">
        <ele>319.39999389648</ele>
        <time>2011-03-19T13:04:56.000Z</time>
      </trkpt>
      <trkpt lat="45.93585" lon="3.22039">
        <ele>321</ele>
        <time>2011-03-19T13:05:06.000Z</time>
      </trkpt>
      <trkpt lat="45.93614" lon="3.22">
        <ele>322.20001220703</ele>
        <time>2011-03-19T13:05:14.000Z</time>
      </trkpt>
      <trkpt lat="45.93622" lon="3.21987">
        <ele>323.20001220703</ele>
        <time>2011-03-19T13:05:18.000Z</time>
      </trkpt>
      <trkpt lat="45.93631" lon="3.21975">
        <ele>323.39999389648</ele>
        <time>2011-03-19T13:05:21.000Z</time>
      </trkpt>
      <trkpt lat="45.93641" lon="3.21962">
        <ele>324</ele>
        <time>2011-03-19T13:05:24.000Z</time>
      </trkpt>
      <trkpt lat="45.93652" lon="3.21942">
        <ele>324</ele>
        <time>2011-03-19T13:05:28.000Z</time>
      </trkpt>
      <trkpt lat="45.93682" lon="3.21907">
        <ele>323</ele>
        <time>2011-03-19T13:05:36.000Z</time>
      </trkpt>
      <trkpt lat="45.9371" lon="3.21892">
        <ele>322</ele>
        <time>2011-03-19T13:05:41.000Z</time>
      </trkpt>
      <trkpt lat="45.93759" lon="3.21872">
        <ele>320.20001220703</ele>
        <time>2011-03-19T13:05:49.000Z</time>
      </trkpt>
      <trkpt lat="45.9381" lon="3.21851">
        <ele>318.60000610352</ele>
        <time>2011-03-19T13:05:57.000Z</time>
      </trkpt>
      <trkpt lat="45.93854" lon="3.21832">
        <ele>317.39999389648</ele>
        <time>2011-03-19T13:06:04.000Z</time>
      </trkpt>
      <trkpt lat="45.93878" lon="3.21828">
        <ele>316.39999389648</ele>
        <time>2011-03-19T13:06:08.000Z</time>
      </trkpt>
      <trkpt lat="45.93889" lon="3.21824">
        <ele>316.39999389648</ele>
        <time>2011-03-19T13:06:10.000Z</time>
      </trkpt>
      <trkpt lat="45.9393" lon="3.21798">
        <ele>315.79998779297</ele>
        <time>2011-03-19T13:06:17.000Z</time>
      </trkpt>
      <trkpt lat="45.9399" lon="3.21756">
        <ele>315</ele>
        <time>2011-03-19T13:06:27.000Z</time>
      </trkpt>
      <trkpt lat="45.94035" lon="3.21727">
        <ele>315.79998779297</ele>
        <time>2011-03-19T13:06:35.000Z</time>
      </trkpt>
      <trkpt lat="45.94084" lon="3.21694">
        <ele>316</ele>
        <time>2011-03-19T13:06:44.000Z</time>
      </trkpt>
      <trkpt lat="45.94129" lon="3.21669">
        <ele>316</ele>
        <time>2011-03-19T13:06:52.000Z</time>
      </trkpt>
      <trkpt lat="45.94159" lon="3.21666">
        <ele>316</ele>
        <time>2011-03-19T13:06:57.000Z</time>
      </trkpt>
      <trkpt lat="45.94223" lon="3.21671">
        <ele>316.39999389648</ele>
        <time>2011-03-19T13:07:08.000Z</time>
      </trkpt>
      <trkpt lat="45.94292" lon="3.21677">
        <ele>316.39999389648</ele>
        <time>2011-03-19T13:07:20.000Z</time>
      </trkpt>
      <trkpt lat="45.94359" lon="3.21679">
        <ele>317</ele>
        <time>2011-03-19T13:07:32.000Z</time>
      </trkpt>
      <trkpt lat="45.94409" lon="3.21671">
        <ele>317</ele>
        <time>2011-03-19T13:07:41.000Z</time>
      </trkpt>
      <trkpt lat="45.94481" lon="3.21659">
        <ele>317.39999389648</ele>
        <time>2011-03-19T13:07:54.000Z</time>
      </trkpt>
      <trkpt lat="45.94531" lon="3.21659">
        <ele>318.79998779297</ele>
        <time>2011-03-19T13:08:03.000Z</time>
      </trkpt>
      <trkpt lat="45.94576" lon="3.21664">
        <ele>319.20001220703</ele>
        <time>2011-03-19T13:08:12.000Z</time>
      </trkpt>
      <trkpt lat="45.94626" lon="3.21668">
        <ele>320.20001220703</ele>
        <time>2011-03-19T13:08:22.000Z</time>
      </trkpt>
      <trkpt lat="45.94676" lon="3.21669">
        <ele>321.20001220703</ele>
        <time>2011-03-19T13:08:32.000Z</time>
      </trkpt>
      <trkpt lat="45.9473" lon="3.21667">
        <ele>321.79998779297</ele>
        <time>2011-03-19T13:08:42.000Z</time>
      </trkpt>
      <trkpt lat="45.94784" lon="3.21667">
        <ele>320.79998779297</ele>
        <time>2011-03-19T13:08:52.000Z</time>
      </trkpt>
      <trkpt lat="45.94827" lon="3.21666">
        <ele>319.79998779297</ele>
        <time>2011-03-19T13:09:00.000Z</time>
      </trkpt>
      <trkpt lat="45.94885" lon="3.21665">
        <ele>321.20001220703</ele>
        <time>2011-03-19T13:09:11.000Z</time>
      </trkpt>
      <trkpt lat="45.94955" lon="3.21664">
        <ele>321.20001220703</ele>
        <time>2011-03-19T13:09:24.000Z</time>
      </trkpt>
      <trkpt lat="45.95014" lon="3.21663">
        <ele>322.79998779297</ele>
        <time>2011-03-19T13:09:35.000Z</time>
      </trkpt>
      <trkpt lat="45.95099" lon="3.21661">
        <ele>322.79998779297</ele>
        <time>2011-03-19T13:09:51.000Z</time>
      </trkpt>
      <trkpt lat="45.95168" lon="3.21665">
        <ele>324</ele>
        <time>2011-03-19T13:10:04.000Z</time>
      </trkpt>
      <trkpt lat="45.9524" lon="3.21675">
        <ele>325.60000610352</ele>
        <time>2011-03-19T13:10:18.000Z</time>
      </trkpt>
      <trkpt lat="45.95286" lon="3.21691">
        <ele>327.20001220703</ele>
        <time>2011-03-19T13:10:27.000Z</time>
      </trkpt>
      <trkpt lat="45.9533" lon="3.21722">
        <ele>329.39999389648</ele>
        <time>2011-03-19T13:10:36.000Z</time>
      </trkpt>
      <trkpt lat="45.95381" lon="3.21763">
        <ele>331.39999389648</ele>
        <time>2011-03-19T13:10:47.000Z</time>
      </trkpt>
      <trkpt lat="45.9542" lon="3.21794">
        <ele>332.79998779297</ele>
        <time>2011-03-19T13:10:56.000Z</time>
      </trkpt>
      <trkpt lat="45.95428" lon="3.21801">
        <ele>333.20001220703</ele>
        <time>2011-03-19T13:10:58.000Z</time>
      </trkpt>
      <trkpt lat="45.95464" lon="3.21826">
        <ele>333</ele>
        <time>2011-03-19T13:11:07.000Z</time>
      </trkpt>
      <trkpt lat="45.95468" lon="3.21829">
        <ele>333</ele>
        <time>2011-03-19T13:11:08.000Z</time>
      </trkpt>
      <trkpt lat="45.95515" lon="3.21845">
        <ele>334.20001220703</ele>
        <time>2011-03-19T13:11:18.000Z</time>
      </trkpt>
      <trkpt lat="45.95562" lon="3.21855">
        <ele>333.60000610352</ele>
        <time>2011-03-19T13:11:28.000Z</time>
      </trkpt>
      <trkpt lat="45.95614" lon="3.21864">
        <ele>335.79998779297</ele>
        <time>2011-03-19T13:11:39.000Z</time>
      </trkpt>
      <trkpt lat="45.95665" lon="3.21863">
        <ele>335.60000610352</ele>
        <time>2011-03-19T13:11:49.000Z</time>
      </trkpt>
      <trkpt lat="45.9572" lon="3.21859">
        <ele>336.79998779297</ele>
        <time>2011-03-19T13:12:00.000Z</time>
      </trkpt>
      <trkpt lat="45.95765" lon="3.21857">
        <ele>336.60000610352</ele>
        <time>2011-03-19T13:12:09.000Z</time>
      </trkpt>
      <trkpt lat="45.95824" lon="3.21855">
        <ele>337</ele>
        <time>2011-03-19T13:12:21.000Z</time>
      </trkpt>
      <trkpt lat="45.95842" lon="3.21856">
        <ele>336.79998779297</ele>
        <time>2011-03-19T13:12:25.000Z</time>
      </trkpt>
      <trkpt lat="45.9586" lon="3.21872">
        <ele>337</ele>
        <time>2011-03-19T13:12:30.000Z</time>
      </trkpt>
      <trkpt lat="45.95895" lon="3.21938">
        <ele>338</ele>
        <time>2011-03-19T13:12:41.000Z</time>
      </trkpt>
      <trkpt lat="45.95935" lon="3.22006">
        <ele>338.20001220703</ele>
        <time>2011-03-19T13:12:53.000Z</time>
      </trkpt>
      <trkpt lat="45.95968" lon="3.22054">
        <ele>338.79998779297</ele>
        <time>2011-03-19T13:13:02.000Z</time>
      </trkpt>
      <trkpt lat="45.96003" lon="3.22099">
        <ele>338.39999389648</ele>
        <time>2011-03-19T13:13:11.000Z</time>
      </trkpt>
      <trkpt lat="45.96044" lon="3.2215">
        <ele>339.79998779297</ele>
        <time>2011-03-19T13:13:21.000Z</time>
      </trkpt>
      <trkpt lat="45.96053" lon="3.22159">
        <ele>339.60000610352</ele>
        <time>2011-03-19T13:13:23.000Z</time>
      </trkpt>
      <trkpt lat="45.96087" lon="3.22201">
        <ele>339.79998779297</ele>
        <time>2011-03-19T13:13:31.000Z</time>
      </trkpt>
      <trkpt lat="45.96101" lon="3.22214">
        <ele>339.79998779297</ele>
        <time>2011-03-19T13:13:34.000Z</time>
      </trkpt>
      <trkpt lat="45.96122" lon="3.22213">
        <ele>340.20001220703</ele>
        <time>2011-03-19T13:13:38.000Z</time>
      </trkpt>
      <trkpt lat="45.96132" lon="3.22202">
        <ele>340.39999389648</ele>
        <time>2011-03-19T13:13:40.000Z</time>
      </trkpt>
      <trkpt lat="45.9617" lon="3.22147">
        <ele>339.20001220703</ele>
        <time>2011-03-19T13:13:47.000Z</time>
      </trkpt>
      <trkpt lat="45.96218" lon="3.22079">
        <ele>338.39999389648</ele>
        <time>2011-03-19T13:13:55.000Z</time>
      </trkpt>
      <trkpt lat="45.96266" lon="3.22003">
        <ele>337.60000610352</ele>
        <time>2011-03-19T13:14:03.000Z</time>
      </trkpt>
      <trkpt lat="45.96298" lon="3.21938">
        <ele>336.20001220703</ele>
        <time>2011-03-19T13:14:09.000Z</time>
      </trkpt>
      <trkpt lat="45.96333" lon="3.21876">
        <ele>334.79998779297</ele>
        <time>2011-03-19T13:14:15.000Z</time>
      </trkpt>
      <trkpt lat="45.96391" lon="3.21775">
        <ele>334</ele>
        <time>2011-03-19T13:14:25.000Z</time>
      </trkpt>
      <trkpt lat="45.96431" lon="3.21705">
        <ele>333.39999389648</ele>
        <time>2011-03-19T13:14:33.000Z</time>
      </trkpt>
      <trkpt lat="45.96437" lon="3.21694">
        <ele>333.20001220703</ele>
        <time>2011-03-19T13:14:35.000Z</time>
      </trkpt>
      <trkpt lat="45.96437" lon="3.21688">
        <ele>332.60000610352</ele>
        <time>2011-03-19T13:14:38.000Z</time>
      </trkpt>
      <trkpt lat="45.96434" lon="3.21686">
        <ele>332</ele>
        <time>2011-03-19T13:14:43.000Z</time>
      </trkpt>
      <trkpt lat="45.96442" lon="3.21683">
        <ele>332.39999389648</ele>
        <time>2011-03-19T13:15:33.000Z</time>
      </trkpt>
      <trkpt lat="45.96444" lon="3.2168">
        <ele>332.39999389648</ele>
        <time>2011-03-19T13:15:34.000Z</time>
      </trkpt>
      <trkpt lat="45.96459" lon="3.21655">
        <ele>332.79998779297</ele>
        <time>2011-03-19T13:15:39.000Z</time>
      </trkpt>
      <trkpt lat="45.96488" lon="3.21603">
        <ele>333.20001220703</ele>
        <time>2011-03-19T13:15:47.000Z</time>
      </trkpt>
      <trkpt lat="45.9652" lon="3.21556">
        <ele>333</ele>
        <time>2011-03-19T13:15:54.000Z</time>
      </trkpt>
      <trkpt lat="45.96551" lon="3.21535">
        <ele>332</ele>
        <time>2011-03-19T13:15:59.000Z</time>
      </trkpt>
      <trkpt lat="45.96595" lon="3.21516">
        <ele>332.60000610352</ele>
        <time>2011-03-19T13:16:06.000Z</time>
      </trkpt>
      <trkpt lat="45.96665" lon="3.21493">
        <ele>332.60000610352</ele>
        <time>2011-03-19T13:16:17.000Z</time>
      </trkpt>
      <trkpt lat="45.9672" lon="3.21484">
        <ele>332.79998779297</ele>
        <time>2011-03-19T13:16:26.000Z</time>
      </trkpt>
      <trkpt lat="45.96779" lon="3.21478">
        <ele>332.79998779297</ele>
        <time>2011-03-19T13:16:36.000Z</time>
      </trkpt>
      <trkpt lat="45.96833" lon="3.21477">
        <ele>333</ele>
        <time>2011-03-19T13:16:45.000Z</time>
      </trkpt>
      <trkpt lat="45.96899" lon="3.21476">
        <ele>333.79998779297</ele>
        <time>2011-03-19T13:16:56.000Z</time>
      </trkpt>
      <trkpt lat="45.96953" lon="3.21467">
        <ele>334</ele>
        <time>2011-03-19T13:17:05.000Z</time>
      </trkpt>
      <trkpt lat="45.97018" lon="3.21456">
        <ele>335.39999389648</ele>
        <time>2011-03-19T13:17:16.000Z</time>
      </trkpt>
      <trkpt lat="45.97066" lon="3.21444">
        <ele>334.60000610352</ele>
        <time>2011-03-19T13:17:24.000Z</time>
      </trkpt>
      <trkpt lat="45.97109" lon="3.21414">
        <ele>336.20001220703</ele>
        <time>2011-03-19T13:17:32.000Z</time>
      </trkpt>
      <trkpt lat="45.9717" lon="3.21362">
        <ele>337</ele>
        <time>2011-03-19T13:17:44.000Z</time>
      </trkpt>
      <trkpt lat="45.9724" lon="3.21302">
        <ele>337.20001220703</ele>
        <time>2011-03-19T13:17:58.000Z</time>
      </trkpt>
      <trkpt lat="45.97282" lon="3.21275">
        <ele>338.39999389648</ele>
        <time>2011-03-19T13:18:06.000Z</time>
      </trkpt>
      <trkpt lat="45.97336" lon="3.21269">
        <ele>338.39999389648</ele>
        <time>2011-03-19T13:18:16.000Z</time>
      </trkpt>
      <trkpt lat="45.97396" lon="3.21269">
        <ele>340.39999389648</ele>
        <time>2011-03-19T13:18:27.000Z</time>
      </trkpt>
      <trkpt lat="45.97443" lon="3.21272">
        <ele>340.60000610352</ele>
        <time>2011-03-19T13:18:36.000Z</time>
      </trkpt>
      <trkpt lat="45.97449" lon="3.21272">
        <ele>340.60000610352</ele>
        <time>2011-03-19T13:18:37.000Z</time>
      </trkpt>
      <trkpt lat="45.97499" lon="3.21277">
        <ele>343.39999389648</ele>
        <time>2011-03-19T13:18:46.000Z</time>
      </trkpt>
      <trkpt lat="45.97562" lon="3.21283">
        <ele>345.79998779297</ele>
        <time>2011-03-19T13:18:57.000Z</time>
      </trkpt>
      <trkpt lat="45.97618" lon="3.21287">
        <ele>347.39999389648</ele>
        <time>2011-03-19T13:19:06.000Z</time>
      </trkpt>
      <trkpt lat="45.97657" lon="3.21291">
        <ele>348.39999389648</ele>
        <time>2011-03-19T13:19:13.000Z</time>
      </trkpt>
      <trkpt lat="45.97686" lon="3.21294">
        <ele>349.20001220703</ele>
        <time>2011-03-19T13:19:20.000Z</time>
      </trkpt>
      <trkpt lat="45.97722" lon="3.21296">
        <ele>350.60000610352</ele>
        <time>2011-03-19T13:19:29.000Z</time>
      </trkpt>
      <trkpt lat="45.97754" lon="3.21292">
        <ele>351</ele>
        <time>2011-03-19T13:19:36.000Z</time>
      </trkpt>
      <trkpt lat="45.97795" lon="3.21284">
        <ele>351.20001220703</ele>
        <time>2011-03-19T13:19:45.000Z</time>
      </trkpt>
      <trkpt lat="45.97829" lon="3.21276">
        <ele>352.60000610352</ele>
        <time>2011-03-19T13:19:52.000Z</time>
      </trkpt>
      <trkpt lat="45.97876" lon="3.21264">
        <ele>352.60000610352</ele>
        <time>2011-03-19T13:20:01.000Z</time>
      </trkpt>
      <trkpt lat="45.97933" lon="3.21252">
        <ele>354.20001220703</ele>
        <time>2011-03-19T13:20:12.000Z</time>
      </trkpt>
      <trkpt lat="45.97998" lon="3.21241">
        <ele>354.79998779297</ele>
        <time>2011-03-19T13:20:24.000Z</time>
      </trkpt>
      <trkpt lat="45.98059" lon="3.21236">
        <ele>355.39999389648</ele>
        <time>2011-03-19T13:20:35.000Z</time>
      </trkpt>
      <trkpt lat="45.98117" lon="3.21232">
        <ele>354</ele>
        <time>2011-03-19T13:20:45.000Z</time>
      </trkpt>
      <trkpt lat="45.98171" lon="3.21231">
        <ele>353.79998779297</ele>
        <time>2011-03-19T13:20:54.000Z</time>
      </trkpt>
      <trkpt lat="45.98229" lon="3.21242">
        <ele>352.79998779297</ele>
        <time>2011-03-19T13:21:04.000Z</time>
      </trkpt>
      <trkpt lat="45.98289" lon="3.21257">
        <ele>353.20001220703</ele>
        <time>2011-03-19T13:21:14.000Z</time>
      </trkpt>
      <trkpt lat="45.98353" lon="3.21273">
        <ele>354</ele>
        <time>2011-03-19T13:21:25.000Z</time>
      </trkpt>
      <trkpt lat="45.9842" lon="3.21289">
        <ele>356</ele>
        <time>2011-03-19T13:21:37.000Z</time>
      </trkpt>
      <trkpt lat="45.98486" lon="3.21305">
        <ele>358</ele>
        <time>2011-03-19T13:21:49.000Z</time>
      </trkpt>
      <trkpt lat="45.98549" lon="3.2132">
        <ele>358.39999389648</ele>
        <time>2011-03-19T13:22:00.000Z</time>
      </trkpt>
      <trkpt lat="45.98602" lon="3.21332">
        <ele>357.39999389648</ele>
        <time>2011-03-19T13:22:09.000Z</time>
      </trkpt>
      <trkpt lat="45.98663" lon="3.21346">
        <ele>356.60000610352</ele>
        <time>2011-03-19T13:22:19.000Z</time>
      </trkpt>
      <trkpt lat="45.98733" lon="3.21368">
        <ele>355.79998779297</ele>
        <time>2011-03-19T13:22:30.000Z</time>
      </trkpt>
      <trkpt lat="45.98789" lon="3.21387">
        <ele>355.60000610352</ele>
        <time>2011-03-19T13:22:39.000Z</time>
      </trkpt>
      <trkpt lat="45.98836" lon="3.21408">
        <ele>355.39999389648</ele>
        <time>2011-03-19T13:22:47.000Z</time>
      </trkpt>
      <trkpt lat="45.9887" lon="3.21435">
        <ele>355.60000610352</ele>
        <time>2011-03-19T13:22:53.000Z</time>
      </trkpt>
      <trkpt lat="45.98921" lon="3.21488">
        <ele>358.20001220703</ele>
        <time>2011-03-19T13:23:03.000Z</time>
      </trkpt>
      <trkpt lat="45.98958" lon="3.21524">
        <ele>359.20001220703</ele>
        <time>2011-03-19T13:23:10.000Z</time>
      </trkpt>
      <trkpt lat="45.99001" lon="3.21554">
        <ele>359.60000610352</ele>
        <time>2011-03-19T13:23:18.000Z</time>
      </trkpt>
      <trkpt lat="45.99048" lon="3.21571">
        <ele>360.79998779297</ele>
        <time>2011-03-19T13:23:26.000Z</time>
      </trkpt>
      <trkpt lat="45.99108" lon="3.21584">
        <ele>361.60000610352</ele>
        <time>2011-03-19T13:23:36.000Z</time>
      </trkpt>
      <trkpt lat="45.99174" lon="3.21597">
        <ele>362.79998779297</ele>
        <time>2011-03-19T13:23:47.000Z</time>
      </trkpt>
      <trkpt lat="45.99225" lon="3.21609">
        <ele>362.60000610352</ele>
        <time>2011-03-19T13:23:55.000Z</time>
      </trkpt>
      <trkpt lat="45.99299" lon="3.21623">
        <ele>361.39999389648</ele>
        <time>2011-03-19T13:24:06.000Z</time>
      </trkpt>
      <trkpt lat="45.99363" lon="3.21621">
        <ele>359.79998779297</ele>
        <time>2011-03-19T13:24:15.000Z</time>
      </trkpt>
      <trkpt lat="45.99446" lon="3.21613">
        <ele>357.20001220703</ele>
        <time>2011-03-19T13:24:26.000Z</time>
      </trkpt>
      <trkpt lat="45.99502" lon="3.21596">
        <ele>356.60000610352</ele>
        <time>2011-03-19T13:24:33.000Z</time>
      </trkpt>
      <trkpt lat="45.99568" lon="3.21581">
        <ele>354.20001220703</ele>
        <time>2011-03-19T13:24:41.000Z</time>
      </trkpt>
      <trkpt lat="45.99627" lon="3.21578">
        <ele>351.60000610352</ele>
        <time>2011-03-19T13:24:48.000Z</time>
      </trkpt>
      <trkpt lat="45.99718" lon="3.21574">
        <ele>348.60000610352</ele>
        <time>2011-03-19T13:24:59.000Z</time>
      </trkpt>
      <trkpt lat="45.99793" lon="3.21567">
        <ele>346.79998779297</ele>
        <time>2011-03-19T13:25:08.000Z</time>
      </trkpt>
      <trkpt lat="45.99855" lon="3.21549">
        <ele>345.39999389648</ele>
        <time>2011-03-19T13:25:16.000Z</time>
      </trkpt>
      <trkpt lat="45.99888" lon="3.21529">
        <ele>345.60000610352</ele>
        <time>2011-03-19T13:25:21.000Z</time>
      </trkpt>
      <trkpt lat="45.99933" lon="3.21494">
        <ele>345.39999389648</ele>
        <time>2011-03-19T13:25:28.000Z</time>
      </trkpt>
      <trkpt lat="45.99968" lon="3.21484">
        <ele>344.20001220703</ele>
        <time>2011-03-19T13:25:33.000Z</time>
      </trkpt>
      <trkpt lat="46.00022" lon="3.21485">
        <ele>343.60000610352</ele>
        <time>2011-03-19T13:25:41.000Z</time>
      </trkpt>
      <trkpt lat="46.00098" lon="3.21489">
        <ele>341.79998779297</ele>
        <time>2011-03-19T13:25:52.000Z</time>
      </trkpt>
      <trkpt lat="46.00161" lon="3.2149">
        <ele>340.79998779297</ele>
        <time>2011-03-19T13:26:01.000Z</time>
      </trkpt>
      <trkpt lat="46.00221" lon="3.2148">
        <ele>340.20001220703</ele>
        <time>2011-03-19T13:26:10.000Z</time>
      </trkpt>
      <trkpt lat="46.00252" lon="3.21463">
        <ele>340.39999389648</ele>
        <time>2011-03-19T13:26:15.000Z</time>
      </trkpt>
      <trkpt lat="46.00297" lon="3.21418">
        <ele>340.39999389648</ele>
        <time>2011-03-19T13:26:23.000Z</time>
      </trkpt>
      <trkpt lat="46.0033" lon="3.21373">
        <ele>340.60000610352</ele>
        <time>2011-03-19T13:26:30.000Z</time>
      </trkpt>
      <trkpt lat="46.00368" lon="3.21316">
        <ele>340.60000610352</ele>
        <time>2011-03-19T13:26:38.000Z</time>
      </trkpt>
      <trkpt lat="46.00413" lon="3.21269">
        <ele>340.20001220703</ele>
        <time>2011-03-19T13:26:46.000Z</time>
      </trkpt>
      <trkpt lat="46.00474" lon="3.21225">
        <ele>340</ele>
        <time>2011-03-19T13:26:56.000Z</time>
      </trkpt>
      <trkpt lat="46.00547" lon="3.21171">
        <ele>340</ele>
        <time>2011-03-19T13:27:08.000Z</time>
      </trkpt>
      <trkpt lat="46.00582" lon="3.21133">
        <ele>340.60000610352</ele>
        <time>2011-03-19T13:27:15.000Z</time>
      </trkpt>
      <trkpt lat="46.00612" lon="3.21089">
        <ele>341.20001220703</ele>
        <time>2011-03-19T13:27:22.000Z</time>
      </trkpt>
      <trkpt lat="46.00656" lon="3.21024">
        <ele>342</ele>
        <time>2011-03-19T13:27:33.000Z</time>
      </trkpt>
      <trkpt lat="46.00707" lon="3.20961">
        <ele>343.20001220703</ele>
        <time>2011-03-19T13:27:45.000Z</time>
      </trkpt>
      <trkpt lat="46.0075" lon="3.20923">
        <ele>344</ele>
        <time>2011-03-19T13:27:54.000Z</time>
      </trkpt>
      <trkpt lat="46.00814" lon="3.2087">
        <ele>345</ele>
        <time>2011-03-19T13:28:07.000Z</time>
      </trkpt>
      <trkpt lat="46.00868" lon="3.20825">
        <ele>345.20001220703</ele>
        <time>2011-03-19T13:28:18.000Z</time>
      </trkpt>
      <trkpt lat="46.00913" lon="3.20781">
        <ele>346.79998779297</ele>
        <time>2011-03-19T13:28:28.000Z</time>
      </trkpt>
      <trkpt lat="46.00959" lon="3.20725">
        <ele>348.60000610352</ele>
        <time>2011-03-19T13:28:39.000Z</time>
      </trkpt>
      <trkpt lat="46.00997" lon="3.20672">
        <ele>350</ele>
        <time>2011-03-19T13:28:49.000Z</time>
      </trkpt>
      <trkpt lat="46.01023" lon="3.20634">
        <ele>351.79998779297</ele>
        <time>2011-03-19T13:28:57.000Z</time>
      </trkpt>
      <trkpt lat="46.01055" lon="3.20588">
        <ele>355</ele>
        <time>2011-03-19T13:29:07.000Z</time>
      </trkpt>
      <trkpt lat="46.01086" lon="3.20544">
        <ele>357.39999389648</ele>
        <time>2011-03-19T13:29:17.000Z</time>
      </trkpt>
      <trkpt lat="46.0111" lon="3.2051">
        <ele>360.60000610352</ele>
        <time>2011-03-19T13:29:25.000Z</time>
      </trkpt>
      <trkpt lat="46.01137" lon="3.2047">
        <ele>362.20001220703</ele>
        <time>2011-03-19T13:29:34.000Z</time>
      </trkpt>
      <trkpt lat="46.01169" lon="3.20429">
        <ele>363.20001220703</ele>
        <time>2011-03-19T13:29:43.000Z</time>
      </trkpt>
      <trkpt lat="46.01201" lon="3.20401">
        <ele>363.79998779297</ele>
        <time>2011-03-19T13:29:50.000Z</time>
      </trkpt>
      <trkpt lat="46.01249" lon="3.20369">
        <ele>363.20001220703</ele>
        <time>2011-03-19T13:29:59.000Z</time>
      </trkpt>
      <trkpt lat="46.01293" lon="3.20344">
        <ele>361.60000610352</ele>
        <time>2011-03-19T13:30:06.000Z</time>
      </trkpt>
      <trkpt lat="46.01365" lon="3.203">
        <ele>360.60000610352</ele>
        <time>2011-03-19T13:30:17.000Z</time>
      </trkpt>
      <trkpt lat="46.01414" lon="3.20266">
        <ele>359.20001220703</ele>
        <time>2011-03-19T13:30:25.000Z</time>
      </trkpt>
      <trkpt lat="46.01461" lon="3.20227">
        <ele>357.39999389648</ele>
        <time>2011-03-19T13:30:32.000Z</time>
      </trkpt>
      <trkpt lat="46.01482" lon="3.20209">
        <ele>356</ele>
        <time>2011-03-19T13:30:35.000Z</time>
      </trkpt>
      <trkpt lat="46.01529" lon="3.20171">
        <ele>354.60000610352</ele>
        <time>2011-03-19T13:30:42.000Z</time>
      </trkpt>
      <trkpt lat="46.01571" lon="3.20141">
        <ele>352.60000610352</ele>
        <time>2011-03-19T13:30:49.000Z</time>
      </trkpt>
      <trkpt lat="46.01591" lon="3.20139">
        <ele>351.60000610352</ele>
        <time>2011-03-19T13:30:53.000Z</time>
      </trkpt>
      <trkpt lat="46.01603" lon="3.20156">
        <ele>351.39999389648</ele>
        <time>2011-03-19T13:30:56.000Z</time>
      </trkpt>
      <trkpt lat="46.01606" lon="3.20164">
        <ele>351</ele>
        <time>2011-03-19T13:30:57.000Z</time>
      </trkpt>
      <trkpt lat="46.01634" lon="3.20229">
        <ele>350</ele>
        <time>2011-03-19T13:31:05.000Z</time>
      </trkpt>
      <trkpt lat="46.01648" lon="3.20272">
        <ele>349.20001220703</ele>
        <time>2011-03-19T13:31:11.000Z</time>
      </trkpt>
      <trkpt lat="46.01655" lon="3.2031">
        <ele>349.20001220703</ele>
        <time>2011-03-19T13:31:17.000Z</time>
      </trkpt>
      <trkpt lat="46.0166" lon="3.20317">
        <ele>349.20001220703</ele>
        <time>2011-03-19T13:31:19.000Z</time>
      </trkpt>
      <trkpt lat="46.01676" lon="3.20313">
        <ele>349.39999389648</ele>
        <time>2011-03-19T13:31:25.000Z</time>
      </trkpt>
      <trkpt lat="46.01687" lon="3.20293">
        <ele>349.39999389648</ele>
        <time>2011-03-19T13:31:30.000Z</time>
      </trkpt>
      <trkpt lat="46.01701" lon="3.20264">
        <ele>348.79998779297</ele>
        <time>2011-03-19T13:31:35.000Z</time>
      </trkpt>
      <trkpt lat="46.01713" lon="3.20241">
        <ele>348.39999389648</ele>
        <time>2011-03-19T13:31:39.000Z</time>
      </trkpt>
      <trkpt lat="46.01719" lon="3.20232">
        <ele>348.39999389648</ele>
        <time>2011-03-19T13:31:41.000Z</time>
      </trkpt>
      <trkpt lat="46.01736" lon="3.2022">
        <ele>348.60000610352</ele>
        <time>2011-03-19T13:31:45.000Z</time>
      </trkpt>
      <trkpt lat="46.01772" lon="3.20214">
        <ele>347.79998779297</ele>
        <time>2011-03-19T13:31:53.000Z</time>
      </trkpt>
      <trkpt lat="46.01784" lon="3.20211">
        <ele>347.60000610352</ele>
        <time>2011-03-19T13:31:56.000Z</time>
      </trkpt>
      <trkpt lat="46.0179" lon="3.20191">
        <ele>348.20001220703</ele>
        <time>2011-03-19T13:32:00.000Z</time>
      </trkpt>
      <trkpt lat="46.01792" lon="3.2013">
        <ele>348.39999389648</ele>
        <time>2011-03-19T13:32:10.000Z</time>
      </trkpt>
      <trkpt lat="46.0179" lon="3.20094">
        <ele>347.79998779297</ele>
        <time>2011-03-19T13:32:16.000Z</time>
      </trkpt>
      <trkpt lat="46.01789" lon="3.20076">
        <ele>348</ele>
        <time>2011-03-19T13:32:19.000Z</time>
      </trkpt>
      <trkpt lat="46.01789" lon="3.20038">
        <ele>348.60000610352</ele>
        <time>2011-03-19T13:32:25.000Z</time>
      </trkpt>
      <trkpt lat="46.01793" lon="3.1999">
        <ele>347.79998779297</ele>
        <time>2011-03-19T13:32:33.000Z</time>
      </trkpt>
      <trkpt lat="46.01795" lon="3.19958">
        <ele>348</ele>
        <time>2011-03-19T13:32:38.000Z</time>
      </trkpt>
      <trkpt lat="46.01804" lon="3.19939">
        <ele>348.20001220703</ele>
        <time>2011-03-19T13:32:42.000Z</time>
      </trkpt>
      <trkpt lat="46.0182" lon="3.1994">
        <ele>348.20001220703</ele>
        <time>2011-03-19T13:32:46.000Z</time>
      </trkpt>
      <trkpt lat="46.01829" lon="3.19941">
        <ele>348.20001220703</ele>
        <time>2011-03-19T13:32:48.000Z</time>
      </trkpt>
      <trkpt lat="46.01866" lon="3.1995">
        <ele>348.20001220703</ele>
        <time>2011-03-19T13:32:56.000Z</time>
      </trkpt>
      <trkpt lat="46.01902" lon="3.19958">
        <ele>348.39999389648</ele>
        <time>2011-03-19T13:33:03.000Z</time>
      </trkpt>
      <trkpt lat="46.01954" lon="3.19967">
        <ele>348.60000610352</ele>
        <time>2011-03-19T13:33:13.000Z</time>
      </trkpt>
      <trkpt lat="46.02008" lon="3.19977">
        <ele>348.20001220703</ele>
        <time>2011-03-19T13:33:23.000Z</time>
      </trkpt>
      <trkpt lat="46.02044" lon="3.1998">
        <ele>348</ele>
        <time>2011-03-19T13:33:30.000Z</time>
      </trkpt>
      <trkpt lat="46.02101" lon="3.19975">
        <ele>348.39999389648</ele>
        <time>2011-03-19T13:33:41.000Z</time>
      </trkpt>
      <trkpt lat="46.02121" lon="3.19984">
        <ele>348.79998779297</ele>
        <time>2011-03-19T13:33:45.000Z</time>
      </trkpt>
      <trkpt lat="46.02167" lon="3.20019">
        <ele>349.20001220703</ele>
        <time>2011-03-19T13:33:55.000Z</time>
      </trkpt>
      <trkpt lat="46.02201" lon="3.20036">
        <ele>349.20001220703</ele>
        <time>2011-03-19T13:34:02.000Z</time>
      </trkpt>
      <trkpt lat="46.02212" lon="3.20034">
        <ele>349.39999389648</ele>
        <time>2011-03-19T13:34:06.000Z</time>
      </trkpt>
      <trkpt lat="46.02225" lon="3.2002">
        <ele>349.60000610352</ele>
        <time>2011-03-19T13:34:10.000Z</time>
      </trkpt>
      <trkpt lat="46.02248" lon="3.19988">
        <ele>349.39999389648</ele>
        <time>2011-03-19T13:34:16.000Z</time>
      </trkpt>
      <trkpt lat="46.02288" lon="3.1993">
        <ele>349.39999389648</ele>
        <time>2011-03-19T13:34:26.000Z</time>
      </trkpt>
      <trkpt lat="46.02322" lon="3.19878">
        <ele>349.79998779297</ele>
        <time>2011-03-19T13:34:35.000Z</time>
      </trkpt>
      <trkpt lat="46.0235" lon="3.19836">
        <ele>350.79998779297</ele>
        <time>2011-03-19T13:34:43.000Z</time>
      </trkpt>
      <trkpt lat="46.02375" lon="3.19799">
        <ele>351.79998779297</ele>
        <time>2011-03-19T13:34:51.000Z</time>
      </trkpt>
      <trkpt lat="46.02398" lon="3.19768">
        <ele>352.79998779297</ele>
        <time>2011-03-19T13:34:59.000Z</time>
      </trkpt>
      <trkpt lat="46.0243" lon="3.19721">
        <ele>353.60000610352</ele>
        <time>2011-03-19T13:35:09.000Z</time>
      </trkpt>
      <trkpt lat="46.02477" lon="3.1965">
        <ele>354.60000610352</ele>
        <time>2011-03-19T13:35:23.000Z</time>
      </trkpt>
      <trkpt lat="46.02497" lon="3.1961">
        <ele>355.39999389648</ele>
        <time>2011-03-19T13:35:30.000Z</time>
      </trkpt>
      <trkpt lat="46.0251" lon="3.19567">
        <ele>355</ele>
        <time>2011-03-19T13:35:36.000Z</time>
      </trkpt>
      <trkpt lat="46.02533" lon="3.19505">
        <ele>354.20001220703</ele>
        <time>2011-03-19T13:35:44.000Z</time>
      </trkpt>
      <trkpt lat="46.02561" lon="3.19439">
        <ele>354</ele>
        <time>2011-03-19T13:35:53.000Z</time>
      </trkpt>
      <trkpt lat="46.02592" lon="3.1938">
        <ele>353.60000610352</ele>
        <time>2011-03-19T13:36:02.000Z</time>
      </trkpt>
      <trkpt lat="46.02625" lon="3.19329">
        <ele>353.79998779297</ele>
        <time>2011-03-19T13:36:11.000Z</time>
      </trkpt>
      <trkpt lat="46.02657" lon="3.19265">
        <ele>354</ele>
        <time>2011-03-19T13:36:22.000Z</time>
      </trkpt>
      <trkpt lat="46.02692" lon="3.19193">
        <ele>355.20001220703</ele>
        <time>2011-03-19T13:36:35.000Z</time>
      </trkpt>
      <trkpt lat="46.02713" lon="3.19141">
        <ele>355.79998779297</ele>
        <time>2011-03-19T13:36:44.000Z</time>
      </trkpt>
      <trkpt lat="46.02742" lon="3.19064">
        <ele>357</ele>
        <time>2011-03-19T13:36:56.000Z</time>
      </trkpt>
      <trkpt lat="46.02773" lon="3.18997">
        <ele>356.60000610352</ele>
        <time>2011-03-19T13:37:06.000Z</time>
      </trkpt>
      <trkpt lat="46.0281" lon="3.18919">
        <ele>357.60000610352</ele>
        <time>2011-03-19T13:37:18.000Z</time>
      </trkpt>
      <trkpt lat="46.0284" lon="3.18853">
        <ele>358.79998779297</ele>
        <time>2011-03-19T13:37:28.000Z</time>
      </trkpt>
      <trkpt lat="46.02864" lon="3.18785">
        <ele>360</ele>
        <time>2011-03-19T13:37:38.000Z</time>
      </trkpt>
      <trkpt lat="46.0289" lon="3.18715">
        <ele>361.79998779297</ele>
        <time>2011-03-19T13:37:49.000Z</time>
      </trkpt>
      <trkpt lat="46.0292" lon="3.18675">
        <ele>362.79998779297</ele>
        <time>2011-03-19T13:37:57.000Z</time>
      </trkpt>
      <trkpt lat="46.02963" lon="3.18624">
        <ele>364.39999389648</ele>
        <time>2011-03-19T13:38:08.000Z</time>
      </trkpt>
      <trkpt lat="46.02988" lon="3.18578">
        <ele>365.60000610352</ele>
        <time>2011-03-19T13:38:16.000Z</time>
      </trkpt>
      <trkpt lat="46.03001" lon="3.18547">
        <ele>366.39999389648</ele>
        <time>2011-03-19T13:38:21.000Z</time>
      </trkpt>
      <trkpt lat="46.03004" lon="3.18511">
        <ele>367.39999389648</ele>
        <time>2011-03-19T13:38:26.000Z</time>
      </trkpt>
      <trkpt lat="46.03003" lon="3.18455">
        <ele>367.60000610352</ele>
        <time>2011-03-19T13:38:33.000Z</time>
      </trkpt>
      <trkpt lat="46.03011" lon="3.18391">
        <ele>367.20001220703</ele>
        <time>2011-03-19T13:38:41.000Z</time>
      </trkpt>
      <trkpt lat="46.03023" lon="3.18333">
        <ele>367</ele>
        <time>2011-03-19T13:38:49.000Z</time>
      </trkpt>
      <trkpt lat="46.03042" lon="3.18278">
        <ele>367</ele>
        <time>2011-03-19T13:38:57.000Z</time>
      </trkpt>
      <trkpt lat="46.03076" lon="3.18196">
        <ele>368.60000610352</ele>
        <time>2011-03-19T13:39:10.000Z</time>
      </trkpt>
      <trkpt lat="46.031" lon="3.1813">
        <ele>368.79998779297</ele>
        <time>2011-03-19T13:39:20.000Z</time>
      </trkpt>
      <trkpt lat="46.03117" lon="3.18058">
        <ele>370.79998779297</ele>
        <time>2011-03-19T13:39:31.000Z</time>
      </trkpt>
      <trkpt lat="46.03122" lon="3.18039">
        <ele>371.60000610352</ele>
        <time>2011-03-19T13:39:34.000Z</time>
      </trkpt>
      <trkpt lat="46.03133" lon="3.17989">
        <ele>372.60000610352</ele>
        <time>2011-03-19T13:39:42.000Z</time>
      </trkpt>
      <trkpt lat="46.03151" lon="3.17918">
        <ele>375.20001220703</ele>
        <time>2011-03-19T13:39:54.000Z</time>
      </trkpt>
      <trkpt lat="46.03168" lon="3.17855">
        <ele>378</ele>
        <time>2011-03-19T13:40:05.000Z</time>
      </trkpt>
      <trkpt lat="46.03185" lon="3.17797">
        <ele>380.39999389648</ele>
        <time>2011-03-19T13:40:15.000Z</time>
      </trkpt>
      <trkpt lat="46.03206" lon="3.17728">
        <ele>381.20001220703</ele>
        <time>2011-03-19T13:40:26.000Z</time>
      </trkpt>
      <trkpt lat="46.03213" lon="3.1768">
        <ele>382.20001220703</ele>
        <time>2011-03-19T13:40:33.000Z</time>
      </trkpt>
      <trkpt lat="46.03209" lon="3.17626">
        <ele>383</ele>
        <time>2011-03-19T13:40:41.000Z</time>
      </trkpt>
      <trkpt lat="46.03199" lon="3.17559">
        <ele>384.20001220703</ele>
        <time>2011-03-19T13:40:51.000Z</time>
      </trkpt>
      <trkpt lat="46.03198" lon="3.17553">
        <ele>384.39999389648</ele>
        <time>2011-03-19T13:40:52.000Z</time>
      </trkpt>
      <trkpt lat="46.0319" lon="3.17531">
        <ele>385</ele>
        <time>2011-03-19T13:40:56.000Z</time>
      </trkpt>
      <trkpt lat="46.03162" lon="3.17486">
        <ele>387</ele>
        <time>2011-03-19T13:41:06.000Z</time>
      </trkpt>
      <trkpt lat="46.03141" lon="3.17453">
        <ele>388.60000610352</ele>
        <time>2011-03-19T13:41:14.000Z</time>
      </trkpt>
      <trkpt lat="46.0312" lon="3.17417">
        <ele>392</ele>
        <time>2011-03-19T13:41:23.000Z</time>
      </trkpt>
      <trkpt lat="46.03098" lon="3.17393">
        <ele>394.60000610352</ele>
        <time>2011-03-19T13:41:31.000Z</time>
      </trkpt>
      <trkpt lat="46.03078" lon="3.17387">
        <ele>396</ele>
        <time>2011-03-19T13:41:37.000Z</time>
      </trkpt>
      <trkpt lat="46.0306" lon="3.17394">
        <ele>397.60000610352</ele>
        <time>2011-03-19T13:41:42.000Z</time>
      </trkpt>
      <trkpt lat="46.03032" lon="3.17423">
        <ele>400.60000610352</ele>
        <time>2011-03-19T13:41:51.000Z</time>
      </trkpt>
      <trkpt lat="46.02997" lon="3.17465">
        <ele>403</ele>
        <time>2011-03-19T13:42:03.000Z</time>
      </trkpt>
      <trkpt lat="46.02972" lon="3.17503">
        <ele>405.60000610352</ele>
        <time>2011-03-19T13:42:12.000Z</time>
      </trkpt>
      <trkpt lat="46.02946" lon="3.17546">
        <ele>407.39999389648</ele>
        <time>2011-03-19T13:42:22.000Z</time>
      </trkpt>
      <trkpt lat="46.02916" lon="3.17578">
        <ele>409.79998779297</ele>
        <time>2011-03-19T13:42:31.000Z</time>
      </trkpt>
      <trkpt lat="46.02895" lon="3.17595">
        <ele>411.39999389648</ele>
        <time>2011-03-19T13:42:37.000Z</time>
      </trkpt>
      <trkpt lat="46.02867" lon="3.17603">
        <ele>413</ele>
        <time>2011-03-19T13:42:44.000Z</time>
      </trkpt>
      <trkpt lat="46.02859" lon="3.17602">
        <ele>413.79998779297</ele>
        <time>2011-03-19T13:42:46.000Z</time>
      </trkpt>
      <trkpt lat="46.02843" lon="3.17593">
        <ele>415.60000610352</ele>
        <time>2011-03-19T13:42:50.000Z</time>
      </trkpt>
      <trkpt lat="46.02836" lon="3.17586">
        <ele>415.79998779297</ele>
        <time>2011-03-19T13:42:52.000Z</time>
      </trkpt>
      <trkpt lat="46.02824" lon="3.17568">
        <ele>416.79998779297</ele>
        <time>2011-03-19T13:42:56.000Z</time>
      </trkpt>
      <trkpt lat="46.02814" lon="3.17531">
        <ele>418.39999389648</ele>
        <time>2011-03-19T13:43:02.000Z</time>
      </trkpt>
      <trkpt lat="46.02814" lon="3.17525">
        <ele>418.60000610352</ele>
        <time>2011-03-19T13:43:03.000Z</time>
      </trkpt>
      <trkpt lat="46.02818" lon="3.17464">
        <ele>421</ele>
        <time>2011-03-19T13:43:13.000Z</time>
      </trkpt>
      <trkpt lat="46.02826" lon="3.1742">
        <ele>423</ele>
        <time>2011-03-19T13:43:21.000Z</time>
      </trkpt>
      <trkpt lat="46.02842" lon="3.17367">
        <ele>426.39999389648</ele>
        <time>2011-03-19T13:43:31.000Z</time>
      </trkpt>
      <trkpt lat="46.02859" lon="3.17312">
        <ele>428.39999389648</ele>
        <time>2011-03-19T13:43:41.000Z</time>
      </trkpt>
      <trkpt lat="46.02874" lon="3.17264">
        <ele>430.79998779297</ele>
        <time>2011-03-19T13:43:50.000Z</time>
      </trkpt>
      <trkpt lat="46.02894" lon="3.1721">
        <ele>433.20001220703</ele>
        <time>2011-03-19T13:44:00.000Z</time>
      </trkpt>
      <trkpt lat="46.02917" lon="3.17144">
        <ele>435.39999389648</ele>
        <time>2011-03-19T13:44:12.000Z</time>
      </trkpt>
      <trkpt lat="46.02923" lon="3.17095">
        <ele>437</ele>
        <time>2011-03-19T13:44:20.000Z</time>
      </trkpt>
      <trkpt lat="46.02926" lon="3.17027">
        <ele>440.60000610352</ele>
        <time>2011-03-19T13:44:31.000Z</time>
      </trkpt>
      <trkpt lat="46.02932" lon="3.16977">
        <ele>442.39999389648</ele>
        <time>2011-03-19T13:44:39.000Z</time>
      </trkpt>
      <trkpt lat="46.02948" lon="3.16932">
        <ele>444.39999389648</ele>
        <time>2011-03-19T13:44:47.000Z</time>
      </trkpt>
      <trkpt lat="46.02966" lon="3.16876">
        <ele>446.39999389648</ele>
        <time>2011-03-19T13:44:57.000Z</time>
      </trkpt>
      <trkpt lat="46.02977" lon="3.16816">
        <ele>449.39999389648</ele>
        <time>2011-03-19T13:45:07.000Z</time>
      </trkpt>
      <trkpt lat="46.02988" lon="3.16756">
        <ele>451.60000610352</ele>
        <time>2011-03-19T13:45:17.000Z</time>
      </trkpt>
      <trkpt lat="46.03002" lon="3.1672">
        <ele>453.79998779297</ele>
        <time>2011-03-19T13:45:24.000Z</time>
      </trkpt>
      <trkpt lat="46.03028" lon="3.16682">
        <ele>456</ele>
        <time>2011-03-19T13:45:33.000Z</time>
      </trkpt>
      <trkpt lat="46.03059" lon="3.16642">
        <ele>459</ele>
        <time>2011-03-19T13:45:43.000Z</time>
      </trkpt>
      <trkpt lat="46.03092" lon="3.16596">
        <ele>461.79998779297</ele>
        <time>2011-03-19T13:45:54.000Z</time>
      </trkpt>
      <trkpt lat="46.03114" lon="3.1657">
        <ele>463.20001220703</ele>
        <time>2011-03-19T13:46:00.000Z</time>
      </trkpt>
      <trkpt lat="46.03146" lon="3.16553">
        <ele>463.79998779297</ele>
        <time>2011-03-19T13:46:07.000Z</time>
      </trkpt>
      <trkpt lat="46.03191" lon="3.16545">
        <ele>464</ele>
        <time>2011-03-19T13:46:16.000Z</time>
      </trkpt>
      <trkpt lat="46.03239" lon="3.16547">
        <ele>466</ele>
        <time>2011-03-19T13:46:26.000Z</time>
      </trkpt>
      <trkpt lat="46.03275" lon="3.16543">
        <ele>467.79998779297</ele>
        <time>2011-03-19T13:46:34.000Z</time>
      </trkpt>
      <trkpt lat="46.03298" lon="3.16537">
        <ele>468.60000610352</ele>
        <time>2011-03-19T13:46:39.000Z</time>
      </trkpt>
      <trkpt lat="46.03345" lon="3.16543">
        <ele>471.39999389648</ele>
        <time>2011-03-19T13:46:49.000Z</time>
      </trkpt>
      <trkpt lat="46.03378" lon="3.16537">
        <ele>472.79998779297</ele>
        <time>2011-03-19T13:46:56.000Z</time>
      </trkpt>
      <trkpt lat="46.03412" lon="3.1652">
        <ele>474.39999389648</ele>
        <time>2011-03-19T13:47:04.000Z</time>
      </trkpt>
      <trkpt lat="46.03442" lon="3.16501">
        <ele>477</ele>
        <time>2011-03-19T13:47:12.000Z</time>
      </trkpt>
      <trkpt lat="46.03458" lon="3.16475">
        <ele>478.20001220703</ele>
        <time>2011-03-19T13:47:18.000Z</time>
      </trkpt>
      <trkpt lat="46.03462" lon="3.1645">
        <ele>479.39999389648</ele>
        <time>2011-03-19T13:47:22.000Z</time>
      </trkpt>
      <trkpt lat="46.03463" lon="3.16392">
        <ele>481.20001220703</ele>
        <time>2011-03-19T13:47:31.000Z</time>
      </trkpt>
      <trkpt lat="46.03463" lon="3.16363">
        <ele>482.60000610352</ele>
        <time>2011-03-19T13:47:37.000Z</time>
      </trkpt>
      <trkpt lat="46.03458" lon="3.16358">
        <ele>483.39999389648</ele>
        <time>2011-03-19T13:47:41.000Z</time>
      </trkpt>
      <trkpt lat="46.03457" lon="3.16358">
        <ele>483.60000610352</ele>
        <time>2011-03-19T13:47:43.000Z</time>
      </trkpt>
      <trkpt lat="46.03454" lon="3.16368">
        <ele>483.20001220703</ele>
        <time>2011-03-19T13:48:20.000Z</time>
      </trkpt>
      <trkpt lat="46.03456" lon="3.16368">
        <ele>483</ele>
        <time>2011-03-19T13:48:33.000Z</time>
      </trkpt>
      <trkpt lat="46.03463" lon="3.16361">
        <ele>483</ele>
        <time>2011-03-19T13:49:38.000Z</time>
      </trkpt>
      <trkpt lat="46.03463" lon="3.16357">
        <ele>483.20001220703</ele>
        <time>2011-03-19T13:49:39.000Z</time>
      </trkpt>
      <trkpt lat="46.03463" lon="3.16325">
        <ele>484.60000610352</ele>
        <time>2011-03-19T13:49:45.000Z</time>
      </trkpt>
      <trkpt lat="46.03465" lon="3.16271">
        <ele>486</ele>
        <time>2011-03-19T13:49:53.000Z</time>
      </trkpt>
      <trkpt lat="46.03465" lon="3.16222">
        <ele>486.79998779297</ele>
        <time>2011-03-19T13:50:00.000Z</time>
      </trkpt>
      <trkpt lat="46.03465" lon="3.16167">
        <ele>485.60000610352</ele>
        <time>2011-03-19T13:50:06.000Z</time>
      </trkpt>
      <trkpt lat="46.03463" lon="3.16089">
        <ele>483.39999389648</ele>
        <time>2011-03-19T13:50:13.000Z</time>
      </trkpt>
      <trkpt lat="46.03454" lon="3.1602">
        <ele>481.39999389648</ele>
        <time>2011-03-19T13:50:19.000Z</time>
      </trkpt>
      <trkpt lat="46.03453" lon="3.15997">
        <ele>481.20001220703</ele>
        <time>2011-03-19T13:50:21.000Z</time>
      </trkpt>
      <trkpt lat="46.03458" lon="3.15954">
        <ele>480.39999389648</ele>
        <time>2011-03-19T13:50:25.000Z</time>
      </trkpt>
      <trkpt lat="46.03474" lon="3.15909">
        <ele>480.20001220703</ele>
        <time>2011-03-19T13:50:30.000Z</time>
      </trkpt>
      <trkpt lat="46.03506" lon="3.15839">
        <ele>480.20001220703</ele>
        <time>2011-03-19T13:50:39.000Z</time>
      </trkpt>
      <trkpt lat="46.03529" lon="3.15773">
        <ele>480.20001220703</ele>
        <time>2011-03-19T13:50:47.000Z</time>
      </trkpt>
      <trkpt lat="46.0355" lon="3.15675">
        <ele>480.39999389648</ele>
        <time>2011-03-19T13:50:58.000Z</time>
      </trkpt>
      <trkpt lat="46.03564" lon="3.15595">
        <ele>479.79998779297</ele>
        <time>2011-03-19T13:51:07.000Z</time>
      </trkpt>
      <trkpt lat="46.03574" lon="3.15537">
        <ele>480</ele>
        <time>2011-03-19T13:51:14.000Z</time>
      </trkpt>
      <trkpt lat="46.03594" lon="3.15466">
        <ele>480.60000610352</ele>
        <time>2011-03-19T13:51:23.000Z</time>
      </trkpt>
      <trkpt lat="46.03624" lon="3.15374">
        <ele>481</ele>
        <time>2011-03-19T13:51:35.000Z</time>
      </trkpt>
      <trkpt lat="46.03645" lon="3.15303">
        <ele>481.39999389648</ele>
        <time>2011-03-19T13:51:44.000Z</time>
      </trkpt>
      <trkpt lat="46.03661" lon="3.15237">
        <ele>481.20001220703</ele>
        <time>2011-03-19T13:51:52.000Z</time>
      </trkpt>
      <trkpt lat="46.03673" lon="3.15157">
        <ele>481</ele>
        <time>2011-03-19T13:52:01.000Z</time>
      </trkpt>
      <trkpt lat="46.03683" lon="3.15082">
        <ele>481.20001220703</ele>
        <time>2011-03-19T13:52:09.000Z</time>
      </trkpt>
      <trkpt lat="46.03688" lon="3.15008">
        <ele>482</ele>
        <time>2011-03-19T13:52:17.000Z</time>
      </trkpt>
      <trkpt lat="46.03688" lon="3.14934">
        <ele>483.20001220703</ele>
        <time>2011-03-19T13:52:25.000Z</time>
      </trkpt>
      <trkpt lat="46.03694" lon="3.14854">
        <ele>484.20001220703</ele>
        <time>2011-03-19T13:52:34.000Z</time>
      </trkpt>
      <trkpt lat="46.03707" lon="3.1477">
        <ele>485.39999389648</ele>
        <time>2011-03-19T13:52:44.000Z</time>
      </trkpt>
      <trkpt lat="46.03725" lon="3.14681">
        <ele>486.60000610352</ele>
        <time>2011-03-19T13:52:56.000Z</time>
      </trkpt>
      <trkpt lat="46.03739" lon="3.14613">
        <ele>487.60000610352</ele>
        <time>2011-03-19T13:53:05.000Z</time>
      </trkpt>
      <trkpt lat="46.03757" lon="3.14538">
        <ele>488.79998779297</ele>
        <time>2011-03-19T13:53:15.000Z</time>
      </trkpt>
      <trkpt lat="46.03783" lon="3.14451">
        <ele>490.60000610352</ele>
        <time>2011-03-19T13:53:27.000Z</time>
      </trkpt>
      <trkpt lat="46.03803" lon="3.1439">
        <ele>491</ele>
        <time>2011-03-19T13:53:35.000Z</time>
      </trkpt>
      <trkpt lat="46.03827" lon="3.14349">
        <ele>491.20001220703</ele>
        <time>2011-03-19T13:53:41.000Z</time>
      </trkpt>
      <trkpt lat="46.03858" lon="3.1429">
        <ele>490.79998779297</ele>
        <time>2011-03-19T13:53:49.000Z</time>
      </trkpt>
      <trkpt lat="46.03875" lon="3.14235">
        <ele>491.39999389648</ele>
        <time>2011-03-19T13:53:56.000Z</time>
      </trkpt>
      <trkpt lat="46.03899" lon="3.14153">
        <ele>492.60000610352</ele>
        <time>2011-03-19T13:54:06.000Z</time>
      </trkpt>
      <trkpt lat="46.03916" lon="3.14084">
        <ele>493.20001220703</ele>
        <time>2011-03-19T13:54:14.000Z</time>
      </trkpt>
      <trkpt lat="46.03934" lon="3.14017">
        <ele>493.79998779297</ele>
        <time>2011-03-19T13:54:22.000Z</time>
      </trkpt>
      <trkpt lat="46.03962" lon="3.13957">
        <ele>494.60000610352</ele>
        <time>2011-03-19T13:54:30.000Z</time>
      </trkpt>
      <trkpt lat="46.03991" lon="3.13884">
        <ele>495.20001220703</ele>
        <time>2011-03-19T13:54:39.000Z</time>
      </trkpt>
      <trkpt lat="46.04011" lon="3.13817">
        <ele>496.39999389648</ele>
        <time>2011-03-19T13:54:47.000Z</time>
      </trkpt>
      <trkpt lat="46.04034" lon="3.13753">
        <ele>497.60000610352</ele>
        <time>2011-03-19T13:54:56.000Z</time>
      </trkpt>
      <trkpt lat="46.0405" lon="3.13719">
        <ele>498.39999389648</ele>
        <time>2011-03-19T13:55:02.000Z</time>
      </trkpt>
      <trkpt lat="46.04065" lon="3.13661">
        <ele>498.79998779297</ele>
        <time>2011-03-19T13:55:11.000Z</time>
      </trkpt>
      <trkpt lat="46.04078" lon="3.13609">
        <ele>498.60000610352</ele>
        <time>2011-03-19T13:55:19.000Z</time>
      </trkpt>
      <trkpt lat="46.04093" lon="3.13571">
        <ele>499.39999389648</ele>
        <time>2011-03-19T13:55:25.000Z</time>
      </trkpt>
      <trkpt lat="46.04121" lon="3.13514">
        <ele>498</ele>
        <time>2011-03-19T13:55:33.000Z</time>
      </trkpt>
      <trkpt lat="46.04152" lon="3.13444">
        <ele>494.79998779297</ele>
        <time>2011-03-19T13:55:41.000Z</time>
      </trkpt>
      <trkpt lat="46.04181" lon="3.13378">
        <ele>493.20001220703</ele>
        <time>2011-03-19T13:55:48.000Z</time>
      </trkpt>
      <trkpt lat="46.04184" lon="3.13339">
        <ele>493</ele>
        <time>2011-03-19T13:55:52.000Z</time>
      </trkpt>
      <trkpt lat="46.04179" lon="3.13321">
        <ele>492.79998779297</ele>
        <time>2011-03-19T13:55:54.000Z</time>
      </trkpt>
      <trkpt lat="46.0416" lon="3.1328">
        <ele>493</ele>
        <time>2011-03-19T13:55:59.000Z</time>
      </trkpt>
      <trkpt lat="46.04143" lon="3.13218">
        <ele>493.20001220703</ele>
        <time>2011-03-19T13:56:06.000Z</time>
      </trkpt>
      <trkpt lat="46.04132" lon="3.13161">
        <ele>493.79998779297</ele>
        <time>2011-03-19T13:56:13.000Z</time>
      </trkpt>
      <trkpt lat="46.04126" lon="3.1313">
        <ele>494.39999389648</ele>
        <time>2011-03-19T13:56:17.000Z</time>
      </trkpt>
      <trkpt lat="46.04113" lon="3.13086">
        <ele>495.60000610352</ele>
        <time>2011-03-19T13:56:24.000Z</time>
      </trkpt>
      <trkpt lat="46.04099" lon="3.13037">
        <ele>496.20001220703</ele>
        <time>2011-03-19T13:56:32.000Z</time>
      </trkpt>
      <trkpt lat="46.04094" lon="3.12996">
        <ele>496.60000610352</ele>
        <time>2011-03-19T13:56:38.000Z</time>
      </trkpt>
      <trkpt lat="46.04098" lon="3.12947">
        <ele>497.39999389648</ele>
        <time>2011-03-19T13:56:45.000Z</time>
      </trkpt>
      <trkpt lat="46.04107" lon="3.12916">
        <ele>498</ele>
        <time>2011-03-19T13:56:50.000Z</time>
      </trkpt>
      <trkpt lat="46.04132" lon="3.12877">
        <ele>499</ele>
        <time>2011-03-19T13:56:58.000Z</time>
      </trkpt>
      <trkpt lat="46.04155" lon="3.12849">
        <ele>499.60000610352</ele>
        <time>2011-03-19T13:57:05.000Z</time>
      </trkpt>
      <trkpt lat="46.04158" lon="3.12849">
        <ele>499.79998779297</ele>
        <time>2011-03-19T13:57:08.000Z</time>
      </trkpt>
      <trkpt lat="46.0416" lon="3.12838">
        <ele>500</ele>
        <time>2011-03-19T13:57:53.000Z</time>
      </trkpt>
      <trkpt lat="46.04168" lon="3.12818">
        <ele>500</ele>
        <time>2011-03-19T13:57:58.000Z</time>
      </trkpt>
      <trkpt lat="46.04182" lon="3.12782">
        <ele>500.20001220703</ele>
        <time>2011-03-19T13:58:03.000Z</time>
      </trkpt>
      <trkpt lat="46.04214" lon="3.12699">
        <ele>500.79998779297</ele>
        <time>2011-03-19T13:58:13.000Z</time>
      </trkpt>
      <trkpt lat="46.04238" lon="3.12656">
        <ele>500.79998779297</ele>
        <time>2011-03-19T13:58:19.000Z</time>
      </trkpt>
      <trkpt lat="46.04273" lon="3.1259">
        <ele>501.39999389648</ele>
        <time>2011-03-19T13:58:28.000Z</time>
      </trkpt>
      <trkpt lat="46.04309" lon="3.12512">
        <ele>502</ele>
        <time>2011-03-19T13:58:38.000Z</time>
      </trkpt>
      <trkpt lat="46.04341" lon="3.12455">
        <ele>502.79998779297</ele>
        <time>2011-03-19T13:58:46.000Z</time>
      </trkpt>
      <trkpt lat="46.04369" lon="3.12413">
        <ele>503.79998779297</ele>
        <time>2011-03-19T13:58:54.000Z</time>
      </trkpt>
      <trkpt lat="46.04399" lon="3.12376">
        <ele>505.39999389648</ele>
        <time>2011-03-19T13:59:03.000Z</time>
      </trkpt>
      <trkpt lat="46.04421" lon="3.12348">
        <ele>506.39999389648</ele>
        <time>2011-03-19T13:59:11.000Z</time>
      </trkpt>
      <trkpt lat="46.04445" lon="3.12319">
        <ele>507.60000610352</ele>
        <time>2011-03-19T13:59:19.000Z</time>
      </trkpt>
      <trkpt lat="46.0447" lon="3.12287">
        <ele>509.60000610352</ele>
        <time>2011-03-19T13:59:28.000Z</time>
      </trkpt>
      <trkpt lat="46.04502" lon="3.12248">
        <ele>511.60000610352</ele>
        <time>2011-03-19T13:59:39.000Z</time>
      </trkpt>
      <trkpt lat="46.04533" lon="3.1221">
        <ele>513.79998779297</ele>
        <time>2011-03-19T13:59:50.000Z</time>
      </trkpt>
      <trkpt lat="46.04551" lon="3.12188">
        <ele>515.59997558594</ele>
        <time>2011-03-19T13:59:57.000Z</time>
      </trkpt>
      <trkpt lat="46.04569" lon="3.12165">
        <ele>516.79998779297</ele>
        <time>2011-03-19T14:00:04.000Z</time>
      </trkpt>
      <trkpt lat="46.04587" lon="3.12142">
        <ele>518.40002441406</ele>
        <time>2011-03-19T14:00:11.000Z</time>
      </trkpt>
      <trkpt lat="46.04613" lon="3.12113">
        <ele>520</ele>
        <time>2011-03-19T14:00:20.000Z</time>
      </trkpt>
      <trkpt lat="46.04637" lon="3.12089">
        <ele>521.40002441406</ele>
        <time>2011-03-19T14:00:28.000Z</time>
      </trkpt>
      <trkpt lat="46.04657" lon="3.12072">
        <ele>522.20001220703</ele>
        <time>2011-03-19T14:00:35.000Z</time>
      </trkpt>
      <trkpt lat="46.04691" lon="3.12041">
        <ele>523</ele>
        <time>2011-03-19T14:00:45.000Z</time>
      </trkpt>
      <trkpt lat="46.04732" lon="3.12006">
        <ele>523.59997558594</ele>
        <time>2011-03-19T14:00:56.000Z</time>
      </trkpt>
      <trkpt lat="46.04764" lon="3.11984">
        <ele>525</ele>
        <time>2011-03-19T14:01:05.000Z</time>
      </trkpt>
      <trkpt lat="46.0479" lon="3.1197">
        <ele>525.79998779297</ele>
        <time>2011-03-19T14:01:12.000Z</time>
      </trkpt>
      <trkpt lat="46.04822" lon="3.11954">
        <ele>527</ele>
        <time>2011-03-19T14:01:21.000Z</time>
      </trkpt>
      <trkpt lat="46.04854" lon="3.11937">
        <ele>529</ele>
        <time>2011-03-19T14:01:30.000Z</time>
      </trkpt>
      <trkpt lat="46.04902" lon="3.11915">
        <ele>530.79998779297</ele>
        <time>2011-03-19T14:01:42.000Z</time>
      </trkpt>
      <trkpt lat="46.0493" lon="3.11907">
        <ele>532.20001220703</ele>
        <time>2011-03-19T14:01:49.000Z</time>
      </trkpt>
      <trkpt lat="46.04966" lon="3.11904">
        <ele>533.79998779297</ele>
        <time>2011-03-19T14:01:58.000Z</time>
      </trkpt>
      <trkpt lat="46.05001" lon="3.11899">
        <ele>535.79998779297</ele>
        <time>2011-03-19T14:02:08.000Z</time>
      </trkpt>
      <trkpt lat="46.05022" lon="3.11897">
        <ele>536.59997558594</ele>
        <time>2011-03-19T14:02:14.000Z</time>
      </trkpt>
      <trkpt lat="46.05064" lon="3.11891">
        <ele>539</ele>
        <time>2011-03-19T14:02:25.000Z</time>
      </trkpt>
      <trkpt lat="46.05088" lon="3.11888">
        <ele>540</ele>
        <time>2011-03-19T14:02:32.000Z</time>
      </trkpt>
      <trkpt lat="46.05111" lon="3.11885">
        <ele>540.79998779297</ele>
        <time>2011-03-19T14:02:38.000Z</time>
      </trkpt>
      <trkpt lat="46.05135" lon="3.11882">
        <ele>541.79998779297</ele>
        <time>2011-03-19T14:02:44.000Z</time>
      </trkpt>
      <trkpt lat="46.05185" lon="3.11876">
        <ele>543.79998779297</ele>
        <time>2011-03-19T14:02:56.000Z</time>
      </trkpt>
      <trkpt lat="46.05228" lon="3.11876">
        <ele>545.20001220703</ele>
        <time>2011-03-19T14:03:06.000Z</time>
      </trkpt>
      <trkpt lat="46.05275" lon="3.11876">
        <ele>547</ele>
        <time>2011-03-19T14:03:17.000Z</time>
      </trkpt>
      <trkpt lat="46.05323" lon="3.11877">
        <ele>549.40002441406</ele>
        <time>2011-03-19T14:03:29.000Z</time>
      </trkpt>
      <trkpt lat="46.05353" lon="3.11877">
        <ele>551.20001220703</ele>
        <time>2011-03-19T14:03:37.000Z</time>
      </trkpt>
      <trkpt lat="46.05399" lon="3.11877">
        <ele>553.20001220703</ele>
        <time>2011-03-19T14:03:49.000Z</time>
      </trkpt>
      <trkpt lat="46.05438" lon="3.11878">
        <ele>555.20001220703</ele>
        <time>2011-03-19T14:03:59.000Z</time>
      </trkpt>
      <trkpt lat="46.05465" lon="3.11877">
        <ele>556.79998779297</ele>
        <time>2011-03-19T14:04:06.000Z</time>
      </trkpt>
      <trkpt lat="46.05503" lon="3.11878">
        <ele>558.40002441406</ele>
        <time>2011-03-19T14:04:15.000Z</time>
      </trkpt>
      <trkpt lat="46.05549" lon="3.11879">
        <ele>560.20001220703</ele>
        <time>2011-03-19T14:04:26.000Z</time>
      </trkpt>
      <trkpt lat="46.05597" lon="3.11879">
        <ele>561.40002441406</ele>
        <time>2011-03-19T14:04:37.000Z</time>
      </trkpt>
      <trkpt lat="46.0564" lon="3.1188">
        <ele>562.79998779297</ele>
        <time>2011-03-19T14:04:47.000Z</time>
      </trkpt>
      <trkpt lat="46.05702" lon="3.11881">
        <ele>564.59997558594</ele>
        <time>2011-03-19T14:05:01.000Z</time>
      </trkpt>
      <trkpt lat="46.05738" lon="3.11879">
        <ele>565.79998779297</ele>
        <time>2011-03-19T14:05:09.000Z</time>
      </trkpt>
      <trkpt lat="46.05784" lon="3.11871">
        <ele>567.79998779297</ele>
        <time>2011-03-19T14:05:19.000Z</time>
      </trkpt>
      <trkpt lat="46.05836" lon="3.11855">
        <ele>568.40002441406</ele>
        <time>2011-03-19T14:05:30.000Z</time>
      </trkpt>
      <trkpt lat="46.05884" lon="3.11839">
        <ele>569.20001220703</ele>
        <time>2011-03-19T14:05:40.000Z</time>
      </trkpt>
      <trkpt lat="46.05926" lon="3.11826">
        <ele>569.79998779297</ele>
        <time>2011-03-19T14:05:48.000Z</time>
      </trkpt>
      <trkpt lat="46.05971" lon="3.11812">
        <ele>569.20001220703</ele>
        <time>2011-03-19T14:05:56.000Z</time>
      </trkpt>
      <trkpt lat="46.06029" lon="3.11794">
        <ele>568</ele>
        <time>2011-03-19T14:06:06.000Z</time>
      </trkpt>
      <trkpt lat="46.06077" lon="3.11773">
        <ele>567.40002441406</ele>
        <time>2011-03-19T14:06:15.000Z</time>
      </trkpt>
      <trkpt lat="46.06105" lon="3.11748">
        <ele>568.59997558594</ele>
        <time>2011-03-19T14:06:22.000Z</time>
      </trkpt>
      <trkpt lat="46.06122" lon="3.11727">
        <ele>570</ele>
        <time>2011-03-19T14:06:28.000Z</time>
      </trkpt>
      <trkpt lat="46.06139" lon="3.117">
        <ele>571.59997558594</ele>
        <time>2011-03-19T14:06:36.000Z</time>
      </trkpt>
      <trkpt lat="46.06141" lon="3.11696">
        <ele>571.79998779297</ele>
        <time>2011-03-19T14:06:38.000Z</time>
      </trkpt>
      <trkpt lat="46.06145" lon="3.11683">
        <ele>572.20001220703</ele>
        <time>2011-03-19T14:06:43.000Z</time>
      </trkpt>
      <trkpt lat="46.06146" lon="3.11681">
        <ele>572.40002441406</ele>
        <time>2011-03-19T14:06:44.000Z</time>
      </trkpt>
      <trkpt lat="46.06154" lon="3.11662">
        <ele>573.20001220703</ele>
        <time>2011-03-19T14:06:52.000Z</time>
      </trkpt>
      <trkpt lat="46.06162" lon="3.11643">
        <ele>573.79998779297</ele>
        <time>2011-03-19T14:06:58.000Z</time>
      </trkpt>
      <trkpt lat="46.06175" lon="3.1161">
        <ele>575.20001220703</ele>
        <time>2011-03-19T14:07:06.000Z</time>
      </trkpt>
      <trkpt lat="46.06187" lon="3.11574">
        <ele>576.79998779297</ele>
        <time>2011-03-19T14:07:14.000Z</time>
      </trkpt>
      <trkpt lat="46.062" lon="3.11537">
        <ele>578.40002441406</ele>
        <time>2011-03-19T14:07:22.000Z</time>
      </trkpt>
      <trkpt lat="46.06202" lon="3.11532">
        <ele>578.40002441406</ele>
        <time>2011-03-19T14:07:23.000Z</time>
      </trkpt>
      <trkpt lat="46.06223" lon="3.11475">
        <ele>579.20001220703</ele>
        <time>2011-03-19T14:07:33.000Z</time>
      </trkpt>
      <trkpt lat="46.06243" lon="3.11437">
        <ele>579</ele>
        <time>2011-03-19T14:07:40.000Z</time>
      </trkpt>
      <trkpt lat="46.06274" lon="3.11407">
        <ele>578</ele>
        <time>2011-03-19T14:07:47.000Z</time>
      </trkpt>
      <trkpt lat="46.06321" lon="3.11375">
        <ele>575.79998779297</ele>
        <time>2011-03-19T14:07:55.000Z</time>
      </trkpt>
      <trkpt lat="46.06372" lon="3.11341">
        <ele>574.40002441406</ele>
        <time>2011-03-19T14:08:02.000Z</time>
      </trkpt>
      <trkpt lat="46.06438" lon="3.11289">
        <ele>572.40002441406</ele>
        <time>2011-03-19T14:08:11.000Z</time>
      </trkpt>
      <trkpt lat="46.06508" lon="3.11235">
        <ele>571.59997558594</ele>
        <time>2011-03-19T14:08:20.000Z</time>
      </trkpt>
      <trkpt lat="46.06554" lon="3.11198">
        <ele>573.20001220703</ele>
        <time>2011-03-19T14:08:27.000Z</time>
      </trkpt>
      <trkpt lat="46.06619" lon="3.1115">
        <ele>575.79998779297</ele>
        <time>2011-03-19T14:08:37.000Z</time>
      </trkpt>
      <trkpt lat="46.06677" lon="3.11116">
        <ele>575.59997558594</ele>
        <time>2011-03-19T14:08:45.000Z</time>
      </trkpt>
      <trkpt lat="46.06737" lon="3.11081">
        <ele>574</ele>
        <time>2011-03-19T14:08:53.000Z</time>
      </trkpt>
      <trkpt lat="46.06787" lon="3.11039">
        <ele>572.40002441406</ele>
        <time>2011-03-19T14:09:00.000Z</time>
      </trkpt>
      <trkpt lat="46.06856" lon="3.10971">
        <ele>570.40002441406</ele>
        <time>2011-03-19T14:09:10.000Z</time>
      </trkpt>
      <trkpt lat="46.06899" lon="3.10943">
        <ele>570.20001220703</ele>
        <time>2011-03-19T14:09:16.000Z</time>
      </trkpt>
      <trkpt lat="46.06969" lon="3.10909">
        <ele>571.40002441406</ele>
        <time>2011-03-19T14:09:26.000Z</time>
      </trkpt>
      <trkpt lat="46.07038" lon="3.10877">
        <ele>572.20001220703</ele>
        <time>2011-03-19T14:09:36.000Z</time>
      </trkpt>
      <trkpt lat="46.07088" lon="3.10861">
        <ele>572.40002441406</ele>
        <time>2011-03-19T14:09:43.000Z</time>
      </trkpt>
      <trkpt lat="46.07139" lon="3.10828">
        <ele>571.40002441406</ele>
        <time>2011-03-19T14:09:50.000Z</time>
      </trkpt>
      <trkpt lat="46.07195" lon="3.10793">
        <ele>570</ele>
        <time>2011-03-19T14:09:57.000Z</time>
      </trkpt>
      <trkpt lat="46.07246" lon="3.10778">
        <ele>568.59997558594</ele>
        <time>2011-03-19T14:10:03.000Z</time>
      </trkpt>
      <trkpt lat="46.0732" lon="3.10761">
        <ele>567.20001220703</ele>
        <time>2011-03-19T14:10:11.000Z</time>
      </trkpt>
      <trkpt lat="46.07356" lon="3.10753">
        <ele>566.79998779297</ele>
        <time>2011-03-19T14:10:15.000Z</time>
      </trkpt>
      <trkpt lat="46.07399" lon="3.1076">
        <ele>566.59997558594</ele>
        <time>2011-03-19T14:10:20.000Z</time>
      </trkpt>
      <trkpt lat="46.07447" lon="3.10765">
        <ele>567.20001220703</ele>
        <time>2011-03-19T14:10:26.000Z</time>
      </trkpt>
      <trkpt lat="46.07481" lon="3.10753">
        <ele>567</ele>
        <time>2011-03-19T14:10:30.000Z</time>
      </trkpt>
      <trkpt lat="46.07512" lon="3.10725">
        <ele>566.40002441406</ele>
        <time>2011-03-19T14:10:34.000Z</time>
      </trkpt>
      <trkpt lat="46.0753" lon="3.10691">
        <ele>565.40002441406</ele>
        <time>2011-03-19T14:10:37.000Z</time>
      </trkpt>
      <trkpt lat="46.07551" lon="3.10624">
        <ele>563</ele>
        <time>2011-03-19T14:10:42.000Z</time>
      </trkpt>
      <trkpt lat="46.07552" lon="3.10565">
        <ele>561</ele>
        <time>2011-03-19T14:10:46.000Z</time>
      </trkpt>
      <trkpt lat="46.07532" lon="3.10477">
        <ele>558.79998779297</ele>
        <time>2011-03-19T14:10:52.000Z</time>
      </trkpt>
      <trkpt lat="46.07531" lon="3.10417">
        <ele>557.20001220703</ele>
        <time>2011-03-19T14:10:56.000Z</time>
      </trkpt>
      <trkpt lat="46.07549" lon="3.1038">
        <ele>555.79998779297</ele>
        <time>2011-03-19T14:10:59.000Z</time>
      </trkpt>
      <trkpt lat="46.0758" lon="3.10365">
        <ele>554.59997558594</ele>
        <time>2011-03-19T14:11:02.000Z</time>
      </trkpt>
      <trkpt lat="46.07603" lon="3.10365">
        <ele>553.59997558594</ele>
        <time>2011-03-19T14:11:04.000Z</time>
      </trkpt>
      <trkpt lat="46.07625" lon="3.10366">
        <ele>552.20001220703</ele>
        <time>2011-03-19T14:11:06.000Z</time>
      </trkpt>
      <trkpt lat="46.07657" lon="3.10353">
        <ele>550.59997558594</ele>
        <time>2011-03-19T14:11:09.000Z</time>
      </trkpt>
      <trkpt lat="46.07666" lon="3.10343">
        <ele>550</ele>
        <time>2011-03-19T14:11:10.000Z</time>
      </trkpt>
      <trkpt lat="46.07719" lon="3.10312">
        <ele>547.79998779297</ele>
        <time>2011-03-19T14:11:15.000Z</time>
      </trkpt>
      <trkpt lat="46.07753" lon="3.103">
        <ele>546.20001220703</ele>
        <time>2011-03-19T14:11:18.000Z</time>
      </trkpt>
      <trkpt lat="46.0778" lon="3.1027">
        <ele>544.40002441406</ele>
        <time>2011-03-19T14:11:21.000Z</time>
      </trkpt>
      <trkpt lat="46.07794" lon="3.10246">
        <ele>543.40002441406</ele>
        <time>2011-03-19T14:11:23.000Z</time>
      </trkpt>
      <trkpt lat="46.0783" lon="3.10218">
        <ele>541.79998779297</ele>
        <time>2011-03-19T14:11:27.000Z</time>
      </trkpt>
      <trkpt lat="46.0786" lon="3.10228">
        <ele>540.40002441406</ele>
        <time>2011-03-19T14:11:30.000Z</time>
      </trkpt>
      <trkpt lat="46.07885" lon="3.10259">
        <ele>539</ele>
        <time>2011-03-19T14:11:33.000Z</time>
      </trkpt>
      <trkpt lat="46.07891" lon="3.10272">
        <ele>538.59997558594</ele>
        <time>2011-03-19T14:11:34.000Z</time>
      </trkpt>
      <trkpt lat="46.07928" lon="3.10369">
        <ele>535.40002441406</ele>
        <time>2011-03-19T14:11:41.000Z</time>
      </trkpt>
      <trkpt lat="46.0796" lon="3.10403">
        <ele>532.79998779297</ele>
        <time>2011-03-19T14:11:45.000Z</time>
      </trkpt>
      <trkpt lat="46.07982" lon="3.10394">
        <ele>531.40002441406</ele>
        <time>2011-03-19T14:11:47.000Z</time>
      </trkpt>
      <trkpt lat="46.07999" lon="3.10375">
        <ele>530</ele>
        <time>2011-03-19T14:11:49.000Z</time>
      </trkpt>
      <trkpt lat="46.08023" lon="3.10345">
        <ele>529.20001220703</ele>
        <time>2011-03-19T14:11:52.000Z</time>
      </trkpt>
      <trkpt lat="46.08051" lon="3.1033">
        <ele>528</ele>
        <time>2011-03-19T14:11:55.000Z</time>
      </trkpt>
      <trkpt lat="46.08081" lon="3.10338">
        <ele>526.40002441406</ele>
        <time>2011-03-19T14:11:58.000Z</time>
      </trkpt>
      <trkpt lat="46.08131" lon="3.10342">
        <ele>523.59997558594</ele>
        <time>2011-03-19T14:12:03.000Z</time>
      </trkpt>
      <trkpt lat="46.08145" lon="3.10316">
        <ele>523</ele>
        <time>2011-03-19T14:12:05.000Z</time>
      </trkpt>
      <trkpt lat="46.08149" lon="3.10302">
        <ele>522.59997558594</ele>
        <time>2011-03-19T14:12:06.000Z</time>
      </trkpt>
      <trkpt lat="46.08166" lon="3.10228">
        <ele>520.79998779297</ele>
        <time>2011-03-19T14:12:11.000Z</time>
      </trkpt>
      <trkpt lat="46.08166" lon="3.10165">
        <ele>518.59997558594</ele>
        <time>2011-03-19T14:12:15.000Z</time>
      </trkpt>
      <trkpt lat="46.08162" lon="3.10149">
        <ele>518.59997558594</ele>
        <time>2011-03-19T14:12:16.000Z</time>
      </trkpt>
      <trkpt lat="46.08142" lon="3.1007">
        <ele>515.40002441406</ele>
        <time>2011-03-19T14:12:21.000Z</time>
      </trkpt>
      <trkpt lat="46.08144" lon="3.10022">
        <ele>513.59997558594</ele>
        <time>2011-03-19T14:12:24.000Z</time>
      </trkpt>
      <trkpt lat="46.0816" lon="3.09999">
        <ele>512</ele>
        <time>2011-03-19T14:12:26.000Z</time>
      </trkpt>
      <trkpt lat="46.0817" lon="3.09992">
        <ele>511.20001220703</ele>
        <time>2011-03-19T14:12:27.000Z</time>
      </trkpt>
      <trkpt lat="46.08191" lon="3.0998">
        <ele>510</ele>
        <time>2011-03-19T14:12:29.000Z</time>
      </trkpt>
      <trkpt lat="46.08215" lon="3.09948">
        <ele>508</ele>
        <time>2011-03-19T14:12:32.000Z</time>
      </trkpt>
      <trkpt lat="46.08219" lon="3.09917">
        <ele>507</ele>
        <time>2011-03-19T14:12:34.000Z</time>
      </trkpt>
      <trkpt lat="46.08214" lon="3.09886">
        <ele>505.79998779297</ele>
        <time>2011-03-19T14:12:36.000Z</time>
      </trkpt>
      <trkpt lat="46.08205" lon="3.09857">
        <ele>504.60000610352</ele>
        <time>2011-03-19T14:12:38.000Z</time>
      </trkpt>
      <trkpt lat="46.08183" lon="3.0982">
        <ele>503.39999389648</ele>
        <time>2011-03-19T14:12:41.000Z</time>
      </trkpt>
      <trkpt lat="46.08173" lon="3.09813">
        <ele>502.79998779297</ele>
        <time>2011-03-19T14:12:42.000Z</time>
      </trkpt>
      <trkpt lat="46.08126" lon="3.09766">
        <ele>499.39999389648</ele>
        <time>2011-03-19T14:12:47.000Z</time>
      </trkpt>
      <trkpt lat="46.08121" lon="3.09751">
        <ele>498.79998779297</ele>
        <time>2011-03-19T14:12:48.000Z</time>
      </trkpt>
      <trkpt lat="46.08087" lon="3.09678">
        <ele>496</ele>
        <time>2011-03-19T14:12:53.000Z</time>
      </trkpt>
      <trkpt lat="46.08027" lon="3.09611">
        <ele>492</ele>
        <time>2011-03-19T14:12:59.000Z</time>
      </trkpt>
      <trkpt lat="46.08008" lon="3.09571">
        <ele>489.79998779297</ele>
        <time>2011-03-19T14:13:02.000Z</time>
      </trkpt>
      <trkpt lat="46.0801" lon="3.09539">
        <ele>488.20001220703</ele>
        <time>2011-03-19T14:13:04.000Z</time>
      </trkpt>
      <trkpt lat="46.08028" lon="3.09517">
        <ele>487.60000610352</ele>
        <time>2011-03-19T14:13:06.000Z</time>
      </trkpt>
      <trkpt lat="46.08051" lon="3.09511">
        <ele>486.20001220703</ele>
        <time>2011-03-19T14:13:08.000Z</time>
      </trkpt>
      <trkpt lat="46.08074" lon="3.09515">
        <ele>485.20001220703</ele>
        <time>2011-03-19T14:13:10.000Z</time>
      </trkpt>
      <trkpt lat="46.08144" lon="3.0954">
        <ele>481.60000610352</ele>
        <time>2011-03-19T14:13:16.000Z</time>
      </trkpt>
      <trkpt lat="46.08179" lon="3.09528">
        <ele>480</ele>
        <time>2011-03-19T14:13:19.000Z</time>
      </trkpt>
      <trkpt lat="46.08195" lon="3.09501">
        <ele>478.39999389648</ele>
        <time>2011-03-19T14:13:21.000Z</time>
      </trkpt>
      <trkpt lat="46.08204" lon="3.09467">
        <ele>477</ele>
        <time>2011-03-19T14:13:23.000Z</time>
      </trkpt>
      <trkpt lat="46.08232" lon="3.09345">
        <ele>472</ele>
        <time>2011-03-19T14:13:30.000Z</time>
      </trkpt>
      <trkpt lat="46.08234" lon="3.09328">
        <ele>472</ele>
        <time>2011-03-19T14:13:31.000Z</time>
      </trkpt>
      <trkpt lat="46.08236" lon="3.09311">
        <ele>471.60000610352</ele>
        <time>2011-03-19T14:13:32.000Z</time>
      </trkpt>
      <trkpt lat="46.08248" lon="3.09265">
        <ele>469.60000610352</ele>
        <time>2011-03-19T14:13:35.000Z</time>
      </trkpt>
      <trkpt lat="46.08266" lon="3.09246">
        <ele>468.20001220703</ele>
        <time>2011-03-19T14:13:37.000Z</time>
      </trkpt>
      <trkpt lat="46.08277" lon="3.09241">
        <ele>467.39999389648</ele>
        <time>2011-03-19T14:13:38.000Z</time>
      </trkpt>
      <trkpt lat="46.08359" lon="3.09217">
        <ele>462.20001220703</ele>
        <time>2011-03-19T14:13:45.000Z</time>
      </trkpt>
      <trkpt lat="46.08405" lon="3.0923">
        <ele>459.20001220703</ele>
        <time>2011-03-19T14:13:49.000Z</time>
      </trkpt>
      <trkpt lat="46.08426" lon="3.09243">
        <ele>457.60000610352</ele>
        <time>2011-03-19T14:13:51.000Z</time>
      </trkpt>
      <trkpt lat="46.08459" lon="3.09245">
        <ele>455.39999389648</ele>
        <time>2011-03-19T14:13:54.000Z</time>
      </trkpt>
      <trkpt lat="46.08479" lon="3.09229">
        <ele>454.20001220703</ele>
        <time>2011-03-19T14:13:56.000Z</time>
      </trkpt>
      <trkpt lat="46.08506" lon="3.09206">
        <ele>453.20001220703</ele>
        <time>2011-03-19T14:13:59.000Z</time>
      </trkpt>
      <trkpt lat="46.08528" lon="3.09211">
        <ele>451.60000610352</ele>
        <time>2011-03-19T14:14:01.000Z</time>
      </trkpt>
      <trkpt lat="46.08557" lon="3.0924">
        <ele>449.79998779297</ele>
        <time>2011-03-19T14:14:04.000Z</time>
      </trkpt>
      <trkpt lat="46.08566" lon="3.09252">
        <ele>448.79998779297</ele>
        <time>2011-03-19T14:14:05.000Z</time>
      </trkpt>
      <trkpt lat="46.08639" lon="3.09377">
        <ele>442.20001220703</ele>
        <time>2011-03-19T14:14:14.000Z</time>
      </trkpt>
      <trkpt lat="46.08649" lon="3.09422">
        <ele>440</ele>
        <time>2011-03-19T14:14:17.000Z</time>
      </trkpt>
      <trkpt lat="46.08643" lon="3.09455">
        <ele>438.60000610352</ele>
        <time>2011-03-19T14:14:19.000Z</time>
      </trkpt>
      <trkpt lat="46.08632" lon="3.09496">
        <ele>437.20001220703</ele>
        <time>2011-03-19T14:14:22.000Z</time>
      </trkpt>
      <trkpt lat="46.0863" lon="3.09512">
        <ele>436.39999389648</ele>
        <time>2011-03-19T14:14:23.000Z</time>
      </trkpt>
      <trkpt lat="46.08653" lon="3.09539">
        <ele>434.20001220703</ele>
        <time>2011-03-19T14:14:26.000Z</time>
      </trkpt>
      <trkpt lat="46.08664" lon="3.09544">
        <ele>433.39999389648</ele>
        <time>2011-03-19T14:14:27.000Z</time>
      </trkpt>
      <trkpt lat="46.08739" lon="3.09566">
        <ele>428.60000610352</ele>
        <time>2011-03-19T14:14:33.000Z</time>
      </trkpt>
      <trkpt lat="46.08788" lon="3.09549">
        <ele>425.60000610352</ele>
        <time>2011-03-19T14:14:37.000Z</time>
      </trkpt>
      <trkpt lat="46.08833" lon="3.09513">
        <ele>422.39999389648</ele>
        <time>2011-03-19T14:14:41.000Z</time>
      </trkpt>
      <trkpt lat="46.0886" lon="3.09472">
        <ele>419.60000610352</ele>
        <time>2011-03-19T14:14:44.000Z</time>
      </trkpt>
      <trkpt lat="46.08867" lon="3.09418">
        <ele>417.39999389648</ele>
        <time>2011-03-19T14:14:47.000Z</time>
      </trkpt>
      <trkpt lat="46.0887" lon="3.094">
        <ele>417.39999389648</ele>
        <time>2011-03-19T14:14:48.000Z</time>
      </trkpt>
      <trkpt lat="46.08885" lon="3.0937">
        <ele>415.79998779297</ele>
        <time>2011-03-19T14:14:50.000Z</time>
      </trkpt>
      <trkpt lat="46.08919" lon="3.09348">
        <ele>414</ele>
        <time>2011-03-19T14:14:53.000Z</time>
      </trkpt>
      <trkpt lat="46.08945" lon="3.09352">
        <ele>412.60000610352</ele>
        <time>2011-03-19T14:14:55.000Z</time>
      </trkpt>
      <trkpt lat="46.08957" lon="3.09357">
        <ele>411.60000610352</ele>
        <time>2011-03-19T14:14:56.000Z</time>
      </trkpt>
      <trkpt lat="46.08981" lon="3.09368">
        <ele>410.20001220703</ele>
        <time>2011-03-19T14:14:58.000Z</time>
      </trkpt>
      <trkpt lat="46.09029" lon="3.09367">
        <ele>407.20001220703</ele>
        <time>2011-03-19T14:15:02.000Z</time>
      </trkpt>
      <trkpt lat="46.09075" lon="3.09378">
        <ele>404.60000610352</ele>
        <time>2011-03-19T14:15:06.000Z</time>
      </trkpt>
      <trkpt lat="46.09085" lon="3.09387">
        <ele>403.79998779297</ele>
        <time>2011-03-19T14:15:07.000Z</time>
      </trkpt>
      <trkpt lat="46.09126" lon="3.09426">
        <ele>400.79998779297</ele>
        <time>2011-03-19T14:15:11.000Z</time>
      </trkpt>
      <trkpt lat="46.09148" lon="3.0944">
        <ele>400.20001220703</ele>
        <time>2011-03-19T14:15:13.000Z</time>
      </trkpt>
      <trkpt lat="46.09172" lon="3.09436">
        <ele>399</ele>
        <time>2011-03-19T14:15:15.000Z</time>
      </trkpt>
      <trkpt lat="46.09193" lon="3.09412">
        <ele>397.60000610352</ele>
        <time>2011-03-19T14:15:17.000Z</time>
      </trkpt>
      <trkpt lat="46.09215" lon="3.09365">
        <ele>395.20001220703</ele>
        <time>2011-03-19T14:15:20.000Z</time>
      </trkpt>
      <trkpt lat="46.09268" lon="3.09212">
        <ele>386.60000610352</ele>
        <time>2011-03-19T14:15:29.000Z</time>
      </trkpt>
      <trkpt lat="46.09274" lon="3.09196">
        <ele>386</ele>
        <time>2011-03-19T14:15:30.000Z</time>
      </trkpt>
      <trkpt lat="46.09317" lon="3.09128">
        <ele>382.20001220703</ele>
        <time>2011-03-19T14:15:35.000Z</time>
      </trkpt>
      <trkpt lat="46.09344" lon="3.09089">
        <ele>380.39999389648</ele>
        <time>2011-03-19T14:15:38.000Z</time>
      </trkpt>
      <trkpt lat="46.09389" lon="3.09058">
        <ele>377.79998779297</ele>
        <time>2011-03-19T14:15:42.000Z</time>
      </trkpt>
      <trkpt lat="46.09402" lon="3.09059">
        <ele>376.79998779297</ele>
        <time>2011-03-19T14:15:43.000Z</time>
      </trkpt>
      <trkpt lat="46.09492" lon="3.09069">
        <ele>371</ele>
        <time>2011-03-19T14:15:50.000Z</time>
      </trkpt>
      <trkpt lat="46.09565" lon="3.09044">
        <ele>365.79998779297</ele>
        <time>2011-03-19T14:15:56.000Z</time>
      </trkpt>
      <trkpt lat="46.09616" lon="3.09048">
        <ele>362.60000610352</ele>
        <time>2011-03-19T14:16:00.000Z</time>
      </trkpt>
      <trkpt lat="46.09666" lon="3.09078">
        <ele>359.79998779297</ele>
        <time>2011-03-19T14:16:04.000Z</time>
      </trkpt>
      <trkpt lat="46.09769" lon="3.09135">
        <ele>351.39999389648</ele>
        <time>2011-03-19T14:16:12.000Z</time>
      </trkpt>
      <trkpt lat="46.09831" lon="3.09169">
        <ele>346.60000610352</ele>
        <time>2011-03-19T14:16:17.000Z</time>
      </trkpt>
      <trkpt lat="46.09907" lon="3.09182">
        <ele>341.60000610352</ele>
        <time>2011-03-19T14:16:23.000Z</time>
      </trkpt>
      <trkpt lat="46.09945" lon="3.09185">
        <ele>339.20001220703</ele>
        <time>2011-03-19T14:16:26.000Z</time>
      </trkpt>
      <trkpt lat="46.09981" lon="3.09173">
        <ele>337.39999389648</ele>
        <time>2011-03-19T14:16:29.000Z</time>
      </trkpt>
      <trkpt lat="46.10003" lon="3.09154">
        <ele>335.60000610352</ele>
        <time>2011-03-19T14:16:31.000Z</time>
      </trkpt>
      <trkpt lat="46.10079" lon="3.09071">
        <ele>329.60000610352</ele>
        <time>2011-03-19T14:16:38.000Z</time>
      </trkpt>
      <trkpt lat="46.10132" lon="3.09025">
        <ele>327.39999389648</ele>
        <time>2011-03-19T14:16:43.000Z</time>
      </trkpt>
      <trkpt lat="46.10174" lon="3.09001">
        <ele>327.20001220703</ele>
        <time>2011-03-19T14:16:47.000Z</time>
      </trkpt>
      <trkpt lat="46.10215" lon="3.08996">
        <ele>327.39999389648</ele>
        <time>2011-03-19T14:16:51.000Z</time>
      </trkpt>
      <trkpt lat="46.10225" lon="3.08999">
        <ele>327.39999389648</ele>
        <time>2011-03-19T14:16:52.000Z</time>
      </trkpt>
      <trkpt lat="46.10306" lon="3.09024">
        <ele>327.20001220703</ele>
        <time>2011-03-19T14:17:01.000Z</time>
      </trkpt>
      <trkpt lat="46.10384" lon="3.09048">
        <ele>325.39999389648</ele>
        <time>2011-03-19T14:17:10.000Z</time>
      </trkpt>
      <trkpt lat="46.10449" lon="3.09068">
        <ele>323.39999389648</ele>
        <time>2011-03-19T14:17:17.000Z</time>
      </trkpt>
      <trkpt lat="46.10516" lon="3.09088">
        <ele>320.39999389648</ele>
        <time>2011-03-19T14:17:25.000Z</time>
      </trkpt>
      <trkpt lat="46.10532" lon="3.09093">
        <ele>319.60000610352</ele>
        <time>2011-03-19T14:17:27.000Z</time>
      </trkpt>
      <trkpt lat="46.10612" lon="3.09117">
        <ele>317.20001220703</ele>
        <time>2011-03-19T14:17:37.000Z</time>
      </trkpt>
      <trkpt lat="46.10699" lon="3.09144">
        <ele>316.60000610352</ele>
        <time>2011-03-19T14:17:48.000Z</time>
      </trkpt>
      <trkpt lat="46.10764" lon="3.09162">
        <ele>315.60000610352</ele>
        <time>2011-03-19T14:17:56.000Z</time>
      </trkpt>
      <trkpt lat="46.10845" lon="3.09187">
        <ele>315.20001220703</ele>
        <time>2011-03-19T14:18:06.000Z</time>
      </trkpt>
      <trkpt lat="46.10907" lon="3.09208">
        <ele>314.60000610352</ele>
        <time>2011-03-19T14:18:14.000Z</time>
      </trkpt>
      <trkpt lat="46.10956" lon="3.09221">
        <ele>314.39999389648</ele>
        <time>2011-03-19T14:18:20.000Z</time>
      </trkpt>
      <trkpt lat="46.11028" lon="3.09221">
        <ele>313.20001220703</ele>
        <time>2011-03-19T14:18:28.000Z</time>
      </trkpt>
      <trkpt lat="46.11103" lon="3.09224">
        <ele>312.39999389648</ele>
        <time>2011-03-19T14:18:37.000Z</time>
      </trkpt>
      <trkpt lat="46.11164" lon="3.09227">
        <ele>311.60000610352</ele>
        <time>2011-03-19T14:18:45.000Z</time>
      </trkpt>
      <trkpt lat="46.11221" lon="3.0923">
        <ele>309.60000610352</ele>
        <time>2011-03-19T14:18:52.000Z</time>
      </trkpt>
      <trkpt lat="46.11254" lon="3.09219">
        <ele>307.79998779297</ele>
        <time>2011-03-19T14:18:56.000Z</time>
      </trkpt>
      <trkpt lat="46.11262" lon="3.09213">
        <ele>307.39999389648</ele>
        <time>2011-03-19T14:18:57.000Z</time>
      </trkpt>
      <trkpt lat="46.11318" lon="3.09165">
        <ele>306</ele>
        <time>2011-03-19T14:19:05.000Z</time>
      </trkpt>
      <trkpt lat="46.11353" lon="3.0914">
        <ele>305.79998779297</ele>
        <time>2011-03-19T14:19:11.000Z</time>
      </trkpt>
      <trkpt lat="46.11396" lon="3.09122">
        <ele>305.20001220703</ele>
        <time>2011-03-19T14:19:18.000Z</time>
      </trkpt>
      <trkpt lat="46.11414" lon="3.09115">
        <ele>305.20001220703</ele>
        <time>2011-03-19T14:19:21.000Z</time>
      </trkpt>
      <trkpt lat="46.11432" lon="3.09114">
        <ele>305.39999389648</ele>
        <time>2011-03-19T14:19:25.000Z</time>
      </trkpt>
      <trkpt lat="46.11435" lon="3.09117">
        <ele>305.60000610352</ele>
        <time>2011-03-19T14:19:29.000Z</time>
      </trkpt>
      <trkpt lat="46.11435" lon="3.09117">
        <ele>305.60000610352</ele>
        <time>2011-03-19T14:19:30.000Z</time>
      </trkpt>
      <trkpt lat="46.11438" lon="3.09119">
        <ele>305.60000610352</ele>
        <time>2011-03-19T14:19:39.000Z</time>
      </trkpt>
      <trkpt lat="46.11447" lon="3.09109">
        <ele>305.79998779297</ele>
        <time>2011-03-19T14:19:43.000Z</time>
      </trkpt>
      <trkpt lat="46.11466" lon="3.09075">
        <ele>307</ele>
        <time>2011-03-19T14:19:50.000Z</time>
      </trkpt>
      <trkpt lat="46.11489" lon="3.09033">
        <ele>308.20001220703</ele>
        <time>2011-03-19T14:19:57.000Z</time>
      </trkpt>
      <trkpt lat="46.11525" lon="3.0897">
        <ele>308</ele>
        <time>2011-03-19T14:20:06.000Z</time>
      </trkpt>
      <trkpt lat="46.11551" lon="3.08926">
        <ele>306.20001220703</ele>
        <time>2011-03-19T14:20:11.000Z</time>
      </trkpt>
      <trkpt lat="46.1158" lon="3.08878">
        <ele>304.39999389648</ele>
        <time>2011-03-19T14:20:17.000Z</time>
      </trkpt>
      <trkpt lat="46.11593" lon="3.08854">
        <ele>304</ele>
        <time>2011-03-19T14:20:20.000Z</time>
      </trkpt>
      <trkpt lat="46.11608" lon="3.08829">
        <ele>304.20001220703</ele>
        <time>2011-03-19T14:20:24.000Z</time>
      </trkpt>
      <trkpt lat="46.11616" lon="3.08804">
        <ele>304.60000610352</ele>
        <time>2011-03-19T14:20:28.000Z</time>
      </trkpt>
      <trkpt lat="46.1161" lon="3.08779">
        <ele>304.79998779297</ele>
        <time>2011-03-19T14:20:31.000Z</time>
      </trkpt>
      <trkpt lat="46.11588" lon="3.08723">
        <ele>305.20001220703</ele>
        <time>2011-03-19T14:20:39.000Z</time>
      </trkpt>
      <trkpt lat="46.11563" lon="3.08664">
        <ele>306</ele>
        <time>2011-03-19T14:20:48.000Z</time>
      </trkpt>
      <trkpt lat="46.1153" lon="3.08617">
        <ele>306.20001220703</ele>
        <time>2011-03-19T14:20:56.000Z</time>
      </trkpt>
      <trkpt lat="46.11509" lon="3.08585">
        <ele>306.20001220703</ele>
        <time>2011-03-19T14:21:01.000Z</time>
      </trkpt>
      <trkpt lat="46.11482" lon="3.08559">
        <ele>306.39999389648</ele>
        <time>2011-03-19T14:21:06.000Z</time>
      </trkpt>
      <trkpt lat="46.11449" lon="3.08532">
        <ele>306.20001220703</ele>
        <time>2011-03-19T14:21:12.000Z</time>
      </trkpt>
      <trkpt lat="46.11438" lon="3.08501">
        <ele>306.20001220703</ele>
        <time>2011-03-19T14:21:16.000Z</time>
      </trkpt>
      <trkpt lat="46.11443" lon="3.08484">
        <ele>306.39999389648</ele>
        <time>2011-03-19T14:21:18.000Z</time>
      </trkpt>
      <trkpt lat="46.11451" lon="3.08469">
        <ele>306.20001220703</ele>
        <time>2011-03-19T14:21:20.000Z</time>
      </trkpt>
      <trkpt lat="46.11453" lon="3.08437">
        <ele>306.39999389648</ele>
        <time>2011-03-19T14:21:24.000Z</time>
      </trkpt>
      <trkpt lat="46.11424" lon="3.08364">
        <ele>307</ele>
        <time>2011-03-19T14:21:33.000Z</time>
      </trkpt>
      <trkpt lat="46.11392" lon="3.08284">
        <ele>306.39999389648</ele>
        <time>2011-03-19T14:21:42.000Z</time>
      </trkpt>
      <trkpt lat="46.1136" lon="3.08211">
        <ele>306.79998779297</ele>
        <time>2011-03-19T14:21:50.000Z</time>
      </trkpt>
      <trkpt lat="46.11307" lon="3.08101">
        <ele>306.39999389648</ele>
        <time>2011-03-19T14:22:02.000Z</time>
      </trkpt>
      <trkpt lat="46.11246" lon="3.07977">
        <ele>307.39999389648</ele>
        <time>2011-03-19T14:22:16.000Z</time>
      </trkpt>
      <trkpt lat="46.11204" lon="3.07889">
        <ele>308</ele>
        <time>2011-03-19T14:22:26.000Z</time>
      </trkpt>
      <trkpt lat="46.11177" lon="3.07853">
        <ele>308.20001220703</ele>
        <time>2011-03-19T14:22:31.000Z</time>
      </trkpt>
      <trkpt lat="46.11122" lon="3.07794">
        <ele>308.20001220703</ele>
        <time>2011-03-19T14:22:40.000Z</time>
      </trkpt>
      <trkpt lat="46.11054" lon="3.07723">
        <ele>308.39999389648</ele>
        <time>2011-03-19T14:22:51.000Z</time>
      </trkpt>
      <trkpt lat="46.10985" lon="3.07648">
        <ele>307.79998779297</ele>
        <time>2011-03-19T14:23:02.000Z</time>
      </trkpt>
      <trkpt lat="46.10962" lon="3.07602">
        <ele>307.79998779297</ele>
        <time>2011-03-19T14:23:07.000Z</time>
      </trkpt>
      <trkpt lat="46.10942" lon="3.07539">
        <ele>308</ele>
        <time>2011-03-19T14:23:13.000Z</time>
      </trkpt>
      <trkpt lat="46.10915" lon="3.0744">
        <ele>308.79998779297</ele>
        <time>2011-03-19T14:23:23.000Z</time>
      </trkpt>
      <trkpt lat="46.10889" lon="3.07342">
        <ele>309.39999389648</ele>
        <time>2011-03-19T14:23:33.000Z</time>
      </trkpt>
      <trkpt lat="46.10857" lon="3.07229">
        <ele>309.60000610352</ele>
        <time>2011-03-19T14:23:44.000Z</time>
      </trkpt>
      <trkpt lat="46.10827" lon="3.0714">
        <ele>309.20001220703</ele>
        <time>2011-03-19T14:23:53.000Z</time>
      </trkpt>
      <trkpt lat="46.10791" lon="3.07045">
        <ele>310</ele>
        <time>2011-03-19T14:24:03.000Z</time>
      </trkpt>
      <trkpt lat="46.10747" lon="3.06935">
        <ele>311.20001220703</ele>
        <time>2011-03-19T14:24:15.000Z</time>
      </trkpt>
      <trkpt lat="46.10713" lon="3.06895">
        <ele>312</ele>
        <time>2011-03-19T14:24:21.000Z</time>
      </trkpt>
      <trkpt lat="46.10655" lon="3.06839">
        <ele>313.39999389648</ele>
        <time>2011-03-19T14:24:31.000Z</time>
      </trkpt>
      <trkpt lat="46.10606" lon="3.06793">
        <ele>317.39999389648</ele>
        <time>2011-03-19T14:24:41.000Z</time>
      </trkpt>
      <trkpt lat="46.10553" lon="3.06738">
        <ele>321.20001220703</ele>
        <time>2011-03-19T14:24:53.000Z</time>
      </trkpt>
      <trkpt lat="46.10534" lon="3.06701">
        <ele>322.79998779297</ele>
        <time>2011-03-19T14:24:59.000Z</time>
      </trkpt>
      <trkpt lat="46.10523" lon="3.06649">
        <ele>324.39999389648</ele>
        <time>2011-03-19T14:25:06.000Z</time>
      </trkpt>
      <trkpt lat="46.10511" lon="3.06574">
        <ele>326.20001220703</ele>
        <time>2011-03-19T14:25:16.000Z</time>
      </trkpt>
      <trkpt lat="46.10498" lon="3.06488">
        <ele>327.39999389648</ele>
        <time>2011-03-19T14:25:27.000Z</time>
      </trkpt>
      <trkpt lat="46.10484" lon="3.0641">
        <ele>328.60000610352</ele>
        <time>2011-03-19T14:25:37.000Z</time>
      </trkpt>
      <trkpt lat="46.10462" lon="3.06359">
        <ele>328.39999389648</ele>
        <time>2011-03-19T14:25:44.000Z</time>
      </trkpt>
      <trkpt lat="46.1044" lon="3.06303">
        <ele>328.60000610352</ele>
        <time>2011-03-19T14:25:51.000Z</time>
      </trkpt>
      <trkpt lat="46.10427" lon="3.06236">
        <ele>328.60000610352</ele>
        <time>2011-03-19T14:25:58.000Z</time>
      </trkpt>
      <trkpt lat="46.10404" lon="3.0612">
        <ele>327.79998779297</ele>
        <time>2011-03-19T14:26:10.000Z</time>
      </trkpt>
      <trkpt lat="46.10399" lon="3.0606">
        <ele>328.20001220703</ele>
        <time>2011-03-19T14:26:16.000Z</time>
      </trkpt>
      <trkpt lat="46.104" lon="3.06049">
        <ele>328.20001220703</ele>
        <time>2011-03-19T14:26:17.000Z</time>
      </trkpt>
      <trkpt lat="46.10412" lon="3.05999">
        <ele>328</ele>
        <time>2011-03-19T14:26:22.000Z</time>
      </trkpt>
      <trkpt lat="46.10416" lon="3.0599">
        <ele>328</ele>
        <time>2011-03-19T14:26:23.000Z</time>
      </trkpt>
      <trkpt lat="46.10434" lon="3.05956">
        <ele>328.39999389648</ele>
        <time>2011-03-19T14:26:27.000Z</time>
      </trkpt>
      <trkpt lat="46.10443" lon="3.05906">
        <ele>328</ele>
        <time>2011-03-19T14:26:32.000Z</time>
      </trkpt>
      <trkpt lat="46.10442" lon="3.05896">
        <ele>327.79998779297</ele>
        <time>2011-03-19T14:26:33.000Z</time>
      </trkpt>
      <trkpt lat="46.10434" lon="3.05823">
        <ele>327.39999389648</ele>
        <time>2011-03-19T14:26:40.000Z</time>
      </trkpt>
      <trkpt lat="46.1042" lon="3.05762">
        <ele>327.79998779297</ele>
        <time>2011-03-19T14:26:46.000Z</time>
      </trkpt>
      <trkpt lat="46.10388" lon="3.05657">
        <ele>328.60000610352</ele>
        <time>2011-03-19T14:26:57.000Z</time>
      </trkpt>
      <trkpt lat="46.10351" lon="3.05536">
        <ele>328</ele>
        <time>2011-03-19T14:27:09.000Z</time>
      </trkpt>
      <trkpt lat="46.10318" lon="3.05447">
        <ele>327.39999389648</ele>
        <time>2011-03-19T14:27:18.000Z</time>
      </trkpt>
      <trkpt lat="46.10293" lon="3.05372">
        <ele>327.60000610352</ele>
        <time>2011-03-19T14:27:26.000Z</time>
      </trkpt>
      <trkpt lat="46.10262" lon="3.05278">
        <ele>329.39999389648</ele>
        <time>2011-03-19T14:27:36.000Z</time>
      </trkpt>
      <trkpt lat="46.10228" lon="3.05177">
        <ele>329.79998779297</ele>
        <time>2011-03-19T14:27:47.000Z</time>
      </trkpt>
      <trkpt lat="46.10204" lon="3.05104">
        <ele>330.79998779297</ele>
        <time>2011-03-19T14:27:55.000Z</time>
      </trkpt>
      <trkpt lat="46.10195" lon="3.05054">
        <ele>331.60000610352</ele>
        <time>2011-03-19T14:28:00.000Z</time>
      </trkpt>
      <trkpt lat="46.10196" lon="3.04989">
        <ele>331.60000610352</ele>
        <time>2011-03-19T14:28:06.000Z</time>
      </trkpt>
      <trkpt lat="46.10203" lon="3.04897">
        <ele>332</ele>
        <time>2011-03-19T14:28:15.000Z</time>
      </trkpt>
      <trkpt lat="46.10207" lon="3.04877">
        <ele>332.39999389648</ele>
        <time>2011-03-19T14:28:17.000Z</time>
      </trkpt>
      <trkpt lat="46.10223" lon="3.04844">
        <ele>332.60000610352</ele>
        <time>2011-03-19T14:28:21.000Z</time>
      </trkpt>
      <trkpt lat="46.10255" lon="3.04807">
        <ele>333.39999389648</ele>
        <time>2011-03-19T14:28:27.000Z</time>
      </trkpt>
      <trkpt lat="46.10299" lon="3.0477">
        <ele>333.39999389648</ele>
        <time>2011-03-19T14:28:34.000Z</time>
      </trkpt>
      <trkpt lat="46.10312" lon="3.04758">
        <ele>333.60000610352</ele>
        <time>2011-03-19T14:28:36.000Z</time>
      </trkpt>
      <trkpt lat="46.10331" lon="3.04726">
        <ele>333</ele>
        <time>2011-03-19T14:28:40.000Z</time>
      </trkpt>
      <trkpt lat="46.10332" lon="3.04706">
        <ele>333.20001220703</ele>
        <time>2011-03-19T14:28:42.000Z</time>
      </trkpt>
      <trkpt lat="46.10332" lon="3.04685">
        <ele>333.60000610352</ele>
        <time>2011-03-19T14:28:44.000Z</time>
      </trkpt>
      <trkpt lat="46.10342" lon="3.04645">
        <ele>333.60000610352</ele>
        <time>2011-03-19T14:28:48.000Z</time>
      </trkpt>
      <trkpt lat="46.10367" lon="3.04612">
        <ele>334.60000610352</ele>
        <time>2011-03-19T14:28:53.000Z</time>
      </trkpt>
      <trkpt lat="46.10391" lon="3.04605">
        <ele>335.39999389648</ele>
        <time>2011-03-19T14:28:57.000Z</time>
      </trkpt>
      <trkpt lat="46.10404" lon="3.04606">
        <ele>335.60000610352</ele>
        <time>2011-03-19T14:28:59.000Z</time>
      </trkpt>
      <trkpt lat="46.10416" lon="3.0461">
        <ele>336</ele>
        <time>2011-03-19T14:29:01.000Z</time>
      </trkpt>
      <trkpt lat="46.1045" lon="3.04632">
        <ele>337.20001220703</ele>
        <time>2011-03-19T14:29:07.000Z</time>
      </trkpt>
      <trkpt lat="46.10456" lon="3.04636">
        <ele>337.20001220703</ele>
        <time>2011-03-19T14:29:08.000Z</time>
      </trkpt>
      <trkpt lat="46.10479" lon="3.04635">
        <ele>338.20001220703</ele>
        <time>2011-03-19T14:29:12.000Z</time>
      </trkpt>
      <trkpt lat="46.10486" lon="3.04612">
        <ele>338.79998779297</ele>
        <time>2011-03-19T14:29:15.000Z</time>
      </trkpt>
      <trkpt lat="46.10479" lon="3.04587">
        <ele>339.39999389648</ele>
        <time>2011-03-19T14:29:18.000Z</time>
      </trkpt>
      <trkpt lat="46.10475" lon="3.0458">
        <ele>339.20001220703</ele>
        <time>2011-03-19T14:29:19.000Z</time>
      </trkpt>
      <trkpt lat="46.10458" lon="3.04555">
        <ele>340.39999389648</ele>
        <time>2011-03-19T14:29:23.000Z</time>
      </trkpt>
      <trkpt lat="46.10452" lon="3.04525">
        <ele>341.20001220703</ele>
        <time>2011-03-19T14:29:27.000Z</time>
      </trkpt>
      <trkpt lat="46.10462" lon="3.04506">
        <ele>342</ele>
        <time>2011-03-19T14:29:30.000Z</time>
      </trkpt>
      <trkpt lat="46.10483" lon="3.04482">
        <ele>343.60000610352</ele>
        <time>2011-03-19T14:29:35.000Z</time>
      </trkpt>
      <trkpt lat="46.10488" lon="3.04478">
        <ele>343.79998779297</ele>
        <time>2011-03-19T14:29:36.000Z</time>
      </trkpt>
      <trkpt lat="46.10504" lon="3.04471">
        <ele>344.20001220703</ele>
        <time>2011-03-19T14:29:39.000Z</time>
      </trkpt>
      <trkpt lat="46.10527" lon="3.04449">
        <ele>344.60000610352</ele>
        <time>2011-03-19T14:29:44.000Z</time>
      </trkpt>
      <trkpt lat="46.10535" lon="3.04436">
        <ele>345</ele>
        <time>2011-03-19T14:29:46.000Z</time>
      </trkpt>
      <trkpt lat="46.10556" lon="3.04415">
        <ele>345</ele>
        <time>2011-03-19T14:29:50.000Z</time>
      </trkpt>
      <trkpt lat="46.10567" lon="3.04407">
        <ele>345.60000610352</ele>
        <time>2011-03-19T14:29:52.000Z</time>
      </trkpt>
      <trkpt lat="46.10588" lon="3.04373">
        <ele>345.79998779297</ele>
        <time>2011-03-19T14:29:57.000Z</time>
      </trkpt>
      <trkpt lat="46.10616" lon="3.04329">
        <ele>345.79998779297</ele>
        <time>2011-03-19T14:30:03.000Z</time>
      </trkpt>
      <trkpt lat="46.1065" lon="3.04279">
        <ele>345.60000610352</ele>
        <time>2011-03-19T14:30:10.000Z</time>
      </trkpt>
      <trkpt lat="46.10666" lon="3.04236">
        <ele>345.39999389648</ele>
        <time>2011-03-19T14:30:15.000Z</time>
      </trkpt>
      <trkpt lat="46.10686" lon="3.04205">
        <ele>345.20001220703</ele>
        <time>2011-03-19T14:30:19.000Z</time>
      </trkpt>
      <trkpt lat="46.10698" lon="3.04195">
        <ele>345.39999389648</ele>
        <time>2011-03-19T14:30:21.000Z</time>
      </trkpt>
      <trkpt lat="46.10739" lon="3.04173">
        <ele>345.79998779297</ele>
        <time>2011-03-19T14:30:27.000Z</time>
      </trkpt>
      <trkpt lat="46.1077" lon="3.04141">
        <ele>346</ele>
        <time>2011-03-19T14:30:32.000Z</time>
      </trkpt>
      <trkpt lat="46.10786" lon="3.04116">
        <ele>345.79998779297</ele>
        <time>2011-03-19T14:30:35.000Z</time>
      </trkpt>
      <trkpt lat="46.10802" lon="3.04078">
        <ele>345.60000610352</ele>
        <time>2011-03-19T14:30:39.000Z</time>
      </trkpt>
      <trkpt lat="46.10824" lon="3.04046">
        <ele>345.20001220703</ele>
        <time>2011-03-19T14:30:43.000Z</time>
      </trkpt>
      <trkpt lat="46.10838" lon="3.04009">
        <ele>345</ele>
        <time>2011-03-19T14:30:47.000Z</time>
      </trkpt>
      <trkpt lat="46.10843" lon="3.03964">
        <ele>345</ele>
        <time>2011-03-19T14:30:51.000Z</time>
      </trkpt>
      <trkpt lat="46.10861" lon="3.03942">
        <ele>344.60000610352</ele>
        <time>2011-03-19T14:30:54.000Z</time>
      </trkpt>
      <trkpt lat="46.1089" lon="3.0391">
        <ele>344.79998779297</ele>
        <time>2011-03-19T14:30:59.000Z</time>
      </trkpt>
      <trkpt lat="46.10901" lon="3.03896">
        <ele>344.79998779297</ele>
        <time>2011-03-19T14:31:01.000Z</time>
      </trkpt>
      <trkpt lat="46.10928" lon="3.03864">
        <ele>345.39999389648</ele>
        <time>2011-03-19T14:31:06.000Z</time>
      </trkpt>
      <trkpt lat="46.10921" lon="3.03838">
        <ele>346.20001220703</ele>
        <time>2011-03-19T14:31:09.000Z</time>
      </trkpt>
      <trkpt lat="46.10898" lon="3.03833">
        <ele>346.20001220703</ele>
        <time>2011-03-19T14:31:12.000Z</time>
      </trkpt>
      <trkpt lat="46.10868" lon="3.0384">
        <ele>346</ele>
        <time>2011-03-19T14:31:16.000Z</time>
      </trkpt>
      <trkpt lat="46.10843" lon="3.03837">
        <ele>346</ele>
        <time>2011-03-19T14:31:19.000Z</time>
      </trkpt>
      <trkpt lat="46.10834" lon="3.03819">
        <ele>345.79998779297</ele>
        <time>2011-03-19T14:31:21.000Z</time>
      </trkpt>
      <trkpt lat="46.10832" lon="3.03808">
        <ele>345.79998779297</ele>
        <time>2011-03-19T14:31:22.000Z</time>
      </trkpt>
      <trkpt lat="46.10827" lon="3.03704">
        <ele>345.20001220703</ele>
        <time>2011-03-19T14:31:31.000Z</time>
      </trkpt>
      <trkpt lat="46.10821" lon="3.03635">
        <ele>344.60000610352</ele>
        <time>2011-03-19T14:31:37.000Z</time>
      </trkpt>
      <trkpt lat="46.10806" lon="3.0357">
        <ele>344.79998779297</ele>
        <time>2011-03-19T14:31:43.000Z</time>
      </trkpt>
      <trkpt lat="46.10783" lon="3.03494">
        <ele>344.39999389648</ele>
        <time>2011-03-19T14:31:50.000Z</time>
      </trkpt>
      <trkpt lat="46.10752" lon="3.03427">
        <ele>344</ele>
        <time>2011-03-19T14:31:57.000Z</time>
      </trkpt>
      <trkpt lat="46.10735" lon="3.03362">
        <ele>343.60000610352</ele>
        <time>2011-03-19T14:32:03.000Z</time>
      </trkpt>
      <trkpt lat="46.10736" lon="3.03315">
        <ele>343.39999389648</ele>
        <time>2011-03-19T14:32:07.000Z</time>
      </trkpt>
      <trkpt lat="46.10739" lon="3.03291">
        <ele>343.39999389648</ele>
        <time>2011-03-19T14:32:09.000Z</time>
      </trkpt>
      <trkpt lat="46.10734" lon="3.03233">
        <ele>343.39999389648</ele>
        <time>2011-03-19T14:32:14.000Z</time>
      </trkpt>
      <trkpt lat="46.1073" lon="3.03222">
        <ele>343.39999389648</ele>
        <time>2011-03-19T14:32:15.000Z</time>
      </trkpt>
      <trkpt lat="46.10715" lon="3.03181">
        <ele>343.60000610352</ele>
        <time>2011-03-19T14:32:19.000Z</time>
      </trkpt>
      <trkpt lat="46.10708" lon="3.03115">
        <ele>344</ele>
        <time>2011-03-19T14:32:25.000Z</time>
      </trkpt>
      <trkpt lat="46.10706" lon="3.03104">
        <ele>344.20001220703</ele>
        <time>2011-03-19T14:32:26.000Z</time>
      </trkpt>
      <trkpt lat="46.10689" lon="3.03042">
        <ele>344.60000610352</ele>
        <time>2011-03-19T14:32:32.000Z</time>
      </trkpt>
      <trkpt lat="46.10668" lon="3.0298">
        <ele>345.79998779297</ele>
        <time>2011-03-19T14:32:39.000Z</time>
      </trkpt>
      <trkpt lat="46.1065" lon="3.02924">
        <ele>347.79998779297</ele>
        <time>2011-03-19T14:32:46.000Z</time>
      </trkpt>
      <trkpt lat="46.10639" lon="3.02871">
        <ele>350</ele>
        <time>2011-03-19T14:32:53.000Z</time>
      </trkpt>
      <trkpt lat="46.1063" lon="3.02823">
        <ele>351</ele>
        <time>2011-03-19T14:32:59.000Z</time>
      </trkpt>
      <trkpt lat="46.10615" lon="3.02749">
        <ele>354</ele>
        <time>2011-03-19T14:33:09.000Z</time>
      </trkpt>
      <trkpt lat="46.10611" lon="3.02705">
        <ele>355.20001220703</ele>
        <time>2011-03-19T14:33:15.000Z</time>
      </trkpt>
      <trkpt lat="46.10618" lon="3.02664">
        <ele>356.79998779297</ele>
        <time>2011-03-19T14:33:21.000Z</time>
      </trkpt>
      <trkpt lat="46.1062" lon="3.02651">
        <ele>357.20001220703</ele>
        <time>2011-03-19T14:33:23.000Z</time>
      </trkpt>
      <trkpt lat="46.10615" lon="3.02611">
        <ele>359.20001220703</ele>
        <time>2011-03-19T14:33:29.000Z</time>
      </trkpt>
      <trkpt lat="46.10613" lon="3.02604">
        <ele>359.39999389648</ele>
        <time>2011-03-19T14:33:30.000Z</time>
      </trkpt>
      <trkpt lat="46.10596" lon="3.02562">
        <ele>361</ele>
        <time>2011-03-19T14:33:37.000Z</time>
      </trkpt>
      <trkpt lat="46.10596" lon="3.02529">
        <ele>362.79998779297</ele>
        <time>2011-03-19T14:33:42.000Z</time>
      </trkpt>
      <trkpt lat="46.10604" lon="3.02477">
        <ele>365.39999389648</ele>
        <time>2011-03-19T14:33:50.000Z</time>
      </trkpt>
      <trkpt lat="46.10609" lon="3.02424">
        <ele>366.60000610352</ele>
        <time>2011-03-19T14:33:58.000Z</time>
      </trkpt>
      <trkpt lat="46.10614" lon="3.02382">
        <ele>368.60000610352</ele>
        <time>2011-03-19T14:34:04.000Z</time>
      </trkpt>
      <trkpt lat="46.10633" lon="3.02311">
        <ele>371.60000610352</ele>
        <time>2011-03-19T14:34:15.000Z</time>
      </trkpt>
      <trkpt lat="46.10647" lon="3.02262">
        <ele>373.20001220703</ele>
        <time>2011-03-19T14:34:23.000Z</time>
      </trkpt>
      <trkpt lat="46.10668" lon="3.02238">
        <ele>373.39999389648</ele>
        <time>2011-03-19T14:34:28.000Z</time>
      </trkpt>
      <trkpt lat="46.10681" lon="3.02237">
        <ele>373</ele>
        <time>2011-03-19T14:34:30.000Z</time>
      </trkpt>
      <trkpt lat="46.10739" lon="3.02246">
        <ele>371.60000610352</ele>
        <time>2011-03-19T14:34:38.000Z</time>
      </trkpt>
      <trkpt lat="46.10787" lon="3.02248">
        <ele>370.39999389648</ele>
        <time>2011-03-19T14:34:44.000Z</time>
      </trkpt>
      <trkpt lat="46.10836" lon="3.02231">
        <ele>368.20001220703</ele>
        <time>2011-03-19T14:34:50.000Z</time>
      </trkpt>
      <trkpt lat="46.10876" lon="3.02203">
        <ele>366.39999389648</ele>
        <time>2011-03-19T14:34:55.000Z</time>
      </trkpt>
      <trkpt lat="46.10917" lon="3.02155">
        <ele>364.60000610352</ele>
        <time>2011-03-19T14:35:01.000Z</time>
      </trkpt>
      <trkpt lat="46.10963" lon="3.02078">
        <ele>362.60000610352</ele>
        <time>2011-03-19T14:35:09.000Z</time>
      </trkpt>
      <trkpt lat="46.10969" lon="3.02068">
        <ele>362.20001220703</ele>
        <time>2011-03-19T14:35:10.000Z</time>
      </trkpt>
      <trkpt lat="46.11" lon="3.02042">
        <ele>360.60000610352</ele>
        <time>2011-03-19T14:35:14.000Z</time>
      </trkpt>
      <trkpt lat="46.11017" lon="3.0204">
        <ele>359.79998779297</ele>
        <time>2011-03-19T14:35:16.000Z</time>
      </trkpt>
      <trkpt lat="46.11059" lon="3.02037">
        <ele>358.60000610352</ele>
        <time>2011-03-19T14:35:21.000Z</time>
      </trkpt>
      <trkpt lat="46.1109" lon="3.02019">
        <ele>357.60000610352</ele>
        <time>2011-03-19T14:35:25.000Z</time>
      </trkpt>
      <trkpt lat="46.1112" lon="3.01975">
        <ele>357</ele>
        <time>2011-03-19T14:35:30.000Z</time>
      </trkpt>
      <trkpt lat="46.11123" lon="3.01937">
        <ele>356.79998779297</ele>
        <time>2011-03-19T14:35:33.000Z</time>
      </trkpt>
      <trkpt lat="46.11119" lon="3.01821">
        <ele>354.79998779297</ele>
        <time>2011-03-19T14:35:42.000Z</time>
      </trkpt>
      <trkpt lat="46.11114" lon="3.01715">
        <ele>352.60000610352</ele>
        <time>2011-03-19T14:35:50.000Z</time>
      </trkpt>
      <trkpt lat="46.11096" lon="3.01671">
        <ele>351.60000610352</ele>
        <time>2011-03-19T14:35:54.000Z</time>
      </trkpt>
      <trkpt lat="46.11082" lon="3.01656">
        <ele>350.79998779297</ele>
        <time>2011-03-19T14:35:56.000Z</time>
      </trkpt>
      <trkpt lat="46.11036" lon="3.0162">
        <ele>348.60000610352</ele>
        <time>2011-03-19T14:36:02.000Z</time>
      </trkpt>
      <trkpt lat="46.1101" lon="3.01585">
        <ele>348</ele>
        <time>2011-03-19T14:36:06.000Z</time>
      </trkpt>
      <trkpt lat="46.11003" lon="3.01562">
        <ele>347.39999389648</ele>
        <time>2011-03-19T14:36:08.000Z</time>
      </trkpt>
      <trkpt lat="46.10984" lon="3.01479">
        <ele>344.79998779297</ele>
        <time>2011-03-19T14:36:15.000Z</time>
      </trkpt>
      <trkpt lat="46.10972" lon="3.01417">
        <ele>343.20001220703</ele>
        <time>2011-03-19T14:36:20.000Z</time>
      </trkpt>
      <trkpt lat="46.10981" lon="3.01369">
        <ele>342</ele>
        <time>2011-03-19T14:36:24.000Z</time>
      </trkpt>
      <trkpt lat="46.11008" lon="3.01355">
        <ele>340.60000610352</ele>
        <time>2011-03-19T14:36:27.000Z</time>
      </trkpt>
      <trkpt lat="46.1107" lon="3.01323">
        <ele>338.20001220703</ele>
        <time>2011-03-19T14:36:34.000Z</time>
      </trkpt>
      <trkpt lat="46.11104" lon="3.01303">
        <ele>336.39999389648</ele>
        <time>2011-03-19T14:36:38.000Z</time>
      </trkpt>
      <trkpt lat="46.11155" lon="3.01273">
        <ele>334.60000610352</ele>
        <time>2011-03-19T14:36:44.000Z</time>
      </trkpt>
      <trkpt lat="46.1123" lon="3.01232">
        <ele>332</ele>
        <time>2011-03-19T14:36:53.000Z</time>
      </trkpt>
      <trkpt lat="46.11284" lon="3.01202">
        <ele>330.20001220703</ele>
        <time>2011-03-19T14:37:00.000Z</time>
      </trkpt>
      <trkpt lat="46.11334" lon="3.01164">
        <ele>328.79998779297</ele>
        <time>2011-03-19T14:37:07.000Z</time>
      </trkpt>
      <trkpt lat="46.11364" lon="3.01136">
        <ele>327.60000610352</ele>
        <time>2011-03-19T14:37:12.000Z</time>
      </trkpt>
      <trkpt lat="46.11372" lon="3.01114">
        <ele>327</ele>
        <time>2011-03-19T14:37:15.000Z</time>
      </trkpt>
      <trkpt lat="46.11369" lon="3.01104">
        <ele>326.79998779297</ele>
        <time>2011-03-19T14:37:16.000Z</time>
      </trkpt>
      <trkpt lat="46.11341" lon="3.01029">
        <ele>326.20001220703</ele>
        <time>2011-03-19T14:37:25.000Z</time>
      </trkpt>
      <trkpt lat="46.11318" lon="3.00966">
        <ele>327.39999389648</ele>
        <time>2011-03-19T14:37:33.000Z</time>
      </trkpt>
      <trkpt lat="46.11315" lon="3.00959">
        <ele>327.60000610352</ele>
        <time>2011-03-19T14:37:34.000Z</time>
      </trkpt>
      <trkpt lat="46.1129" lon="3.0093">
        <ele>328.79998779297</ele>
        <time>2011-03-19T14:37:40.000Z</time>
      </trkpt>
      <trkpt lat="46.1127" lon="3.00924">
        <ele>329.79998779297</ele>
        <time>2011-03-19T14:37:44.000Z</time>
      </trkpt>
      <trkpt lat="46.11236" lon="3.00941">
        <ele>331.60000610352</ele>
        <time>2011-03-19T14:37:52.000Z</time>
      </trkpt>
      <trkpt lat="46.11196" lon="3.00974">
        <ele>333.39999389648</ele>
        <time>2011-03-19T14:38:02.000Z</time>
      </trkpt>
      <trkpt lat="46.11156" lon="3.01006">
        <ele>335.60000610352</ele>
        <time>2011-03-19T14:38:12.000Z</time>
      </trkpt>
      <trkpt lat="46.11147" lon="3.01011">
        <ele>336.20001220703</ele>
        <time>2011-03-19T14:38:14.000Z</time>
      </trkpt>
      <trkpt lat="46.11126" lon="3.01008">
        <ele>337.20001220703</ele>
        <time>2011-03-19T14:38:19.000Z</time>
      </trkpt>
      <trkpt lat="46.11115" lon="3.0099">
        <ele>338.39999389648</ele>
        <time>2011-03-19T14:38:23.000Z</time>
      </trkpt>
      <trkpt lat="46.11113" lon="3.00965">
        <ele>340.39999389648</ele>
        <time>2011-03-19T14:38:28.000Z</time>
      </trkpt>
      <trkpt lat="46.11123" lon="3.00949">
        <ele>342</ele>
        <time>2011-03-19T14:38:32.000Z</time>
      </trkpt>
      <trkpt lat="46.11126" lon="3.00947">
        <ele>342.39999389648</ele>
        <time>2011-03-19T14:38:33.000Z</time>
      </trkpt>
      <trkpt lat="46.11158" lon="3.00919">
        <ele>344.39999389648</ele>
        <time>2011-03-19T14:38:42.000Z</time>
      </trkpt>
      <trkpt lat="46.11185" lon="3.00894">
        <ele>346</ele>
        <time>2011-03-19T14:38:50.000Z</time>
      </trkpt>
      <trkpt lat="46.11219" lon="3.00859">
        <ele>348</ele>
        <time>2011-03-19T14:38:59.000Z</time>
      </trkpt>
      <trkpt lat="46.1125" lon="3.00814">
        <ele>349</ele>
        <time>2011-03-19T14:39:09.000Z</time>
      </trkpt>
      <trkpt lat="46.11264" lon="3.00782">
        <ele>350.60000610352</ele>
        <time>2011-03-19T14:39:16.000Z</time>
      </trkpt>
      <trkpt lat="46.11269" lon="3.00741">
        <ele>353.20001220703</ele>
        <time>2011-03-19T14:39:24.000Z</time>
      </trkpt>
      <trkpt lat="46.11271" lon="3.00671">
        <ele>356.60000610352</ele>
        <time>2011-03-19T14:39:38.000Z</time>
      </trkpt>
      <trkpt lat="46.11278" lon="3.00637">
        <ele>358.39999389648</ele>
        <time>2011-03-19T14:39:45.000Z</time>
      </trkpt>
      <trkpt lat="46.11291" lon="3.00607">
        <ele>361</ele>
        <time>2011-03-19T14:39:52.000Z</time>
      </trkpt>
      <trkpt lat="46.11293" lon="3.00582">
        <ele>362.79998779297</ele>
        <time>2011-03-19T14:39:57.000Z</time>
      </trkpt>
      <trkpt lat="46.11284" lon="3.00558">
        <ele>364.39999389648</ele>
        <time>2011-03-19T14:40:02.000Z</time>
      </trkpt>
      <trkpt lat="46.1126" lon="3.0052">
        <ele>366.60000610352</ele>
        <time>2011-03-19T14:40:11.000Z</time>
      </trkpt>
      <trkpt lat="46.11234" lon="3.00496">
        <ele>369.20001220703</ele>
        <time>2011-03-19T14:40:19.000Z</time>
      </trkpt>
      <trkpt lat="46.1121" lon="3.00488">
        <ele>370.60000610352</ele>
        <time>2011-03-19T14:40:26.000Z</time>
      </trkpt>
      <trkpt lat="46.11177" lon="3.00483">
        <ele>373</ele>
        <time>2011-03-19T14:40:35.000Z</time>
      </trkpt>
      <trkpt lat="46.1115" lon="3.00476">
        <ele>375.20001220703</ele>
        <time>2011-03-19T14:40:43.000Z</time>
      </trkpt>
      <trkpt lat="46.11115" lon="3.00457">
        <ele>378.39999389648</ele>
        <time>2011-03-19T14:40:54.000Z</time>
      </trkpt>
      <trkpt lat="46.11085" lon="3.00433">
        <ele>380.39999389648</ele>
        <time>2011-03-19T14:41:04.000Z</time>
      </trkpt>
      <trkpt lat="46.11056" lon="3.00407">
        <ele>383.20001220703</ele>
        <time>2011-03-19T14:41:14.000Z</time>
      </trkpt>
      <trkpt lat="46.11016" lon="3.00373">
        <ele>386.20001220703</ele>
        <time>2011-03-19T14:41:27.000Z</time>
      </trkpt>
      <trkpt lat="46.10983" lon="3.00342">
        <ele>389.20001220703</ele>
        <time>2011-03-19T14:41:38.000Z</time>
      </trkpt>
      <trkpt lat="46.10956" lon="3.0031">
        <ele>391.20001220703</ele>
        <time>2011-03-19T14:41:48.000Z</time>
      </trkpt>
      <trkpt lat="46.1093" lon="3.00281">
        <ele>393.20001220703</ele>
        <time>2011-03-19T14:41:57.000Z</time>
      </trkpt>
      <trkpt lat="46.10902" lon="3.00266">
        <ele>395.39999389648</ele>
        <time>2011-03-19T14:42:05.000Z</time>
      </trkpt>
      <trkpt lat="46.10869" lon="3.00261">
        <ele>397.79998779297</ele>
        <time>2011-03-19T14:42:14.000Z</time>
      </trkpt>
      <trkpt lat="46.10841" lon="3.00259">
        <ele>398.79998779297</ele>
        <time>2011-03-19T14:42:21.000Z</time>
      </trkpt>
      <trkpt lat="46.10805" lon="3.00258">
        <ele>401.39999389648</ele>
        <time>2011-03-19T14:42:31.000Z</time>
      </trkpt>
      <trkpt lat="46.10768" lon="3.00255">
        <ele>403.39999389648</ele>
        <time>2011-03-19T14:42:41.000Z</time>
      </trkpt>
      <trkpt lat="46.10745" lon="3.00251">
        <ele>405</ele>
        <time>2011-03-19T14:42:47.000Z</time>
      </trkpt>
      <trkpt lat="46.10721" lon="3.00236">
        <ele>406.60000610352</ele>
        <time>2011-03-19T14:42:54.000Z</time>
      </trkpt>
      <trkpt lat="46.10692" lon="3.00202">
        <ele>409.39999389648</ele>
        <time>2011-03-19T14:43:04.000Z</time>
      </trkpt>
      <trkpt lat="46.1067" lon="3.00174">
        <ele>410.79998779297</ele>
        <time>2011-03-19T14:43:12.000Z</time>
      </trkpt>
      <trkpt lat="46.10649" lon="3.00145">
        <ele>412.20001220703</ele>
        <time>2011-03-19T14:43:20.000Z</time>
      </trkpt>
      <trkpt lat="46.10627" lon="3.00101">
        <ele>414.60000610352</ele>
        <time>2011-03-19T14:43:30.000Z</time>
      </trkpt>
      <trkpt lat="46.10613" lon="3.00062">
        <ele>416.79998779297</ele>
        <time>2011-03-19T14:43:38.000Z</time>
      </trkpt>
      <trkpt lat="46.10598" lon="3.00018">
        <ele>419</ele>
        <time>2011-03-19T14:43:47.000Z</time>
      </trkpt>
      <trkpt lat="46.10581" lon="2.99963">
        <ele>421.60000610352</ele>
        <time>2011-03-19T14:43:58.000Z</time>
      </trkpt>
      <trkpt lat="46.10575" lon="2.99925">
        <ele>423.39999389648</ele>
        <time>2011-03-19T14:44:05.000Z</time>
      </trkpt>
      <trkpt lat="46.10569" lon="2.9987">
        <ele>426.20001220703</ele>
        <time>2011-03-19T14:44:15.000Z</time>
      </trkpt>
      <trkpt lat="46.10562" lon="2.99825">
        <ele>428.39999389648</ele>
        <time>2011-03-19T14:44:23.000Z</time>
      </trkpt>
      <trkpt lat="46.10563" lon="2.99786">
        <ele>429.60000610352</ele>
        <time>2011-03-19T14:44:30.000Z</time>
      </trkpt>
      <trkpt lat="46.10571" lon="2.9975">
        <ele>432.20001220703</ele>
        <time>2011-03-19T14:44:37.000Z</time>
      </trkpt>
      <trkpt lat="46.10575" lon="2.99734">
        <ele>433</ele>
        <time>2011-03-19T14:44:40.000Z</time>
      </trkpt>
      <trkpt lat="46.1057" lon="2.99714">
        <ele>433.39999389648</ele>
        <time>2011-03-19T14:44:44.000Z</time>
      </trkpt>
      <trkpt lat="46.10558" lon="2.99708">
        <ele>434.20001220703</ele>
        <time>2011-03-19T14:44:47.000Z</time>
      </trkpt>
      <trkpt lat="46.10546" lon="2.99713">
        <ele>435</ele>
        <time>2011-03-19T14:44:50.000Z</time>
      </trkpt>
      <trkpt lat="46.10529" lon="2.99738">
        <ele>437</ele>
        <time>2011-03-19T14:44:56.000Z</time>
      </trkpt>
      <trkpt lat="46.10511" lon="2.99761">
        <ele>438.60000610352</ele>
        <time>2011-03-19T14:45:02.000Z</time>
      </trkpt>
      <trkpt lat="46.10491" lon="2.99776">
        <ele>439.79998779297</ele>
        <time>2011-03-19T14:45:08.000Z</time>
      </trkpt>
      <trkpt lat="46.10479" lon="2.99782">
        <ele>440.20001220703</ele>
        <time>2011-03-19T14:45:11.000Z</time>
      </trkpt>
      <trkpt lat="46.10463" lon="2.99809">
        <ele>441.39999389648</ele>
        <time>2011-03-19T14:45:17.000Z</time>
      </trkpt>
      <trkpt lat="46.10463" lon="2.99815">
        <ele>441.79998779297</ele>
        <time>2011-03-19T14:45:18.000Z</time>
      </trkpt>
      <trkpt lat="46.10468" lon="2.99849">
        <ele>443.60000610352</ele>
        <time>2011-03-19T14:45:24.000Z</time>
      </trkpt>
      <trkpt lat="46.10471" lon="2.99889">
        <ele>445.60000610352</ele>
        <time>2011-03-19T14:45:31.000Z</time>
      </trkpt>
      <trkpt lat="46.10462" lon="2.99945">
        <ele>448.60000610352</ele>
        <time>2011-03-19T14:45:42.000Z</time>
      </trkpt>
      <trkpt lat="46.10455" lon="3.00009">
        <ele>452.20001220703</ele>
        <time>2011-03-19T14:45:54.000Z</time>
      </trkpt>
      <trkpt lat="46.10453" lon="3.00068">
        <ele>454.39999389648</ele>
        <time>2011-03-19T14:46:04.000Z</time>
      </trkpt>
      <trkpt lat="46.10459" lon="3.00127">
        <ele>456.79998779297</ele>
        <time>2011-03-19T14:46:14.000Z</time>
      </trkpt>
      <trkpt lat="46.10468" lon="3.00185">
        <ele>459.39999389648</ele>
        <time>2011-03-19T14:46:24.000Z</time>
      </trkpt>
      <trkpt lat="46.10468" lon="3.00215">
        <ele>460.60000610352</ele>
        <time>2011-03-19T14:46:29.000Z</time>
      </trkpt>
      <trkpt lat="46.10464" lon="3.00238">
        <ele>461.60000610352</ele>
        <time>2011-03-19T14:46:33.000Z</time>
      </trkpt>
      <trkpt lat="46.10441" lon="3.00303">
        <ele>465</ele>
        <time>2011-03-19T14:46:45.000Z</time>
      </trkpt>
      <trkpt lat="46.10429" lon="3.00348">
        <ele>467.20001220703</ele>
        <time>2011-03-19T14:46:53.000Z</time>
      </trkpt>
      <trkpt lat="46.1042" lon="3.00399">
        <ele>469.60000610352</ele>
        <time>2011-03-19T14:47:02.000Z</time>
      </trkpt>
      <trkpt lat="46.10406" lon="3.00421">
        <ele>470.79998779297</ele>
        <time>2011-03-19T14:47:07.000Z</time>
      </trkpt>
      <trkpt lat="46.10398" lon="3.00425">
        <ele>471.20001220703</ele>
        <time>2011-03-19T14:47:09.000Z</time>
      </trkpt>
      <trkpt lat="46.10383" lon="3.0043">
        <ele>472</ele>
        <time>2011-03-19T14:47:13.000Z</time>
      </trkpt>
      <trkpt lat="46.10357" lon="3.00424">
        <ele>473.39999389648</ele>
        <time>2011-03-19T14:47:19.000Z</time>
      </trkpt>
      <trkpt lat="46.10346" lon="3.00414">
        <ele>474.39999389648</ele>
        <time>2011-03-19T14:47:22.000Z</time>
      </trkpt>
      <trkpt lat="46.10314" lon="3.00367">
        <ele>477.60000610352</ele>
        <time>2011-03-19T14:47:33.000Z</time>
      </trkpt>
      <trkpt lat="46.10289" lon="3.00329">
        <ele>479.79998779297</ele>
        <time>2011-03-19T14:47:42.000Z</time>
      </trkpt>
      <trkpt lat="46.10264" lon="3.00304">
        <ele>481.39999389648</ele>
        <time>2011-03-19T14:47:49.000Z</time>
      </trkpt>
      <trkpt lat="46.1022" lon="3.00282">
        <ele>484.79998779297</ele>
        <time>2011-03-19T14:48:00.000Z</time>
      </trkpt>
      <trkpt lat="46.10187" lon="3.00261">
        <ele>487</ele>
        <time>2011-03-19T14:48:09.000Z</time>
      </trkpt>
      <trkpt lat="46.10177" lon="3.0025">
        <ele>487.79998779297</ele>
        <time>2011-03-19T14:48:12.000Z</time>
      </trkpt>
      <trkpt lat="46.10156" lon="3.00214">
        <ele>490.39999389648</ele>
        <time>2011-03-19T14:48:20.000Z</time>
      </trkpt>
      <trkpt lat="46.1015" lon="3.00199">
        <ele>491.20001220703</ele>
        <time>2011-03-19T14:48:23.000Z</time>
      </trkpt>
      <trkpt lat="46.10144" lon="3.00151">
        <ele>492.60000610352</ele>
        <time>2011-03-19T14:48:31.000Z</time>
      </trkpt>
      <trkpt lat="46.10136" lon="3.00093">
        <ele>494</ele>
        <time>2011-03-19T14:48:40.000Z</time>
      </trkpt>
      <trkpt lat="46.1012" lon="3.00034">
        <ele>495.20001220703</ele>
        <time>2011-03-19T14:48:50.000Z</time>
      </trkpt>
      <trkpt lat="46.10107" lon="2.99987">
        <ele>497</ele>
        <time>2011-03-19T14:48:58.000Z</time>
      </trkpt>
      <trkpt lat="46.10091" lon="2.99939">
        <ele>499.79998779297</ele>
        <time>2011-03-19T14:49:08.000Z</time>
      </trkpt>
      <trkpt lat="46.10074" lon="2.99892">
        <ele>502.20001220703</ele>
        <time>2011-03-19T14:49:18.000Z</time>
      </trkpt>
      <trkpt lat="46.10059" lon="2.99852">
        <ele>505</ele>
        <time>2011-03-19T14:49:26.000Z</time>
      </trkpt>
      <trkpt lat="46.10052" lon="2.99825">
        <ele>506.79998779297</ele>
        <time>2011-03-19T14:49:32.000Z</time>
      </trkpt>
      <trkpt lat="46.10055" lon="2.99793">
        <ele>508.79998779297</ele>
        <time>2011-03-19T14:49:38.000Z</time>
      </trkpt>
      <trkpt lat="46.10063" lon="2.99756">
        <ele>511</ele>
        <time>2011-03-19T14:49:45.000Z</time>
      </trkpt>
      <trkpt lat="46.10073" lon="2.99713">
        <ele>513.79998779297</ele>
        <time>2011-03-19T14:49:53.000Z</time>
      </trkpt>
      <trkpt lat="46.10075" lon="2.99671">
        <ele>515.20001220703</ele>
        <time>2011-03-19T14:50:00.000Z</time>
      </trkpt>
      <trkpt lat="46.10077" lon="2.9961">
        <ele>515.79998779297</ele>
        <time>2011-03-19T14:50:09.000Z</time>
      </trkpt>
      <trkpt lat="46.1008" lon="2.99553">
        <ele>516.59997558594</ele>
        <time>2011-03-19T14:50:17.000Z</time>
      </trkpt>
      <trkpt lat="46.10083" lon="2.99487">
        <ele>517</ele>
        <time>2011-03-19T14:50:26.000Z</time>
      </trkpt>
      <trkpt lat="46.10086" lon="2.99426">
        <ele>518.20001220703</ele>
        <time>2011-03-19T14:50:35.000Z</time>
      </trkpt>
      <trkpt lat="46.10089" lon="2.99366">
        <ele>520.59997558594</ele>
        <time>2011-03-19T14:50:45.000Z</time>
      </trkpt>
      <trkpt lat="46.10092" lon="2.99296">
        <ele>523.40002441406</ele>
        <time>2011-03-19T14:50:57.000Z</time>
      </trkpt>
      <trkpt lat="46.10101" lon="2.99252">
        <ele>525.40002441406</ele>
        <time>2011-03-19T14:51:05.000Z</time>
      </trkpt>
      <trkpt lat="46.10106" lon="2.99243">
        <ele>526</ele>
        <time>2011-03-19T14:51:07.000Z</time>
      </trkpt>
      <trkpt lat="46.10126" lon="2.99225">
        <ele>528.20001220703</ele>
        <time>2011-03-19T14:51:13.000Z</time>
      </trkpt>
      <trkpt lat="46.10155" lon="2.99213">
        <ele>530.59997558594</ele>
        <time>2011-03-19T14:51:20.000Z</time>
      </trkpt>
      <trkpt lat="46.10188" lon="2.992">
        <ele>532.20001220703</ele>
        <time>2011-03-19T14:51:28.000Z</time>
      </trkpt>
      <trkpt lat="46.10218" lon="2.99182">
        <ele>534.79998779297</ele>
        <time>2011-03-19T14:51:36.000Z</time>
      </trkpt>
      <trkpt lat="46.10232" lon="2.9916">
        <ele>536.40002441406</ele>
        <time>2011-03-19T14:51:41.000Z</time>
      </trkpt>
      <trkpt lat="46.10248" lon="2.99113">
        <ele>538</ele>
        <time>2011-03-19T14:51:50.000Z</time>
      </trkpt>
      <trkpt lat="46.1026" lon="2.99054">
        <ele>540.20001220703</ele>
        <time>2011-03-19T14:52:00.000Z</time>
      </trkpt>
      <trkpt lat="46.10262" lon="2.98993">
        <ele>542.79998779297</ele>
        <time>2011-03-19T14:52:10.000Z</time>
      </trkpt>
      <trkpt lat="46.10265" lon="2.98913">
        <ele>545</ele>
        <time>2011-03-19T14:52:23.000Z</time>
      </trkpt>
      <trkpt lat="46.10268" lon="2.98855">
        <ele>547.40002441406</ele>
        <time>2011-03-19T14:52:33.000Z</time>
      </trkpt>
      <trkpt lat="46.10271" lon="2.9882">
        <ele>548.40002441406</ele>
        <time>2011-03-19T14:52:39.000Z</time>
      </trkpt>
      <trkpt lat="46.10283" lon="2.98788">
        <ele>549.59997558594</ele>
        <time>2011-03-19T14:52:45.000Z</time>
      </trkpt>
      <trkpt lat="46.10286" lon="2.98784">
        <ele>550</ele>
        <time>2011-03-19T14:52:46.000Z</time>
      </trkpt>
      <trkpt lat="46.10316" lon="2.98759">
        <ele>552</ele>
        <time>2011-03-19T14:52:54.000Z</time>
      </trkpt>
      <trkpt lat="46.10345" lon="2.98723">
        <ele>554.20001220703</ele>
        <time>2011-03-19T14:53:03.000Z</time>
      </trkpt>
      <trkpt lat="46.10347" lon="2.98717">
        <ele>554.59997558594</ele>
        <time>2011-03-19T14:53:04.000Z</time>
      </trkpt>
      <trkpt lat="46.10359" lon="2.98666">
        <ele>556.79998779297</ele>
        <time>2011-03-19T14:53:13.000Z</time>
      </trkpt>
      <trkpt lat="46.10364" lon="2.9863">
        <ele>558.40002441406</ele>
        <time>2011-03-19T14:53:19.000Z</time>
      </trkpt>
      <trkpt lat="46.10368" lon="2.98606">
        <ele>559.40002441406</ele>
        <time>2011-03-19T14:53:23.000Z</time>
      </trkpt>
      <trkpt lat="46.10375" lon="2.98542">
        <ele>562</ele>
        <time>2011-03-19T14:53:34.000Z</time>
      </trkpt>
      <trkpt lat="46.10377" lon="2.98496">
        <ele>563.79998779297</ele>
        <time>2011-03-19T14:53:42.000Z</time>
      </trkpt>
      <trkpt lat="46.10374" lon="2.98442">
        <ele>565.59997558594</ele>
        <time>2011-03-19T14:53:51.000Z</time>
      </trkpt>
      <trkpt lat="46.10371" lon="2.98394">
        <ele>567.20001220703</ele>
        <time>2011-03-19T14:53:59.000Z</time>
      </trkpt>
      <trkpt lat="46.10371" lon="2.9832">
        <ele>570.20001220703</ele>
        <time>2011-03-19T14:54:11.000Z</time>
      </trkpt>
      <trkpt lat="46.10381" lon="2.98281">
        <ele>572.40002441406</ele>
        <time>2011-03-19T14:54:18.000Z</time>
      </trkpt>
      <trkpt lat="46.10401" lon="2.98242">
        <ele>573.79998779297</ele>
        <time>2011-03-19T14:54:26.000Z</time>
      </trkpt>
      <trkpt lat="46.10425" lon="2.98209">
        <ele>576</ele>
        <time>2011-03-19T14:54:34.000Z</time>
      </trkpt>
      <trkpt lat="46.10462" lon="2.9816">
        <ele>578.59997558594</ele>
        <time>2011-03-19T14:54:46.000Z</time>
      </trkpt>
      <trkpt lat="46.10501" lon="2.98116">
        <ele>582</ele>
        <time>2011-03-19T14:54:58.000Z</time>
      </trkpt>
      <trkpt lat="46.10538" lon="2.98083">
        <ele>584.20001220703</ele>
        <time>2011-03-19T14:55:08.000Z</time>
      </trkpt>
      <trkpt lat="46.10575" lon="2.98049">
        <ele>586.59997558594</ele>
        <time>2011-03-19T14:55:18.000Z</time>
      </trkpt>
      <trkpt lat="46.106" lon="2.98019">
        <ele>588.59997558594</ele>
        <time>2011-03-19T14:55:26.000Z</time>
      </trkpt>
      <trkpt lat="46.10607" lon="2.97998">
        <ele>590</ele>
        <time>2011-03-19T14:55:32.000Z</time>
      </trkpt>
      <trkpt lat="46.10608" lon="2.97996">
        <ele>590.20001220703</ele>
        <time>2011-03-19T14:55:35.000Z</time>
      </trkpt>
      <trkpt lat="46.10608" lon="2.97996">
        <ele>590.20001220703</ele>
        <time>2011-03-19T14:55:36.000Z</time>
      </trkpt>
      <trkpt lat="46.10605" lon="2.97996">
        <ele>590</ele>
        <time>2011-03-19T14:58:52.000Z</time>
      </trkpt>
      <trkpt lat="46.10603" lon="2.97984">
        <ele>590</ele>
        <time>2011-03-19T14:59:13.000Z</time>
      </trkpt>
      <trkpt lat="46.10593" lon="2.97963">
        <ele>589.79998779297</ele>
        <time>2011-03-19T14:59:19.000Z</time>
      </trkpt>
      <trkpt lat="46.10587" lon="2.97956">
        <ele>589.79998779297</ele>
        <time>2011-03-19T14:59:21.000Z</time>
      </trkpt>
      <trkpt lat="46.10557" lon="2.97932">
        <ele>589.20001220703</ele>
        <time>2011-03-19T14:59:28.000Z</time>
      </trkpt>
      <trkpt lat="46.10522" lon="2.97907">
        <ele>588</ele>
        <time>2011-03-19T14:59:34.000Z</time>
      </trkpt>
      <trkpt lat="46.10472" lon="2.97873">
        <ele>586.40002441406</ele>
        <time>2011-03-19T14:59:41.000Z</time>
      </trkpt>
      <trkpt lat="46.10396" lon="2.97819">
        <ele>583.40002441406</ele>
        <time>2011-03-19T14:59:51.000Z</time>
      </trkpt>
      <trkpt lat="46.10353" lon="2.97798">
        <ele>581</ele>
        <time>2011-03-19T14:59:56.000Z</time>
      </trkpt>
      <trkpt lat="46.10295" lon="2.97775">
        <ele>577.79998779297</ele>
        <time>2011-03-19T15:00:02.000Z</time>
      </trkpt>
      <trkpt lat="46.10245" lon="2.97783">
        <ele>575.40002441406</ele>
        <time>2011-03-19T15:00:07.000Z</time>
      </trkpt>
      <trkpt lat="46.10196" lon="2.97798">
        <ele>573</ele>
        <time>2011-03-19T15:00:12.000Z</time>
      </trkpt>
      <trkpt lat="46.10167" lon="2.97788">
        <ele>572</ele>
        <time>2011-03-19T15:00:15.000Z</time>
      </trkpt>
      <trkpt lat="46.10154" lon="2.97766">
        <ele>571</ele>
        <time>2011-03-19T15:00:17.000Z</time>
      </trkpt>
      <trkpt lat="46.10126" lon="2.97703">
        <ele>570</ele>
        <time>2011-03-19T15:00:23.000Z</time>
      </trkpt>
      <trkpt lat="46.10103" lon="2.97654">
        <ele>571.40002441406</ele>
        <time>2011-03-19T15:00:29.000Z</time>
      </trkpt>
      <trkpt lat="46.10077" lon="2.97597">
        <ele>573.79998779297</ele>
        <time>2011-03-19T15:00:38.000Z</time>
      </trkpt>
      <trkpt lat="46.10057" lon="2.97577">
        <ele>575.40002441406</ele>
        <time>2011-03-19T15:00:43.000Z</time>
      </trkpt>
      <trkpt lat="46.1004" lon="2.97581">
        <ele>576.40002441406</ele>
        <time>2011-03-19T15:00:47.000Z</time>
      </trkpt>
      <trkpt lat="46.10033" lon="2.97587">
        <ele>577</ele>
        <time>2011-03-19T15:00:49.000Z</time>
      </trkpt>
      <trkpt lat="46.10002" lon="2.97622">
        <ele>579.79998779297</ele>
        <time>2011-03-19T15:00:58.000Z</time>
      </trkpt>
      <trkpt lat="46.09965" lon="2.9766">
        <ele>582.20001220703</ele>
        <time>2011-03-19T15:01:08.000Z</time>
      </trkpt>
      <trkpt lat="46.09924" lon="2.97695">
        <ele>585</ele>
        <time>2011-03-19T15:01:19.000Z</time>
      </trkpt>
      <trkpt lat="46.09907" lon="2.97701">
        <ele>586</ele>
        <time>2011-03-19T15:01:23.000Z</time>
      </trkpt>
      <trkpt lat="46.09886" lon="2.97697">
        <ele>587.40002441406</ele>
        <time>2011-03-19T15:01:28.000Z</time>
      </trkpt>
      <trkpt lat="46.09877" lon="2.97692">
        <ele>587.79998779297</ele>
        <time>2011-03-19T15:01:30.000Z</time>
      </trkpt>
      <trkpt lat="46.09851" lon="2.9766">
        <ele>589.79998779297</ele>
        <time>2011-03-19T15:01:38.000Z</time>
      </trkpt>
      <trkpt lat="46.09833" lon="2.97619">
        <ele>592.20001220703</ele>
        <time>2011-03-19T15:01:46.000Z</time>
      </trkpt>
      <trkpt lat="46.09814" lon="2.97579">
        <ele>594</ele>
        <time>2011-03-19T15:01:54.000Z</time>
      </trkpt>
      <trkpt lat="46.09789" lon="2.97532">
        <ele>595.79998779297</ele>
        <time>2011-03-19T15:02:03.000Z</time>
      </trkpt>
      <trkpt lat="46.09749" lon="2.9746">
        <ele>598.20001220703</ele>
        <time>2011-03-19T15:02:17.000Z</time>
      </trkpt>
      <trkpt lat="46.09711" lon="2.97393">
        <ele>600.20001220703</ele>
        <time>2011-03-19T15:02:30.000Z</time>
      </trkpt>
      <trkpt lat="46.09683" lon="2.97342">
        <ele>601.59997558594</ele>
        <time>2011-03-19T15:02:39.000Z</time>
      </trkpt>
      <trkpt lat="46.09648" lon="2.97279">
        <ele>601.79998779297</ele>
        <time>2011-03-19T15:02:49.000Z</time>
      </trkpt>
      <trkpt lat="46.09611" lon="2.97205">
        <ele>602</ele>
        <time>2011-03-19T15:03:00.000Z</time>
      </trkpt>
      <trkpt lat="46.09587" lon="2.97153">
        <ele>602</ele>
        <time>2011-03-19T15:03:07.000Z</time>
      </trkpt>
      <trkpt lat="46.09579" lon="2.97108">
        <ele>601.79998779297</ele>
        <time>2011-03-19T15:03:12.000Z</time>
      </trkpt>
      <trkpt lat="46.0958" lon="2.97099">
        <ele>601.79998779297</ele>
        <time>2011-03-19T15:03:13.000Z</time>
      </trkpt>
      <trkpt lat="46.09581" lon="2.97073">
        <ele>601.79998779297</ele>
        <time>2011-03-19T15:03:16.000Z</time>
      </trkpt>
      <trkpt lat="46.09571" lon="2.97031">
        <ele>601.79998779297</ele>
        <time>2011-03-19T15:03:21.000Z</time>
      </trkpt>
      <trkpt lat="46.09558" lon="2.97011">
        <ele>601.79998779297</ele>
        <time>2011-03-19T15:03:24.000Z</time>
      </trkpt>
      <trkpt lat="46.09513" lon="2.9696">
        <ele>600.79998779297</ele>
        <time>2011-03-19T15:03:33.000Z</time>
      </trkpt>
      <trkpt lat="46.09462" lon="2.96903">
        <ele>600.59997558594</ele>
        <time>2011-03-19T15:03:43.000Z</time>
      </trkpt>
      <trkpt lat="46.09432" lon="2.96869">
        <ele>602.20001220703</ele>
        <time>2011-03-19T15:03:50.000Z</time>
      </trkpt>
      <trkpt lat="46.09405" lon="2.96847">
        <ele>604.59997558594</ele>
        <time>2011-03-19T15:03:57.000Z</time>
      </trkpt>
      <trkpt lat="46.09381" lon="2.96838">
        <ele>606</ele>
        <time>2011-03-19T15:04:03.000Z</time>
      </trkpt>
      <trkpt lat="46.09354" lon="2.9684">
        <ele>608.59997558594</ele>
        <time>2011-03-19T15:04:10.000Z</time>
      </trkpt>
      <trkpt lat="46.09327" lon="2.96855">
        <ele>611.79998779297</ele>
        <time>2011-03-19T15:04:18.000Z</time>
      </trkpt>
      <trkpt lat="46.09299" lon="2.96879">
        <ele>614.20001220703</ele>
        <time>2011-03-19T15:04:27.000Z</time>
      </trkpt>
      <trkpt lat="46.09271" lon="2.96893">
        <ele>617.20001220703</ele>
        <time>2011-03-19T15:04:35.000Z</time>
      </trkpt>
      <trkpt lat="46.09237" lon="2.96901">
        <ele>619.20001220703</ele>
        <time>2011-03-19T15:04:44.000Z</time>
      </trkpt>
      <trkpt lat="46.09198" lon="2.96898">
        <ele>621</ele>
        <time>2011-03-19T15:04:54.000Z</time>
      </trkpt>
      <trkpt lat="46.09168" lon="2.96895">
        <ele>621.40002441406</ele>
        <time>2011-03-19T15:05:02.000Z</time>
      </trkpt>
      <trkpt lat="46.09138" lon="2.96889">
        <ele>620.79998779297</ele>
        <time>2011-03-19T15:05:09.000Z</time>
      </trkpt>
      <trkpt lat="46.0912" lon="2.96889">
        <ele>620</ele>
        <time>2011-03-19T15:05:12.000Z</time>
      </trkpt>
      <trkpt lat="46.09078" lon="2.96902">
        <ele>618</ele>
        <time>2011-03-19T15:05:18.000Z</time>
      </trkpt>
      <trkpt lat="46.09048" lon="2.96913">
        <ele>616.40002441406</ele>
        <time>2011-03-19T15:05:22.000Z</time>
      </trkpt>
      <trkpt lat="46.09022" lon="2.96933">
        <ele>615.59997558594</ele>
        <time>2011-03-19T15:05:26.000Z</time>
      </trkpt>
      <trkpt lat="46.09" lon="2.96957">
        <ele>614.79998779297</ele>
        <time>2011-03-19T15:05:30.000Z</time>
      </trkpt>
      <trkpt lat="46.08964" lon="2.96976">
        <ele>614.40002441406</ele>
        <time>2011-03-19T15:05:36.000Z</time>
      </trkpt>
      <trkpt lat="46.08924" lon="2.96991">
        <ele>614.40002441406</ele>
        <time>2011-03-19T15:05:43.000Z</time>
      </trkpt>
      <trkpt lat="46.08918" lon="2.96993">
        <ele>614.59997558594</ele>
        <time>2011-03-19T15:05:44.000Z</time>
      </trkpt>
      <trkpt lat="46.08894" lon="2.96992">
        <ele>614.59997558594</ele>
        <time>2011-03-19T15:05:48.000Z</time>
      </trkpt>
      <trkpt lat="46.08837" lon="2.96976">
        <ele>614.79998779297</ele>
        <time>2011-03-19T15:05:57.000Z</time>
      </trkpt>
      <trkpt lat="46.08789" lon="2.96973">
        <ele>615.20001220703</ele>
        <time>2011-03-19T15:06:05.000Z</time>
      </trkpt>
      <trkpt lat="46.08747" lon="2.9697">
        <ele>616.20001220703</ele>
        <time>2011-03-19T15:06:13.000Z</time>
      </trkpt>
      <trkpt lat="46.08703" lon="2.96976">
        <ele>618</ele>
        <time>2011-03-19T15:06:22.000Z</time>
      </trkpt>
      <trkpt lat="46.08648" lon="2.96999">
        <ele>620</ele>
        <time>2011-03-19T15:06:33.000Z</time>
      </trkpt>
      <trkpt lat="46.08615" lon="2.97013">
        <ele>620.59997558594</ele>
        <time>2011-03-19T15:06:40.000Z</time>
      </trkpt>
      <trkpt lat="46.08561" lon="2.97037">
        <ele>622</ele>
        <time>2011-03-19T15:06:51.000Z</time>
      </trkpt>
      <trkpt lat="46.08512" lon="2.97061">
        <ele>622.79998779297</ele>
        <time>2011-03-19T15:07:01.000Z</time>
      </trkpt>
      <trkpt lat="46.08507" lon="2.97065">
        <ele>623</ele>
        <time>2011-03-19T15:07:02.000Z</time>
      </trkpt>
      <trkpt lat="46.08469" lon="2.97107">
        <ele>624</ele>
        <time>2011-03-19T15:07:11.000Z</time>
      </trkpt>
      <trkpt lat="46.08434" lon="2.97147">
        <ele>624.79998779297</ele>
        <time>2011-03-19T15:07:19.000Z</time>
      </trkpt>
      <trkpt lat="46.0841" lon="2.97159">
        <ele>624.79998779297</ele>
        <time>2011-03-19T15:07:24.000Z</time>
      </trkpt>
      <trkpt lat="46.08388" lon="2.97154">
        <ele>625</ele>
        <time>2011-03-19T15:07:29.000Z</time>
      </trkpt>
      <trkpt lat="46.0837" lon="2.97141">
        <ele>625</ele>
        <time>2011-03-19T15:07:35.000Z</time>
      </trkpt>
      <trkpt lat="46.0836" lon="2.97131">
        <ele>624.79998779297</ele>
        <time>2011-03-19T15:07:39.000Z</time>
      </trkpt>
      <trkpt lat="46.08345" lon="2.97129">
        <ele>624.59997558594</ele>
        <time>2011-03-19T15:07:43.000Z</time>
      </trkpt>
      <trkpt lat="46.08331" lon="2.97129">
        <ele>624.20001220703</ele>
        <time>2011-03-19T15:07:47.000Z</time>
      </trkpt>
      <trkpt lat="46.08328" lon="2.97133">
        <ele>623.79998779297</ele>
        <time>2011-03-19T15:07:52.000Z</time>
      </trkpt>
      <trkpt lat="46.08329" lon="2.97132">
        <ele>623.79998779297</ele>
        <time>2011-03-19T15:07:55.000Z</time>
      </trkpt>
      <trkpt lat="46.08323" lon="2.97127">
        <ele>624</ele>
        <time>2011-03-19T15:08:07.000Z</time>
      </trkpt>
      <trkpt lat="46.08306" lon="2.97124">
        <ele>624</ele>
        <time>2011-03-19T15:08:12.000Z</time>
      </trkpt>
      <trkpt lat="46.08275" lon="2.9712">
        <ele>623.40002441406</ele>
        <time>2011-03-19T15:08:19.000Z</time>
      </trkpt>
      <trkpt lat="46.08262" lon="2.97119">
        <ele>623.20001220703</ele>
        <time>2011-03-19T15:08:22.000Z</time>
      </trkpt>
      <trkpt lat="46.08224" lon="2.97129">
        <ele>623.20001220703</ele>
        <time>2011-03-19T15:08:30.000Z</time>
      </trkpt>
      <trkpt lat="46.08194" lon="2.9715">
        <ele>623</ele>
        <time>2011-03-19T15:08:37.000Z</time>
      </trkpt>
      <trkpt lat="46.08175" lon="2.97164">
        <ele>623</ele>
        <time>2011-03-19T15:08:42.000Z</time>
      </trkpt>
      <trkpt lat="46.08139" lon="2.97195">
        <ele>623.79998779297</ele>
        <time>2011-03-19T15:08:50.000Z</time>
      </trkpt>
      <trkpt lat="46.08116" lon="2.97213">
        <ele>624</ele>
        <time>2011-03-19T15:08:55.000Z</time>
      </trkpt>
      <trkpt lat="46.08083" lon="2.97241">
        <ele>624.59997558594</ele>
        <time>2011-03-19T15:09:01.000Z</time>
      </trkpt>
      <trkpt lat="46.0804" lon="2.97269">
        <ele>625.40002441406</ele>
        <time>2011-03-19T15:09:08.000Z</time>
      </trkpt>
      <trkpt lat="46.07992" lon="2.97284">
        <ele>626.20001220703</ele>
        <time>2011-03-19T15:09:15.000Z</time>
      </trkpt>
      <trkpt lat="46.0795" lon="2.97285">
        <ele>627</ele>
        <time>2011-03-19T15:09:21.000Z</time>
      </trkpt>
      <trkpt lat="46.07911" lon="2.97276">
        <ele>627.59997558594</ele>
        <time>2011-03-19T15:09:27.000Z</time>
      </trkpt>
      <trkpt lat="46.07855" lon="2.97261">
        <ele>628.40002441406</ele>
        <time>2011-03-19T15:09:36.000Z</time>
      </trkpt>
      <trkpt lat="46.07812" lon="2.97268">
        <ele>629</ele>
        <time>2011-03-19T15:09:43.000Z</time>
      </trkpt>
      <trkpt lat="46.07751" lon="2.97288">
        <ele>629.79998779297</ele>
        <time>2011-03-19T15:09:53.000Z</time>
      </trkpt>
      <trkpt lat="46.07686" lon="2.97309">
        <ele>630.20001220703</ele>
        <time>2011-03-19T15:10:03.000Z</time>
      </trkpt>
      <trkpt lat="46.07645" lon="2.97316">
        <ele>630</ele>
        <time>2011-03-19T15:10:09.000Z</time>
      </trkpt>
      <trkpt lat="46.07638" lon="2.97315">
        <ele>630.20001220703</ele>
        <time>2011-03-19T15:10:10.000Z</time>
      </trkpt>
      <trkpt lat="46.07594" lon="2.97295">
        <ele>630.59997558594</ele>
        <time>2011-03-19T15:10:17.000Z</time>
      </trkpt>
      <trkpt lat="46.07552" lon="2.97262">
        <ele>631</ele>
        <time>2011-03-19T15:10:24.000Z</time>
      </trkpt>
      <trkpt lat="46.07507" lon="2.97216">
        <ele>631.40002441406</ele>
        <time>2011-03-19T15:10:32.000Z</time>
      </trkpt>
      <trkpt lat="46.07448" lon="2.9715">
        <ele>631</ele>
        <time>2011-03-19T15:10:42.000Z</time>
      </trkpt>
      <trkpt lat="46.07393" lon="2.97089">
        <ele>630.20001220703</ele>
        <time>2011-03-19T15:10:51.000Z</time>
      </trkpt>
      <trkpt lat="46.0733" lon="2.97021">
        <ele>629.20001220703</ele>
        <time>2011-03-19T15:11:01.000Z</time>
      </trkpt>
      <trkpt lat="46.07319" lon="2.97006">
        <ele>629</ele>
        <time>2011-03-19T15:11:03.000Z</time>
      </trkpt>
      <trkpt lat="46.073" lon="2.96959">
        <ele>628.59997558594</ele>
        <time>2011-03-19T15:11:08.000Z</time>
      </trkpt>
      <trkpt lat="46.07297" lon="2.96936">
        <ele>628.59997558594</ele>
        <time>2011-03-19T15:11:10.000Z</time>
      </trkpt>
      <trkpt lat="46.07289" lon="2.96831">
        <ele>628.20001220703</ele>
        <time>2011-03-19T15:11:19.000Z</time>
      </trkpt>
      <trkpt lat="46.07281" lon="2.96753">
        <ele>628.79998779297</ele>
        <time>2011-03-19T15:11:26.000Z</time>
      </trkpt>
      <trkpt lat="46.07278" lon="2.96743">
        <ele>628.79998779297</ele>
        <time>2011-03-19T15:11:27.000Z</time>
      </trkpt>
      <trkpt lat="46.07256" lon="2.96698">
        <ele>629.20001220703</ele>
        <time>2011-03-19T15:11:32.000Z</time>
      </trkpt>
      <trkpt lat="46.07218" lon="2.9663">
        <ele>629.79998779297</ele>
        <time>2011-03-19T15:11:40.000Z</time>
      </trkpt>
      <trkpt lat="46.07182" lon="2.96568">
        <ele>629.40002441406</ele>
        <time>2011-03-19T15:11:47.000Z</time>
      </trkpt>
      <trkpt lat="46.07172" lon="2.96552">
        <ele>629.20001220703</ele>
        <time>2011-03-19T15:11:49.000Z</time>
      </trkpt>
      <trkpt lat="46.07143" lon="2.9653">
        <ele>628.59997558594</ele>
        <time>2011-03-19T15:11:53.000Z</time>
      </trkpt>
      <trkpt lat="46.07126" lon="2.96529">
        <ele>627.79998779297</ele>
        <time>2011-03-19T15:11:55.000Z</time>
      </trkpt>
      <trkpt lat="46.07064" lon="2.96527">
        <ele>625.40002441406</ele>
        <time>2011-03-19T15:12:02.000Z</time>
      </trkpt>
      <trkpt lat="46.07024" lon="2.96508">
        <ele>624.79998779297</ele>
        <time>2011-03-19T15:12:07.000Z</time>
      </trkpt>
      <trkpt lat="46.0698" lon="2.96486">
        <ele>624.20001220703</ele>
        <time>2011-03-19T15:12:13.000Z</time>
      </trkpt>
      <trkpt lat="46.06944" lon="2.96485">
        <ele>624.79998779297</ele>
        <time>2011-03-19T15:12:18.000Z</time>
      </trkpt>
      <trkpt lat="46.06895" lon="2.96497">
        <ele>626.59997558594</ele>
        <time>2011-03-19T15:12:26.000Z</time>
      </trkpt>
      <trkpt lat="46.06838" lon="2.96515">
        <ele>628.40002441406</ele>
        <time>2011-03-19T15:12:36.000Z</time>
      </trkpt>
      <trkpt lat="46.06827" lon="2.96518">
        <ele>629</ele>
        <time>2011-03-19T15:12:38.000Z</time>
      </trkpt>
      <trkpt lat="46.06798" lon="2.96512">
        <ele>630</ele>
        <time>2011-03-19T15:12:43.000Z</time>
      </trkpt>
      <trkpt lat="46.06781" lon="2.965">
        <ele>630.59997558594</ele>
        <time>2011-03-19T15:12:46.000Z</time>
      </trkpt>
      <trkpt lat="46.06743" lon="2.96455">
        <ele>631.59997558594</ele>
        <time>2011-03-19T15:12:54.000Z</time>
      </trkpt>
      <trkpt lat="46.06723" lon="2.9641">
        <ele>632.40002441406</ele>
        <time>2011-03-19T15:13:00.000Z</time>
      </trkpt>
      <trkpt lat="46.06708" lon="2.9635">
        <ele>634.40002441406</ele>
        <time>2011-03-19T15:13:08.000Z</time>
      </trkpt>
      <trkpt lat="46.06688" lon="2.96264">
        <ele>637.20001220703</ele>
        <time>2011-03-19T15:13:20.000Z</time>
      </trkpt>
      <trkpt lat="46.06674" lon="2.96202">
        <ele>639.20001220703</ele>
        <time>2011-03-19T15:13:29.000Z</time>
      </trkpt>
      <trkpt lat="46.06665" lon="2.96148">
        <ele>641.40002441406</ele>
        <time>2011-03-19T15:13:37.000Z</time>
      </trkpt>
      <trkpt lat="46.06652" lon="2.961">
        <ele>642.79998779297</ele>
        <time>2011-03-19T15:13:44.000Z</time>
      </trkpt>
      <trkpt lat="46.06621" lon="2.96038">
        <ele>645</ele>
        <time>2011-03-19T15:13:54.000Z</time>
      </trkpt>
      <trkpt lat="46.06591" lon="2.95971">
        <ele>646.20001220703</ele>
        <time>2011-03-19T15:14:04.000Z</time>
      </trkpt>
      <trkpt lat="46.06557" lon="2.95888">
        <ele>644.79998779297</ele>
        <time>2011-03-19T15:14:15.000Z</time>
      </trkpt>
      <trkpt lat="46.06523" lon="2.95818">
        <ele>643.40002441406</ele>
        <time>2011-03-19T15:14:24.000Z</time>
      </trkpt>
      <trkpt lat="46.06491" lon="2.95753">
        <ele>641.40002441406</ele>
        <time>2011-03-19T15:14:32.000Z</time>
      </trkpt>
      <trkpt lat="46.06449" lon="2.95668">
        <ele>639</ele>
        <time>2011-03-19T15:14:42.000Z</time>
      </trkpt>
      <trkpt lat="46.06411" lon="2.95605">
        <ele>637</ele>
        <time>2011-03-19T15:14:50.000Z</time>
      </trkpt>
      <trkpt lat="46.06378" lon="2.95587">
        <ele>636.20001220703</ele>
        <time>2011-03-19T15:14:55.000Z</time>
      </trkpt>
      <trkpt lat="46.06357" lon="2.9559">
        <ele>635.40002441406</ele>
        <time>2011-03-19T15:14:58.000Z</time>
      </trkpt>
      <trkpt lat="46.06298" lon="2.95611">
        <ele>634.79998779297</ele>
        <time>2011-03-19T15:15:07.000Z</time>
      </trkpt>
      <trkpt lat="46.06251" lon="2.95614">
        <ele>633.79998779297</ele>
        <time>2011-03-19T15:15:14.000Z</time>
      </trkpt>
      <trkpt lat="46.06196" lon="2.95617">
        <ele>632.79998779297</ele>
        <time>2011-03-19T15:15:22.000Z</time>
      </trkpt>
      <trkpt lat="46.06136" lon="2.9562">
        <ele>631</ele>
        <time>2011-03-19T15:15:30.000Z</time>
      </trkpt>
      <trkpt lat="46.06076" lon="2.95604">
        <ele>628.79998779297</ele>
        <time>2011-03-19T15:15:37.000Z</time>
      </trkpt>
      <trkpt lat="46.05985" lon="2.95584">
        <ele>624.59997558594</ele>
        <time>2011-03-19T15:15:47.000Z</time>
      </trkpt>
      <trkpt lat="46.05904" lon="2.95573">
        <ele>622.40002441406</ele>
        <time>2011-03-19T15:15:56.000Z</time>
      </trkpt>
      <trkpt lat="46.05869" lon="2.95579">
        <ele>620.79998779297</ele>
        <time>2011-03-19T15:16:00.000Z</time>
      </trkpt>
      <trkpt lat="46.05834" lon="2.95595">
        <ele>619.20001220703</ele>
        <time>2011-03-19T15:16:04.000Z</time>
      </trkpt>
      <trkpt lat="46.0576" lon="2.95634">
        <ele>615.40002441406</ele>
        <time>2011-03-19T15:16:12.000Z</time>
      </trkpt>
      <trkpt lat="46.05671" lon="2.9568">
        <ele>611.20001220703</ele>
        <time>2011-03-19T15:16:21.000Z</time>
      </trkpt>
      <trkpt lat="46.0558" lon="2.95727">
        <ele>607</ele>
        <time>2011-03-19T15:16:30.000Z</time>
      </trkpt>
      <trkpt lat="46.05514" lon="2.95758">
        <ele>604.79998779297</ele>
        <time>2011-03-19T15:16:37.000Z</time>
      </trkpt>
      <trkpt lat="46.05426" lon="2.9579">
        <ele>604.79998779297</ele>
        <time>2011-03-19T15:16:47.000Z</time>
      </trkpt>
      <trkpt lat="46.05372" lon="2.95809">
        <ele>606</ele>
        <time>2011-03-19T15:16:54.000Z</time>
      </trkpt>
      <trkpt lat="46.05318" lon="2.95826">
        <ele>607</ele>
        <time>2011-03-19T15:17:02.000Z</time>
      </trkpt>
      <trkpt lat="46.05256" lon="2.95841">
        <ele>608.20001220703</ele>
        <time>2011-03-19T15:17:12.000Z</time>
      </trkpt>
      <trkpt lat="46.05186" lon="2.95857">
        <ele>609.20001220703</ele>
        <time>2011-03-19T15:17:23.000Z</time>
      </trkpt>
      <trkpt lat="46.0515" lon="2.95856">
        <ele>609</ele>
        <time>2011-03-19T15:17:28.000Z</time>
      </trkpt>
      <trkpt lat="46.05116" lon="2.95839">
        <ele>608.59997558594</ele>
        <time>2011-03-19T15:17:33.000Z</time>
      </trkpt>
      <trkpt lat="46.05055" lon="2.95804">
        <ele>608.20001220703</ele>
        <time>2011-03-19T15:17:42.000Z</time>
      </trkpt>
      <trkpt lat="46.05009" lon="2.95786">
        <ele>607.59997558594</ele>
        <time>2011-03-19T15:17:48.000Z</time>
      </trkpt>
      <trkpt lat="46.04937" lon="2.9577">
        <ele>606.20001220703</ele>
        <time>2011-03-19T15:17:57.000Z</time>
      </trkpt>
      <trkpt lat="46.04865" lon="2.9576">
        <ele>605</ele>
        <time>2011-03-19T15:18:06.000Z</time>
      </trkpt>
      <trkpt lat="46.04793" lon="2.95751">
        <ele>604.40002441406</ele>
        <time>2011-03-19T15:18:15.000Z</time>
      </trkpt>
      <trkpt lat="46.04736" lon="2.95741">
        <ele>604</ele>
        <time>2011-03-19T15:18:22.000Z</time>
      </trkpt>
      <trkpt lat="46.04707" lon="2.9572">
        <ele>603.79998779297</ele>
        <time>2011-03-19T15:18:26.000Z</time>
      </trkpt>
      <trkpt lat="46.047" lon="2.95713">
        <ele>603.59997558594</ele>
        <time>2011-03-19T15:18:27.000Z</time>
      </trkpt>
      <trkpt lat="46.04639" lon="2.95627">
        <ele>604.20001220703</ele>
        <time>2011-03-19T15:18:38.000Z</time>
      </trkpt>
      <trkpt lat="46.046" lon="2.95588">
        <ele>604.40002441406</ele>
        <time>2011-03-19T15:18:44.000Z</time>
      </trkpt>
      <trkpt lat="46.04593" lon="2.95584">
        <ele>604.40002441406</ele>
        <time>2011-03-19T15:18:45.000Z</time>
      </trkpt>
      <trkpt lat="46.04556" lon="2.95572">
        <ele>604.20001220703</ele>
        <time>2011-03-19T15:18:50.000Z</time>
      </trkpt>
      <trkpt lat="46.04513" lon="2.9556">
        <ele>604</ele>
        <time>2011-03-19T15:18:56.000Z</time>
      </trkpt>
      <trkpt lat="46.04458" lon="2.95525">
        <ele>604</ele>
        <time>2011-03-19T15:19:04.000Z</time>
      </trkpt>
      <trkpt lat="46.04383" lon="2.95471">
        <ele>603.40002441406</ele>
        <time>2011-03-19T15:19:15.000Z</time>
      </trkpt>
      <trkpt lat="46.0435" lon="2.95429">
        <ele>603.40002441406</ele>
        <time>2011-03-19T15:19:21.000Z</time>
      </trkpt>
      <trkpt lat="46.04315" lon="2.95384">
        <ele>604</ele>
        <time>2011-03-19T15:19:28.000Z</time>
      </trkpt>
      <trkpt lat="46.04269" lon="2.95322">
        <ele>605</ele>
        <time>2011-03-19T15:19:38.000Z</time>
      </trkpt>
      <trkpt lat="46.04244" lon="2.95288">
        <ele>605.59997558594</ele>
        <time>2011-03-19T15:19:44.000Z</time>
      </trkpt>
      <trkpt lat="46.0422" lon="2.95268">
        <ele>606.40002441406</ele>
        <time>2011-03-19T15:19:49.000Z</time>
      </trkpt>
      <trkpt lat="46.04154" lon="2.95242">
        <ele>608</ele>
        <time>2011-03-19T15:20:01.000Z</time>
      </trkpt>
      <trkpt lat="46.04112" lon="2.95218">
        <ele>609.20001220703</ele>
        <time>2011-03-19T15:20:09.000Z</time>
      </trkpt>
      <trkpt lat="46.04083" lon="2.95188">
        <ele>610.79998779297</ele>
        <time>2011-03-19T15:20:16.000Z</time>
      </trkpt>
      <trkpt lat="46.04053" lon="2.95163">
        <ele>612.79998779297</ele>
        <time>2011-03-19T15:20:23.000Z</time>
      </trkpt>
      <trkpt lat="46.04039" lon="2.95159">
        <ele>613.59997558594</ele>
        <time>2011-03-19T15:20:26.000Z</time>
      </trkpt>
      <trkpt lat="46.0403" lon="2.95159">
        <ele>614.20001220703</ele>
        <time>2011-03-19T15:20:28.000Z</time>
      </trkpt>
      <trkpt lat="46.03991" lon="2.95172">
        <ele>616.59997558594</ele>
        <time>2011-03-19T15:20:37.000Z</time>
      </trkpt>
      <trkpt lat="46.03953" lon="2.952">
        <ele>619.79998779297</ele>
        <time>2011-03-19T15:20:47.000Z</time>
      </trkpt>
      <trkpt lat="46.03923" lon="2.95227">
        <ele>622.20001220703</ele>
        <time>2011-03-19T15:20:56.000Z</time>
      </trkpt>
      <trkpt lat="46.03922" lon="2.95232">
        <ele>622.59997558594</ele>
        <time>2011-03-19T15:20:57.000Z</time>
      </trkpt>
      <trkpt lat="46.03914" lon="2.95267">
        <ele>624.20001220703</ele>
        <time>2011-03-19T15:21:03.000Z</time>
      </trkpt>
      <trkpt lat="46.03891" lon="2.9532">
        <ele>626.79998779297</ele>
        <time>2011-03-19T15:21:13.000Z</time>
      </trkpt>
      <trkpt lat="46.03867" lon="2.95355">
        <ele>628.79998779297</ele>
        <time>2011-03-19T15:21:21.000Z</time>
      </trkpt>
      <trkpt lat="46.03841" lon="2.95381">
        <ele>631</ele>
        <time>2011-03-19T15:21:29.000Z</time>
      </trkpt>
      <trkpt lat="46.03822" lon="2.954">
        <ele>633.20001220703</ele>
        <time>2011-03-19T15:21:35.000Z</time>
      </trkpt>
      <trkpt lat="46.03797" lon="2.95417">
        <ele>635</ele>
        <time>2011-03-19T15:21:42.000Z</time>
      </trkpt>
      <trkpt lat="46.03762" lon="2.95428">
        <ele>637.20001220703</ele>
        <time>2011-03-19T15:21:51.000Z</time>
      </trkpt>
      <trkpt lat="46.0372" lon="2.95444">
        <ele>638.40002441406</ele>
        <time>2011-03-19T15:22:01.000Z</time>
      </trkpt>
      <trkpt lat="46.03704" lon="2.95456">
        <ele>639.40002441406</ele>
        <time>2011-03-19T15:22:05.000Z</time>
      </trkpt>
      <trkpt lat="46.03661" lon="2.9549">
        <ele>640.20001220703</ele>
        <time>2011-03-19T15:22:15.000Z</time>
      </trkpt>
      <trkpt lat="46.03623" lon="2.95521">
        <ele>641.59997558594</ele>
        <time>2011-03-19T15:22:24.000Z</time>
      </trkpt>
      <trkpt lat="46.03575" lon="2.95554">
        <ele>643.79998779297</ele>
        <time>2011-03-19T15:22:35.000Z</time>
      </trkpt>
      <trkpt lat="46.03537" lon="2.95566">
        <ele>644.59997558594</ele>
        <time>2011-03-19T15:22:43.000Z</time>
      </trkpt>
      <trkpt lat="46.03487" lon="2.95572">
        <ele>645.59997558594</ele>
        <time>2011-03-19T15:22:53.000Z</time>
      </trkpt>
      <trkpt lat="46.03427" lon="2.95581">
        <ele>647</ele>
        <time>2011-03-19T15:23:05.000Z</time>
      </trkpt>
      <trkpt lat="46.03397" lon="2.95585">
        <ele>647.79998779297</ele>
        <time>2011-03-19T15:23:11.000Z</time>
      </trkpt>
      <trkpt lat="46.03346" lon="2.95593">
        <ele>649.40002441406</ele>
        <time>2011-03-19T15:23:21.000Z</time>
      </trkpt>
      <trkpt lat="46.033" lon="2.956">
        <ele>650.59997558594</ele>
        <time>2011-03-19T15:23:30.000Z</time>
      </trkpt>
      <trkpt lat="46.03282" lon="2.95601">
        <ele>651.20001220703</ele>
        <time>2011-03-19T15:23:34.000Z</time>
      </trkpt>
      <trkpt lat="46.03228" lon="2.95609">
        <ele>653</ele>
        <time>2011-03-19T15:23:46.000Z</time>
      </trkpt>
      <trkpt lat="46.03184" lon="2.95616">
        <ele>654.40002441406</ele>
        <time>2011-03-19T15:23:56.000Z</time>
      </trkpt>
      <trkpt lat="46.03131" lon="2.95623">
        <ele>656.59997558594</ele>
        <time>2011-03-19T15:24:08.000Z</time>
      </trkpt>
      <trkpt lat="46.03092" lon="2.95629">
        <ele>658</ele>
        <time>2011-03-19T15:24:16.000Z</time>
      </trkpt>
      <trkpt lat="46.03046" lon="2.95636">
        <ele>659.59997558594</ele>
        <time>2011-03-19T15:24:25.000Z</time>
      </trkpt>
      <trkpt lat="46.03001" lon="2.95643">
        <ele>660.20001220703</ele>
        <time>2011-03-19T15:24:33.000Z</time>
      </trkpt>
      <trkpt lat="46.02946" lon="2.95651">
        <ele>660.59997558594</ele>
        <time>2011-03-19T15:24:43.000Z</time>
      </trkpt>
      <trkpt lat="46.02893" lon="2.95659">
        <ele>662.59997558594</ele>
        <time>2011-03-19T15:24:53.000Z</time>
      </trkpt>
      <trkpt lat="46.02842" lon="2.95666">
        <ele>665</ele>
        <time>2011-03-19T15:25:03.000Z</time>
      </trkpt>
      <trkpt lat="46.02801" lon="2.95671">
        <ele>666.79998779297</ele>
        <time>2011-03-19T15:25:11.000Z</time>
      </trkpt>
      <trkpt lat="46.02755" lon="2.95678">
        <ele>668.40002441406</ele>
        <time>2011-03-19T15:25:20.000Z</time>
      </trkpt>
      <trkpt lat="46.02708" lon="2.95684">
        <ele>669.79998779297</ele>
        <time>2011-03-19T15:25:29.000Z</time>
      </trkpt>
      <trkpt lat="46.02663" lon="2.9569">
        <ele>670.59997558594</ele>
        <time>2011-03-19T15:25:37.000Z</time>
      </trkpt>
      <trkpt lat="46.02618" lon="2.95704">
        <ele>671.40002441406</ele>
        <time>2011-03-19T15:25:45.000Z</time>
      </trkpt>
      <trkpt lat="46.02579" lon="2.95728">
        <ele>672</ele>
        <time>2011-03-19T15:25:52.000Z</time>
      </trkpt>
      <trkpt lat="46.02534" lon="2.95768">
        <ele>672.79998779297</ele>
        <time>2011-03-19T15:26:01.000Z</time>
      </trkpt>
      <trkpt lat="46.02499" lon="2.95791">
        <ele>672.59997558594</ele>
        <time>2011-03-19T15:26:07.000Z</time>
      </trkpt>
      <trkpt lat="46.02464" lon="2.95797">
        <ele>672.20001220703</ele>
        <time>2011-03-19T15:26:12.000Z</time>
      </trkpt>
      <trkpt lat="46.02393" lon="2.95791">
        <ele>670</ele>
        <time>2011-03-19T15:26:21.000Z</time>
      </trkpt>
      <trkpt lat="46.0234" lon="2.9577">
        <ele>668.20001220703</ele>
        <time>2011-03-19T15:26:27.000Z</time>
      </trkpt>
      <trkpt lat="46.02282" lon="2.95739">
        <ele>664.79998779297</ele>
        <time>2011-03-19T15:26:33.000Z</time>
      </trkpt>
      <trkpt lat="46.02207" lon="2.95686">
        <ele>661.40002441406</ele>
        <time>2011-03-19T15:26:41.000Z</time>
      </trkpt>
      <trkpt lat="46.02167" lon="2.9567">
        <ele>659.40002441406</ele>
        <time>2011-03-19T15:26:45.000Z</time>
      </trkpt>
      <trkpt lat="46.02106" lon="2.95651">
        <ele>657</ele>
        <time>2011-03-19T15:26:51.000Z</time>
      </trkpt>
      <trkpt lat="46.02086" lon="2.95642">
        <ele>656.20001220703</ele>
        <time>2011-03-19T15:26:53.000Z</time>
      </trkpt>
      <trkpt lat="46.02035" lon="2.95638">
        <ele>654.20001220703</ele>
        <time>2011-03-19T15:26:58.000Z</time>
      </trkpt>
      <trkpt lat="46.01966" lon="2.95654">
        <ele>652.59997558594</ele>
        <time>2011-03-19T15:27:05.000Z</time>
      </trkpt>
      <trkpt lat="46.0189" lon="2.9567">
        <ele>650.59997558594</ele>
        <time>2011-03-19T15:27:13.000Z</time>
      </trkpt>
      <trkpt lat="46.01832" lon="2.9566">
        <ele>649.40002441406</ele>
        <time>2011-03-19T15:27:19.000Z</time>
      </trkpt>
      <trkpt lat="46.0176" lon="2.95647">
        <ele>647</ele>
        <time>2011-03-19T15:27:26.000Z</time>
      </trkpt>
      <trkpt lat="46.01722" lon="2.95633">
        <ele>645</ele>
        <time>2011-03-19T15:27:30.000Z</time>
      </trkpt>
      <trkpt lat="46.01696" lon="2.95614">
        <ele>643.79998779297</ele>
        <time>2011-03-19T15:27:33.000Z</time>
      </trkpt>
      <trkpt lat="46.01642" lon="2.95595">
        <ele>643.20001220703</ele>
        <time>2011-03-19T15:27:39.000Z</time>
      </trkpt>
      <trkpt lat="46.01607" lon="2.95591">
        <ele>642.59997558594</ele>
        <time>2011-03-19T15:27:43.000Z</time>
      </trkpt>
      <trkpt lat="46.01547" lon="2.95596">
        <ele>640.79998779297</ele>
        <time>2011-03-19T15:27:50.000Z</time>
      </trkpt>
      <trkpt lat="46.01513" lon="2.95589">
        <ele>639.79998779297</ele>
        <time>2011-03-19T15:27:54.000Z</time>
      </trkpt>
      <trkpt lat="46.01474" lon="2.95601">
        <ele>640.20001220703</ele>
        <time>2011-03-19T15:27:59.000Z</time>
      </trkpt>
      <trkpt lat="46.01467" lon="2.95606">
        <ele>640.40002441406</ele>
        <time>2011-03-19T15:28:00.000Z</time>
      </trkpt>
      <trkpt lat="46.01434" lon="2.95641">
        <ele>641.40002441406</ele>
        <time>2011-03-19T15:28:06.000Z</time>
      </trkpt>
      <trkpt lat="46.01407" lon="2.95664">
        <ele>642.40002441406</ele>
        <time>2011-03-19T15:28:11.000Z</time>
      </trkpt>
      <trkpt lat="46.01356" lon="2.95691">
        <ele>641.40002441406</ele>
        <time>2011-03-19T15:28:19.000Z</time>
      </trkpt>
      <trkpt lat="46.01281" lon="2.95728">
        <ele>639.20001220703</ele>
        <time>2011-03-19T15:28:30.000Z</time>
      </trkpt>
      <trkpt lat="46.01244" lon="2.95756">
        <ele>637.79998779297</ele>
        <time>2011-03-19T15:28:35.000Z</time>
      </trkpt>
      <trkpt lat="46.01208" lon="2.958">
        <ele>635.40002441406</ele>
        <time>2011-03-19T15:28:40.000Z</time>
      </trkpt>
      <trkpt lat="46.01177" lon="2.95837">
        <ele>633.40002441406</ele>
        <time>2011-03-19T15:28:44.000Z</time>
      </trkpt>
      <trkpt lat="46.01138" lon="2.95862">
        <ele>632</ele>
        <time>2011-03-19T15:28:48.000Z</time>
      </trkpt>
      <trkpt lat="46.01127" lon="2.95862">
        <ele>631.59997558594</ele>
        <time>2011-03-19T15:28:49.000Z</time>
      </trkpt>
      <trkpt lat="46.01028" lon="2.9585">
        <ele>628.20001220703</ele>
        <time>2011-03-19T15:28:58.000Z</time>
      </trkpt>
      <trkpt lat="46.00956" lon="2.95839">
        <ele>625.20001220703</ele>
        <time>2011-03-19T15:29:05.000Z</time>
      </trkpt>
      <trkpt lat="46.0092" lon="2.95819">
        <ele>623.59997558594</ele>
        <time>2011-03-19T15:29:09.000Z</time>
      </trkpt>
      <trkpt lat="46.00885" lon="2.95801">
        <ele>622</ele>
        <time>2011-03-19T15:29:13.000Z</time>
      </trkpt>
      <trkpt lat="46.00846" lon="2.95766">
        <ele>620.59997558594</ele>
        <time>2011-03-19T15:29:18.000Z</time>
      </trkpt>
      <trkpt lat="46.00779" lon="2.95687">
        <ele>618</ele>
        <time>2011-03-19T15:29:27.000Z</time>
      </trkpt>
      <trkpt lat="46.00772" lon="2.95678">
        <ele>617.79998779297</ele>
        <time>2011-03-19T15:29:28.000Z</time>
      </trkpt>
      <trkpt lat="46.00753" lon="2.95631">
        <ele>616.79998779297</ele>
        <time>2011-03-19T15:29:32.000Z</time>
      </trkpt>
      <trkpt lat="46.00729" lon="2.9554">
        <ele>616.59997558594</ele>
        <time>2011-03-19T15:29:40.000Z</time>
      </trkpt>
      <trkpt lat="46.00719" lon="2.95509">
        <ele>617</ele>
        <time>2011-03-19T15:29:43.000Z</time>
      </trkpt>
      <trkpt lat="46.00692" lon="2.95464">
        <ele>617.20001220703</ele>
        <time>2011-03-19T15:29:48.000Z</time>
      </trkpt>
      <trkpt lat="46.00644" lon="2.95399">
        <ele>614.79998779297</ele>
        <time>2011-03-19T15:29:55.000Z</time>
      </trkpt>
      <trkpt lat="46.00633" lon="2.95378">
        <ele>614.20001220703</ele>
        <time>2011-03-19T15:29:57.000Z</time>
      </trkpt>
      <trkpt lat="46.00605" lon="2.95309">
        <ele>611.59997558594</ele>
        <time>2011-03-19T15:30:03.000Z</time>
      </trkpt>
      <trkpt lat="46.00586" lon="2.9529">
        <ele>609.59997558594</ele>
        <time>2011-03-19T15:30:07.000Z</time>
      </trkpt>
      <trkpt lat="46.00581" lon="2.95298">
        <ele>608.79998779297</ele>
        <time>2011-03-19T15:30:09.000Z</time>
      </trkpt>
      <trkpt lat="46.00582" lon="2.95321">
        <ele>608.20001220703</ele>
        <time>2011-03-19T15:30:12.000Z</time>
      </trkpt>
      <trkpt lat="46.00586" lon="2.95382">
        <ele>606.40002441406</ele>
        <time>2011-03-19T15:30:18.000Z</time>
      </trkpt>
      <trkpt lat="46.00588" lon="2.95475">
        <ele>602.79998779297</ele>
        <time>2011-03-19T15:30:25.000Z</time>
      </trkpt>
      <trkpt lat="46.00588" lon="2.9549">
        <ele>602.40002441406</ele>
        <time>2011-03-19T15:30:26.000Z</time>
      </trkpt>
      <trkpt lat="46.00576" lon="2.95544">
        <ele>600.40002441406</ele>
        <time>2011-03-19T15:30:30.000Z</time>
      </trkpt>
      <trkpt lat="46.00561" lon="2.95564">
        <ele>599.40002441406</ele>
        <time>2011-03-19T15:30:32.000Z</time>
      </trkpt>
      <trkpt lat="46.00517" lon="2.95605">
        <ele>596.79998779297</ele>
        <time>2011-03-19T15:30:37.000Z</time>
      </trkpt>
      <trkpt lat="46.00473" lon="2.95663">
        <ele>593.79998779297</ele>
        <time>2011-03-19T15:30:42.000Z</time>
      </trkpt>
      <trkpt lat="46.00436" lon="2.95733">
        <ele>590</ele>
        <time>2011-03-19T15:30:47.000Z</time>
      </trkpt>
      <trkpt lat="46.00407" lon="2.95791">
        <ele>587.40002441406</ele>
        <time>2011-03-19T15:30:51.000Z</time>
      </trkpt>
      <trkpt lat="46.00398" lon="2.95841">
        <ele>585.59997558594</ele>
        <time>2011-03-19T15:30:54.000Z</time>
      </trkpt>
      <trkpt lat="46.0041" lon="2.95871">
        <ele>584.40002441406</ele>
        <time>2011-03-19T15:30:56.000Z</time>
      </trkpt>
      <trkpt lat="46.0043" lon="2.95894">
        <ele>583</ele>
        <time>2011-03-19T15:30:58.000Z</time>
      </trkpt>
      <trkpt lat="46.00459" lon="2.9592">
        <ele>581</ele>
        <time>2011-03-19T15:31:01.000Z</time>
      </trkpt>
      <trkpt lat="46.00476" lon="2.95958">
        <ele>579.40002441406</ele>
        <time>2011-03-19T15:31:04.000Z</time>
      </trkpt>
      <trkpt lat="46.0047" lon="2.95986">
        <ele>578</ele>
        <time>2011-03-19T15:31:06.000Z</time>
      </trkpt>
      <trkpt lat="46.0045" lon="2.96">
        <ele>576.79998779297</ele>
        <time>2011-03-19T15:31:08.000Z</time>
      </trkpt>
      <trkpt lat="46.0043" lon="2.95997">
        <ele>575.59997558594</ele>
        <time>2011-03-19T15:31:10.000Z</time>
      </trkpt>
      <trkpt lat="46.00408" lon="2.9599">
        <ele>574.79998779297</ele>
        <time>2011-03-19T15:31:12.000Z</time>
      </trkpt>
      <trkpt lat="46.0035" lon="2.95978">
        <ele>573</ele>
        <time>2011-03-19T15:31:17.000Z</time>
      </trkpt>
      <trkpt lat="46.00339" lon="2.95979">
        <ele>572.79998779297</ele>
        <time>2011-03-19T15:31:18.000Z</time>
      </trkpt>
      <trkpt lat="46.00296" lon="2.96001">
        <ele>571</ele>
        <time>2011-03-19T15:31:22.000Z</time>
      </trkpt>
      <trkpt lat="46.0028" lon="2.96023">
        <ele>570.20001220703</ele>
        <time>2011-03-19T15:31:24.000Z</time>
      </trkpt>
      <trkpt lat="46.00258" lon="2.96061">
        <ele>569.20001220703</ele>
        <time>2011-03-19T15:31:27.000Z</time>
      </trkpt>
      <trkpt lat="46.0024" lon="2.96143">
        <ele>567</ele>
        <time>2011-03-19T15:31:32.000Z</time>
      </trkpt>
      <trkpt lat="46.00224" lon="2.96202">
        <ele>565.20001220703</ele>
        <time>2011-03-19T15:31:36.000Z</time>
      </trkpt>
      <trkpt lat="46.00194" lon="2.96247">
        <ele>563.40002441406</ele>
        <time>2011-03-19T15:31:40.000Z</time>
      </trkpt>
      <trkpt lat="46.00156" lon="2.96274">
        <ele>561.79998779297</ele>
        <time>2011-03-19T15:31:44.000Z</time>
      </trkpt>
      <trkpt lat="46.00143" lon="2.9631">
        <ele>560.59997558594</ele>
        <time>2011-03-19T15:31:47.000Z</time>
      </trkpt>
      <trkpt lat="46.00138" lon="2.96333">
        <ele>559.59997558594</ele>
        <time>2011-03-19T15:31:49.000Z</time>
      </trkpt>
      <trkpt lat="46.00116" lon="2.96359">
        <ele>558.59997558594</ele>
        <time>2011-03-19T15:31:53.000Z</time>
      </trkpt>
      <trkpt lat="46.00101" lon="2.96367">
        <ele>558</ele>
        <time>2011-03-19T15:31:55.000Z</time>
      </trkpt>
      <trkpt lat="46.00078" lon="2.96393">
        <ele>557</ele>
        <time>2011-03-19T15:31:59.000Z</time>
      </trkpt>
      <trkpt lat="46.00075" lon="2.96403">
        <ele>556.79998779297</ele>
        <time>2011-03-19T15:32:00.000Z</time>
      </trkpt>
      <trkpt lat="46.00053" lon="2.96471">
        <ele>555</ele>
        <time>2011-03-19T15:32:06.000Z</time>
      </trkpt>
      <trkpt lat="46.00045" lon="2.96493">
        <ele>554.59997558594</ele>
        <time>2011-03-19T15:32:08.000Z</time>
      </trkpt>
      <trkpt lat="46.0003" lon="2.96552">
        <ele>552.79998779297</ele>
        <time>2011-03-19T15:32:13.000Z</time>
      </trkpt>
      <trkpt lat="46.00013" lon="2.96573">
        <ele>551.79998779297</ele>
        <time>2011-03-19T15:32:16.000Z</time>
      </trkpt>
      <trkpt lat="45.9999" lon="2.96563">
        <ele>551.40002441406</ele>
        <time>2011-03-19T15:32:19.000Z</time>
      </trkpt>
      <trkpt lat="45.99967" lon="2.96565">
        <ele>550.40002441406</ele>
        <time>2011-03-19T15:32:22.000Z</time>
      </trkpt>
      <trkpt lat="45.9996" lon="2.96568">
        <ele>550</ele>
        <time>2011-03-19T15:32:23.000Z</time>
      </trkpt>
      <trkpt lat="45.9994" lon="2.96585">
        <ele>549.20001220703</ele>
        <time>2011-03-19T15:32:26.000Z</time>
      </trkpt>
      <trkpt lat="45.99916" lon="2.96629">
        <ele>548.20001220703</ele>
        <time>2011-03-19T15:32:31.000Z</time>
      </trkpt>
      <trkpt lat="45.99889" lon="2.96696">
        <ele>546.40002441406</ele>
        <time>2011-03-19T15:32:37.000Z</time>
      </trkpt>
      <trkpt lat="45.99862" lon="2.96748">
        <ele>544.79998779297</ele>
        <time>2011-03-19T15:32:42.000Z</time>
      </trkpt>
      <trkpt lat="45.99815" lon="2.96816">
        <ele>542.79998779297</ele>
        <time>2011-03-19T15:32:49.000Z</time>
      </trkpt>
      <trkpt lat="45.99799" lon="2.9687">
        <ele>541.40002441406</ele>
        <time>2011-03-19T15:32:53.000Z</time>
      </trkpt>
      <trkpt lat="45.99789" lon="2.96944">
        <ele>539</ele>
        <time>2011-03-19T15:32:58.000Z</time>
      </trkpt>
      <trkpt lat="45.99782" lon="2.96988">
        <ele>537.40002441406</ele>
        <time>2011-03-19T15:33:01.000Z</time>
      </trkpt>
      <trkpt lat="45.99755" lon="2.9704">
        <ele>535</ele>
        <time>2011-03-19T15:33:05.000Z</time>
      </trkpt>
      <trkpt lat="45.99732" lon="2.97076">
        <ele>533.79998779297</ele>
        <time>2011-03-19T15:33:08.000Z</time>
      </trkpt>
      <trkpt lat="45.99727" lon="2.97116">
        <ele>531.59997558594</ele>
        <time>2011-03-19T15:33:11.000Z</time>
      </trkpt>
      <trkpt lat="45.99738" lon="2.97159">
        <ele>529.79998779297</ele>
        <time>2011-03-19T15:33:14.000Z</time>
      </trkpt>
      <trkpt lat="45.99734" lon="2.97184">
        <ele>528.59997558594</ele>
        <time>2011-03-19T15:33:16.000Z</time>
      </trkpt>
      <trkpt lat="45.99712" lon="2.97196">
        <ele>527.59997558594</ele>
        <time>2011-03-19T15:33:18.000Z</time>
      </trkpt>
      <trkpt lat="45.99693" lon="2.97211">
        <ele>526.59997558594</ele>
        <time>2011-03-19T15:33:20.000Z</time>
      </trkpt>
      <trkpt lat="45.99667" lon="2.97265">
        <ele>524.20001220703</ele>
        <time>2011-03-19T15:33:24.000Z</time>
      </trkpt>
      <trkpt lat="45.99668" lon="2.97296">
        <ele>522.79998779297</ele>
        <time>2011-03-19T15:33:26.000Z</time>
      </trkpt>
      <trkpt lat="45.99676" lon="2.97326">
        <ele>521.59997558594</ele>
        <time>2011-03-19T15:33:28.000Z</time>
      </trkpt>
      <trkpt lat="45.99697" lon="2.97386">
        <ele>519.40002441406</ele>
        <time>2011-03-19T15:33:32.000Z</time>
      </trkpt>
      <trkpt lat="45.99709" lon="2.97415">
        <ele>518</ele>
        <time>2011-03-19T15:33:34.000Z</time>
      </trkpt>
      <trkpt lat="45.99754" lon="2.97498">
        <ele>514</ele>
        <time>2011-03-19T15:33:40.000Z</time>
      </trkpt>
      <trkpt lat="45.99804" lon="2.9759">
        <ele>509.60000610352</ele>
        <time>2011-03-19T15:33:47.000Z</time>
      </trkpt>
      <trkpt lat="45.99835" lon="2.97647">
        <ele>507.60000610352</ele>
        <time>2011-03-19T15:33:52.000Z</time>
      </trkpt>
      <trkpt lat="45.99897" lon="2.97708">
        <ele>506.79998779297</ele>
        <time>2011-03-19T15:34:00.000Z</time>
      </trkpt>
      <trkpt lat="45.99963" lon="2.97771">
        <ele>507.60000610352</ele>
        <time>2011-03-19T15:34:09.000Z</time>
      </trkpt>
      <trkpt lat="46.0003" lon="2.97835">
        <ele>505.20001220703</ele>
        <time>2011-03-19T15:34:18.000Z</time>
      </trkpt>
      <trkpt lat="46.00082" lon="2.97886">
        <ele>505.20001220703</ele>
        <time>2011-03-19T15:34:26.000Z</time>
      </trkpt>
      <trkpt lat="46.00088" lon="2.97894">
        <ele>505.39999389648</ele>
        <time>2011-03-19T15:34:27.000Z</time>
      </trkpt>
      <trkpt lat="46.00111" lon="2.9794">
        <ele>505.39999389648</ele>
        <time>2011-03-19T15:34:32.000Z</time>
      </trkpt>
      <trkpt lat="46.00117" lon="2.97986">
        <ele>505</ele>
        <time>2011-03-19T15:34:36.000Z</time>
      </trkpt>
      <trkpt lat="46.00113" lon="2.98035">
        <ele>504</ele>
        <time>2011-03-19T15:34:40.000Z</time>
      </trkpt>
      <trkpt lat="46.00089" lon="2.98117">
        <ele>502.39999389648</ele>
        <time>2011-03-19T15:34:47.000Z</time>
      </trkpt>
      <trkpt lat="46.00067" lon="2.98167">
        <ele>501.79998779297</ele>
        <time>2011-03-19T15:34:52.000Z</time>
      </trkpt>
      <trkpt lat="46.00029" lon="2.98232">
        <ele>503.20001220703</ele>
        <time>2011-03-19T15:35:00.000Z</time>
      </trkpt>
      <trkpt lat="46.00024" lon="2.98237">
        <ele>503.60000610352</ele>
        <time>2011-03-19T15:35:01.000Z</time>
      </trkpt>
      <trkpt lat="46.00005" lon="2.98249">
        <ele>505.79998779297</ele>
        <time>2011-03-19T15:35:05.000Z</time>
      </trkpt>
      <trkpt lat="45.99962" lon="2.98262">
        <ele>508.39999389648</ele>
        <time>2011-03-19T15:35:14.000Z</time>
      </trkpt>
      <trkpt lat="45.99928" lon="2.98289">
        <ele>510.20001220703</ele>
        <time>2011-03-19T15:35:22.000Z</time>
      </trkpt>
      <trkpt lat="45.99901" lon="2.98315">
        <ele>512</ele>
        <time>2011-03-19T15:35:29.000Z</time>
      </trkpt>
      <trkpt lat="45.99888" lon="2.98343">
        <ele>512.79998779297</ele>
        <time>2011-03-19T15:35:34.000Z</time>
      </trkpt>
      <trkpt lat="45.99891" lon="2.98371">
        <ele>513.40002441406</ele>
        <time>2011-03-19T15:35:38.000Z</time>
      </trkpt>
      <trkpt lat="45.99904" lon="2.98389">
        <ele>514.40002441406</ele>
        <time>2011-03-19T15:35:42.000Z</time>
      </trkpt>
      <trkpt lat="45.99919" lon="2.98394">
        <ele>515.59997558594</ele>
        <time>2011-03-19T15:35:46.000Z</time>
      </trkpt>
      <trkpt lat="45.99923" lon="2.98394">
        <ele>515.79998779297</ele>
        <time>2011-03-19T15:35:47.000Z</time>
      </trkpt>
      <trkpt lat="45.99948" lon="2.98394">
        <ele>517.40002441406</ele>
        <time>2011-03-19T15:35:53.000Z</time>
      </trkpt>
      <trkpt lat="45.99974" lon="2.9841">
        <ele>519.40002441406</ele>
        <time>2011-03-19T15:36:00.000Z</time>
      </trkpt>
      <trkpt lat="45.99998" lon="2.98441">
        <ele>521.20001220703</ele>
        <time>2011-03-19T15:36:08.000Z</time>
      </trkpt>
      <trkpt lat="46.00015" lon="2.98469">
        <ele>522.79998779297</ele>
        <time>2011-03-19T15:36:15.000Z</time>
      </trkpt>
      <trkpt lat="46.00035" lon="2.98511">
        <ele>525</ele>
        <time>2011-03-19T15:36:24.000Z</time>
      </trkpt>
      <trkpt lat="46.00051" lon="2.98551">
        <ele>526.59997558594</ele>
        <time>2011-03-19T15:36:32.000Z</time>
      </trkpt>
      <trkpt lat="46.00076" lon="2.98604">
        <ele>529.79998779297</ele>
        <time>2011-03-19T15:36:44.000Z</time>
      </trkpt>
      <trkpt lat="46.0009" lon="2.98635">
        <ele>531.40002441406</ele>
        <time>2011-03-19T15:36:51.000Z</time>
      </trkpt>
      <trkpt lat="46.00099" lon="2.98657">
        <ele>532.20001220703</ele>
        <time>2011-03-19T15:36:56.000Z</time>
      </trkpt>
      <trkpt lat="46.0011" lon="2.98684">
        <ele>533.59997558594</ele>
        <time>2011-03-19T15:37:02.000Z</time>
      </trkpt>
      <trkpt lat="46.00122" lon="2.98701">
        <ele>534.79998779297</ele>
        <time>2011-03-19T15:37:07.000Z</time>
      </trkpt>
      <trkpt lat="46.00139" lon="2.98721">
        <ele>536.20001220703</ele>
        <time>2011-03-19T15:37:13.000Z</time>
      </trkpt>
      <trkpt lat="46.00158" lon="2.98747">
        <ele>537.59997558594</ele>
        <time>2011-03-19T15:37:20.000Z</time>
      </trkpt>
      <trkpt lat="46.0017" lon="2.98767">
        <ele>539</ele>
        <time>2011-03-19T15:37:25.000Z</time>
      </trkpt>
      <trkpt lat="46.00178" lon="2.98801">
        <ele>541</ele>
        <time>2011-03-19T15:37:32.000Z</time>
      </trkpt>
      <trkpt lat="46.00181" lon="2.98831">
        <ele>542.40002441406</ele>
        <time>2011-03-19T15:37:38.000Z</time>
      </trkpt>
      <trkpt lat="46.00188" lon="2.98859">
        <ele>544</ele>
        <time>2011-03-19T15:37:44.000Z</time>
      </trkpt>
      <trkpt lat="46.00204" lon="2.98879">
        <ele>545.20001220703</ele>
        <time>2011-03-19T15:37:50.000Z</time>
      </trkpt>
      <trkpt lat="46.00225" lon="2.98884">
        <ele>546.59997558594</ele>
        <time>2011-03-19T15:37:56.000Z</time>
      </trkpt>
      <trkpt lat="46.00248" lon="2.98883">
        <ele>548.20001220703</ele>
        <time>2011-03-19T15:38:02.000Z</time>
      </trkpt>
      <trkpt lat="46.00269" lon="2.98893">
        <ele>549.40002441406</ele>
        <time>2011-03-19T15:38:08.000Z</time>
      </trkpt>
      <trkpt lat="46.00279" lon="2.98912">
        <ele>550.20001220703</ele>
        <time>2011-03-19T15:38:13.000Z</time>
      </trkpt>
      <trkpt lat="46.0029" lon="2.98946">
        <ele>552.79998779297</ele>
        <time>2011-03-19T15:38:21.000Z</time>
      </trkpt>
      <trkpt lat="46.00303" lon="2.9898">
        <ele>554.40002441406</ele>
        <time>2011-03-19T15:38:29.000Z</time>
      </trkpt>
      <trkpt lat="46.00321" lon="2.99023">
        <ele>556.40002441406</ele>
        <time>2011-03-19T15:38:39.000Z</time>
      </trkpt>
      <trkpt lat="46.00339" lon="2.9906">
        <ele>558</ele>
        <time>2011-03-19T15:38:48.000Z</time>
      </trkpt>
      <trkpt lat="46.00365" lon="2.99115">
        <ele>560.59997558594</ele>
        <time>2011-03-19T15:39:01.000Z</time>
      </trkpt>
      <trkpt lat="46.00385" lon="2.99152">
        <ele>562.79998779297</ele>
        <time>2011-03-19T15:39:10.000Z</time>
      </trkpt>
      <trkpt lat="46.00404" lon="2.99194">
        <ele>565</ele>
        <time>2011-03-19T15:39:20.000Z</time>
      </trkpt>
      <trkpt lat="46.00414" lon="2.99227">
        <ele>566.40002441406</ele>
        <time>2011-03-19T15:39:27.000Z</time>
      </trkpt>
      <trkpt lat="46.0043" lon="2.99263">
        <ele>568.40002441406</ele>
        <time>2011-03-19T15:39:35.000Z</time>
      </trkpt>
      <trkpt lat="46.00454" lon="2.99285">
        <ele>570.40002441406</ele>
        <time>2011-03-19T15:39:43.000Z</time>
      </trkpt>
      <trkpt lat="46.00487" lon="2.99313">
        <ele>573</ele>
        <time>2011-03-19T15:39:54.000Z</time>
      </trkpt>
      <trkpt lat="46.0051" lon="2.99331">
        <ele>574.59997558594</ele>
        <time>2011-03-19T15:40:01.000Z</time>
      </trkpt>
      <trkpt lat="46.00543" lon="2.99356">
        <ele>577.20001220703</ele>
        <time>2011-03-19T15:40:10.000Z</time>
      </trkpt>
      <trkpt lat="46.00579" lon="2.99388">
        <ele>579.59997558594</ele>
        <time>2011-03-19T15:40:21.000Z</time>
      </trkpt>
      <trkpt lat="46.00593" lon="2.99414">
        <ele>581</ele>
        <time>2011-03-19T15:40:27.000Z</time>
      </trkpt>
      <trkpt lat="46.00598" lon="2.99445">
        <ele>582.40002441406</ele>
        <time>2011-03-19T15:40:33.000Z</time>
      </trkpt>
      <trkpt lat="46.00593" lon="2.9948">
        <ele>584</ele>
        <time>2011-03-19T15:40:40.000Z</time>
      </trkpt>
      <trkpt lat="46.0058" lon="2.995">
        <ele>585</ele>
        <time>2011-03-19T15:40:45.000Z</time>
      </trkpt>
      <trkpt lat="46.00569" lon="2.99506">
        <ele>585.79998779297</ele>
        <time>2011-03-19T15:40:48.000Z</time>
      </trkpt>
      <trkpt lat="46.00536" lon="2.99505">
        <ele>587.79998779297</ele>
        <time>2011-03-19T15:40:56.000Z</time>
      </trkpt>
      <trkpt lat="46.00497" lon="2.995">
        <ele>589.40002441406</ele>
        <time>2011-03-19T15:41:05.000Z</time>
      </trkpt>
      <trkpt lat="46.00461" lon="2.99492">
        <ele>590.79998779297</ele>
        <time>2011-03-19T15:41:13.000Z</time>
      </trkpt>
      <trkpt lat="46.00428" lon="2.99473">
        <ele>592.59997558594</ele>
        <time>2011-03-19T15:41:21.000Z</time>
      </trkpt>
      <trkpt lat="46.00393" lon="2.99459">
        <ele>594.40002441406</ele>
        <time>2011-03-19T15:41:29.000Z</time>
      </trkpt>
      <trkpt lat="46.00357" lon="2.99458">
        <ele>595.79998779297</ele>
        <time>2011-03-19T15:41:37.000Z</time>
      </trkpt>
      <trkpt lat="46.00321" lon="2.99457">
        <ele>597.59997558594</ele>
        <time>2011-03-19T15:41:45.000Z</time>
      </trkpt>
      <trkpt lat="46.00287" lon="2.99448">
        <ele>599.40002441406</ele>
        <time>2011-03-19T15:41:53.000Z</time>
      </trkpt>
      <trkpt lat="46.00262" lon="2.99433">
        <ele>600.59997558594</ele>
        <time>2011-03-19T15:41:59.000Z</time>
      </trkpt>
      <trkpt lat="46.00222" lon="2.99408">
        <ele>602.59997558594</ele>
        <time>2011-03-19T15:42:09.000Z</time>
      </trkpt>
      <trkpt lat="46.00193" lon="2.99391">
        <ele>604</ele>
        <time>2011-03-19T15:42:16.000Z</time>
      </trkpt>
      <trkpt lat="46.00156" lon="2.99367">
        <ele>605.59997558594</ele>
        <time>2011-03-19T15:42:25.000Z</time>
      </trkpt>
      <trkpt lat="46.00125" lon="2.99355">
        <ele>607.20001220703</ele>
        <time>2011-03-19T15:42:32.000Z</time>
      </trkpt>
      <trkpt lat="46.00111" lon="2.99356">
        <ele>607.59997558594</ele>
        <time>2011-03-19T15:42:35.000Z</time>
      </trkpt>
      <trkpt lat="46.00072" lon="2.99368">
        <ele>609</ele>
        <time>2011-03-19T15:42:44.000Z</time>
      </trkpt>
      <trkpt lat="46.00029" lon="2.99385">
        <ele>609</ele>
        <time>2011-03-19T15:42:54.000Z</time>
      </trkpt>
      <trkpt lat="45.99991" lon="2.99403">
        <ele>608</ele>
        <time>2011-03-19T15:43:02.000Z</time>
      </trkpt>
      <trkpt lat="45.99951" lon="2.99424">
        <ele>607.59997558594</ele>
        <time>2011-03-19T15:43:10.000Z</time>
      </trkpt>
      <trkpt lat="45.9991" lon="2.99444">
        <ele>607.40002441406</ele>
        <time>2011-03-19T15:43:18.000Z</time>
      </trkpt>
      <trkpt lat="45.99864" lon="2.99455">
        <ele>608</ele>
        <time>2011-03-19T15:43:27.000Z</time>
      </trkpt>
      <trkpt lat="45.99845" lon="2.99463">
        <ele>608.20001220703</ele>
        <time>2011-03-19T15:43:31.000Z</time>
      </trkpt>
      <trkpt lat="45.99821" lon="2.99492">
        <ele>608.59997558594</ele>
        <time>2011-03-19T15:43:37.000Z</time>
      </trkpt>
      <trkpt lat="45.99813" lon="2.99512">
        <ele>608.59997558594</ele>
        <time>2011-03-19T15:43:40.000Z</time>
      </trkpt>
      <trkpt lat="45.99801" lon="2.99563">
        <ele>609.79998779297</ele>
        <time>2011-03-19T15:43:48.000Z</time>
      </trkpt>
      <trkpt lat="45.99791" lon="2.99594">
        <ele>611.79998779297</ele>
        <time>2011-03-19T15:43:54.000Z</time>
      </trkpt>
      <trkpt lat="45.99771" lon="2.99613">
        <ele>613.40002441406</ele>
        <time>2011-03-19T15:44:00.000Z</time>
      </trkpt>
      <trkpt lat="45.99767" lon="2.99614">
        <ele>613.79998779297</ele>
        <time>2011-03-19T15:44:01.000Z</time>
      </trkpt>
      <trkpt lat="45.99739" lon="2.9961">
        <ele>615.59997558594</ele>
        <time>2011-03-19T15:44:09.000Z</time>
      </trkpt>
      <trkpt lat="45.99712" lon="2.99602">
        <ele>617</ele>
        <time>2011-03-19T15:44:17.000Z</time>
      </trkpt>
      <trkpt lat="45.99679" lon="2.99591">
        <ele>616.20001220703</ele>
        <time>2011-03-19T15:44:24.000Z</time>
      </trkpt>
      <trkpt lat="45.9965" lon="2.99585">
        <ele>615.40002441406</ele>
        <time>2011-03-19T15:44:30.000Z</time>
      </trkpt>
      <trkpt lat="45.99634" lon="2.99591">
        <ele>615.40002441406</ele>
        <time>2011-03-19T15:44:34.000Z</time>
      </trkpt>
      <trkpt lat="45.99603" lon="2.99614">
        <ele>615.20001220703</ele>
        <time>2011-03-19T15:44:41.000Z</time>
      </trkpt>
      <trkpt lat="45.99566" lon="2.99646">
        <ele>614.40002441406</ele>
        <time>2011-03-19T15:44:49.000Z</time>
      </trkpt>
      <trkpt lat="45.99546" lon="2.99663">
        <ele>614.20001220703</ele>
        <time>2011-03-19T15:44:53.000Z</time>
      </trkpt>
      <trkpt lat="45.99505" lon="2.99683">
        <ele>614</ele>
        <time>2011-03-19T15:45:01.000Z</time>
      </trkpt>
      <trkpt lat="45.99492" lon="2.99689">
        <ele>613.79998779297</ele>
        <time>2011-03-19T15:45:05.000Z</time>
      </trkpt>
      <trkpt lat="45.99492" lon="2.9969">
        <ele>613.79998779297</ele>
        <time>2011-03-19T15:45:07.000Z</time>
      </trkpt>
      <trkpt lat="45.99488" lon="2.997">
        <ele>613.79998779297</ele>
        <time>2011-03-19T15:45:50.000Z</time>
      </trkpt>
      <trkpt lat="45.99488" lon="2.99709">
        <ele>613.79998779297</ele>
        <time>2011-03-19T15:45:52.000Z</time>
      </trkpt>
      <trkpt lat="45.99502" lon="2.99735">
        <ele>614.40002441406</ele>
        <time>2011-03-19T15:45:57.000Z</time>
      </trkpt>
      <trkpt lat="45.99517" lon="2.99763">
        <ele>616</ele>
        <time>2011-03-19T15:46:02.000Z</time>
      </trkpt>
      <trkpt lat="45.99524" lon="2.99813">
        <ele>617.59997558594</ele>
        <time>2011-03-19T15:46:09.000Z</time>
      </trkpt>
      <trkpt lat="45.99533" lon="2.99892">
        <ele>619.20001220703</ele>
        <time>2011-03-19T15:46:20.000Z</time>
      </trkpt>
      <trkpt lat="45.99544" lon="2.99961">
        <ele>621.79998779297</ele>
        <time>2011-03-19T15:46:31.000Z</time>
      </trkpt>
      <trkpt lat="45.99557" lon="3.00034">
        <ele>624</ele>
        <time>2011-03-19T15:46:43.000Z</time>
      </trkpt>
      <trkpt lat="45.99562" lon="3.00061">
        <ele>624.79998779297</ele>
        <time>2011-03-19T15:46:48.000Z</time>
      </trkpt>
      <trkpt lat="45.99551" lon="3.00079">
        <ele>625.59997558594</ele>
        <time>2011-03-19T15:46:53.000Z</time>
      </trkpt>
      <trkpt lat="45.99519" lon="3.00098">
        <ele>627.79998779297</ele>
        <time>2011-03-19T15:47:03.000Z</time>
      </trkpt>
      <trkpt lat="45.99483" lon="3.00122">
        <ele>630</ele>
        <time>2011-03-19T15:47:14.000Z</time>
      </trkpt>
      <trkpt lat="45.99455" lon="3.00134">
        <ele>632.40002441406</ele>
        <time>2011-03-19T15:47:22.000Z</time>
      </trkpt>
      <trkpt lat="45.99424" lon="3.00141">
        <ele>634.40002441406</ele>
        <time>2011-03-19T15:47:31.000Z</time>
      </trkpt>
      <trkpt lat="45.99382" lon="3.00148">
        <ele>637.40002441406</ele>
        <time>2011-03-19T15:47:43.000Z</time>
      </trkpt>
      <trkpt lat="45.99354" lon="3.00154">
        <ele>639.40002441406</ele>
        <time>2011-03-19T15:47:51.000Z</time>
      </trkpt>
      <trkpt lat="45.99315" lon="3.00159">
        <ele>641.59997558594</ele>
        <time>2011-03-19T15:48:02.000Z</time>
      </trkpt>
      <trkpt lat="45.99283" lon="3.00161">
        <ele>644</ele>
        <time>2011-03-19T15:48:11.000Z</time>
      </trkpt>
      <trkpt lat="45.99255" lon="3.00161">
        <ele>645.59997558594</ele>
        <time>2011-03-19T15:48:19.000Z</time>
      </trkpt>
      <trkpt lat="45.99224" lon="3.00163">
        <ele>647.59997558594</ele>
        <time>2011-03-19T15:48:28.000Z</time>
      </trkpt>
      <trkpt lat="45.992" lon="3.00165">
        <ele>649.40002441406</ele>
        <time>2011-03-19T15:48:35.000Z</time>
      </trkpt>
      <trkpt lat="45.99174" lon="3.00174">
        <ele>652</ele>
        <time>2011-03-19T15:48:43.000Z</time>
      </trkpt>
      <trkpt lat="45.99152" lon="3.00193">
        <ele>653.40002441406</ele>
        <time>2011-03-19T15:48:50.000Z</time>
      </trkpt>
      <trkpt lat="45.99134" lon="3.00216">
        <ele>654</ele>
        <time>2011-03-19T15:48:56.000Z</time>
      </trkpt>
      <trkpt lat="45.99116" lon="3.00256">
        <ele>654.40002441406</ele>
        <time>2011-03-19T15:49:04.000Z</time>
      </trkpt>
      <trkpt lat="45.99101" lon="3.00315">
        <ele>655.20001220703</ele>
        <time>2011-03-19T15:49:14.000Z</time>
      </trkpt>
      <trkpt lat="45.99093" lon="3.00371">
        <ele>656</ele>
        <time>2011-03-19T15:49:23.000Z</time>
      </trkpt>
      <trkpt lat="45.99082" lon="3.00457">
        <ele>657.40002441406</ele>
        <time>2011-03-19T15:49:36.000Z</time>
      </trkpt>
      <trkpt lat="45.99071" lon="3.00515">
        <ele>656.59997558594</ele>
        <time>2011-03-19T15:49:44.000Z</time>
      </trkpt>
      <trkpt lat="45.99062" lon="3.00536">
        <ele>656.40002441406</ele>
        <time>2011-03-19T15:49:47.000Z</time>
      </trkpt>
      <trkpt lat="45.99033" lon="3.00569">
        <ele>655.40002441406</ele>
        <time>2011-03-19T15:49:53.000Z</time>
      </trkpt>
      <trkpt lat="45.98994" lon="3.00609">
        <ele>653.20001220703</ele>
        <time>2011-03-19T15:49:59.000Z</time>
      </trkpt>
      <trkpt lat="45.98966" lon="3.0064">
        <ele>651.59997558594</ele>
        <time>2011-03-19T15:50:03.000Z</time>
      </trkpt>
      <trkpt lat="45.98943" lon="3.00684">
        <ele>649.59997558594</ele>
        <time>2011-03-19T15:50:07.000Z</time>
      </trkpt>
      <trkpt lat="45.98901" lon="3.00794">
        <ele>645.79998779297</ele>
        <time>2011-03-19T15:50:16.000Z</time>
      </trkpt>
      <trkpt lat="45.98866" lon="3.00869">
        <ele>645</ele>
        <time>2011-03-19T15:50:23.000Z</time>
      </trkpt>
      <trkpt lat="45.98822" lon="3.00961">
        <ele>644</ele>
        <time>2011-03-19T15:50:32.000Z</time>
      </trkpt>
      <trkpt lat="45.98816" lon="3.00972">
        <ele>643.59997558594</ele>
        <time>2011-03-19T15:50:33.000Z</time>
      </trkpt>
      <trkpt lat="45.98785" lon="3.01008">
        <ele>641.40002441406</ele>
        <time>2011-03-19T15:50:37.000Z</time>
      </trkpt>
      <trkpt lat="45.98715" lon="3.0106">
        <ele>636.59997558594</ele>
        <time>2011-03-19T15:50:44.000Z</time>
      </trkpt>
      <trkpt lat="45.98669" lon="3.01114">
        <ele>632.20001220703</ele>
        <time>2011-03-19T15:50:49.000Z</time>
      </trkpt>
      <trkpt lat="45.98651" lon="3.01138">
        <ele>631.40002441406</ele>
        <time>2011-03-19T15:50:51.000Z</time>
      </trkpt>
      <trkpt lat="45.98612" lon="3.01202">
        <ele>627.79998779297</ele>
        <time>2011-03-19T15:50:56.000Z</time>
      </trkpt>
      <trkpt lat="45.98597" lon="3.01225">
        <ele>627</ele>
        <time>2011-03-19T15:50:58.000Z</time>
      </trkpt>
      <trkpt lat="45.98561" lon="3.01255">
        <ele>626</ele>
        <time>2011-03-19T15:51:02.000Z</time>
      </trkpt>
      <trkpt lat="45.98469" lon="3.01288">
        <ele>625.40002441406</ele>
        <time>2011-03-19T15:51:12.000Z</time>
      </trkpt>
      <trkpt lat="45.98418" lon="3.01315">
        <ele>624.20001220703</ele>
        <time>2011-03-19T15:51:18.000Z</time>
      </trkpt>
      <trkpt lat="45.98331" lon="3.01367">
        <ele>620.40002441406</ele>
        <time>2011-03-19T15:51:28.000Z</time>
      </trkpt>
      <trkpt lat="45.98264" lon="3.01422">
        <ele>616.79998779297</ele>
        <time>2011-03-19T15:51:36.000Z</time>
      </trkpt>
      <trkpt lat="45.98229" lon="3.01469">
        <ele>615.79998779297</ele>
        <time>2011-03-19T15:51:41.000Z</time>
      </trkpt>
      <trkpt lat="45.98191" lon="3.01536">
        <ele>615.79998779297</ele>
        <time>2011-03-19T15:51:48.000Z</time>
      </trkpt>
      <trkpt lat="45.9816" lon="3.01575">
        <ele>615.59997558594</ele>
        <time>2011-03-19T15:51:53.000Z</time>
      </trkpt>
      <trkpt lat="45.98137" lon="3.01592">
        <ele>617.20001220703</ele>
        <time>2011-03-19T15:51:57.000Z</time>
      </trkpt>
      <trkpt lat="45.98104" lon="3.01605">
        <ele>620.40002441406</ele>
        <time>2011-03-19T15:52:03.000Z</time>
      </trkpt>
      <trkpt lat="45.98058" lon="3.01617">
        <ele>623.40002441406</ele>
        <time>2011-03-19T15:52:12.000Z</time>
      </trkpt>
      <trkpt lat="45.98016" lon="3.01631">
        <ele>626.40002441406</ele>
        <time>2011-03-19T15:52:21.000Z</time>
      </trkpt>
      <trkpt lat="45.97983" lon="3.01641">
        <ele>628.20001220703</ele>
        <time>2011-03-19T15:52:28.000Z</time>
      </trkpt>
      <trkpt lat="45.97948" lon="3.01651">
        <ele>630.59997558594</ele>
        <time>2011-03-19T15:52:36.000Z</time>
      </trkpt>
      <trkpt lat="45.97906" lon="3.01659">
        <ele>633.40002441406</ele>
        <time>2011-03-19T15:52:46.000Z</time>
      </trkpt>
      <trkpt lat="45.97862" lon="3.01663">
        <ele>634.40002441406</ele>
        <time>2011-03-19T15:52:55.000Z</time>
      </trkpt>
      <trkpt lat="45.97828" lon="3.01673">
        <ele>634.40002441406</ele>
        <time>2011-03-19T15:53:01.000Z</time>
      </trkpt>
      <trkpt lat="45.97799" lon="3.01699">
        <ele>634.40002441406</ele>
        <time>2011-03-19T15:53:07.000Z</time>
      </trkpt>
      <trkpt lat="45.97794" lon="3.01705">
        <ele>634.59997558594</ele>
        <time>2011-03-19T15:53:08.000Z</time>
      </trkpt>
      <trkpt lat="45.97779" lon="3.01741">
        <ele>634.79998779297</ele>
        <time>2011-03-19T15:53:13.000Z</time>
      </trkpt>
      <trkpt lat="45.97762" lon="3.01815">
        <ele>636.40002441406</ele>
        <time>2011-03-19T15:53:22.000Z</time>
      </trkpt>
      <trkpt lat="45.97747" lon="3.01882">
        <ele>638.59997558594</ele>
        <time>2011-03-19T15:53:31.000Z</time>
      </trkpt>
      <trkpt lat="45.97726" lon="3.01939">
        <ele>641</ele>
        <time>2011-03-19T15:53:40.000Z</time>
      </trkpt>
      <trkpt lat="45.97701" lon="3.01981">
        <ele>642.40002441406</ele>
        <time>2011-03-19T15:53:48.000Z</time>
      </trkpt>
      <trkpt lat="45.97667" lon="3.02019">
        <ele>644.40002441406</ele>
        <time>2011-03-19T15:53:57.000Z</time>
      </trkpt>
      <trkpt lat="45.97632" lon="3.02056">
        <ele>646.20001220703</ele>
        <time>2011-03-19T15:54:06.000Z</time>
      </trkpt>
      <trkpt lat="45.97591" lon="3.02106">
        <ele>647</ele>
        <time>2011-03-19T15:54:16.000Z</time>
      </trkpt>
      <trkpt lat="45.97536" lon="3.02178">
        <ele>648.20001220703</ele>
        <time>2011-03-19T15:54:29.000Z</time>
      </trkpt>
      <trkpt lat="45.97501" lon="3.02219">
        <ele>649.20001220703</ele>
        <time>2011-03-19T15:54:37.000Z</time>
      </trkpt>
      <trkpt lat="45.9746" lon="3.02251">
        <ele>649.59997558594</ele>
        <time>2011-03-19T15:54:45.000Z</time>
      </trkpt>
      <trkpt lat="45.9742" lon="3.02277">
        <ele>650.59997558594</ele>
        <time>2011-03-19T15:54:53.000Z</time>
      </trkpt>
      <trkpt lat="45.97394" lon="3.02308">
        <ele>651.40002441406</ele>
        <time>2011-03-19T15:54:59.000Z</time>
      </trkpt>
      <trkpt lat="45.97376" lon="3.02347">
        <ele>651.79998779297</ele>
        <time>2011-03-19T15:55:05.000Z</time>
      </trkpt>
      <trkpt lat="45.97349" lon="3.02407">
        <ele>652.79998779297</ele>
        <time>2011-03-19T15:55:14.000Z</time>
      </trkpt>
      <trkpt lat="45.97328" lon="3.02441">
        <ele>654</ele>
        <time>2011-03-19T15:55:20.000Z</time>
      </trkpt>
      <trkpt lat="45.97321" lon="3.02451">
        <ele>654.40002441406</ele>
        <time>2011-03-19T15:55:22.000Z</time>
      </trkpt>
      <trkpt lat="45.97309" lon="3.02464">
        <ele>655.20001220703</ele>
        <time>2011-03-19T15:55:25.000Z</time>
      </trkpt>
      <trkpt lat="45.97284" lon="3.02471">
        <ele>655.79998779297</ele>
        <time>2011-03-19T15:55:30.000Z</time>
      </trkpt>
      <trkpt lat="45.97274" lon="3.02468">
        <ele>655.79998779297</ele>
        <time>2011-03-19T15:55:32.000Z</time>
      </trkpt>
      <trkpt lat="45.9723" lon="3.02445">
        <ele>656.59997558594</ele>
        <time>2011-03-19T15:55:41.000Z</time>
      </trkpt>
      <trkpt lat="45.97212" lon="3.02429">
        <ele>657.20001220703</ele>
        <time>2011-03-19T15:55:45.000Z</time>
      </trkpt>
      <trkpt lat="45.97196" lon="3.02399">
        <ele>659</ele>
        <time>2011-03-19T15:55:51.000Z</time>
      </trkpt>
      <trkpt lat="45.97174" lon="3.02356">
        <ele>662</ele>
        <time>2011-03-19T15:56:00.000Z</time>
      </trkpt>
      <trkpt lat="45.97171" lon="3.02352">
        <ele>662.59997558594</ele>
        <time>2011-03-19T15:56:01.000Z</time>
      </trkpt>
      <trkpt lat="45.97149" lon="3.02338">
        <ele>664.40002441406</ele>
        <time>2011-03-19T15:56:07.000Z</time>
      </trkpt>
      <trkpt lat="45.97112" lon="3.02328">
        <ele>666.59997558594</ele>
        <time>2011-03-19T15:56:16.000Z</time>
      </trkpt>
      <trkpt lat="45.9708" lon="3.02314">
        <ele>667.20001220703</ele>
        <time>2011-03-19T15:56:23.000Z</time>
      </trkpt>
      <trkpt lat="45.97053" lon="3.02289">
        <ele>667.40002441406</ele>
        <time>2011-03-19T15:56:29.000Z</time>
      </trkpt>
      <trkpt lat="45.97028" lon="3.02254">
        <ele>667</ele>
        <time>2011-03-19T15:56:35.000Z</time>
      </trkpt>
      <trkpt lat="45.97007" lon="3.022">
        <ele>667.20001220703</ele>
        <time>2011-03-19T15:56:42.000Z</time>
      </trkpt>
      <trkpt lat="45.96988" lon="3.02163">
        <ele>667.79998779297</ele>
        <time>2011-03-19T15:56:48.000Z</time>
      </trkpt>
      <trkpt lat="45.96971" lon="3.02142">
        <ele>669.20001220703</ele>
        <time>2011-03-19T15:56:53.000Z</time>
      </trkpt>
      <trkpt lat="45.96963" lon="3.02136">
        <ele>669.59997558594</ele>
        <time>2011-03-19T15:56:55.000Z</time>
      </trkpt>
      <trkpt lat="45.96933" lon="3.02127">
        <ele>670.40002441406</ele>
        <time>2011-03-19T15:57:01.000Z</time>
      </trkpt>
      <trkpt lat="45.96915" lon="3.02124">
        <ele>670.20001220703</ele>
        <time>2011-03-19T15:57:04.000Z</time>
      </trkpt>
      <trkpt lat="45.96878" lon="3.02104">
        <ele>668.79998779297</ele>
        <time>2011-03-19T15:57:10.000Z</time>
      </trkpt>
      <trkpt lat="45.96816" lon="3.02061">
        <ele>667.40002441406</ele>
        <time>2011-03-19T15:57:20.000Z</time>
      </trkpt>
      <trkpt lat="45.96747" lon="3.02013">
        <ele>666.59997558594</ele>
        <time>2011-03-19T15:57:31.000Z</time>
      </trkpt>
      <trkpt lat="45.96711" lon="3.02">
        <ele>667</ele>
        <time>2011-03-19T15:57:37.000Z</time>
      </trkpt>
      <trkpt lat="45.96666" lon="3.01989">
        <ele>669.79998779297</ele>
        <time>2011-03-19T15:57:46.000Z</time>
      </trkpt>
      <trkpt lat="45.96614" lon="3.01976">
        <ele>671.40002441406</ele>
        <time>2011-03-19T15:57:56.000Z</time>
      </trkpt>
      <trkpt lat="45.96572" lon="3.01955">
        <ele>671.20001220703</ele>
        <time>2011-03-19T15:58:03.000Z</time>
      </trkpt>
      <trkpt lat="45.96534" lon="3.01932">
        <ele>671.79998779297</ele>
        <time>2011-03-19T15:58:10.000Z</time>
      </trkpt>
      <trkpt lat="45.96528" lon="3.01931">
        <ele>671.79998779297</ele>
        <time>2011-03-19T15:58:11.000Z</time>
      </trkpt>
      <trkpt lat="45.96501" lon="3.01938">
        <ele>672.40002441406</ele>
        <time>2011-03-19T15:58:16.000Z</time>
      </trkpt>
      <trkpt lat="45.96489" lon="3.01956">
        <ele>672.79998779297</ele>
        <time>2011-03-19T15:58:19.000Z</time>
      </trkpt>
      <trkpt lat="45.96458" lon="3.02022">
        <ele>673.20001220703</ele>
        <time>2011-03-19T15:58:28.000Z</time>
      </trkpt>
      <trkpt lat="45.96438" lon="3.02041">
        <ele>672.79998779297</ele>
        <time>2011-03-19T15:58:32.000Z</time>
      </trkpt>
      <trkpt lat="45.96417" lon="3.02044">
        <ele>672</ele>
        <time>2011-03-19T15:58:35.000Z</time>
      </trkpt>
      <trkpt lat="45.96341" lon="3.02041">
        <ele>666.59997558594</ele>
        <time>2011-03-19T15:58:44.000Z</time>
      </trkpt>
      <trkpt lat="45.96276" lon="3.02037">
        <ele>665.59997558594</ele>
        <time>2011-03-19T15:58:52.000Z</time>
      </trkpt>
      <trkpt lat="45.96227" lon="3.02041">
        <ele>666</ele>
        <time>2011-03-19T15:58:59.000Z</time>
      </trkpt>
      <trkpt lat="45.96184" lon="3.02055">
        <ele>666.40002441406</ele>
        <time>2011-03-19T15:59:06.000Z</time>
      </trkpt>
      <trkpt lat="45.96144" lon="3.02081">
        <ele>667</ele>
        <time>2011-03-19T15:59:13.000Z</time>
      </trkpt>
      <trkpt lat="45.96117" lon="3.02102">
        <ele>667.20001220703</ele>
        <time>2011-03-19T15:59:18.000Z</time>
      </trkpt>
      <trkpt lat="45.96079" lon="3.02135">
        <ele>667.79998779297</ele>
        <time>2011-03-19T15:59:25.000Z</time>
      </trkpt>
      <trkpt lat="45.96046" lon="3.02165">
        <ele>669</ele>
        <time>2011-03-19T15:59:32.000Z</time>
      </trkpt>
      <trkpt lat="45.96015" lon="3.02201">
        <ele>671.59997558594</ele>
        <time>2011-03-19T15:59:40.000Z</time>
      </trkpt>
      <trkpt lat="45.95986" lon="3.02252">
        <ele>673.59997558594</ele>
        <time>2011-03-19T15:59:49.000Z</time>
      </trkpt>
      <trkpt lat="45.95955" lon="3.02313">
        <ele>675.40002441406</ele>
        <time>2011-03-19T15:59:59.000Z</time>
      </trkpt>
      <trkpt lat="45.95929" lon="3.02345">
        <ele>675.79998779297</ele>
        <time>2011-03-19T16:00:05.000Z</time>
      </trkpt>
      <trkpt lat="45.95908" lon="3.02362">
        <ele>675.79998779297</ele>
        <time>2011-03-19T16:00:09.000Z</time>
      </trkpt>
      <trkpt lat="45.95861" lon="3.02379">
        <ele>675.40002441406</ele>
        <time>2011-03-19T16:00:17.000Z</time>
      </trkpt>
      <trkpt lat="45.95794" lon="3.02396">
        <ele>674.40002441406</ele>
        <time>2011-03-19T16:00:28.000Z</time>
      </trkpt>
      <trkpt lat="45.95778" lon="3.02398">
        <ele>674.59997558594</ele>
        <time>2011-03-19T16:00:31.000Z</time>
      </trkpt>
      <trkpt lat="45.95769" lon="3.02395">
        <ele>674.59997558594</ele>
        <time>2011-03-19T16:00:35.000Z</time>
      </trkpt>
      <trkpt lat="45.95768" lon="3.02393">
        <ele>674.59997558594</ele>
        <time>2011-03-19T16:00:39.000Z</time>
      </trkpt>
      <trkpt lat="45.95767" lon="3.02395">
        <ele>674.79998779297</ele>
        <time>2011-03-19T16:01:50.000Z</time>
      </trkpt>
      <trkpt lat="45.95764" lon="3.02392">
        <ele>675</ele>
        <time>2011-03-19T16:01:56.000Z</time>
      </trkpt>
      <trkpt lat="45.95755" lon="3.02398">
        <ele>675.40002441406</ele>
        <time>2011-03-19T16:02:08.000Z</time>
      </trkpt>
      <trkpt lat="45.95754" lon="3.02406">
        <ele>675.40002441406</ele>
        <time>2011-03-19T16:02:12.000Z</time>
      </trkpt>
      <trkpt lat="45.95748" lon="3.02435">
        <ele>675</ele>
        <time>2011-03-19T16:02:18.000Z</time>
      </trkpt>
      <trkpt lat="45.95739" lon="3.02476">
        <ele>674.40002441406</ele>
        <time>2011-03-19T16:02:24.000Z</time>
      </trkpt>
      <trkpt lat="45.95731" lon="3.02534">
        <ele>673.20001220703</ele>
        <time>2011-03-19T16:02:31.000Z</time>
      </trkpt>
      <trkpt lat="45.95728" lon="3.02605">
        <ele>672.20001220703</ele>
        <time>2011-03-19T16:02:38.000Z</time>
      </trkpt>
      <trkpt lat="45.95723" lon="3.02702">
        <ele>670.40002441406</ele>
        <time>2011-03-19T16:02:47.000Z</time>
      </trkpt>
      <trkpt lat="45.95713" lon="3.02804">
        <ele>668.59997558594</ele>
        <time>2011-03-19T16:02:56.000Z</time>
      </trkpt>
      <trkpt lat="45.95703" lon="3.02891">
        <ele>666.40002441406</ele>
        <time>2011-03-19T16:03:03.000Z</time>
      </trkpt>
      <trkpt lat="45.95694" lon="3.02979">
        <ele>663.59997558594</ele>
        <time>2011-03-19T16:03:09.000Z</time>
      </trkpt>
      <trkpt lat="45.9568" lon="3.03108">
        <ele>657</ele>
        <time>2011-03-19T16:03:17.000Z</time>
      </trkpt>
      <trkpt lat="45.9566" lon="3.03258">
        <ele>650.59997558594</ele>
        <time>2011-03-19T16:03:26.000Z</time>
      </trkpt>
      <trkpt lat="45.95653" lon="3.03309">
        <ele>649</ele>
        <time>2011-03-19T16:03:29.000Z</time>
      </trkpt>
      <trkpt lat="45.9563" lon="3.03455">
        <ele>643.79998779297</ele>
        <time>2011-03-19T16:03:38.000Z</time>
      </trkpt>
      <trkpt lat="45.95604" lon="3.0363">
        <ele>637.20001220703</ele>
        <time>2011-03-19T16:03:49.000Z</time>
      </trkpt>
      <trkpt lat="45.95584" lon="3.03761">
        <ele>634.59997558594</ele>
        <time>2011-03-19T16:03:57.000Z</time>
      </trkpt>
      <trkpt lat="45.95569" lon="3.03882">
        <ele>630</ele>
        <time>2011-03-19T16:04:04.000Z</time>
      </trkpt>
      <trkpt lat="45.9557" lon="3.03955">
        <ele>626.20001220703</ele>
        <time>2011-03-19T16:04:08.000Z</time>
      </trkpt>
      <trkpt lat="45.95588" lon="3.04106">
        <ele>617</ele>
        <time>2011-03-19T16:04:16.000Z</time>
      </trkpt>
      <trkpt lat="45.95594" lon="3.04164">
        <ele>615.20001220703</ele>
        <time>2011-03-19T16:04:19.000Z</time>
      </trkpt>
      <trkpt lat="45.95616" lon="3.04332">
        <ele>607.40002441406</ele>
        <time>2011-03-19T16:04:28.000Z</time>
      </trkpt>
      <trkpt lat="45.95634" lon="3.04395">
        <ele>605.40002441406</ele>
        <time>2011-03-19T16:04:32.000Z</time>
      </trkpt>
      <trkpt lat="45.9564" lon="3.04409">
        <ele>605</ele>
        <time>2011-03-19T16:04:33.000Z</time>
      </trkpt>
      <trkpt lat="45.95679" lon="3.04464">
        <ele>603.40002441406</ele>
        <time>2011-03-19T16:04:38.000Z</time>
      </trkpt>
      <trkpt lat="45.95738" lon="3.04535">
        <ele>601.59997558594</ele>
        <time>2011-03-19T16:04:45.000Z</time>
      </trkpt>
      <trkpt lat="45.95778" lon="3.04606">
        <ele>598.59997558594</ele>
        <time>2011-03-19T16:04:51.000Z</time>
      </trkpt>
      <trkpt lat="45.95823" lon="3.04697">
        <ele>595.40002441406</ele>
        <time>2011-03-19T16:04:58.000Z</time>
      </trkpt>
      <trkpt lat="45.95847" lon="3.04777">
        <ele>593.79998779297</ele>
        <time>2011-03-19T16:05:04.000Z</time>
      </trkpt>
      <trkpt lat="45.95857" lon="3.0485">
        <ele>591.79998779297</ele>
        <time>2011-03-19T16:05:09.000Z</time>
      </trkpt>
      <trkpt lat="45.95868" lon="3.04971">
        <ele>588</ele>
        <time>2011-03-19T16:05:17.000Z</time>
      </trkpt>
      <trkpt lat="45.95871" lon="3.0508">
        <ele>584</ele>
        <time>2011-03-19T16:05:24.000Z</time>
      </trkpt>
      <trkpt lat="45.95864" lon="3.05172">
        <ele>582.79998779297</ele>
        <time>2011-03-19T16:05:30.000Z</time>
      </trkpt>
      <trkpt lat="45.95846" lon="3.05253">
        <ele>583.40002441406</ele>
        <time>2011-03-19T16:05:36.000Z</time>
      </trkpt>
      <trkpt lat="45.95814" lon="3.05379">
        <ele>584.20001220703</ele>
        <time>2011-03-19T16:05:46.000Z</time>
      </trkpt>
      <trkpt lat="45.95784" lon="3.0548">
        <ele>582.40002441406</ele>
        <time>2011-03-19T16:05:54.000Z</time>
      </trkpt>
      <trkpt lat="45.95742" lon="3.05604">
        <ele>578.40002441406</ele>
        <time>2011-03-19T16:06:03.000Z</time>
      </trkpt>
      <trkpt lat="45.9571" lon="3.0565">
        <ele>576.40002441406</ele>
        <time>2011-03-19T16:06:07.000Z</time>
      </trkpt>
      <trkpt lat="45.95686" lon="3.05659">
        <ele>575.20001220703</ele>
        <time>2011-03-19T16:06:09.000Z</time>
      </trkpt>
      <trkpt lat="45.95663" lon="3.05667">
        <ele>574.20001220703</ele>
        <time>2011-03-19T16:06:11.000Z</time>
      </trkpt>
      <trkpt lat="45.95623" lon="3.05703">
        <ele>571.20001220703</ele>
        <time>2011-03-19T16:06:15.000Z</time>
      </trkpt>
      <trkpt lat="45.95617" lon="3.05718">
        <ele>570.59997558594</ele>
        <time>2011-03-19T16:06:16.000Z</time>
      </trkpt>
      <trkpt lat="45.95594" lon="3.0578">
        <ele>567.40002441406</ele>
        <time>2011-03-19T16:06:20.000Z</time>
      </trkpt>
      <trkpt lat="45.9557" lon="3.05822">
        <ele>565</ele>
        <time>2011-03-19T16:06:23.000Z</time>
      </trkpt>
      <trkpt lat="45.95553" lon="3.0587">
        <ele>563.40002441406</ele>
        <time>2011-03-19T16:06:26.000Z</time>
      </trkpt>
      <trkpt lat="45.95551" lon="3.05906">
        <ele>562</ele>
        <time>2011-03-19T16:06:28.000Z</time>
      </trkpt>
      <trkpt lat="45.95541" lon="3.05993">
        <ele>558.40002441406</ele>
        <time>2011-03-19T16:06:33.000Z</time>
      </trkpt>
      <trkpt lat="45.95522" lon="3.061">
        <ele>554</ele>
        <time>2011-03-19T16:06:39.000Z</time>
      </trkpt>
      <trkpt lat="45.95522" lon="3.06173">
        <ele>551.40002441406</ele>
        <time>2011-03-19T16:06:43.000Z</time>
      </trkpt>
      <trkpt lat="45.95539" lon="3.0632">
        <ele>545</ele>
        <time>2011-03-19T16:06:51.000Z</time>
      </trkpt>
      <trkpt lat="45.95541" lon="3.06337">
        <ele>545</ele>
        <time>2011-03-19T16:06:52.000Z</time>
      </trkpt>
      <trkpt lat="45.95547" lon="3.06387">
        <ele>542.79998779297</ele>
        <time>2011-03-19T16:06:55.000Z</time>
      </trkpt>
      <trkpt lat="45.95542" lon="3.06451">
        <ele>540.40002441406</ele>
        <time>2011-03-19T16:06:59.000Z</time>
      </trkpt>
      <trkpt lat="45.9552" lon="3.0649">
        <ele>538.59997558594</ele>
        <time>2011-03-19T16:07:02.000Z</time>
      </trkpt>
      <trkpt lat="45.95499" lon="3.06508">
        <ele>537.40002441406</ele>
        <time>2011-03-19T16:07:04.000Z</time>
      </trkpt>
      <trkpt lat="45.95417" lon="3.06568">
        <ele>531.20001220703</ele>
        <time>2011-03-19T16:07:11.000Z</time>
      </trkpt>
      <trkpt lat="45.95404" lon="3.06573">
        <ele>530</ele>
        <time>2011-03-19T16:07:12.000Z</time>
      </trkpt>
      <trkpt lat="45.95336" lon="3.06579">
        <ele>526.40002441406</ele>
        <time>2011-03-19T16:07:17.000Z</time>
      </trkpt>
      <trkpt lat="45.95243" lon="3.0658">
        <ele>521</ele>
        <time>2011-03-19T16:07:24.000Z</time>
      </trkpt>
      <trkpt lat="45.95221" lon="3.06581">
        <ele>519.59997558594</ele>
        <time>2011-03-19T16:07:26.000Z</time>
      </trkpt>
      <trkpt lat="45.95193" lon="3.06606">
        <ele>516.59997558594</ele>
        <time>2011-03-19T16:07:30.000Z</time>
      </trkpt>
      <trkpt lat="45.95196" lon="3.06631">
        <ele>515.20001220703</ele>
        <time>2011-03-19T16:07:32.000Z</time>
      </trkpt>
      <trkpt lat="45.9521" lon="3.06646">
        <ele>513.79998779297</ele>
        <time>2011-03-19T16:07:34.000Z</time>
      </trkpt>
      <trkpt lat="45.95229" lon="3.06649">
        <ele>512.40002441406</ele>
        <time>2011-03-19T16:07:36.000Z</time>
      </trkpt>
      <trkpt lat="45.95278" lon="3.06671">
        <ele>508.20001220703</ele>
        <time>2011-03-19T16:07:41.000Z</time>
      </trkpt>
      <trkpt lat="45.95325" lon="3.06705">
        <ele>505.39999389648</ele>
        <time>2011-03-19T16:07:46.000Z</time>
      </trkpt>
      <trkpt lat="45.95382" lon="3.06728">
        <ele>502.20001220703</ele>
        <time>2011-03-19T16:07:51.000Z</time>
      </trkpt>
      <trkpt lat="45.95412" lon="3.06724">
        <ele>500</ele>
        <time>2011-03-19T16:07:54.000Z</time>
      </trkpt>
      <trkpt lat="45.95439" lon="3.06716">
        <ele>497.79998779297</ele>
        <time>2011-03-19T16:07:57.000Z</time>
      </trkpt>
      <trkpt lat="45.95453" lon="3.06736">
        <ele>496.39999389648</ele>
        <time>2011-03-19T16:07:59.000Z</time>
      </trkpt>
      <trkpt lat="45.95467" lon="3.06778">
        <ele>494.39999389648</ele>
        <time>2011-03-19T16:08:02.000Z</time>
      </trkpt>
      <trkpt lat="45.95468" lon="3.06827">
        <ele>491.79998779297</ele>
        <time>2011-03-19T16:08:05.000Z</time>
      </trkpt>
      <trkpt lat="45.95466" lon="3.06877">
        <ele>490</ele>
        <time>2011-03-19T16:08:08.000Z</time>
      </trkpt>
      <trkpt lat="45.95477" lon="3.06927">
        <ele>487.60000610352</ele>
        <time>2011-03-19T16:08:11.000Z</time>
      </trkpt>
      <trkpt lat="45.95512" lon="3.07041">
        <ele>482.20001220703</ele>
        <time>2011-03-19T16:08:18.000Z</time>
      </trkpt>
      <trkpt lat="45.95538" lon="3.07092">
        <ele>480.39999389648</ele>
        <time>2011-03-19T16:08:22.000Z</time>
      </trkpt>
      <trkpt lat="45.95571" lon="3.07129">
        <ele>479.60000610352</ele>
        <time>2011-03-19T16:08:26.000Z</time>
      </trkpt>
      <trkpt lat="45.95602" lon="3.07156">
        <ele>479.60000610352</ele>
        <time>2011-03-19T16:08:30.000Z</time>
      </trkpt>
      <trkpt lat="45.95617" lon="3.07188">
        <ele>479.60000610352</ele>
        <time>2011-03-19T16:08:33.000Z</time>
      </trkpt>
      <trkpt lat="45.95615" lon="3.07217">
        <ele>479.39999389648</ele>
        <time>2011-03-19T16:08:35.000Z</time>
      </trkpt>
      <trkpt lat="45.95605" lon="3.07243">
        <ele>478.60000610352</ele>
        <time>2011-03-19T16:08:37.000Z</time>
      </trkpt>
      <trkpt lat="45.95593" lon="3.07267">
        <ele>477.39999389648</ele>
        <time>2011-03-19T16:08:39.000Z</time>
      </trkpt>
      <trkpt lat="45.9556" lon="3.07295">
        <ele>473.79998779297</ele>
        <time>2011-03-19T16:08:43.000Z</time>
      </trkpt>
      <trkpt lat="45.95528" lon="3.07293">
        <ele>471.39999389648</ele>
        <time>2011-03-19T16:08:46.000Z</time>
      </trkpt>
      <trkpt lat="45.95497" lon="3.07277">
        <ele>469.39999389648</ele>
        <time>2011-03-19T16:08:49.000Z</time>
      </trkpt>
      <trkpt lat="45.9548" lon="3.07265">
        <ele>467.60000610352</ele>
        <time>2011-03-19T16:08:51.000Z</time>
      </trkpt>
      <trkpt lat="45.9545" lon="3.07276">
        <ele>464.79998779297</ele>
        <time>2011-03-19T16:08:55.000Z</time>
      </trkpt>
      <trkpt lat="45.95444" lon="3.07315">
        <ele>463.39999389648</ele>
        <time>2011-03-19T16:08:58.000Z</time>
      </trkpt>
      <trkpt lat="45.95444" lon="3.07328">
        <ele>463</ele>
        <time>2011-03-19T16:08:59.000Z</time>
      </trkpt>
      <trkpt lat="45.95448" lon="3.07417">
        <ele>460.20001220703</ele>
        <time>2011-03-19T16:09:05.000Z</time>
      </trkpt>
      <trkpt lat="45.95442" lon="3.07498">
        <ele>457.20001220703</ele>
        <time>2011-03-19T16:09:10.000Z</time>
      </trkpt>
      <trkpt lat="45.9543" lon="3.07647">
        <ele>453.39999389648</ele>
        <time>2011-03-19T16:09:19.000Z</time>
      </trkpt>
      <trkpt lat="45.95432" lon="3.07729">
        <ele>452</ele>
        <time>2011-03-19T16:09:24.000Z</time>
      </trkpt>
      <trkpt lat="45.95434" lon="3.07781">
        <ele>450.39999389648</ele>
        <time>2011-03-19T16:09:27.000Z</time>
      </trkpt>
      <trkpt lat="45.95424" lon="3.07865">
        <ele>447.79998779297</ele>
        <time>2011-03-19T16:09:32.000Z</time>
      </trkpt>
      <trkpt lat="45.95417" lon="3.07897">
        <ele>446.60000610352</ele>
        <time>2011-03-19T16:09:34.000Z</time>
      </trkpt>
      <trkpt lat="45.95399" lon="3.0794">
        <ele>445</ele>
        <time>2011-03-19T16:09:37.000Z</time>
      </trkpt>
      <trkpt lat="45.95378" lon="3.07956">
        <ele>443.60000610352</ele>
        <time>2011-03-19T16:09:39.000Z</time>
      </trkpt>
      <trkpt lat="45.95353" lon="3.07957">
        <ele>442.60000610352</ele>
        <time>2011-03-19T16:09:41.000Z</time>
      </trkpt>
      <trkpt lat="45.9533" lon="3.07944">
        <ele>441</ele>
        <time>2011-03-19T16:09:43.000Z</time>
      </trkpt>
      <trkpt lat="45.95267" lon="3.07883">
        <ele>436.39999389648</ele>
        <time>2011-03-19T16:09:49.000Z</time>
      </trkpt>
      <trkpt lat="45.95218" lon="3.07822">
        <ele>432</ele>
        <time>2011-03-19T16:09:54.000Z</time>
      </trkpt>
      <trkpt lat="45.95174" lon="3.07755">
        <ele>427.60000610352</ele>
        <time>2011-03-19T16:09:59.000Z</time>
      </trkpt>
      <trkpt lat="45.95129" lon="3.07718">
        <ele>424.20001220703</ele>
        <time>2011-03-19T16:10:03.000Z</time>
      </trkpt>
      <trkpt lat="45.95105" lon="3.07704">
        <ele>422.39999389648</ele>
        <time>2011-03-19T16:10:05.000Z</time>
      </trkpt>
      <trkpt lat="45.95067" lon="3.07704">
        <ele>419.60000610352</ele>
        <time>2011-03-19T16:10:08.000Z</time>
      </trkpt>
      <trkpt lat="45.95046" lon="3.07727">
        <ele>417.79998779297</ele>
        <time>2011-03-19T16:10:10.000Z</time>
      </trkpt>
      <trkpt lat="45.95021" lon="3.07768">
        <ele>415.39999389648</ele>
        <time>2011-03-19T16:10:13.000Z</time>
      </trkpt>
      <trkpt lat="45.95005" lon="3.07817">
        <ele>413.39999389648</ele>
        <time>2011-03-19T16:10:16.000Z</time>
      </trkpt>
      <trkpt lat="45.95004" lon="3.07855">
        <ele>411.79998779297</ele>
        <time>2011-03-19T16:10:18.000Z</time>
      </trkpt>
      <trkpt lat="45.95005" lon="3.07892">
        <ele>410.39999389648</ele>
        <time>2011-03-19T16:10:20.000Z</time>
      </trkpt>
      <trkpt lat="45.94997" lon="3.07985">
        <ele>406.60000610352</ele>
        <time>2011-03-19T16:10:25.000Z</time>
      </trkpt>
      <trkpt lat="45.94981" lon="3.08093">
        <ele>401.79998779297</ele>
        <time>2011-03-19T16:10:31.000Z</time>
      </trkpt>
      <trkpt lat="45.94965" lon="3.08243">
        <ele>394.20001220703</ele>
        <time>2011-03-19T16:10:39.000Z</time>
      </trkpt>
      <trkpt lat="45.94963" lon="3.08261">
        <ele>394.20001220703</ele>
        <time>2011-03-19T16:10:40.000Z</time>
      </trkpt>
      <trkpt lat="45.94959" lon="3.0828">
        <ele>393.20001220703</ele>
        <time>2011-03-19T16:10:41.000Z</time>
      </trkpt>
      <trkpt lat="45.94949" lon="3.08313">
        <ele>392.39999389648</ele>
        <time>2011-03-19T16:10:43.000Z</time>
      </trkpt>
      <trkpt lat="45.94933" lon="3.08342">
        <ele>390.60000610352</ele>
        <time>2011-03-19T16:10:45.000Z</time>
      </trkpt>
      <trkpt lat="45.94916" lon="3.08367">
        <ele>389.39999389648</ele>
        <time>2011-03-19T16:10:47.000Z</time>
      </trkpt>
      <trkpt lat="45.94894" lon="3.08424">
        <ele>387.79998779297</ele>
        <time>2011-03-19T16:10:51.000Z</time>
      </trkpt>
      <trkpt lat="45.94881" lon="3.08506">
        <ele>385.60000610352</ele>
        <time>2011-03-19T16:10:56.000Z</time>
      </trkpt>
      <trkpt lat="45.94892" lon="3.08603">
        <ele>383.39999389648</ele>
        <time>2011-03-19T16:11:02.000Z</time>
      </trkpt>
      <trkpt lat="45.94907" lon="3.08741">
        <ele>383</ele>
        <time>2011-03-19T16:11:11.000Z</time>
      </trkpt>
      <trkpt lat="45.94923" lon="3.08828">
        <ele>383.60000610352</ele>
        <time>2011-03-19T16:11:17.000Z</time>
      </trkpt>
      <trkpt lat="45.94955" lon="3.0895">
        <ele>382.79998779297</ele>
        <time>2011-03-19T16:11:26.000Z</time>
      </trkpt>
      <trkpt lat="45.9496" lon="3.08978">
        <ele>382.79998779297</ele>
        <time>2011-03-19T16:11:28.000Z</time>
      </trkpt>
      <trkpt lat="45.94955" lon="3.09035">
        <ele>382</ele>
        <time>2011-03-19T16:11:32.000Z</time>
      </trkpt>
      <trkpt lat="45.94942" lon="3.09072">
        <ele>381.20001220703</ele>
        <time>2011-03-19T16:11:35.000Z</time>
      </trkpt>
      <trkpt lat="45.94895" lon="3.09177">
        <ele>378.39999389648</ele>
        <time>2011-03-19T16:11:44.000Z</time>
      </trkpt>
      <trkpt lat="45.94886" lon="3.09201">
        <ele>377.79998779297</ele>
        <time>2011-03-19T16:11:46.000Z</time>
      </trkpt>
      <trkpt lat="45.94858" lon="3.09274">
        <ele>375.39999389648</ele>
        <time>2011-03-19T16:11:52.000Z</time>
      </trkpt>
      <trkpt lat="45.94849" lon="3.0933">
        <ele>373.79998779297</ele>
        <time>2011-03-19T16:11:56.000Z</time>
      </trkpt>
      <trkpt lat="45.94845" lon="3.09421">
        <ele>368.39999389648</ele>
        <time>2011-03-19T16:12:03.000Z</time>
      </trkpt>
      <trkpt lat="45.94836" lon="3.09505">
        <ele>364.60000610352</ele>
        <time>2011-03-19T16:12:09.000Z</time>
      </trkpt>
      <trkpt lat="45.94826" lon="3.09557">
        <ele>363</ele>
        <time>2011-03-19T16:12:13.000Z</time>
      </trkpt>
      <trkpt lat="45.94803" lon="3.09679">
        <ele>359.79998779297</ele>
        <time>2011-03-19T16:12:22.000Z</time>
      </trkpt>
      <trkpt lat="45.94788" lon="3.09746">
        <ele>358</ele>
        <time>2011-03-19T16:12:27.000Z</time>
      </trkpt>
      <trkpt lat="45.94771" lon="3.0984">
        <ele>355.79998779297</ele>
        <time>2011-03-19T16:12:34.000Z</time>
      </trkpt>
      <trkpt lat="45.94763" lon="3.09944">
        <ele>354.39999389648</ele>
        <time>2011-03-19T16:12:42.000Z</time>
      </trkpt>
      <trkpt lat="45.94752" lon="3.10005">
        <ele>353.79998779297</ele>
        <time>2011-03-19T16:12:47.000Z</time>
      </trkpt>
      <trkpt lat="45.94731" lon="3.10087">
        <ele>353</ele>
        <time>2011-03-19T16:12:54.000Z</time>
      </trkpt>
      <trkpt lat="45.94717" lon="3.10198">
        <ele>352.20001220703</ele>
        <time>2011-03-19T16:13:03.000Z</time>
      </trkpt>
      <trkpt lat="45.94717" lon="3.10259">
        <ele>351.39999389648</ele>
        <time>2011-03-19T16:13:08.000Z</time>
      </trkpt>
      <trkpt lat="45.94727" lon="3.10343">
        <ele>351.79998779297</ele>
        <time>2011-03-19T16:13:15.000Z</time>
      </trkpt>
      <trkpt lat="45.94727" lon="3.10412">
        <ele>351.39999389648</ele>
        <time>2011-03-19T16:13:21.000Z</time>
      </trkpt>
      <trkpt lat="45.94726" lon="3.105">
        <ele>350</ele>
        <time>2011-03-19T16:13:29.000Z</time>
      </trkpt>
      <trkpt lat="45.94718" lon="3.106">
        <ele>349.79998779297</ele>
        <time>2011-03-19T16:13:38.000Z</time>
      </trkpt>
      <trkpt lat="45.9471" lon="3.1069">
        <ele>349.39999389648</ele>
        <time>2011-03-19T16:13:46.000Z</time>
      </trkpt>
      <trkpt lat="45.94703" lon="3.10742">
        <ele>348.39999389648</ele>
        <time>2011-03-19T16:13:51.000Z</time>
      </trkpt>
      <trkpt lat="45.94682" lon="3.1082">
        <ele>347.39999389648</ele>
        <time>2011-03-19T16:13:59.000Z</time>
      </trkpt>
      <trkpt lat="45.94668" lon="3.1087">
        <ele>347.20001220703</ele>
        <time>2011-03-19T16:14:05.000Z</time>
      </trkpt>
      <trkpt lat="45.94663" lon="3.10902">
        <ele>346.39999389648</ele>
        <time>2011-03-19T16:14:10.000Z</time>
      </trkpt>
      <trkpt lat="45.94661" lon="3.10916">
        <ele>345.20001220703</ele>
        <time>2011-03-19T16:14:15.000Z</time>
      </trkpt>
      <trkpt lat="45.9466" lon="3.10917">
        <ele>345.20001220703</ele>
        <time>2011-03-19T16:14:16.000Z</time>
      </trkpt>
      <trkpt lat="45.94658" lon="3.10929">
        <ele>346</ele>
        <time>2011-03-19T16:14:58.000Z</time>
      </trkpt>
      <trkpt lat="45.94664" lon="3.10945">
        <ele>345.60000610352</ele>
        <time>2011-03-19T16:15:02.000Z</time>
      </trkpt>
      <trkpt lat="45.94677" lon="3.10953">
        <ele>346</ele>
        <time>2011-03-19T16:15:06.000Z</time>
      </trkpt>
      <trkpt lat="45.94698" lon="3.1096">
        <ele>346</ele>
        <time>2011-03-19T16:15:11.000Z</time>
      </trkpt>
      <trkpt lat="45.94706" lon="3.10982">
        <ele>346</ele>
        <time>2011-03-19T16:15:14.000Z</time>
      </trkpt>
      <trkpt lat="45.94707" lon="3.10991">
        <ele>346</ele>
        <time>2011-03-19T16:15:15.000Z</time>
      </trkpt>
      <trkpt lat="45.94712" lon="3.11062">
        <ele>345</ele>
        <time>2011-03-19T16:15:22.000Z</time>
      </trkpt>
      <trkpt lat="45.94708" lon="3.11136">
        <ele>343</ele>
        <time>2011-03-19T16:15:29.000Z</time>
      </trkpt>
      <trkpt lat="45.94709" lon="3.11148">
        <ele>343</ele>
        <time>2011-03-19T16:15:30.000Z</time>
      </trkpt>
      <trkpt lat="45.94723" lon="3.11184">
        <ele>343</ele>
        <time>2011-03-19T16:15:34.000Z</time>
      </trkpt>
      <trkpt lat="45.94772" lon="3.11244">
        <ele>343.20001220703</ele>
        <time>2011-03-19T16:15:43.000Z</time>
      </trkpt>
      <trkpt lat="45.94777" lon="3.11251">
        <ele>343</ele>
        <time>2011-03-19T16:15:44.000Z</time>
      </trkpt>
      <trkpt lat="45.94801" lon="3.11314">
        <ele>342</ele>
        <time>2011-03-19T16:15:51.000Z</time>
      </trkpt>
      <trkpt lat="45.94835" lon="3.1142">
        <ele>341.60000610352</ele>
        <time>2011-03-19T16:16:02.000Z</time>
      </trkpt>
      <trkpt lat="45.94859" lon="3.11492">
        <ele>341</ele>
        <time>2011-03-19T16:16:10.000Z</time>
      </trkpt>
      <trkpt lat="45.9488" lon="3.11545">
        <ele>343.79998779297</ele>
        <time>2011-03-19T16:16:17.000Z</time>
      </trkpt>
      <trkpt lat="45.9491" lon="3.11611">
        <ele>346.20001220703</ele>
        <time>2011-03-19T16:16:26.000Z</time>
      </trkpt>
      <trkpt lat="45.94934" lon="3.11658">
        <ele>348.60000610352</ele>
        <time>2011-03-19T16:16:33.000Z</time>
      </trkpt>
      <trkpt lat="45.94968" lon="3.11724">
        <ele>350</ele>
        <time>2011-03-19T16:16:43.000Z</time>
      </trkpt>
      <trkpt lat="45.95004" lon="3.11795">
        <ele>349</ele>
        <time>2011-03-19T16:16:52.000Z</time>
      </trkpt>
      <trkpt lat="45.95045" lon="3.11865">
        <ele>346.20001220703</ele>
        <time>2011-03-19T16:17:00.000Z</time>
      </trkpt>
      <trkpt lat="45.95082" lon="3.11925">
        <ele>343.79998779297</ele>
        <time>2011-03-19T16:17:06.000Z</time>
      </trkpt>
      <trkpt lat="45.95116" lon="3.11989">
        <ele>340.79998779297</ele>
        <time>2011-03-19T16:17:12.000Z</time>
      </trkpt>
      <trkpt lat="45.95129" lon="3.12034">
        <ele>339.79998779297</ele>
        <time>2011-03-19T16:17:16.000Z</time>
      </trkpt>
      <trkpt lat="45.95143" lon="3.12111">
        <ele>341.20001220703</ele>
        <time>2011-03-19T16:17:23.000Z</time>
      </trkpt>
      <trkpt lat="45.9516" lon="3.12147">
        <ele>341</ele>
        <time>2011-03-19T16:17:27.000Z</time>
      </trkpt>
      <trkpt lat="45.95208" lon="3.12217">
        <ele>341.39999389648</ele>
        <time>2011-03-19T16:17:36.000Z</time>
      </trkpt>
      <trkpt lat="45.95221" lon="3.12246">
        <ele>341</ele>
        <time>2011-03-19T16:17:39.000Z</time>
      </trkpt>
      <trkpt lat="45.95231" lon="3.12291">
        <ele>340.60000610352</ele>
        <time>2011-03-19T16:17:43.000Z</time>
      </trkpt>
      <trkpt lat="45.95231" lon="3.12398">
        <ele>340</ele>
        <time>2011-03-19T16:17:52.000Z</time>
      </trkpt>
      <trkpt lat="45.95231" lon="3.12508">
        <ele>338.20001220703</ele>
        <time>2011-03-19T16:18:01.000Z</time>
      </trkpt>
      <trkpt lat="45.95232" lon="3.12607">
        <ele>338</ele>
        <time>2011-03-19T16:18:09.000Z</time>
      </trkpt>
      <trkpt lat="45.95227" lon="3.12732">
        <ele>337.60000610352</ele>
        <time>2011-03-19T16:18:19.000Z</time>
      </trkpt>
      <trkpt lat="45.95222" lon="3.12807">
        <ele>336.60000610352</ele>
        <time>2011-03-19T16:18:25.000Z</time>
      </trkpt>
      <trkpt lat="45.95203" lon="3.12864">
        <ele>336.60000610352</ele>
        <time>2011-03-19T16:18:30.000Z</time>
      </trkpt>
      <trkpt lat="45.95191" lon="3.12884">
        <ele>336</ele>
        <time>2011-03-19T16:18:32.000Z</time>
      </trkpt>
      <trkpt lat="45.95113" lon="3.1299">
        <ele>334.20001220703</ele>
        <time>2011-03-19T16:18:43.000Z</time>
      </trkpt>
      <trkpt lat="45.95078" lon="3.13062">
        <ele>333</ele>
        <time>2011-03-19T16:18:49.000Z</time>
      </trkpt>
      <trkpt lat="45.95033" lon="3.13156">
        <ele>332</ele>
        <time>2011-03-19T16:18:57.000Z</time>
      </trkpt>
      <trkpt lat="45.9498" lon="3.13269">
        <ele>331</ele>
        <time>2011-03-19T16:19:07.000Z</time>
      </trkpt>
      <trkpt lat="45.94929" lon="3.13367">
        <ele>330.60000610352</ele>
        <time>2011-03-19T16:19:16.000Z</time>
      </trkpt>
      <trkpt lat="45.94876" lon="3.1347">
        <ele>330.39999389648</ele>
        <time>2011-03-19T16:19:26.000Z</time>
      </trkpt>
      <trkpt lat="45.94837" lon="3.13532">
        <ele>330.39999389648</ele>
        <time>2011-03-19T16:19:33.000Z</time>
      </trkpt>
      <trkpt lat="45.94825" lon="3.13576">
        <ele>330.79998779297</ele>
        <time>2011-03-19T16:19:37.000Z</time>
      </trkpt>
      <trkpt lat="45.94825" lon="3.13647">
        <ele>330.79998779297</ele>
        <time>2011-03-19T16:19:43.000Z</time>
      </trkpt>
      <trkpt lat="45.94816" lon="3.13704">
        <ele>330</ele>
        <time>2011-03-19T16:19:48.000Z</time>
      </trkpt>
      <trkpt lat="45.94813" lon="3.13715">
        <ele>330</ele>
        <time>2011-03-19T16:19:49.000Z</time>
      </trkpt>
      <trkpt lat="45.94782" lon="3.1377">
        <ele>330.39999389648</ele>
        <time>2011-03-19T16:19:55.000Z</time>
      </trkpt>
      <trkpt lat="45.9474" lon="3.13835">
        <ele>329.79998779297</ele>
        <time>2011-03-19T16:20:02.000Z</time>
      </trkpt>
      <trkpt lat="45.94725" lon="3.13883">
        <ele>329</ele>
        <time>2011-03-19T16:20:06.000Z</time>
      </trkpt>
      <trkpt lat="45.94715" lon="3.13985">
        <ele>328.39999389648</ele>
        <time>2011-03-19T16:20:14.000Z</time>
      </trkpt>
      <trkpt lat="45.94709" lon="3.14068">
        <ele>328.39999389648</ele>
        <time>2011-03-19T16:20:21.000Z</time>
      </trkpt>
      <trkpt lat="45.94704" lon="3.14147">
        <ele>328</ele>
        <time>2011-03-19T16:20:28.000Z</time>
      </trkpt>
      <trkpt lat="45.94706" lon="3.1423">
        <ele>327</ele>
        <time>2011-03-19T16:20:35.000Z</time>
      </trkpt>
      <trkpt lat="45.94716" lon="3.14338">
        <ele>326.60000610352</ele>
        <time>2011-03-19T16:20:44.000Z</time>
      </trkpt>
      <trkpt lat="45.94726" lon="3.14448">
        <ele>326</ele>
        <time>2011-03-19T16:20:53.000Z</time>
      </trkpt>
      <trkpt lat="45.94734" lon="3.14562">
        <ele>326</ele>
        <time>2011-03-19T16:21:02.000Z</time>
      </trkpt>
      <trkpt lat="45.94734" lon="3.14651">
        <ele>325.60000610352</ele>
        <time>2011-03-19T16:21:09.000Z</time>
      </trkpt>
      <trkpt lat="45.94731" lon="3.14764">
        <ele>325.20001220703</ele>
        <time>2011-03-19T16:21:18.000Z</time>
      </trkpt>
      <trkpt lat="45.94728" lon="3.14904">
        <ele>325</ele>
        <time>2011-03-19T16:21:29.000Z</time>
      </trkpt>
      <trkpt lat="45.94726" lon="3.15047">
        <ele>324.20001220703</ele>
        <time>2011-03-19T16:21:40.000Z</time>
      </trkpt>
      <trkpt lat="45.94723" lon="3.15187">
        <ele>323.79998779297</ele>
        <time>2011-03-19T16:21:51.000Z</time>
      </trkpt>
      <trkpt lat="45.94717" lon="3.15315">
        <ele>323.39999389648</ele>
        <time>2011-03-19T16:22:01.000Z</time>
      </trkpt>
      <trkpt lat="45.94709" lon="3.15416">
        <ele>322.60000610352</ele>
        <time>2011-03-19T16:22:09.000Z</time>
      </trkpt>
      <trkpt lat="45.947" lon="3.15527">
        <ele>322.60000610352</ele>
        <time>2011-03-19T16:22:18.000Z</time>
      </trkpt>
      <trkpt lat="45.94688" lon="3.15597">
        <ele>322.60000610352</ele>
        <time>2011-03-19T16:22:24.000Z</time>
      </trkpt>
      <trkpt lat="45.94667" lon="3.15673">
        <ele>322.60000610352</ele>
        <time>2011-03-19T16:22:31.000Z</time>
      </trkpt>
      <trkpt lat="45.94647" lon="3.15706">
        <ele>322.20001220703</ele>
        <time>2011-03-19T16:22:35.000Z</time>
      </trkpt>
      <trkpt lat="45.94625" lon="3.15712">
        <ele>322</ele>
        <time>2011-03-19T16:22:38.000Z</time>
      </trkpt>
      <trkpt lat="45.94603" lon="3.15712">
        <ele>322</ele>
        <time>2011-03-19T16:22:41.000Z</time>
      </trkpt>
      <trkpt lat="45.94578" lon="3.15727">
        <ele>322.60000610352</ele>
        <time>2011-03-19T16:22:45.000Z</time>
      </trkpt>
      <trkpt lat="45.9457" lon="3.1574">
        <ele>323.20001220703</ele>
        <time>2011-03-19T16:22:47.000Z</time>
      </trkpt>
      <trkpt lat="45.94559" lon="3.15763">
        <ele>324</ele>
        <time>2011-03-19T16:22:52.000Z</time>
      </trkpt>
      <trkpt lat="45.94557" lon="3.15766">
        <ele>324</ele>
        <time>2011-03-19T16:22:55.000Z</time>
      </trkpt>
      <trkpt lat="45.94555" lon="3.15769">
        <ele>324.20001220703</ele>
        <time>2011-03-19T16:23:00.000Z</time>
      </trkpt>
      <trkpt lat="45.94558" lon="3.15783">
        <ele>324.39999389648</ele>
        <time>2011-03-19T16:23:04.000Z</time>
      </trkpt>
      <trkpt lat="45.94562" lon="3.15787">
        <ele>324.39999389648</ele>
        <time>2011-03-19T16:23:05.000Z</time>
      </trkpt>
      <trkpt lat="45.94595" lon="3.15816">
        <ele>324</ele>
        <time>2011-03-19T16:23:11.000Z</time>
      </trkpt>
      <trkpt lat="45.94659" lon="3.15864">
        <ele>323.39999389648</ele>
        <time>2011-03-19T16:23:20.000Z</time>
      </trkpt>
      <trkpt lat="45.94662" lon="3.15869">
        <ele>323.60000610352</ele>
        <time>2011-03-19T16:23:21.000Z</time>
      </trkpt>
      <trkpt lat="45.94715" lon="3.15927">
        <ele>323</ele>
        <time>2011-03-19T16:23:30.000Z</time>
      </trkpt>
      <trkpt lat="45.94726" lon="3.15939">
        <ele>323</ele>
        <time>2011-03-19T16:23:32.000Z</time>
      </trkpt>
      <trkpt lat="45.94733" lon="3.15966">
        <ele>323</ele>
        <time>2011-03-19T16:23:35.000Z</time>
      </trkpt>
      <trkpt lat="45.9472" lon="3.15991">
        <ele>322.60000610352</ele>
        <time>2011-03-19T16:23:38.000Z</time>
      </trkpt>
      <trkpt lat="45.94697" lon="3.15995">
        <ele>322.20001220703</ele>
        <time>2011-03-19T16:23:41.000Z</time>
      </trkpt>
      <trkpt lat="45.94682" lon="3.15984">
        <ele>322</ele>
        <time>2011-03-19T16:23:43.000Z</time>
      </trkpt>
      <trkpt lat="45.94624" lon="3.15922">
        <ele>322.39999389648</ele>
        <time>2011-03-19T16:23:52.000Z</time>
      </trkpt>
      <trkpt lat="45.94595" lon="3.1591">
        <ele>322.39999389648</ele>
        <time>2011-03-19T16:23:56.000Z</time>
      </trkpt>
      <trkpt lat="45.94579" lon="3.15913">
        <ele>322.79998779297</ele>
        <time>2011-03-19T16:23:58.000Z</time>
      </trkpt>
      <trkpt lat="45.94516" lon="3.15939">
        <ele>324.60000610352</ele>
        <time>2011-03-19T16:24:07.000Z</time>
      </trkpt>
      <trkpt lat="45.94469" lon="3.1596">
        <ele>326.39999389648</ele>
        <time>2011-03-19T16:24:15.000Z</time>
      </trkpt>
      <trkpt lat="45.94413" lon="3.15982">
        <ele>330.20001220703</ele>
        <time>2011-03-19T16:24:25.000Z</time>
      </trkpt>
      <trkpt lat="45.94358" lon="3.15995">
        <ele>333.60000610352</ele>
        <time>2011-03-19T16:24:35.000Z</time>
      </trkpt>
      <trkpt lat="45.9432" lon="3.16006">
        <ele>335.79998779297</ele>
        <time>2011-03-19T16:24:42.000Z</time>
      </trkpt>
      <trkpt lat="45.94278" lon="3.16025">
        <ele>338.20001220703</ele>
        <time>2011-03-19T16:24:51.000Z</time>
      </trkpt>
      <trkpt lat="45.9424" lon="3.16041">
        <ele>337.79998779297</ele>
        <time>2011-03-19T16:24:58.000Z</time>
      </trkpt>
      <trkpt lat="45.94199" lon="3.1606">
        <ele>337.20001220703</ele>
        <time>2011-03-19T16:25:04.000Z</time>
      </trkpt>
      <trkpt lat="45.94149" lon="3.1608">
        <ele>334.60000610352</ele>
        <time>2011-03-19T16:25:10.000Z</time>
      </trkpt>
      <trkpt lat="45.94101" lon="3.16076">
        <ele>332</ele>
        <time>2011-03-19T16:25:15.000Z</time>
      </trkpt>
      <trkpt lat="45.94092" lon="3.16071">
        <ele>331.39999389648</ele>
        <time>2011-03-19T16:25:16.000Z</time>
      </trkpt>
      <trkpt lat="45.94066" lon="3.16052">
        <ele>330.20001220703</ele>
        <time>2011-03-19T16:25:19.000Z</time>
      </trkpt>
      <trkpt lat="45.94049" lon="3.16039">
        <ele>329.39999389648</ele>
        <time>2011-03-19T16:25:21.000Z</time>
      </trkpt>
      <trkpt lat="45.94028" lon="3.16">
        <ele>328.39999389648</ele>
        <time>2011-03-19T16:25:25.000Z</time>
      </trkpt>
      <trkpt lat="45.94012" lon="3.15966">
        <ele>328.20001220703</ele>
        <time>2011-03-19T16:25:29.000Z</time>
      </trkpt>
      <trkpt lat="45.93996" lon="3.15963">
        <ele>328.20001220703</ele>
        <time>2011-03-19T16:25:31.000Z</time>
      </trkpt>
      <trkpt lat="45.93935" lon="3.15975">
        <ele>327.79998779297</ele>
        <time>2011-03-19T16:25:39.000Z</time>
      </trkpt>
      <trkpt lat="45.93896" lon="3.15976">
        <ele>327.20001220703</ele>
        <time>2011-03-19T16:25:44.000Z</time>
      </trkpt>
      <trkpt lat="45.93862" lon="3.15963">
        <ele>326.20001220703</ele>
        <time>2011-03-19T16:25:48.000Z</time>
      </trkpt>
      <trkpt lat="45.93818" lon="3.1593">
        <ele>325</ele>
        <time>2011-03-19T16:25:54.000Z</time>
      </trkpt>
      <trkpt lat="45.93743" lon="3.15867">
        <ele>324.39999389648</ele>
        <time>2011-03-19T16:26:05.000Z</time>
      </trkpt>
      <trkpt lat="45.937" lon="3.15841">
        <ele>324.60000610352</ele>
        <time>2011-03-19T16:26:11.000Z</time>
      </trkpt>
      <trkpt lat="45.93646" lon="3.15825">
        <ele>324.79998779297</ele>
        <time>2011-03-19T16:26:18.000Z</time>
      </trkpt>
      <trkpt lat="45.93559" lon="3.15817">
        <ele>325.20001220703</ele>
        <time>2011-03-19T16:26:29.000Z</time>
      </trkpt>
      <trkpt lat="45.93458" lon="3.15806">
        <ele>325.79998779297</ele>
        <time>2011-03-19T16:26:42.000Z</time>
      </trkpt>
      <trkpt lat="45.93394" lon="3.15796">
        <ele>327</ele>
        <time>2011-03-19T16:26:51.000Z</time>
      </trkpt>
      <trkpt lat="45.93315" lon="3.15776">
        <ele>328.60000610352</ele>
        <time>2011-03-19T16:27:03.000Z</time>
      </trkpt>
      <trkpt lat="45.93234" lon="3.15753">
        <ele>329.60000610352</ele>
        <time>2011-03-19T16:27:15.000Z</time>
      </trkpt>
      <trkpt lat="45.93178" lon="3.15727">
        <ele>329.20001220703</ele>
        <time>2011-03-19T16:27:23.000Z</time>
      </trkpt>
      <trkpt lat="45.93111" lon="3.15696">
        <ele>329.20001220703</ele>
        <time>2011-03-19T16:27:32.000Z</time>
      </trkpt>
      <trkpt lat="45.93022" lon="3.15654">
        <ele>329.20001220703</ele>
        <time>2011-03-19T16:27:44.000Z</time>
      </trkpt>
      <trkpt lat="45.92954" lon="3.15622">
        <ele>330.60000610352</ele>
        <time>2011-03-19T16:27:54.000Z</time>
      </trkpt>
      <trkpt lat="45.92929" lon="3.15612">
        <ele>331</ele>
        <time>2011-03-19T16:27:58.000Z</time>
      </trkpt>
      <trkpt lat="45.92899" lon="3.15612">
        <ele>332.39999389648</ele>
        <time>2011-03-19T16:28:03.000Z</time>
      </trkpt>
      <trkpt lat="45.92844" lon="3.15622">
        <ele>335.39999389648</ele>
        <time>2011-03-19T16:28:13.000Z</time>
      </trkpt>
      <trkpt lat="45.92808" lon="3.15631">
        <ele>337.39999389648</ele>
        <time>2011-03-19T16:28:20.000Z</time>
      </trkpt>
      <trkpt lat="45.92775" lon="3.15648">
        <ele>338.79998779297</ele>
        <time>2011-03-19T16:28:27.000Z</time>
      </trkpt>
      <trkpt lat="45.9277" lon="3.1565">
        <ele>339</ele>
        <time>2011-03-19T16:28:28.000Z</time>
      </trkpt>
      <trkpt lat="45.92754" lon="3.15672">
        <ele>340</ele>
        <time>2011-03-19T16:28:33.000Z</time>
      </trkpt>
      <trkpt lat="45.92744" lon="3.15734">
        <ele>341</ele>
        <time>2011-03-19T16:28:41.000Z</time>
      </trkpt>
      <trkpt lat="45.92734" lon="3.158">
        <ele>341</ele>
        <time>2011-03-19T16:28:49.000Z</time>
      </trkpt>
      <trkpt lat="45.92719" lon="3.15824">
        <ele>341.20001220703</ele>
        <time>2011-03-19T16:28:53.000Z</time>
      </trkpt>
      <trkpt lat="45.92699" lon="3.15825">
        <ele>340.20001220703</ele>
        <time>2011-03-19T16:28:56.000Z</time>
      </trkpt>
      <trkpt lat="45.92641" lon="3.15802">
        <ele>338.39999389648</ele>
        <time>2011-03-19T16:29:04.000Z</time>
      </trkpt>
      <trkpt lat="45.92598" lon="3.15792">
        <ele>336.20001220703</ele>
        <time>2011-03-19T16:29:09.000Z</time>
      </trkpt>
      <trkpt lat="45.92551" lon="3.15804">
        <ele>334</ele>
        <time>2011-03-19T16:29:14.000Z</time>
      </trkpt>
      <trkpt lat="45.9248" lon="3.15834">
        <ele>329.20001220703</ele>
        <time>2011-03-19T16:29:21.000Z</time>
      </trkpt>
      <trkpt lat="45.92446" lon="3.1585">
        <ele>327</ele>
        <time>2011-03-19T16:29:25.000Z</time>
      </trkpt>
      <trkpt lat="45.92431" lon="3.15858">
        <ele>325.79998779297</ele>
        <time>2011-03-19T16:29:28.000Z</time>
      </trkpt>
      <trkpt lat="45.92426" lon="3.1586">
        <ele>325.20001220703</ele>
        <time>2011-03-19T16:29:30.000Z</time>
      </trkpt>
      <trkpt lat="45.92424" lon="3.15875">
        <ele>324.79998779297</ele>
        <time>2011-03-19T16:29:34.000Z</time>
      </trkpt>
      <trkpt lat="45.92421" lon="3.15891">
        <ele>325</ele>
        <time>2011-03-19T16:29:38.000Z</time>
      </trkpt>
      <trkpt lat="45.92394" lon="3.15902">
        <ele>324.39999389648</ele>
        <time>2011-03-19T16:29:43.000Z</time>
      </trkpt>
      <trkpt lat="45.92345" lon="3.159">
        <ele>322.39999389648</ele>
        <time>2011-03-19T16:29:50.000Z</time>
      </trkpt>
      <trkpt lat="45.92316" lon="3.15893">
        <ele>321.79998779297</ele>
        <time>2011-03-19T16:29:54.000Z</time>
      </trkpt>
      <trkpt lat="45.92281" lon="3.15865">
        <ele>321</ele>
        <time>2011-03-19T16:29:59.000Z</time>
      </trkpt>
      <trkpt lat="45.92204" lon="3.15781">
        <ele>320.39999389648</ele>
        <time>2011-03-19T16:30:11.000Z</time>
      </trkpt>
      <trkpt lat="45.92197" lon="3.15774">
        <ele>320.20001220703</ele>
        <time>2011-03-19T16:30:12.000Z</time>
      </trkpt>
      <trkpt lat="45.92167" lon="3.15758">
        <ele>320</ele>
        <time>2011-03-19T16:30:16.000Z</time>
      </trkpt>
      <trkpt lat="45.92144" lon="3.15766">
        <ele>319.79998779297</ele>
        <time>2011-03-19T16:30:19.000Z</time>
      </trkpt>
      <trkpt lat="45.92136" lon="3.15771">
        <ele>319.79998779297</ele>
        <time>2011-03-19T16:30:20.000Z</time>
      </trkpt>
      <trkpt lat="45.9205" lon="3.1584">
        <ele>319.20001220703</ele>
        <time>2011-03-19T16:30:32.000Z</time>
      </trkpt>
      <trkpt lat="45.91969" lon="3.15903">
        <ele>318.39999389648</ele>
        <time>2011-03-19T16:30:43.000Z</time>
      </trkpt>
      <trkpt lat="45.91937" lon="3.15909">
        <ele>318.20001220703</ele>
        <time>2011-03-19T16:30:47.000Z</time>
      </trkpt>
      <trkpt lat="45.91922" lon="3.15897">
        <ele>318</ele>
        <time>2011-03-19T16:30:49.000Z</time>
      </trkpt>
      <trkpt lat="45.91879" lon="3.15839">
        <ele>318.20001220703</ele>
        <time>2011-03-19T16:30:56.000Z</time>
      </trkpt>
      <trkpt lat="45.91829" lon="3.15757">
        <ele>318</ele>
        <time>2011-03-19T16:31:05.000Z</time>
      </trkpt>
      <trkpt lat="45.91804" lon="3.15696">
        <ele>318</ele>
        <time>2011-03-19T16:31:11.000Z</time>
      </trkpt>
      <trkpt lat="45.91791" lon="3.15665">
        <ele>317.79998779297</ele>
        <time>2011-03-19T16:31:14.000Z</time>
      </trkpt>
      <trkpt lat="45.91765" lon="3.15635">
        <ele>317.39999389648</ele>
        <time>2011-03-19T16:31:18.000Z</time>
      </trkpt>
      <trkpt lat="45.91757" lon="3.15632">
        <ele>317.39999389648</ele>
        <time>2011-03-19T16:31:19.000Z</time>
      </trkpt>
      <trkpt lat="45.91633" lon="3.15592">
        <ele>317.20001220703</ele>
        <time>2011-03-19T16:31:34.000Z</time>
      </trkpt>
      <trkpt lat="45.91575" lon="3.15581">
        <ele>317.20001220703</ele>
        <time>2011-03-19T16:31:41.000Z</time>
      </trkpt>
      <trkpt lat="45.91527" lon="3.15595">
        <ele>317.60000610352</ele>
        <time>2011-03-19T16:31:47.000Z</time>
      </trkpt>
      <trkpt lat="45.91475" lon="3.15615">
        <ele>318.79998779297</ele>
        <time>2011-03-19T16:31:54.000Z</time>
      </trkpt>
      <trkpt lat="45.91451" lon="3.15643">
        <ele>319.79998779297</ele>
        <time>2011-03-19T16:31:58.000Z</time>
      </trkpt>
      <trkpt lat="45.91447" lon="3.15652">
        <ele>319.79998779297</ele>
        <time>2011-03-19T16:31:59.000Z</time>
      </trkpt>
      <trkpt lat="45.91411" lon="3.15749">
        <ele>319</ele>
        <time>2011-03-19T16:32:09.000Z</time>
      </trkpt>
      <trkpt lat="45.91381" lon="3.15852">
        <ele>318.79998779297</ele>
        <time>2011-03-19T16:32:19.000Z</time>
      </trkpt>
      <trkpt lat="45.91349" lon="3.15965">
        <ele>319.20001220703</ele>
        <time>2011-03-19T16:32:30.000Z</time>
      </trkpt>
      <trkpt lat="45.91314" lon="3.16053">
        <ele>318.60000610352</ele>
        <time>2011-03-19T16:32:39.000Z</time>
      </trkpt>
      <trkpt lat="45.91271" lon="3.16151">
        <ele>318.20001220703</ele>
        <time>2011-03-19T16:32:49.000Z</time>
      </trkpt>
      <trkpt lat="45.91245" lon="3.16221">
        <ele>318.20001220703</ele>
        <time>2011-03-19T16:32:56.000Z</time>
      </trkpt>
      <trkpt lat="45.91226" lon="3.16308">
        <ele>317.79998779297</ele>
        <time>2011-03-19T16:33:04.000Z</time>
      </trkpt>
      <trkpt lat="45.9121" lon="3.16403">
        <ele>317.79998779297</ele>
        <time>2011-03-19T16:33:13.000Z</time>
      </trkpt>
      <trkpt lat="45.91194" lon="3.16452">
        <ele>318</ele>
        <time>2011-03-19T16:33:18.000Z</time>
      </trkpt>
      <trkpt lat="45.91163" lon="3.16526">
        <ele>317.60000610352</ele>
        <time>2011-03-19T16:33:26.000Z</time>
      </trkpt>
      <trkpt lat="45.91134" lon="3.16627">
        <ele>318</ele>
        <time>2011-03-19T16:33:36.000Z</time>
      </trkpt>
      <trkpt lat="45.91126" lon="3.1669">
        <ele>317.60000610352</ele>
        <time>2011-03-19T16:33:42.000Z</time>
      </trkpt>
      <trkpt lat="45.91119" lon="3.16798">
        <ele>316.79998779297</ele>
        <time>2011-03-19T16:33:52.000Z</time>
      </trkpt>
      <trkpt lat="45.91107" lon="3.16905">
        <ele>317</ele>
        <time>2011-03-19T16:34:02.000Z</time>
      </trkpt>
      <trkpt lat="45.91092" lon="3.17008">
        <ele>317.60000610352</ele>
        <time>2011-03-19T16:34:12.000Z</time>
      </trkpt>
      <trkpt lat="45.91078" lon="3.17119">
        <ele>317.20001220703</ele>
        <time>2011-03-19T16:34:23.000Z</time>
      </trkpt>
      <trkpt lat="45.91062" lon="3.17242">
        <ele>317.79998779297</ele>
        <time>2011-03-19T16:34:35.000Z</time>
      </trkpt>
      <trkpt lat="45.91053" lon="3.17304">
        <ele>317.79998779297</ele>
        <time>2011-03-19T16:34:41.000Z</time>
      </trkpt>
      <trkpt lat="45.91037" lon="3.17341">
        <ele>317.39999389648</ele>
        <time>2011-03-19T16:34:45.000Z</time>
      </trkpt>
      <trkpt lat="45.91004" lon="3.17389">
        <ele>317.20001220703</ele>
        <time>2011-03-19T16:34:51.000Z</time>
      </trkpt>
      <trkpt lat="45.90985" lon="3.17448">
        <ele>317.79998779297</ele>
        <time>2011-03-19T16:34:57.000Z</time>
      </trkpt>
      <trkpt lat="45.90959" lon="3.17559">
        <ele>318.60000610352</ele>
        <time>2011-03-19T16:35:08.000Z</time>
      </trkpt>
      <trkpt lat="45.90938" lon="3.17645">
        <ele>318</ele>
        <time>2011-03-19T16:35:17.000Z</time>
      </trkpt>
      <trkpt lat="45.90926" lon="3.17695">
        <ele>317.79998779297</ele>
        <time>2011-03-19T16:35:23.000Z</time>
      </trkpt>
      <trkpt lat="45.90913" lon="3.17711">
        <ele>317.60000610352</ele>
        <time>2011-03-19T16:35:26.000Z</time>
      </trkpt>
      <trkpt lat="45.90901" lon="3.17708">
        <ele>317.39999389648</ele>
        <time>2011-03-19T16:35:28.000Z</time>
      </trkpt>
      <trkpt lat="45.9084" lon="3.1768">
        <ele>317</ele>
        <time>2011-03-19T16:35:37.000Z</time>
      </trkpt>
      <trkpt lat="45.90772" lon="3.17651">
        <ele>316.39999389648</ele>
        <time>2011-03-19T16:35:46.000Z</time>
      </trkpt>
      <trkpt lat="45.90707" lon="3.17634">
        <ele>316.60000610352</ele>
        <time>2011-03-19T16:35:54.000Z</time>
      </trkpt>
      <trkpt lat="45.9062" lon="3.17621">
        <ele>316.20001220703</ele>
        <time>2011-03-19T16:36:05.000Z</time>
      </trkpt>
      <trkpt lat="45.90563" lon="3.1761">
        <ele>317.79998779297</ele>
        <time>2011-03-19T16:36:13.000Z</time>
      </trkpt>
      <trkpt lat="45.90518" lon="3.17595">
        <ele>318.79998779297</ele>
        <time>2011-03-19T16:36:20.000Z</time>
      </trkpt>
      <trkpt lat="45.90455" lon="3.17576">
        <ele>317</ele>
        <time>2011-03-19T16:36:28.000Z</time>
      </trkpt>
      <trkpt lat="45.90383" lon="3.17553">
        <ele>316.20001220703</ele>
        <time>2011-03-19T16:36:37.000Z</time>
      </trkpt>
      <trkpt lat="45.90308" lon="3.17533">
        <ele>316.39999389648</ele>
        <time>2011-03-19T16:36:47.000Z</time>
      </trkpt>
      <trkpt lat="45.90244" lon="3.17517">
        <ele>316.39999389648</ele>
        <time>2011-03-19T16:36:55.000Z</time>
      </trkpt>
      <trkpt lat="45.90155" lon="3.17493">
        <ele>316.20001220703</ele>
        <time>2011-03-19T16:37:06.000Z</time>
      </trkpt>
      <trkpt lat="45.90074" lon="3.17471">
        <ele>316.39999389648</ele>
        <time>2011-03-19T16:37:16.000Z</time>
      </trkpt>
      <trkpt lat="45.90001" lon="3.17452">
        <ele>316.39999389648</ele>
        <time>2011-03-19T16:37:25.000Z</time>
      </trkpt>
      <trkpt lat="45.89935" lon="3.17441">
        <ele>316.60000610352</ele>
        <time>2011-03-19T16:37:33.000Z</time>
      </trkpt>
      <trkpt lat="45.89835" lon="3.17444">
        <ele>316.60000610352</ele>
        <time>2011-03-19T16:37:45.000Z</time>
      </trkpt>
      <trkpt lat="45.8982" lon="3.17446">
        <ele>316.60000610352</ele>
        <time>2011-03-19T16:37:47.000Z</time>
      </trkpt>
      <trkpt lat="45.89789" lon="3.17466">
        <ele>316.79998779297</ele>
        <time>2011-03-19T16:37:52.000Z</time>
      </trkpt>
      <trkpt lat="45.8978" lon="3.17494">
        <ele>316.60000610352</ele>
        <time>2011-03-19T16:37:55.000Z</time>
      </trkpt>
      <trkpt lat="45.89778" lon="3.17505">
        <ele>316.79998779297</ele>
        <time>2011-03-19T16:37:56.000Z</time>
      </trkpt>
      <trkpt lat="45.89773" lon="3.17608">
        <ele>316.60000610352</ele>
        <time>2011-03-19T16:38:05.000Z</time>
      </trkpt>
      <trkpt lat="45.89771" lon="3.17703">
        <ele>316.60000610352</ele>
        <time>2011-03-19T16:38:13.000Z</time>
      </trkpt>
      <trkpt lat="45.89775" lon="3.17808">
        <ele>316.20001220703</ele>
        <time>2011-03-19T16:38:22.000Z</time>
      </trkpt>
      <trkpt lat="45.89774" lon="3.17831">
        <ele>316.39999389648</ele>
        <time>2011-03-19T16:38:24.000Z</time>
      </trkpt>
      <trkpt lat="45.89764" lon="3.17873">
        <ele>316.20001220703</ele>
        <time>2011-03-19T16:38:28.000Z</time>
      </trkpt>
      <trkpt lat="45.89745" lon="3.17895">
        <ele>316.20001220703</ele>
        <time>2011-03-19T16:38:31.000Z</time>
      </trkpt>
      <trkpt lat="45.89729" lon="3.17905">
        <ele>316.20001220703</ele>
        <time>2011-03-19T16:38:33.000Z</time>
      </trkpt>
      <trkpt lat="45.89655" lon="3.17942">
        <ele>316.20001220703</ele>
        <time>2011-03-19T16:38:42.000Z</time>
      </trkpt>
      <trkpt lat="45.89607" lon="3.17964">
        <ele>316</ele>
        <time>2011-03-19T16:38:48.000Z</time>
      </trkpt>
      <trkpt lat="45.89563" lon="3.17961">
        <ele>315.79998779297</ele>
        <time>2011-03-19T16:38:53.000Z</time>
      </trkpt>
      <trkpt lat="45.89505" lon="3.17952">
        <ele>316</ele>
        <time>2011-03-19T16:39:00.000Z</time>
      </trkpt>
      <trkpt lat="45.8944" lon="3.17941">
        <ele>316.20001220703</ele>
        <time>2011-03-19T16:39:07.000Z</time>
      </trkpt>
      <trkpt lat="45.89374" lon="3.17931">
        <ele>316</ele>
        <time>2011-03-19T16:39:14.000Z</time>
      </trkpt>
      <trkpt lat="45.89292" lon="3.17917">
        <ele>316</ele>
        <time>2011-03-19T16:39:23.000Z</time>
      </trkpt>
      <trkpt lat="45.89194" lon="3.17902">
        <ele>316.60000610352</ele>
        <time>2011-03-19T16:39:34.000Z</time>
      </trkpt>
      <trkpt lat="45.89113" lon="3.1789">
        <ele>316.79998779297</ele>
        <time>2011-03-19T16:39:43.000Z</time>
      </trkpt>
      <trkpt lat="45.89032" lon="3.17877">
        <ele>316.60000610352</ele>
        <time>2011-03-19T16:39:52.000Z</time>
      </trkpt>
      <trkpt lat="45.88975" lon="3.17868">
        <ele>316.60000610352</ele>
        <time>2011-03-19T16:39:59.000Z</time>
      </trkpt>
      <trkpt lat="45.88918" lon="3.17858">
        <ele>316.60000610352</ele>
        <time>2011-03-19T16:40:07.000Z</time>
      </trkpt>
      <trkpt lat="45.8889" lon="3.1785">
        <ele>317</ele>
        <time>2011-03-19T16:40:12.000Z</time>
      </trkpt>
      <trkpt lat="45.88866" lon="3.17848">
        <ele>316.79998779297</ele>
        <time>2011-03-19T16:40:17.000Z</time>
      </trkpt>
      <trkpt lat="45.88804" lon="3.17851">
        <ele>317</ele>
        <time>2011-03-19T16:40:26.000Z</time>
      </trkpt>
      <trkpt lat="45.88751" lon="3.17847">
        <ele>317</ele>
        <time>2011-03-19T16:40:33.000Z</time>
      </trkpt>
      <trkpt lat="45.88686" lon="3.17843">
        <ele>316.60000610352</ele>
        <time>2011-03-19T16:40:41.000Z</time>
      </trkpt>
      <trkpt lat="45.88615" lon="3.1784">
        <ele>316.20001220703</ele>
        <time>2011-03-19T16:40:50.000Z</time>
      </trkpt>
      <trkpt lat="45.88607" lon="3.17842">
        <ele>316.39999389648</ele>
        <time>2011-03-19T16:40:51.000Z</time>
      </trkpt>
      <trkpt lat="45.88581" lon="3.17865">
        <ele>316.20001220703</ele>
        <time>2011-03-19T16:40:55.000Z</time>
      </trkpt>
      <trkpt lat="45.88574" lon="3.17896">
        <ele>316.39999389648</ele>
        <time>2011-03-19T16:40:58.000Z</time>
      </trkpt>
      <trkpt lat="45.88576" lon="3.17962">
        <ele>316.39999389648</ele>
        <time>2011-03-19T16:41:04.000Z</time>
      </trkpt>
      <trkpt lat="45.88588" lon="3.18016">
        <ele>316.60000610352</ele>
        <time>2011-03-19T16:41:09.000Z</time>
      </trkpt>
      <trkpt lat="45.88613" lon="3.18097">
        <ele>316.79998779297</ele>
        <time>2011-03-19T16:41:17.000Z</time>
      </trkpt>
      <trkpt lat="45.88642" lon="3.18187">
        <ele>317</ele>
        <time>2011-03-19T16:41:26.000Z</time>
      </trkpt>
      <trkpt lat="45.88669" lon="3.18267">
        <ele>316.60000610352</ele>
        <time>2011-03-19T16:41:34.000Z</time>
      </trkpt>
      <trkpt lat="45.88688" lon="3.18325">
        <ele>316.60000610352</ele>
        <time>2011-03-19T16:41:40.000Z</time>
      </trkpt>
      <trkpt lat="45.88688" lon="3.18367">
        <ele>316.60000610352</ele>
        <time>2011-03-19T16:41:44.000Z</time>
      </trkpt>
      <trkpt lat="45.88675" lon="3.18393">
        <ele>316.79998779297</ele>
        <time>2011-03-19T16:41:47.000Z</time>
      </trkpt>
      <trkpt lat="45.88655" lon="3.18409">
        <ele>317</ele>
        <time>2011-03-19T16:41:50.000Z</time>
      </trkpt>
      <trkpt lat="45.88639" lon="3.18413">
        <ele>317</ele>
        <time>2011-03-19T16:41:52.000Z</time>
      </trkpt>
      <trkpt lat="45.88548" lon="3.18414">
        <ele>316.79998779297</ele>
        <time>2011-03-19T16:42:03.000Z</time>
      </trkpt>
      <trkpt lat="45.8848" lon="3.18412">
        <ele>316.60000610352</ele>
        <time>2011-03-19T16:42:11.000Z</time>
      </trkpt>
      <trkpt lat="45.88375" lon="3.18404">
        <ele>317</ele>
        <time>2011-03-19T16:42:23.000Z</time>
      </trkpt>
      <trkpt lat="45.88287" lon="3.18391">
        <ele>317.39999389648</ele>
        <time>2011-03-19T16:42:33.000Z</time>
      </trkpt>
      <trkpt lat="45.88214" lon="3.18387">
        <ele>317.20001220703</ele>
        <time>2011-03-19T16:42:41.000Z</time>
      </trkpt>
      <trkpt lat="45.88142" lon="3.18392">
        <ele>317.39999389648</ele>
        <time>2011-03-19T16:42:49.000Z</time>
      </trkpt>
      <trkpt lat="45.8805" lon="3.18398">
        <ele>318.20001220703</ele>
        <time>2011-03-19T16:42:59.000Z</time>
      </trkpt>
      <trkpt lat="45.87957" lon="3.18404">
        <ele>318.39999389648</ele>
        <time>2011-03-19T16:43:09.000Z</time>
      </trkpt>
      <trkpt lat="45.87844" lon="3.18412">
        <ele>318.20001220703</ele>
        <time>2011-03-19T16:43:21.000Z</time>
      </trkpt>
      <trkpt lat="45.87758" lon="3.18418">
        <ele>318.39999389648</ele>
        <time>2011-03-19T16:43:30.000Z</time>
      </trkpt>
      <trkpt lat="45.87673" lon="3.18424">
        <ele>318.39999389648</ele>
        <time>2011-03-19T16:43:39.000Z</time>
      </trkpt>
      <trkpt lat="45.87664" lon="3.18425">
        <ele>318.39999389648</ele>
        <time>2011-03-19T16:43:40.000Z</time>
      </trkpt>
      <trkpt lat="45.8763" lon="3.18446">
        <ele>318.39999389648</ele>
        <time>2011-03-19T16:43:44.000Z</time>
      </trkpt>
      <trkpt lat="45.87617" lon="3.18465">
        <ele>318.39999389648</ele>
        <time>2011-03-19T16:43:46.000Z</time>
      </trkpt>
      <trkpt lat="45.87546" lon="3.18595">
        <ele>318.20001220703</ele>
        <time>2011-03-19T16:43:58.000Z</time>
      </trkpt>
      <trkpt lat="45.87488" lon="3.18702">
        <ele>318.20001220703</ele>
        <time>2011-03-19T16:44:08.000Z</time>
      </trkpt>
      <trkpt lat="45.87443" lon="3.18781">
        <ele>318.20001220703</ele>
        <time>2011-03-19T16:44:16.000Z</time>
      </trkpt>
      <trkpt lat="45.87408" lon="3.18824">
        <ele>318.20001220703</ele>
        <time>2011-03-19T16:44:21.000Z</time>
      </trkpt>
      <trkpt lat="45.87369" lon="3.18852">
        <ele>318.20001220703</ele>
        <time>2011-03-19T16:44:26.000Z</time>
      </trkpt>
      <trkpt lat="45.87307" lon="3.18886">
        <ele>319</ele>
        <time>2011-03-19T16:44:34.000Z</time>
      </trkpt>
      <trkpt lat="45.87238" lon="3.18906">
        <ele>319.39999389648</ele>
        <time>2011-03-19T16:44:42.000Z</time>
      </trkpt>
      <trkpt lat="45.87193" lon="3.18908">
        <ele>318.60000610352</ele>
        <time>2011-03-19T16:44:47.000Z</time>
      </trkpt>
      <trkpt lat="45.87139" lon="3.18907">
        <ele>318.79998779297</ele>
        <time>2011-03-19T16:44:53.000Z</time>
      </trkpt>
      <trkpt lat="45.87079" lon="3.18914">
        <ele>319.60000610352</ele>
        <time>2011-03-19T16:45:00.000Z</time>
      </trkpt>
      <trkpt lat="45.87001" lon="3.18925">
        <ele>319.39999389648</ele>
        <time>2011-03-19T16:45:09.000Z</time>
      </trkpt>
      <trkpt lat="45.8694" lon="3.18941">
        <ele>319.39999389648</ele>
        <time>2011-03-19T16:45:16.000Z</time>
      </trkpt>
      <trkpt lat="45.86886" lon="3.18964">
        <ele>318.79998779297</ele>
        <time>2011-03-19T16:45:23.000Z</time>
      </trkpt>
      <trkpt lat="45.86864" lon="3.18973">
        <ele>319</ele>
        <time>2011-03-19T16:45:26.000Z</time>
      </trkpt>
      <trkpt lat="45.86839" lon="3.18972">
        <ele>319</ele>
        <time>2011-03-19T16:45:30.000Z</time>
      </trkpt>
      <trkpt lat="45.86834" lon="3.18957">
        <ele>319.20001220703</ele>
        <time>2011-03-19T16:45:32.000Z</time>
      </trkpt>
      <trkpt lat="45.86838" lon="3.1894">
        <ele>319.60000610352</ele>
        <time>2011-03-19T16:45:34.000Z</time>
      </trkpt>
      <trkpt lat="45.86853" lon="3.18876">
        <ele>320.60000610352</ele>
        <time>2011-03-19T16:45:40.000Z</time>
      </trkpt>
      <trkpt lat="45.86864" lon="3.18796">
        <ele>320.79998779297</ele>
        <time>2011-03-19T16:45:47.000Z</time>
      </trkpt>
      <trkpt lat="45.86867" lon="3.18728">
        <ele>320</ele>
        <time>2011-03-19T16:45:53.000Z</time>
      </trkpt>
      <trkpt lat="45.8687" lon="3.18639">
        <ele>320</ele>
        <time>2011-03-19T16:46:00.000Z</time>
      </trkpt>
      <trkpt lat="45.86874" lon="3.18515">
        <ele>320.20001220703</ele>
        <time>2011-03-19T16:46:10.000Z</time>
      </trkpt>
      <trkpt lat="45.86879" lon="3.18379">
        <ele>320.39999389648</ele>
        <time>2011-03-19T16:46:21.000Z</time>
      </trkpt>
      <trkpt lat="45.86883" lon="3.1823">
        <ele>320.79998779297</ele>
        <time>2011-03-19T16:46:33.000Z</time>
      </trkpt>
      <trkpt lat="45.86888" lon="3.18092">
        <ele>321.39999389648</ele>
        <time>2011-03-19T16:46:44.000Z</time>
      </trkpt>
      <trkpt lat="45.86892" lon="3.17982">
        <ele>321.20001220703</ele>
        <time>2011-03-19T16:46:53.000Z</time>
      </trkpt>
      <trkpt lat="45.86896" lon="3.17861">
        <ele>321.39999389648</ele>
        <time>2011-03-19T16:47:03.000Z</time>
      </trkpt>
      <trkpt lat="45.86899" lon="3.17773">
        <ele>322.20001220703</ele>
        <time>2011-03-19T16:47:11.000Z</time>
      </trkpt>
      <trkpt lat="45.869" lon="3.17719">
        <ele>321.60000610352</ele>
        <time>2011-03-19T16:47:17.000Z</time>
      </trkpt>
      <trkpt lat="45.869" lon="3.17711">
        <ele>321.39999389648</ele>
        <time>2011-03-19T16:47:18.000Z</time>
      </trkpt>
      <trkpt lat="45.869" lon="3.17696">
        <ele>321.60000610352</ele>
        <time>2011-03-19T16:47:20.000Z</time>
      </trkpt>
      <trkpt lat="45.86896" lon="3.17671">
        <ele>321.20001220703</ele>
        <time>2011-03-19T16:47:24.000Z</time>
      </trkpt>
      <trkpt lat="45.86887" lon="3.17666">
        <ele>321.39999389648</ele>
        <time>2011-03-19T16:47:26.000Z</time>
      </trkpt>
      <trkpt lat="45.86873" lon="3.17665">
        <ele>321</ele>
        <time>2011-03-19T16:47:29.000Z</time>
      </trkpt>
      <trkpt lat="45.86835" lon="3.17663">
        <ele>321.20001220703</ele>
        <time>2011-03-19T16:47:37.000Z</time>
      </trkpt>
      <trkpt lat="45.86799" lon="3.17661">
        <ele>321</ele>
        <time>2011-03-19T16:47:45.000Z</time>
      </trkpt>
      <trkpt lat="45.86768" lon="3.1766">
        <ele>320.79998779297</ele>
        <time>2011-03-19T16:47:52.000Z</time>
      </trkpt>
      <trkpt lat="45.86736" lon="3.17659">
        <ele>321.39999389648</ele>
        <time>2011-03-19T16:47:59.000Z</time>
      </trkpt>
      <trkpt lat="45.867" lon="3.17658">
        <ele>321.39999389648</ele>
        <time>2011-03-19T16:48:06.000Z</time>
      </trkpt>
      <trkpt lat="45.8666" lon="3.17665">
        <ele>320.79998779297</ele>
        <time>2011-03-19T16:48:13.000Z</time>
      </trkpt>
      <trkpt lat="45.86601" lon="3.17684">
        <ele>321.20001220703</ele>
        <time>2011-03-19T16:48:23.000Z</time>
      </trkpt>
      <trkpt lat="45.86552" lon="3.17704">
        <ele>321</ele>
        <time>2011-03-19T16:48:31.000Z</time>
      </trkpt>
      <trkpt lat="45.8649" lon="3.1774">
        <ele>321</ele>
        <time>2011-03-19T16:48:41.000Z</time>
      </trkpt>
      <trkpt lat="45.86447" lon="3.17758">
        <ele>320.39999389648</ele>
        <time>2011-03-19T16:48:48.000Z</time>
      </trkpt>
      <trkpt lat="45.86429" lon="3.17768">
        <ele>320.60000610352</ele>
        <time>2011-03-19T16:48:51.000Z</time>
      </trkpt>
      <trkpt lat="45.86402" lon="3.17788">
        <ele>320.60000610352</ele>
        <time>2011-03-19T16:48:56.000Z</time>
      </trkpt>
      <trkpt lat="45.86372" lon="3.17798">
        <ele>320.60000610352</ele>
        <time>2011-03-19T16:49:01.000Z</time>
      </trkpt>
      <trkpt lat="45.86358" lon="3.17797">
        <ele>320.39999389648</ele>
        <time>2011-03-19T16:49:03.000Z</time>
      </trkpt>
      <trkpt lat="45.86291" lon="3.17789">
        <ele>321</ele>
        <time>2011-03-19T16:49:13.000Z</time>
      </trkpt>
      <trkpt lat="45.86264" lon="3.17791">
        <ele>321</ele>
        <time>2011-03-19T16:49:17.000Z</time>
      </trkpt>
      <trkpt lat="45.86244" lon="3.17787">
        <ele>321</ele>
        <time>2011-03-19T16:49:20.000Z</time>
      </trkpt>
      <trkpt lat="45.86207" lon="3.1776">
        <ele>321.39999389648</ele>
        <time>2011-03-19T16:49:26.000Z</time>
      </trkpt>
      <trkpt lat="45.86175" lon="3.17723">
        <ele>321.39999389648</ele>
        <time>2011-03-19T16:49:32.000Z</time>
      </trkpt>
      <trkpt lat="45.86154" lon="3.17683">
        <ele>321.39999389648</ele>
        <time>2011-03-19T16:49:37.000Z</time>
      </trkpt>
      <trkpt lat="45.86126" lon="3.17656">
        <ele>321.60000610352</ele>
        <time>2011-03-19T16:49:42.000Z</time>
      </trkpt>
      <trkpt lat="45.861" lon="3.17652">
        <ele>321.79998779297</ele>
        <time>2011-03-19T16:49:46.000Z</time>
      </trkpt>
      <trkpt lat="45.86083" lon="3.17667">
        <ele>322</ele>
        <time>2011-03-19T16:49:49.000Z</time>
      </trkpt>
      <trkpt lat="45.86078" lon="3.17674">
        <ele>322</ele>
        <time>2011-03-19T16:49:50.000Z</time>
      </trkpt>
      <trkpt lat="45.86044" lon="3.1775">
        <ele>322</ele>
        <time>2011-03-19T16:50:00.000Z</time>
      </trkpt>
      <trkpt lat="45.8603" lon="3.17783">
        <ele>322</ele>
        <time>2011-03-19T16:50:04.000Z</time>
      </trkpt>
      <trkpt lat="45.86009" lon="3.17807">
        <ele>321.60000610352</ele>
        <time>2011-03-19T16:50:08.000Z</time>
      </trkpt>
      <trkpt lat="45.85995" lon="3.1781">
        <ele>321.60000610352</ele>
        <time>2011-03-19T16:50:10.000Z</time>
      </trkpt>
      <trkpt lat="45.85981" lon="3.1781">
        <ele>321.39999389648</ele>
        <time>2011-03-19T16:50:12.000Z</time>
      </trkpt>
      <trkpt lat="45.85949" lon="3.17825">
        <ele>321.60000610352</ele>
        <time>2011-03-19T16:50:17.000Z</time>
      </trkpt>
      <trkpt lat="45.85892" lon="3.17863">
        <ele>322.20001220703</ele>
        <time>2011-03-19T16:50:26.000Z</time>
      </trkpt>
      <trkpt lat="45.85841" lon="3.17905">
        <ele>321.79998779297</ele>
        <time>2011-03-19T16:50:34.000Z</time>
      </trkpt>
      <trkpt lat="45.85804" lon="3.17936">
        <ele>321.79998779297</ele>
        <time>2011-03-19T16:50:40.000Z</time>
      </trkpt>
      <trkpt lat="45.85768" lon="3.17946">
        <ele>321.60000610352</ele>
        <time>2011-03-19T16:50:45.000Z</time>
      </trkpt>
      <trkpt lat="45.85747" lon="3.17939">
        <ele>321.60000610352</ele>
        <time>2011-03-19T16:50:48.000Z</time>
      </trkpt>
      <trkpt lat="45.85696" lon="3.17925">
        <ele>321.39999389648</ele>
        <time>2011-03-19T16:50:55.000Z</time>
      </trkpt>
      <trkpt lat="45.85632" lon="3.17927">
        <ele>321.39999389648</ele>
        <time>2011-03-19T16:51:04.000Z</time>
      </trkpt>
      <trkpt lat="45.85584" lon="3.1793">
        <ele>321.79998779297</ele>
        <time>2011-03-19T16:51:11.000Z</time>
      </trkpt>
      <trkpt lat="45.8555" lon="3.17912">
        <ele>322</ele>
        <time>2011-03-19T16:51:16.000Z</time>
      </trkpt>
      <trkpt lat="45.85544" lon="3.17904">
        <ele>322</ele>
        <time>2011-03-19T16:51:17.000Z</time>
      </trkpt>
      <trkpt lat="45.8549" lon="3.17832">
        <ele>321.60000610352</ele>
        <time>2011-03-19T16:51:27.000Z</time>
      </trkpt>
      <trkpt lat="45.85446" lon="3.17783">
        <ele>321.60000610352</ele>
        <time>2011-03-19T16:51:35.000Z</time>
      </trkpt>
      <trkpt lat="45.8542" lon="3.1774">
        <ele>322.39999389648</ele>
        <time>2011-03-19T16:51:41.000Z</time>
      </trkpt>
      <trkpt lat="45.85406" lon="3.1769">
        <ele>322.79998779297</ele>
        <time>2011-03-19T16:51:47.000Z</time>
      </trkpt>
      <trkpt lat="45.85401" lon="3.17666">
        <ele>322.79998779297</ele>
        <time>2011-03-19T16:51:50.000Z</time>
      </trkpt>
      <trkpt lat="45.85386" lon="3.17633">
        <ele>323</ele>
        <time>2011-03-19T16:51:55.000Z</time>
      </trkpt>
      <trkpt lat="45.85371" lon="3.17629">
        <ele>322.79998779297</ele>
        <time>2011-03-19T16:51:58.000Z</time>
      </trkpt>
      <trkpt lat="45.85361" lon="3.17631">
        <ele>322.79998779297</ele>
        <time>2011-03-19T16:52:00.000Z</time>
      </trkpt>
      <trkpt lat="45.85335" lon="3.17624">
        <ele>322.79998779297</ele>
        <time>2011-03-19T16:52:05.000Z</time>
      </trkpt>
      <trkpt lat="45.85319" lon="3.17632">
        <ele>322.79998779297</ele>
        <time>2011-03-19T16:52:08.000Z</time>
      </trkpt>
      <trkpt lat="45.85311" lon="3.17657">
        <ele>322.79998779297</ele>
        <time>2011-03-19T16:52:11.000Z</time>
      </trkpt>
      <trkpt lat="45.85299" lon="3.177">
        <ele>322.60000610352</ele>
        <time>2011-03-19T16:52:16.000Z</time>
      </trkpt>
      <trkpt lat="45.85291" lon="3.17716">
        <ele>322.20001220703</ele>
        <time>2011-03-19T16:52:18.000Z</time>
      </trkpt>
      <trkpt lat="45.85278" lon="3.17774">
        <ele>321.79998779297</ele>
        <time>2011-03-19T16:52:24.000Z</time>
      </trkpt>
      <trkpt lat="45.85263" lon="3.17857">
        <ele>321.79998779297</ele>
        <time>2011-03-19T16:52:33.000Z</time>
      </trkpt>
      <trkpt lat="45.85252" lon="3.17906">
        <ele>322</ele>
        <time>2011-03-19T16:52:38.000Z</time>
      </trkpt>
      <trkpt lat="45.8523" lon="3.17948">
        <ele>321.60000610352</ele>
        <time>2011-03-19T16:52:43.000Z</time>
      </trkpt>
      <trkpt lat="45.85224" lon="3.17954">
        <ele>321.39999389648</ele>
        <time>2011-03-19T16:52:44.000Z</time>
      </trkpt>
      <trkpt lat="45.85178" lon="3.18">
        <ele>320.79998779297</ele>
        <time>2011-03-19T16:52:52.000Z</time>
      </trkpt>
      <trkpt lat="45.85163" lon="3.18016">
        <ele>321</ele>
        <time>2011-03-19T16:52:55.000Z</time>
      </trkpt>
      <trkpt lat="45.8515" lon="3.18035">
        <ele>321</ele>
        <time>2011-03-19T16:52:58.000Z</time>
      </trkpt>
      <trkpt lat="45.85139" lon="3.18037">
        <ele>321.20001220703</ele>
        <time>2011-03-19T16:53:01.000Z</time>
      </trkpt>
      <trkpt lat="45.85133" lon="3.18023">
        <ele>321.39999389648</ele>
        <time>2011-03-19T16:53:03.000Z</time>
      </trkpt>
      <trkpt lat="45.85108" lon="3.17964">
        <ele>321.60000610352</ele>
        <time>2011-03-19T16:53:10.000Z</time>
      </trkpt>
      <trkpt lat="45.85081" lon="3.17933">
        <ele>321.60000610352</ele>
        <time>2011-03-19T16:53:15.000Z</time>
      </trkpt>
      <trkpt lat="45.85068" lon="3.17925">
        <ele>321.79998779297</ele>
        <time>2011-03-19T16:53:17.000Z</time>
      </trkpt>
      <trkpt lat="45.85002" lon="3.17903">
        <ele>322</ele>
        <time>2011-03-19T16:53:26.000Z</time>
      </trkpt>
      <trkpt lat="45.84938" lon="3.17884">
        <ele>322.20001220703</ele>
        <time>2011-03-19T16:53:35.000Z</time>
      </trkpt>
      <trkpt lat="45.84917" lon="3.17864">
        <ele>322.20001220703</ele>
        <time>2011-03-19T16:53:39.000Z</time>
      </trkpt>
      <trkpt lat="45.84915" lon="3.17845">
        <ele>322</ele>
        <time>2011-03-19T16:53:41.000Z</time>
      </trkpt>
      <trkpt lat="45.84916" lon="3.17826">
        <ele>322</ele>
        <time>2011-03-19T16:53:43.000Z</time>
      </trkpt>
      <trkpt lat="45.8491" lon="3.17737">
        <ele>322.60000610352</ele>
        <time>2011-03-19T16:53:52.000Z</time>
      </trkpt>
      <trkpt lat="45.849" lon="3.17619">
        <ele>322.60000610352</ele>
        <time>2011-03-19T16:54:04.000Z</time>
      </trkpt>
      <trkpt lat="45.84897" lon="3.17506">
        <ele>322.39999389648</ele>
        <time>2011-03-19T16:54:15.000Z</time>
      </trkpt>
      <trkpt lat="45.84892" lon="3.17389">
        <ele>322.20001220703</ele>
        <time>2011-03-19T16:54:27.000Z</time>
      </trkpt>
      <trkpt lat="45.84889" lon="3.17314">
        <ele>322.60000610352</ele>
        <time>2011-03-19T16:54:35.000Z</time>
      </trkpt>
      <trkpt lat="45.84887" lon="3.17274">
        <ele>322.60000610352</ele>
        <time>2011-03-19T16:54:41.000Z</time>
      </trkpt>
      <trkpt lat="45.84899" lon="3.17269">
        <ele>322.39999389648</ele>
        <time>2011-03-19T16:54:46.000Z</time>
      </trkpt>
      <trkpt lat="45.8491" lon="3.17268">
        <ele>322.20001220703</ele>
        <time>2011-03-19T16:54:51.000Z</time>
      </trkpt>
      <trkpt lat="45.8491" lon="3.17268">
        <ele>322.20001220703</ele>
        <time>2011-03-19T16:54:52.000Z</time>
      </trkpt>
    </trkseg>
  </trk>
</gpx>